<?xml version="1.0" encoding="UTF-8" standalone="no" ?>
<gpx xmlns="http://www.topografix.com/GPX/1/1" xmlns:xsi="http://www.w3.org/2001/XMLSchema-instance" xsi:schemaLocation="http://www.topografix.com/GPX/1/1 http://www.topografix.com/GPX/1/1/gpx.xsd" version="1.1" creator="VisuGPX - https://www.visugpx.com">
  <metadata>
    <name>RAQUETTE</name>
    <desc><![CDATA[SORTIE RAQUETTE ADEM
FICHIER MARC MOITRIER]]></desc>
  </metadata>
  <wpt lat="48.06572" lon="6.99552">
    <ele>1070.9296875</ele>
    <name><![CDATA[Hôtel de Balveurche]]></name>
    <desc><![CDATA[Chemin]]></desc>
    <cmt><![CDATA[Chemin]]></cmt>
  </wpt>
  <wpt lat="47.96034" lon="6.9213">
    <ele>1148</ele>
    <name><![CDATA[La Chaume à VENTRON]]></name>
    <desc><![CDATA[La Chaume

]]></desc>
    <cmt><![CDATA[La Chaume

]]></cmt>
  </wpt>
  <trk>
    <name><![CDATA[21-JAN-12 16:36:00]]></name>
    <trkseg>
      <trkpt lat="48.00341" lon="6.84824">
        <ele>855.23</ele>
        <time>2012-01-21T12:11:19Z</time>
      </trkpt>
      <trkpt lat="48.00341" lon="6.84825">
        <ele>858.11</ele>
        <time>2012-01-21T12:11:30Z</time>
      </trkpt>
      <trkpt lat="48.00343" lon="6.84822">
        <ele>861.48</ele>
        <time>2012-01-21T12:12:05Z</time>
      </trkpt>
      <trkpt lat="48.00343" lon="6.8482">
        <ele>860.04</ele>
        <time>2012-01-21T12:12:18Z</time>
      </trkpt>
      <trkpt lat="48.00342" lon="6.84823">
        <ele>861.48</ele>
        <time>2012-01-21T12:13:11Z</time>
      </trkpt>
      <trkpt lat="48.00342" lon="6.84823">
        <ele>860.52</ele>
        <time>2012-01-21T12:13:40Z</time>
      </trkpt>
      <trkpt lat="48.00342" lon="6.84823">
        <ele>860.04</ele>
        <time>2012-01-21T12:13:57Z</time>
      </trkpt>
      <trkpt lat="48.00335" lon="6.84805">
        <ele>860.52</ele>
        <time>2012-01-21T12:14:02Z</time>
      </trkpt>
      <trkpt lat="48.00342" lon="6.84825">
        <ele>864.36</ele>
        <time>2012-01-21T12:15:16Z</time>
      </trkpt>
      <trkpt lat="48.00342" lon="6.84824">
        <ele>863.4</ele>
        <time>2012-01-21T12:15:17Z</time>
      </trkpt>
      <trkpt lat="48.00342" lon="6.84824">
        <ele>859.08</ele>
        <time>2012-01-21T12:15:20Z</time>
      </trkpt>
      <trkpt lat="48.00339" lon="6.84819">
        <ele>862.92</ele>
        <time>2012-01-21T12:15:34Z</time>
      </trkpt>
      <trkpt lat="48.00338" lon="6.8482">
        <ele>862.44</ele>
        <time>2012-01-21T12:16:47Z</time>
      </trkpt>
      <trkpt lat="48.00338" lon="6.8482">
        <ele>867.25</ele>
        <time>2012-01-21T14:14:06Z</time>
      </trkpt>
      <trkpt lat="48.00369" lon="6.84745">
        <ele>866.29</ele>
        <time>2012-01-21T14:14:08Z</time>
      </trkpt>
      <trkpt lat="48.00361" lon="6.84771">
        <ele>868.69</ele>
        <time>2012-01-21T14:14:20Z</time>
      </trkpt>
      <trkpt lat="48.0036" lon="6.84775">
        <ele>865.32</ele>
        <time>2012-01-21T14:14:22Z</time>
      </trkpt>
      <trkpt lat="48.0036" lon="6.84781">
        <ele>868.21</ele>
        <time>2012-01-21T14:14:32Z</time>
      </trkpt>
      <trkpt lat="48.00358" lon="6.84785">
        <ele>869.65</ele>
        <time>2012-01-21T14:14:37Z</time>
      </trkpt>
      <trkpt lat="48.00348" lon="6.84795">
        <ele>868.69</ele>
        <time>2012-01-21T14:14:54Z</time>
      </trkpt>
      <trkpt lat="48.00347" lon="6.84803">
        <ele>867.73</ele>
        <time>2012-01-21T14:15:08Z</time>
      </trkpt>
      <trkpt lat="48.00348" lon="6.84793">
        <ele>870.61</ele>
        <time>2012-01-21T14:15:16Z</time>
      </trkpt>
      <trkpt lat="48.00345" lon="6.84784">
        <ele>869.65</ele>
        <time>2012-01-21T14:15:26Z</time>
      </trkpt>
      <trkpt lat="48.00339" lon="6.84782">
        <ele>870.13</ele>
        <time>2012-01-21T14:15:36Z</time>
      </trkpt>
      <trkpt lat="48.00334" lon="6.84786">
        <ele>872.05</ele>
        <time>2012-01-21T14:15:41Z</time>
      </trkpt>
      <trkpt lat="48.00318" lon="6.84798">
        <ele>874.94</ele>
        <time>2012-01-21T14:15:57Z</time>
      </trkpt>
      <trkpt lat="48.00317" lon="6.84798">
        <ele>874.46</ele>
        <time>2012-01-21T14:15:58Z</time>
      </trkpt>
      <trkpt lat="48.00301" lon="6.848">
        <ele>874.94</ele>
        <time>2012-01-21T14:16:13Z</time>
      </trkpt>
      <trkpt lat="48.00281" lon="6.84808">
        <ele>875.9</ele>
        <time>2012-01-21T14:16:30Z</time>
      </trkpt>
      <trkpt lat="48.00261" lon="6.84801">
        <ele>878.3</ele>
        <time>2012-01-21T14:16:49Z</time>
      </trkpt>
      <trkpt lat="48.00243" lon="6.84793">
        <ele>879.74</ele>
        <time>2012-01-21T14:17:07Z</time>
      </trkpt>
      <trkpt lat="48.00228" lon="6.84784">
        <ele>882.15</ele>
        <time>2012-01-21T14:17:22Z</time>
      </trkpt>
      <trkpt lat="48.00218" lon="6.84779">
        <ele>884.07</ele>
        <time>2012-01-21T14:17:36Z</time>
      </trkpt>
      <trkpt lat="48.00201" lon="6.84769">
        <ele>886.95</ele>
        <time>2012-01-21T14:17:53Z</time>
      </trkpt>
      <trkpt lat="48.0019" lon="6.84761">
        <ele>889.84</ele>
        <time>2012-01-21T14:18:06Z</time>
      </trkpt>
      <trkpt lat="48.00184" lon="6.84755">
        <ele>891.28</ele>
        <time>2012-01-21T14:18:17Z</time>
      </trkpt>
      <trkpt lat="48.00171" lon="6.84745">
        <ele>893.2</ele>
        <time>2012-01-21T14:18:32Z</time>
      </trkpt>
      <trkpt lat="48.00162" lon="6.84739">
        <ele>895.12</ele>
        <time>2012-01-21T14:18:46Z</time>
      </trkpt>
      <trkpt lat="48.00153" lon="6.84729">
        <ele>897.05</ele>
        <time>2012-01-21T14:18:58Z</time>
      </trkpt>
      <trkpt lat="48.00143" lon="6.84721">
        <ele>900.41</ele>
        <time>2012-01-21T14:19:08Z</time>
      </trkpt>
      <trkpt lat="48.00135" lon="6.84712">
        <ele>900.89</ele>
        <time>2012-01-21T14:19:19Z</time>
      </trkpt>
      <trkpt lat="48.00133" lon="6.8471">
        <ele>901.37</ele>
        <time>2012-01-21T14:19:21Z</time>
      </trkpt>
      <trkpt lat="48.00115" lon="6.84686">
        <ele>902.33</ele>
        <time>2012-01-21T14:19:40Z</time>
      </trkpt>
      <trkpt lat="48.00104" lon="6.84669">
        <ele>903.3</ele>
        <time>2012-01-21T14:19:55Z</time>
      </trkpt>
      <trkpt lat="48.00096" lon="6.84652">
        <ele>903.78</ele>
        <time>2012-01-21T14:20:08Z</time>
      </trkpt>
      <trkpt lat="48.00094" lon="6.84648">
        <ele>904.74</ele>
        <time>2012-01-21T14:20:11Z</time>
      </trkpt>
      <trkpt lat="48.00091" lon="6.84642">
        <ele>905.22</ele>
        <time>2012-01-21T14:20:15Z</time>
      </trkpt>
      <trkpt lat="48.00082" lon="6.84616">
        <ele>906.18</ele>
        <time>2012-01-21T14:20:32Z</time>
      </trkpt>
      <trkpt lat="48.00074" lon="6.84591">
        <ele>906.18</ele>
        <time>2012-01-21T14:20:48Z</time>
      </trkpt>
      <trkpt lat="48.00071" lon="6.84564">
        <ele>906.66</ele>
        <time>2012-01-21T14:21:05Z</time>
      </trkpt>
      <trkpt lat="48.00069" lon="6.84534">
        <ele>907.62</ele>
        <time>2012-01-21T14:21:23Z</time>
      </trkpt>
      <trkpt lat="48.00069" lon="6.84499">
        <ele>908.1</ele>
        <time>2012-01-21T14:21:42Z</time>
      </trkpt>
      <trkpt lat="48.00065" lon="6.84464">
        <ele>907.62</ele>
        <time>2012-01-21T14:22:02Z</time>
      </trkpt>
      <trkpt lat="48.00066" lon="6.84458">
        <ele>906.66</ele>
        <time>2012-01-21T14:22:05Z</time>
      </trkpt>
      <trkpt lat="48.00067" lon="6.84433">
        <ele>906.18</ele>
        <time>2012-01-21T14:22:20Z</time>
      </trkpt>
      <trkpt lat="48.0007" lon="6.84403">
        <ele>907.62</ele>
        <time>2012-01-21T14:22:37Z</time>
      </trkpt>
      <trkpt lat="48.00071" lon="6.84373">
        <ele>907.62</ele>
        <time>2012-01-21T14:22:55Z</time>
      </trkpt>
      <trkpt lat="48.00074" lon="6.8435">
        <ele>907.62</ele>
        <time>2012-01-21T14:23:07Z</time>
      </trkpt>
      <trkpt lat="48.00077" lon="6.84317">
        <ele>907.62</ele>
        <time>2012-01-21T14:23:25Z</time>
      </trkpt>
      <trkpt lat="48.00079" lon="6.84295">
        <ele>907.14</ele>
        <time>2012-01-21T14:23:37Z</time>
      </trkpt>
      <trkpt lat="48.00081" lon="6.84279">
        <ele>907.14</ele>
        <time>2012-01-21T14:23:45Z</time>
      </trkpt>
      <trkpt lat="48.00086" lon="6.84251">
        <ele>908.58</ele>
        <time>2012-01-21T14:24:03Z</time>
      </trkpt>
      <trkpt lat="48.00088" lon="6.84232">
        <ele>908.58</ele>
        <time>2012-01-21T14:24:15Z</time>
      </trkpt>
      <trkpt lat="48.00093" lon="6.84205">
        <ele>909.54</ele>
        <time>2012-01-21T14:24:30Z</time>
      </trkpt>
      <trkpt lat="48.00096" lon="6.84175">
        <ele>909.54</ele>
        <time>2012-01-21T14:24:47Z</time>
      </trkpt>
      <trkpt lat="48.001" lon="6.84157">
        <ele>909.06</ele>
        <time>2012-01-21T14:24:59Z</time>
      </trkpt>
      <trkpt lat="48.00102" lon="6.84154">
        <ele>910.03</ele>
        <time>2012-01-21T14:25:01Z</time>
      </trkpt>
      <trkpt lat="48.00102" lon="6.84145">
        <ele>908.58</ele>
        <time>2012-01-21T14:25:06Z</time>
      </trkpt>
      <trkpt lat="48.00107" lon="6.84116">
        <ele>909.06</ele>
        <time>2012-01-21T14:25:22Z</time>
      </trkpt>
      <trkpt lat="48.00113" lon="6.84097">
        <ele>909.06</ele>
        <time>2012-01-21T14:25:35Z</time>
      </trkpt>
      <trkpt lat="48.00115" lon="6.8408">
        <ele>909.54</ele>
        <time>2012-01-21T14:25:49Z</time>
      </trkpt>
      <trkpt lat="48.0012" lon="6.84065">
        <ele>909.54</ele>
        <time>2012-01-21T14:26:00Z</time>
      </trkpt>
      <trkpt lat="48.00128" lon="6.84051">
        <ele>909.06</ele>
        <time>2012-01-21T14:26:12Z</time>
      </trkpt>
      <trkpt lat="48.0013" lon="6.84042">
        <ele>909.06</ele>
        <time>2012-01-21T14:26:20Z</time>
      </trkpt>
      <trkpt lat="48.00136" lon="6.84034">
        <ele>909.06</ele>
        <time>2012-01-21T14:26:29Z</time>
      </trkpt>
      <trkpt lat="48.00139" lon="6.84026">
        <ele>909.54</ele>
        <time>2012-01-21T14:26:34Z</time>
      </trkpt>
      <trkpt lat="48.00143" lon="6.8401">
        <ele>910.03</ele>
        <time>2012-01-21T14:26:46Z</time>
      </trkpt>
      <trkpt lat="48.00145" lon="6.83994">
        <ele>910.51</ele>
        <time>2012-01-21T14:26:56Z</time>
      </trkpt>
      <trkpt lat="48.00147" lon="6.83988">
        <ele>910.99</ele>
        <time>2012-01-21T14:27:02Z</time>
      </trkpt>
      <trkpt lat="48.00154" lon="6.8397">
        <ele>911.47</ele>
        <time>2012-01-21T14:27:18Z</time>
      </trkpt>
      <trkpt lat="48.00155" lon="6.83954">
        <ele>911.47</ele>
        <time>2012-01-21T14:27:31Z</time>
      </trkpt>
      <trkpt lat="48.00156" lon="6.83935">
        <ele>910.51</ele>
        <time>2012-01-21T14:27:45Z</time>
      </trkpt>
      <trkpt lat="48.00154" lon="6.83921">
        <ele>909.54</ele>
        <time>2012-01-21T14:27:55Z</time>
      </trkpt>
      <trkpt lat="48.00148" lon="6.83904">
        <ele>908.1</ele>
        <time>2012-01-21T14:28:09Z</time>
      </trkpt>
      <trkpt lat="48.00146" lon="6.83897">
        <ele>907.14</ele>
        <time>2012-01-21T14:28:14Z</time>
      </trkpt>
      <trkpt lat="48.00139" lon="6.83881">
        <ele>906.18</ele>
        <time>2012-01-21T14:28:25Z</time>
      </trkpt>
      <trkpt lat="48.00131" lon="6.83864">
        <ele>904.74</ele>
        <time>2012-01-21T14:28:36Z</time>
      </trkpt>
      <trkpt lat="48.00131" lon="6.83859">
        <ele>903.78</ele>
        <time>2012-01-21T14:28:41Z</time>
      </trkpt>
      <trkpt lat="48.0013" lon="6.8385">
        <ele>903.3</ele>
        <time>2012-01-21T14:28:55Z</time>
      </trkpt>
      <trkpt lat="48.00133" lon="6.83855">
        <ele>904.26</ele>
        <time>2012-01-21T14:30:41Z</time>
      </trkpt>
      <trkpt lat="48.00134" lon="6.83858">
        <ele>904.26</ele>
        <time>2012-01-21T14:31:29Z</time>
      </trkpt>
      <trkpt lat="48.00134" lon="6.83855">
        <ele>903.78</ele>
        <time>2012-01-21T14:32:19Z</time>
      </trkpt>
      <trkpt lat="48.00132" lon="6.83846">
        <ele>902.33</ele>
        <time>2012-01-21T14:32:34Z</time>
      </trkpt>
      <trkpt lat="48.00128" lon="6.83824">
        <ele>901.37</ele>
        <time>2012-01-21T14:32:48Z</time>
      </trkpt>
      <trkpt lat="48.00127" lon="6.83812">
        <ele>900.41</ele>
        <time>2012-01-21T14:33:00Z</time>
      </trkpt>
      <trkpt lat="48.00124" lon="6.83797">
        <ele>900.41</ele>
        <time>2012-01-21T14:33:13Z</time>
      </trkpt>
      <trkpt lat="48.00121" lon="6.83778">
        <ele>899.93</ele>
        <time>2012-01-21T14:34:15Z</time>
      </trkpt>
      <trkpt lat="48.00118" lon="6.83764">
        <ele>899.93</ele>
        <time>2012-01-21T14:34:24Z</time>
      </trkpt>
      <trkpt lat="48.00116" lon="6.83752">
        <ele>898.01</ele>
        <time>2012-01-21T14:34:36Z</time>
      </trkpt>
      <trkpt lat="48.00113" lon="6.83735">
        <ele>897.53</ele>
        <time>2012-01-21T14:34:50Z</time>
      </trkpt>
      <trkpt lat="48.00109" lon="6.83721">
        <ele>897.05</ele>
        <time>2012-01-21T14:35:02Z</time>
      </trkpt>
      <trkpt lat="48.00103" lon="6.83709">
        <ele>897.53</ele>
        <time>2012-01-21T14:35:15Z</time>
      </trkpt>
      <trkpt lat="48.00103" lon="6.83708">
        <ele>898.01</ele>
        <time>2012-01-21T14:35:18Z</time>
      </trkpt>
      <trkpt lat="48.00094" lon="6.83703">
        <ele>898.01</ele>
        <time>2012-01-21T14:35:31Z</time>
      </trkpt>
      <trkpt lat="48.0008" lon="6.83696">
        <ele>898.97</ele>
        <time>2012-01-21T14:35:45Z</time>
      </trkpt>
      <trkpt lat="48.0007" lon="6.83693">
        <ele>900.41</ele>
        <time>2012-01-21T14:35:57Z</time>
      </trkpt>
      <trkpt lat="48.00062" lon="6.8369">
        <ele>900.89</ele>
        <time>2012-01-21T14:36:07Z</time>
      </trkpt>
      <trkpt lat="48.00051" lon="6.83678">
        <ele>903.78</ele>
        <time>2012-01-21T14:36:22Z</time>
      </trkpt>
      <trkpt lat="48.00044" lon="6.83666">
        <ele>901.85</ele>
        <time>2012-01-21T14:36:34Z</time>
      </trkpt>
      <trkpt lat="48.00035" lon="6.83656">
        <ele>898.49</ele>
        <time>2012-01-21T14:36:51Z</time>
      </trkpt>
      <trkpt lat="48.00019" lon="6.83645">
        <ele>896.57</ele>
        <time>2012-01-21T14:37:03Z</time>
      </trkpt>
      <trkpt lat="48.00011" lon="6.83634">
        <ele>893.68</ele>
        <time>2012-01-21T14:37:17Z</time>
      </trkpt>
      <trkpt lat="48.00007" lon="6.83627">
        <ele>891.76</ele>
        <time>2012-01-21T14:37:24Z</time>
      </trkpt>
      <trkpt lat="47.99994" lon="6.83614">
        <ele>890.8</ele>
        <time>2012-01-21T14:37:36Z</time>
      </trkpt>
      <trkpt lat="47.99987" lon="6.83608">
        <ele>890.8</ele>
        <time>2012-01-21T14:37:50Z</time>
      </trkpt>
      <trkpt lat="47.99975" lon="6.83593">
        <ele>889.84</ele>
        <time>2012-01-21T14:38:02Z</time>
      </trkpt>
      <trkpt lat="47.99972" lon="6.83589">
        <ele>888.4</ele>
        <time>2012-01-21T14:38:17Z</time>
      </trkpt>
      <trkpt lat="47.99965" lon="6.83564">
        <ele>887.91</ele>
        <time>2012-01-21T14:44:44Z</time>
      </trkpt>
      <trkpt lat="47.99956" lon="6.83561">
        <ele>886.95</ele>
        <time>2012-01-21T14:44:56Z</time>
      </trkpt>
      <trkpt lat="47.99949" lon="6.8356">
        <ele>884.55</ele>
        <time>2012-01-21T14:45:04Z</time>
      </trkpt>
      <trkpt lat="47.99946" lon="6.8356">
        <ele>884.55</ele>
        <time>2012-01-21T14:45:06Z</time>
      </trkpt>
      <trkpt lat="47.99938" lon="6.83561">
        <ele>883.59</ele>
        <time>2012-01-21T14:45:10Z</time>
      </trkpt>
      <trkpt lat="47.99928" lon="6.83563">
        <ele>884.07</ele>
        <time>2012-01-21T14:45:21Z</time>
      </trkpt>
      <trkpt lat="47.99917" lon="6.83562">
        <ele>880.71</ele>
        <time>2012-01-21T14:45:34Z</time>
      </trkpt>
      <trkpt lat="47.99908" lon="6.83564">
        <ele>881.67</ele>
        <time>2012-01-21T14:45:48Z</time>
      </trkpt>
      <trkpt lat="47.99904" lon="6.83564">
        <ele>880.71</ele>
        <time>2012-01-21T14:46:10Z</time>
      </trkpt>
      <trkpt lat="47.99893" lon="6.83573">
        <ele>878.3</ele>
        <time>2012-01-21T14:46:25Z</time>
      </trkpt>
      <trkpt lat="47.99881" lon="6.83575">
        <ele>875.9</ele>
        <time>2012-01-21T14:46:46Z</time>
      </trkpt>
      <trkpt lat="47.99874" lon="6.83575">
        <ele>873.01</ele>
        <time>2012-01-21T14:46:55Z</time>
      </trkpt>
      <trkpt lat="47.99864" lon="6.83571">
        <ele>872.53</ele>
        <time>2012-01-21T14:47:05Z</time>
      </trkpt>
      <trkpt lat="47.99848" lon="6.8357">
        <ele>871.09</ele>
        <time>2012-01-21T14:47:17Z</time>
      </trkpt>
      <trkpt lat="47.99841" lon="6.8357">
        <ele>870.13</ele>
        <time>2012-01-21T14:47:24Z</time>
      </trkpt>
      <trkpt lat="47.99834" lon="6.83571">
        <ele>870.13</ele>
        <time>2012-01-21T14:47:31Z</time>
      </trkpt>
      <trkpt lat="47.99827" lon="6.83567">
        <ele>867.73</ele>
        <time>2012-01-21T14:47:38Z</time>
      </trkpt>
      <trkpt lat="47.99815" lon="6.83563">
        <ele>867.25</ele>
        <time>2012-01-21T14:47:51Z</time>
      </trkpt>
      <trkpt lat="47.99804" lon="6.83564">
        <ele>865.8</ele>
        <time>2012-01-21T14:48:02Z</time>
      </trkpt>
      <trkpt lat="47.99801" lon="6.83565">
        <ele>864.36</ele>
        <time>2012-01-21T14:48:27Z</time>
      </trkpt>
      <trkpt lat="47.99801" lon="6.83565">
        <ele>855.23</ele>
        <time>2012-01-21T14:48:42Z</time>
      </trkpt>
      <trkpt lat="47.99801" lon="6.83565">
        <ele>864.84</ele>
        <time>2012-01-21T14:48:43Z</time>
      </trkpt>
      <trkpt lat="47.99801" lon="6.83565">
        <ele>865.32</ele>
        <time>2012-01-21T14:48:58Z</time>
      </trkpt>
      <trkpt lat="47.99798" lon="6.83568">
        <ele>863.4</ele>
        <time>2012-01-21T14:54:12Z</time>
      </trkpt>
      <trkpt lat="47.99792" lon="6.83567">
        <ele>861.96</ele>
        <time>2012-01-21T14:54:24Z</time>
      </trkpt>
      <trkpt lat="47.99778" lon="6.83569">
        <ele>860.04</ele>
        <time>2012-01-21T14:54:39Z</time>
      </trkpt>
      <trkpt lat="47.99768" lon="6.83573">
        <ele>859.56</ele>
        <time>2012-01-21T14:54:51Z</time>
      </trkpt>
      <trkpt lat="47.9976" lon="6.83578">
        <ele>859.56</ele>
        <time>2012-01-21T14:55:02Z</time>
      </trkpt>
      <trkpt lat="47.99748" lon="6.83581">
        <ele>859.56</ele>
        <time>2012-01-21T14:55:14Z</time>
      </trkpt>
      <trkpt lat="47.99742" lon="6.83581">
        <ele>859.56</ele>
        <time>2012-01-21T14:55:26Z</time>
      </trkpt>
      <trkpt lat="47.99735" lon="6.83583">
        <ele>860.04</ele>
        <time>2012-01-21T14:55:40Z</time>
      </trkpt>
      <trkpt lat="47.99729" lon="6.83583">
        <ele>861</ele>
        <time>2012-01-21T14:55:54Z</time>
      </trkpt>
      <trkpt lat="47.99722" lon="6.83584">
        <ele>861.48</ele>
        <time>2012-01-21T14:56:04Z</time>
      </trkpt>
      <trkpt lat="47.99719" lon="6.8359">
        <ele>861.48</ele>
        <time>2012-01-21T14:56:17Z</time>
      </trkpt>
      <trkpt lat="47.99714" lon="6.83604">
        <ele>860.04</ele>
        <time>2012-01-21T14:56:28Z</time>
      </trkpt>
      <trkpt lat="47.99705" lon="6.83618">
        <ele>859.56</ele>
        <time>2012-01-21T14:56:41Z</time>
      </trkpt>
      <trkpt lat="47.997" lon="6.83633">
        <ele>859.08</ele>
        <time>2012-01-21T14:56:52Z</time>
      </trkpt>
      <trkpt lat="47.99694" lon="6.83651">
        <ele>857.63</ele>
        <time>2012-01-21T14:57:03Z</time>
      </trkpt>
      <trkpt lat="47.99682" lon="6.83668">
        <ele>857.15</ele>
        <time>2012-01-21T14:57:15Z</time>
      </trkpt>
      <trkpt lat="47.99678" lon="6.83685">
        <ele>856.67</ele>
        <time>2012-01-21T14:57:24Z</time>
      </trkpt>
      <trkpt lat="47.99676" lon="6.83689">
        <ele>856.19</ele>
        <time>2012-01-21T14:57:47Z</time>
      </trkpt>
      <trkpt lat="47.9967" lon="6.837">
        <ele>855.71</ele>
        <time>2012-01-21T14:58:38Z</time>
      </trkpt>
      <trkpt lat="47.99659" lon="6.83716">
        <ele>854.27</ele>
        <time>2012-01-21T14:58:53Z</time>
      </trkpt>
      <trkpt lat="47.99652" lon="6.83728">
        <ele>853.79</ele>
        <time>2012-01-21T14:59:03Z</time>
      </trkpt>
      <trkpt lat="47.99643" lon="6.83745">
        <ele>853.31</ele>
        <time>2012-01-21T14:59:16Z</time>
      </trkpt>
      <trkpt lat="47.99634" lon="6.83761">
        <ele>850.9</ele>
        <time>2012-01-21T14:59:31Z</time>
      </trkpt>
      <trkpt lat="47.99627" lon="6.8377">
        <ele>850.9</ele>
        <time>2012-01-21T14:59:42Z</time>
      </trkpt>
      <trkpt lat="47.99619" lon="6.83788">
        <ele>848.98</ele>
        <time>2012-01-21T14:59:56Z</time>
      </trkpt>
      <trkpt lat="47.99611" lon="6.83805">
        <ele>849.46</ele>
        <time>2012-01-21T15:00:12Z</time>
      </trkpt>
      <trkpt lat="47.99599" lon="6.83822">
        <ele>848.5</ele>
        <time>2012-01-21T15:00:27Z</time>
      </trkpt>
      <trkpt lat="47.99594" lon="6.83826">
        <ele>848.02</ele>
        <time>2012-01-21T15:00:42Z</time>
      </trkpt>
      <trkpt lat="47.99585" lon="6.83838">
        <ele>848.98</ele>
        <time>2012-01-21T15:01:08Z</time>
      </trkpt>
      <trkpt lat="47.99578" lon="6.83847">
        <ele>848.98</ele>
        <time>2012-01-21T15:01:19Z</time>
      </trkpt>
      <trkpt lat="47.99567" lon="6.83859">
        <ele>848.5</ele>
        <time>2012-01-21T15:01:33Z</time>
      </trkpt>
      <trkpt lat="47.99557" lon="6.83872">
        <ele>848.98</ele>
        <time>2012-01-21T15:01:47Z</time>
      </trkpt>
      <trkpt lat="47.99548" lon="6.83883">
        <ele>848.98</ele>
        <time>2012-01-21T15:02:00Z</time>
      </trkpt>
      <trkpt lat="47.99538" lon="6.83895">
        <ele>849.46</ele>
        <time>2012-01-21T15:02:16Z</time>
      </trkpt>
      <trkpt lat="47.99526" lon="6.83908">
        <ele>850.42</ele>
        <time>2012-01-21T15:02:32Z</time>
      </trkpt>
      <trkpt lat="47.9952" lon="6.83911">
        <ele>850.9</ele>
        <time>2012-01-21T15:02:40Z</time>
      </trkpt>
      <trkpt lat="47.99504" lon="6.83907">
        <ele>850.9</ele>
        <time>2012-01-21T15:02:56Z</time>
      </trkpt>
      <trkpt lat="47.99494" lon="6.839">
        <ele>850.9</ele>
        <time>2012-01-21T15:03:09Z</time>
      </trkpt>
      <trkpt lat="47.99492" lon="6.83899">
        <ele>849.46</ele>
        <time>2012-01-21T15:03:33Z</time>
      </trkpt>
      <trkpt lat="47.99488" lon="6.839">
        <ele>850.42</ele>
        <time>2012-01-21T15:03:59Z</time>
      </trkpt>
      <trkpt lat="47.99479" lon="6.83886">
        <ele>851.87</ele>
        <time>2012-01-21T15:04:16Z</time>
      </trkpt>
      <trkpt lat="47.99472" lon="6.8388">
        <ele>851.38</ele>
        <time>2012-01-21T15:04:23Z</time>
      </trkpt>
      <trkpt lat="47.99464" lon="6.83866">
        <ele>851.87</ele>
        <time>2012-01-21T15:04:39Z</time>
      </trkpt>
      <trkpt lat="47.99463" lon="6.83865">
        <ele>851.87</ele>
        <time>2012-01-21T15:04:40Z</time>
      </trkpt>
      <trkpt lat="47.99446" lon="6.8385">
        <ele>851.38</ele>
        <time>2012-01-21T15:04:56Z</time>
      </trkpt>
      <trkpt lat="47.9943" lon="6.83838">
        <ele>848.98</ele>
        <time>2012-01-21T15:05:10Z</time>
      </trkpt>
      <trkpt lat="47.99426" lon="6.83835">
        <ele>848.5</ele>
        <time>2012-01-21T15:05:15Z</time>
      </trkpt>
      <trkpt lat="47.9942" lon="6.83839">
        <ele>848.02</ele>
        <time>2012-01-21T15:05:34Z</time>
      </trkpt>
      <trkpt lat="47.99409" lon="6.83837">
        <ele>847.06</ele>
        <time>2012-01-21T15:11:27Z</time>
      </trkpt>
      <trkpt lat="47.99397" lon="6.8382">
        <ele>843.69</ele>
        <time>2012-01-21T15:11:42Z</time>
      </trkpt>
      <trkpt lat="47.9939" lon="6.83807">
        <ele>840.33</ele>
        <time>2012-01-21T15:11:53Z</time>
      </trkpt>
      <trkpt lat="47.99385" lon="6.83798">
        <ele>837.45</ele>
        <time>2012-01-21T15:12:00Z</time>
      </trkpt>
      <trkpt lat="47.9938" lon="6.83775">
        <ele>836.96</ele>
        <time>2012-01-21T15:12:13Z</time>
      </trkpt>
      <trkpt lat="47.99377" lon="6.83766">
        <ele>836.48</ele>
        <time>2012-01-21T15:12:17Z</time>
      </trkpt>
      <trkpt lat="47.99377" lon="6.83757">
        <ele>836</ele>
        <time>2012-01-21T15:12:21Z</time>
      </trkpt>
      <trkpt lat="47.99366" lon="6.83735">
        <ele>832.64</ele>
        <time>2012-01-21T15:12:35Z</time>
      </trkpt>
      <trkpt lat="47.99355" lon="6.83711">
        <ele>832.16</ele>
        <time>2012-01-21T15:12:51Z</time>
      </trkpt>
      <trkpt lat="47.99354" lon="6.83704">
        <ele>830.24</ele>
        <time>2012-01-21T15:12:57Z</time>
      </trkpt>
      <trkpt lat="47.99344" lon="6.83674">
        <ele>828.79</ele>
        <time>2012-01-21T15:13:15Z</time>
      </trkpt>
      <trkpt lat="47.99334" lon="6.83646">
        <ele>826.87</ele>
        <time>2012-01-21T15:13:30Z</time>
      </trkpt>
      <trkpt lat="47.99329" lon="6.83628">
        <ele>824.47</ele>
        <time>2012-01-21T15:13:40Z</time>
      </trkpt>
      <trkpt lat="47.9932" lon="6.83601">
        <ele>823.03</ele>
        <time>2012-01-21T15:13:58Z</time>
      </trkpt>
      <trkpt lat="47.99311" lon="6.83581">
        <ele>821.58</ele>
        <time>2012-01-21T15:14:09Z</time>
      </trkpt>
      <trkpt lat="47.99313" lon="6.83548">
        <ele>819.66</ele>
        <time>2012-01-21T15:14:26Z</time>
      </trkpt>
      <trkpt lat="47.99313" lon="6.83546">
        <ele>819.66</ele>
        <time>2012-01-21T15:14:27Z</time>
      </trkpt>
      <trkpt lat="47.99316" lon="6.83517">
        <ele>823.03</ele>
        <time>2012-01-21T15:14:43Z</time>
      </trkpt>
      <trkpt lat="47.99321" lon="6.83482">
        <ele>823.51</ele>
        <time>2012-01-21T15:15:01Z</time>
      </trkpt>
      <trkpt lat="47.99323" lon="6.83448">
        <ele>824.95</ele>
        <time>2012-01-21T15:15:20Z</time>
      </trkpt>
      <trkpt lat="47.99323" lon="6.8343">
        <ele>823.51</ele>
        <time>2012-01-21T15:15:31Z</time>
      </trkpt>
      <trkpt lat="47.99323" lon="6.8342">
        <ele>823.51</ele>
        <time>2012-01-21T15:15:36Z</time>
      </trkpt>
      <trkpt lat="47.99323" lon="6.83412">
        <ele>824.95</ele>
        <time>2012-01-21T15:15:40Z</time>
      </trkpt>
      <trkpt lat="47.99323" lon="6.83403">
        <ele>824.95</ele>
        <time>2012-01-21T15:15:44Z</time>
      </trkpt>
      <trkpt lat="47.99322" lon="6.8337">
        <ele>825.91</ele>
        <time>2012-01-21T15:16:02Z</time>
      </trkpt>
      <trkpt lat="47.99323" lon="6.83343">
        <ele>827.35</ele>
        <time>2012-01-21T15:16:17Z</time>
      </trkpt>
      <trkpt lat="47.99324" lon="6.83313">
        <ele>827.35</ele>
        <time>2012-01-21T15:16:33Z</time>
      </trkpt>
      <trkpt lat="47.99325" lon="6.83282">
        <ele>827.83</ele>
        <time>2012-01-21T15:16:50Z</time>
      </trkpt>
      <trkpt lat="47.99322" lon="6.83251">
        <ele>830.24</ele>
        <time>2012-01-21T15:17:07Z</time>
      </trkpt>
      <trkpt lat="47.99321" lon="6.83217">
        <ele>831.68</ele>
        <time>2012-01-21T15:17:25Z</time>
      </trkpt>
      <trkpt lat="47.9932" lon="6.83187">
        <ele>831.68</ele>
        <time>2012-01-21T15:17:41Z</time>
      </trkpt>
      <trkpt lat="47.9932" lon="6.83184">
        <ele>831.2</ele>
        <time>2012-01-21T15:17:43Z</time>
      </trkpt>
      <trkpt lat="47.99321" lon="6.8318">
        <ele>831.68</ele>
        <time>2012-01-21T15:17:47Z</time>
      </trkpt>
      <trkpt lat="47.99318" lon="6.83153">
        <ele>832.16</ele>
        <time>2012-01-21T15:18:03Z</time>
      </trkpt>
      <trkpt lat="47.99315" lon="6.83121">
        <ele>833.12</ele>
        <time>2012-01-21T15:18:19Z</time>
      </trkpt>
      <trkpt lat="47.99312" lon="6.83095">
        <ele>834.56</ele>
        <time>2012-01-21T15:18:34Z</time>
      </trkpt>
      <trkpt lat="47.99311" lon="6.83091">
        <ele>835.04</ele>
        <time>2012-01-21T15:18:36Z</time>
      </trkpt>
      <trkpt lat="47.9931" lon="6.83073">
        <ele>836</ele>
        <time>2012-01-21T15:18:46Z</time>
      </trkpt>
      <trkpt lat="47.99308" lon="6.83066">
        <ele>837.45</ele>
        <time>2012-01-21T15:18:50Z</time>
      </trkpt>
      <trkpt lat="47.99305" lon="6.83055">
        <ele>838.41</ele>
        <time>2012-01-21T15:18:55Z</time>
      </trkpt>
      <trkpt lat="47.99301" lon="6.83032">
        <ele>837.45</ele>
        <time>2012-01-21T15:19:07Z</time>
      </trkpt>
      <trkpt lat="47.99298" lon="6.82997">
        <ele>836.96</ele>
        <time>2012-01-21T15:19:24Z</time>
      </trkpt>
      <trkpt lat="47.99291" lon="6.82966">
        <ele>837.93</ele>
        <time>2012-01-21T15:19:43Z</time>
      </trkpt>
      <trkpt lat="47.9929" lon="6.82964">
        <ele>840.81</ele>
        <time>2012-01-21T15:19:44Z</time>
      </trkpt>
      <trkpt lat="47.99276" lon="6.82953">
        <ele>839.37</ele>
        <time>2012-01-21T15:19:58Z</time>
      </trkpt>
      <trkpt lat="47.99255" lon="6.82948">
        <ele>840.33</ele>
        <time>2012-01-21T15:20:14Z</time>
      </trkpt>
      <trkpt lat="47.9923" lon="6.82933">
        <ele>841.29</ele>
        <time>2012-01-21T15:20:34Z</time>
      </trkpt>
      <trkpt lat="47.99224" lon="6.8293">
        <ele>842.25</ele>
        <time>2012-01-21T15:20:39Z</time>
      </trkpt>
      <trkpt lat="47.99197" lon="6.82919">
        <ele>843.69</ele>
        <time>2012-01-21T15:21:00Z</time>
      </trkpt>
      <trkpt lat="47.99167" lon="6.82905">
        <ele>844.66</ele>
        <time>2012-01-21T15:21:22Z</time>
      </trkpt>
      <trkpt lat="47.9914" lon="6.82894">
        <ele>844.18</ele>
        <time>2012-01-21T15:21:41Z</time>
      </trkpt>
      <trkpt lat="47.99127" lon="6.82884">
        <ele>846.1</ele>
        <time>2012-01-21T15:21:51Z</time>
      </trkpt>
      <trkpt lat="47.99108" lon="6.8286">
        <ele>847.06</ele>
        <time>2012-01-21T15:22:10Z</time>
      </trkpt>
      <trkpt lat="47.99094" lon="6.82842">
        <ele>848.5</ele>
        <time>2012-01-21T15:22:23Z</time>
      </trkpt>
      <trkpt lat="47.99076" lon="6.82823">
        <ele>848.98</ele>
        <time>2012-01-21T15:22:40Z</time>
      </trkpt>
      <trkpt lat="47.99075" lon="6.82822">
        <ele>849.46</ele>
        <time>2012-01-21T15:22:41Z</time>
      </trkpt>
      <trkpt lat="47.99063" lon="6.82794">
        <ele>850.42</ele>
        <time>2012-01-21T15:22:57Z</time>
      </trkpt>
      <trkpt lat="47.99048" lon="6.82763">
        <ele>849.46</ele>
        <time>2012-01-21T15:23:16Z</time>
      </trkpt>
      <trkpt lat="47.99038" lon="6.82741">
        <ele>851.38</ele>
        <time>2012-01-21T15:23:30Z</time>
      </trkpt>
      <trkpt lat="47.99029" lon="6.82714">
        <ele>852.35</ele>
        <time>2012-01-21T15:23:45Z</time>
      </trkpt>
      <trkpt lat="47.99018" lon="6.8269">
        <ele>854.27</ele>
        <time>2012-01-21T15:23:59Z</time>
      </trkpt>
      <trkpt lat="47.99006" lon="6.82664">
        <ele>855.71</ele>
        <time>2012-01-21T15:24:16Z</time>
      </trkpt>
      <trkpt lat="47.98996" lon="6.82645">
        <ele>856.19</ele>
        <time>2012-01-21T15:24:29Z</time>
      </trkpt>
      <trkpt lat="47.98989" lon="6.82629">
        <ele>857.15</ele>
        <time>2012-01-21T15:24:40Z</time>
      </trkpt>
      <trkpt lat="47.98985" lon="6.8262">
        <ele>857.15</ele>
        <time>2012-01-21T15:24:48Z</time>
      </trkpt>
      <trkpt lat="47.98986" lon="6.8261">
        <ele>856.67</ele>
        <time>2012-01-21T15:24:54Z</time>
      </trkpt>
      <trkpt lat="47.98972" lon="6.82591">
        <ele>855.71</ele>
        <time>2012-01-21T15:25:04Z</time>
      </trkpt>
      <trkpt lat="47.98957" lon="6.82557">
        <ele>859.08</ele>
        <time>2012-01-21T15:25:24Z</time>
      </trkpt>
      <trkpt lat="47.98951" lon="6.82537">
        <ele>859.56</ele>
        <time>2012-01-21T15:25:35Z</time>
      </trkpt>
      <trkpt lat="47.98943" lon="6.82505">
        <ele>861.48</ele>
        <time>2012-01-21T15:25:52Z</time>
      </trkpt>
      <trkpt lat="47.98933" lon="6.8247">
        <ele>861</ele>
        <time>2012-01-21T15:26:11Z</time>
      </trkpt>
      <trkpt lat="47.98932" lon="6.82468">
        <ele>861</ele>
        <time>2012-01-21T15:26:12Z</time>
      </trkpt>
      <trkpt lat="47.98926" lon="6.82447">
        <ele>862.44</ele>
        <time>2012-01-21T15:26:25Z</time>
      </trkpt>
      <trkpt lat="47.98928" lon="6.82435">
        <ele>861.48</ele>
        <time>2012-01-21T15:26:32Z</time>
      </trkpt>
      <trkpt lat="47.98919" lon="6.82401">
        <ele>863.4</ele>
        <time>2012-01-21T15:26:51Z</time>
      </trkpt>
      <trkpt lat="47.9891" lon="6.82366">
        <ele>863.88</ele>
        <time>2012-01-21T15:27:09Z</time>
      </trkpt>
      <trkpt lat="47.98904" lon="6.82337">
        <ele>864.84</ele>
        <time>2012-01-21T15:27:24Z</time>
      </trkpt>
      <trkpt lat="47.98903" lon="6.82329">
        <ele>868.69</ele>
        <time>2012-01-21T15:27:28Z</time>
      </trkpt>
      <trkpt lat="47.98903" lon="6.82327">
        <ele>866.77</ele>
        <time>2012-01-21T15:27:29Z</time>
      </trkpt>
      <trkpt lat="47.98902" lon="6.82324">
        <ele>865.8</ele>
        <time>2012-01-21T15:27:31Z</time>
      </trkpt>
      <trkpt lat="47.98897" lon="6.82301">
        <ele>869.17</ele>
        <time>2012-01-21T15:27:43Z</time>
      </trkpt>
      <trkpt lat="47.98888" lon="6.82264">
        <ele>867.25</ele>
        <time>2012-01-21T15:28:02Z</time>
      </trkpt>
      <trkpt lat="47.98883" lon="6.82237">
        <ele>869.17</ele>
        <time>2012-01-21T15:28:16Z</time>
      </trkpt>
      <trkpt lat="47.98877" lon="6.82216">
        <ele>870.61</ele>
        <time>2012-01-21T15:28:28Z</time>
      </trkpt>
      <trkpt lat="47.98875" lon="6.82209">
        <ele>869.17</ele>
        <time>2012-01-21T15:28:32Z</time>
      </trkpt>
      <trkpt lat="47.98868" lon="6.82184">
        <ele>870.61</ele>
        <time>2012-01-21T15:28:48Z</time>
      </trkpt>
      <trkpt lat="47.98863" lon="6.8215">
        <ele>871.57</ele>
        <time>2012-01-21T15:29:02Z</time>
      </trkpt>
      <trkpt lat="47.98859" lon="6.82122">
        <ele>872.05</ele>
        <time>2012-01-21T15:29:16Z</time>
      </trkpt>
      <trkpt lat="47.98858" lon="6.82119">
        <ele>872.53</ele>
        <time>2012-01-21T15:29:18Z</time>
      </trkpt>
      <trkpt lat="47.98857" lon="6.82116">
        <ele>872.53</ele>
        <time>2012-01-21T15:29:20Z</time>
      </trkpt>
      <trkpt lat="47.98849" lon="6.82085">
        <ele>874.46</ele>
        <time>2012-01-21T15:29:35Z</time>
      </trkpt>
      <trkpt lat="47.98848" lon="6.82073">
        <ele>874.46</ele>
        <time>2012-01-21T15:29:42Z</time>
      </trkpt>
      <trkpt lat="47.98846" lon="6.82069">
        <ele>874.94</ele>
        <time>2012-01-21T15:29:44Z</time>
      </trkpt>
      <trkpt lat="47.98845" lon="6.82063">
        <ele>875.9</ele>
        <time>2012-01-21T15:29:47Z</time>
      </trkpt>
      <trkpt lat="47.98843" lon="6.82053">
        <ele>876.38</ele>
        <time>2012-01-21T15:29:53Z</time>
      </trkpt>
      <trkpt lat="47.98841" lon="6.82041">
        <ele>875.9</ele>
        <time>2012-01-21T15:29:59Z</time>
      </trkpt>
      <trkpt lat="47.9884" lon="6.82026">
        <ele>876.38</ele>
        <time>2012-01-21T15:30:09Z</time>
      </trkpt>
      <trkpt lat="47.98839" lon="6.82017">
        <ele>876.86</ele>
        <time>2012-01-21T15:30:13Z</time>
      </trkpt>
      <trkpt lat="47.98833" lon="6.81993">
        <ele>877.82</ele>
        <time>2012-01-21T15:30:26Z</time>
      </trkpt>
      <trkpt lat="47.98822" lon="6.81968">
        <ele>878.3</ele>
        <time>2012-01-21T15:30:40Z</time>
      </trkpt>
      <trkpt lat="47.98815" lon="6.81959">
        <ele>879.26</ele>
        <time>2012-01-21T15:30:46Z</time>
      </trkpt>
      <trkpt lat="47.9881" lon="6.81946">
        <ele>879.74</ele>
        <time>2012-01-21T15:30:53Z</time>
      </trkpt>
      <trkpt lat="47.98798" lon="6.81925">
        <ele>881.19</ele>
        <time>2012-01-21T15:31:08Z</time>
      </trkpt>
      <trkpt lat="47.98798" lon="6.81924">
        <ele>881.19</ele>
        <time>2012-01-21T15:31:09Z</time>
      </trkpt>
      <trkpt lat="47.98791" lon="6.81915">
        <ele>881.19</ele>
        <time>2012-01-21T15:31:15Z</time>
      </trkpt>
      <trkpt lat="47.9878" lon="6.81889">
        <ele>884.07</ele>
        <time>2012-01-21T15:31:30Z</time>
      </trkpt>
      <trkpt lat="47.98772" lon="6.81866">
        <ele>885.03</ele>
        <time>2012-01-21T15:31:45Z</time>
      </trkpt>
      <trkpt lat="47.98765" lon="6.81838">
        <ele>885.99</ele>
        <time>2012-01-21T15:31:59Z</time>
      </trkpt>
      <trkpt lat="47.98761" lon="6.81815">
        <ele>887.43</ele>
        <time>2012-01-21T15:32:12Z</time>
      </trkpt>
      <trkpt lat="47.9876" lon="6.81802">
        <ele>887.91</ele>
        <time>2012-01-21T15:32:19Z</time>
      </trkpt>
      <trkpt lat="47.98757" lon="6.81788">
        <ele>888.88</ele>
        <time>2012-01-21T15:32:27Z</time>
      </trkpt>
      <trkpt lat="47.98753" lon="6.81759">
        <ele>890.32</ele>
        <time>2012-01-21T15:32:42Z</time>
      </trkpt>
      <trkpt lat="47.98748" lon="6.81734">
        <ele>893.68</ele>
        <time>2012-01-21T15:32:56Z</time>
      </trkpt>
      <trkpt lat="47.98746" lon="6.81705">
        <ele>893.2</ele>
        <time>2012-01-21T15:33:10Z</time>
      </trkpt>
      <trkpt lat="47.98744" lon="6.81693">
        <ele>896.57</ele>
        <time>2012-01-21T15:33:18Z</time>
      </trkpt>
      <trkpt lat="47.98743" lon="6.81679">
        <ele>894.16</ele>
        <time>2012-01-21T15:33:27Z</time>
      </trkpt>
      <trkpt lat="47.9874" lon="6.81669">
        <ele>894.64</ele>
        <time>2012-01-21T15:33:39Z</time>
      </trkpt>
      <trkpt lat="47.98733" lon="6.81662">
        <ele>895.12</ele>
        <time>2012-01-21T15:33:52Z</time>
      </trkpt>
      <trkpt lat="47.98732" lon="6.81653">
        <ele>894.16</ele>
        <time>2012-01-21T15:34:03Z</time>
      </trkpt>
      <trkpt lat="47.98732" lon="6.81644">
        <ele>898.01</ele>
        <time>2012-01-21T15:34:11Z</time>
      </trkpt>
      <trkpt lat="47.98732" lon="6.8164">
        <ele>898.49</ele>
        <time>2012-01-21T15:34:15Z</time>
      </trkpt>
      <trkpt lat="47.98738" lon="6.81635">
        <ele>898.97</ele>
        <time>2012-01-21T15:34:33Z</time>
      </trkpt>
      <trkpt lat="47.98746" lon="6.81633">
        <ele>899.93</ele>
        <time>2012-01-21T15:34:46Z</time>
      </trkpt>
      <trkpt lat="47.98746" lon="6.81633">
        <ele>898.97</ele>
        <time>2012-01-21T15:35:10Z</time>
      </trkpt>
      <trkpt lat="47.98746" lon="6.81633">
        <ele>898.97</ele>
        <time>2012-01-21T15:35:31Z</time>
      </trkpt>
    </trkseg>
  </trk>
  <trk>
    <name><![CDATA[Raquette grammont étangs]]></name>
    <trkseg>
      <trkpt lat="47.87711" lon="6.73028">
        <ele>679.308594</ele>
      </trkpt>
      <trkpt lat="47.87713" lon="6.73024">
        <ele>678.828125</ele>
      </trkpt>
      <trkpt lat="47.87713" lon="6.73017">
        <ele>677.866699</ele>
      </trkpt>
      <trkpt lat="47.87713" lon="6.73016">
        <ele>677.866699</ele>
      </trkpt>
      <trkpt lat="47.87704" lon="6.72974">
        <ele>681.231445</ele>
      </trkpt>
      <trkpt lat="47.87692" lon="6.7295">
        <ele>682.192627</ele>
      </trkpt>
      <trkpt lat="47.87677" lon="6.72918">
        <ele>684.596191</ele>
      </trkpt>
      <trkpt lat="47.87673" lon="6.72908">
        <ele>684.596191</ele>
      </trkpt>
      <trkpt lat="47.87669" lon="6.72897">
        <ele>685.076904</ele>
      </trkpt>
      <trkpt lat="47.87664" lon="6.72881">
        <ele>687.47998</ele>
      </trkpt>
      <trkpt lat="47.87654" lon="6.72855">
        <ele>691.325195</ele>
      </trkpt>
      <trkpt lat="47.87648" lon="6.72839">
        <ele>694.209229</ele>
      </trkpt>
      <trkpt lat="47.87636" lon="6.72816">
        <ele>694.209229</ele>
      </trkpt>
      <trkpt lat="47.87623" lon="6.72789">
        <ele>693.728516</ele>
      </trkpt>
      <trkpt lat="47.87615" lon="6.72767">
        <ele>697.093018</ele>
      </trkpt>
      <trkpt lat="47.87602" lon="6.7274">
        <ele>698.534912</ele>
      </trkpt>
      <trkpt lat="47.87582" lon="6.72718">
        <ele>693.728516</ele>
      </trkpt>
      <trkpt lat="47.87578" lon="6.72712">
        <ele>692.767334</ele>
      </trkpt>
      <trkpt lat="47.87563" lon="6.7269">
        <ele>692.767334</ele>
      </trkpt>
      <trkpt lat="47.87546" lon="6.72665">
        <ele>693.247803</ele>
      </trkpt>
      <trkpt lat="47.87536" lon="6.7266">
        <ele>688.922119</ele>
      </trkpt>
      <trkpt lat="47.87533" lon="6.72657">
        <ele>688.922119</ele>
      </trkpt>
      <trkpt lat="47.87518" lon="6.72644">
        <ele>693.728516</ele>
      </trkpt>
      <trkpt lat="47.87493" lon="6.72635">
        <ele>695.651123</ele>
      </trkpt>
      <trkpt lat="47.87485" lon="6.7263">
        <ele>697.093018</ele>
      </trkpt>
      <trkpt lat="47.87467" lon="6.72613">
        <ele>698.054443</ele>
      </trkpt>
      <trkpt lat="47.87459" lon="6.72608">
        <ele>699.015625</ele>
      </trkpt>
      <trkpt lat="47.87446" lon="6.72599">
        <ele>698.534912</ele>
      </trkpt>
      <trkpt lat="47.87443" lon="6.72599">
        <ele>697.57373</ele>
      </trkpt>
      <trkpt lat="47.87425" lon="6.72588">
        <ele>699.977051</ele>
      </trkpt>
      <trkpt lat="47.87418" lon="6.72586">
        <ele>699.496338</ele>
      </trkpt>
      <trkpt lat="47.87412" lon="6.72577">
        <ele>702.861084</ele>
      </trkpt>
      <trkpt lat="47.87409" lon="6.72571">
        <ele>704.303223</ele>
      </trkpt>
      <trkpt lat="47.87402" lon="6.72554">
        <ele>701.899902</ele>
      </trkpt>
      <trkpt lat="47.87397" lon="6.7254">
        <ele>698.054443</ele>
      </trkpt>
      <trkpt lat="47.87387" lon="6.72517">
        <ele>696.612549</ele>
      </trkpt>
      <trkpt lat="47.87369" lon="6.72494">
        <ele>691.805908</ele>
      </trkpt>
      <trkpt lat="47.87345" lon="6.72472">
        <ele>690.844482</ele>
      </trkpt>
      <trkpt lat="47.87334" lon="6.72457">
        <ele>692.286621</ele>
      </trkpt>
      <trkpt lat="47.87328" lon="6.72433">
        <ele>691.805908</ele>
      </trkpt>
      <trkpt lat="47.87326" lon="6.72401">
        <ele>690.844482</ele>
      </trkpt>
      <trkpt lat="47.87329" lon="6.72381">
        <ele>693.247803</ele>
      </trkpt>
      <trkpt lat="47.87342" lon="6.72352">
        <ele>699.015625</ele>
      </trkpt>
      <trkpt lat="47.87348" lon="6.7232">
        <ele>696.131836</ele>
      </trkpt>
      <trkpt lat="47.87352" lon="6.72278">
        <ele>694.209229</ele>
      </trkpt>
      <trkpt lat="47.87359" lon="6.72242">
        <ele>692.767334</ele>
      </trkpt>
      <trkpt lat="47.87357" lon="6.72205">
        <ele>689.883301</ele>
      </trkpt>
      <trkpt lat="47.8736" lon="6.72188">
        <ele>698.054443</ele>
      </trkpt>
      <trkpt lat="47.87362" lon="6.72183">
        <ele>699.977051</ele>
      </trkpt>
      <trkpt lat="47.87378" lon="6.72159">
        <ele>711.512939</ele>
      </trkpt>
      <trkpt lat="47.8739" lon="6.72138">
        <ele>719.203613</ele>
      </trkpt>
      <trkpt lat="47.874" lon="6.72133">
        <ele>714.877441</ele>
      </trkpt>
      <trkpt lat="47.87413" lon="6.72122">
        <ele>709.109619</ele>
      </trkpt>
      <trkpt lat="47.87427" lon="6.72111">
        <ele>712.954834</ele>
      </trkpt>
      <trkpt lat="47.87446" lon="6.72101">
        <ele>706.225586</ele>
      </trkpt>
      <trkpt lat="47.87458" lon="6.72089">
        <ele>703.82251</ele>
      </trkpt>
      <trkpt lat="47.8748" lon="6.72053">
        <ele>704.783691</ele>
      </trkpt>
      <trkpt lat="47.8749" lon="6.72034">
        <ele>700.458008</ele>
      </trkpt>
      <trkpt lat="47.87497" lon="6.72002">
        <ele>693.247803</ele>
      </trkpt>
      <trkpt lat="47.875" lon="6.71988">
        <ele>690.844482</ele>
      </trkpt>
      <trkpt lat="47.87502" lon="6.71975">
        <ele>688.922119</ele>
      </trkpt>
      <trkpt lat="47.87509" lon="6.71947">
        <ele>685.557373</ele>
      </trkpt>
      <trkpt lat="47.87519" lon="6.71916">
        <ele>687.960693</ele>
      </trkpt>
      <trkpt lat="47.87526" lon="6.71886">
        <ele>686.038086</ele>
      </trkpt>
      <trkpt lat="47.87533" lon="6.71872">
        <ele>689.402588</ele>
      </trkpt>
      <trkpt lat="47.87554" lon="6.71845">
        <ele>700.458008</ele>
      </trkpt>
      <trkpt lat="47.87559" lon="6.71833">
        <ele>700.938477</ele>
      </trkpt>
      <trkpt lat="47.87559" lon="6.71809">
        <ele>697.093018</ele>
      </trkpt>
      <trkpt lat="47.87568" lon="6.71784">
        <ele>699.496338</ele>
      </trkpt>
      <trkpt lat="47.87571" lon="6.71764">
        <ele>698.534912</ele>
      </trkpt>
      <trkpt lat="47.87575" lon="6.71734">
        <ele>699.015625</ele>
      </trkpt>
      <trkpt lat="47.87572" lon="6.7171">
        <ele>697.093018</ele>
      </trkpt>
      <trkpt lat="47.8757" lon="6.71687">
        <ele>699.496338</ele>
      </trkpt>
      <trkpt lat="47.87568" lon="6.71682">
        <ele>699.496338</ele>
      </trkpt>
      <trkpt lat="47.87569" lon="6.71678">
        <ele>699.015625</ele>
      </trkpt>
      <trkpt lat="47.8757" lon="6.71652">
        <ele>702.861084</ele>
      </trkpt>
      <trkpt lat="47.87567" lon="6.71626">
        <ele>703.82251</ele>
      </trkpt>
      <trkpt lat="47.87564" lon="6.716">
        <ele>702.861084</ele>
      </trkpt>
      <trkpt lat="47.87561" lon="6.71593">
        <ele>700.458008</ele>
      </trkpt>
      <trkpt lat="47.87552" lon="6.71572">
        <ele>702.380371</ele>
      </trkpt>
      <trkpt lat="47.87553" lon="6.71569">
        <ele>701.899902</ele>
      </trkpt>
      <trkpt lat="47.87547" lon="6.71551">
        <ele>703.341797</ele>
      </trkpt>
      <trkpt lat="47.87544" lon="6.71554">
        <ele>696.131836</ele>
      </trkpt>
      <trkpt lat="47.8754" lon="6.71548">
        <ele>698.054443</ele>
      </trkpt>
      <trkpt lat="47.87546" lon="6.71539">
        <ele>706.225586</ele>
      </trkpt>
      <trkpt lat="47.87552" lon="6.71537">
        <ele>714.396729</ele>
      </trkpt>
      <trkpt lat="47.87548" lon="6.71531">
        <ele>712.954834</ele>
      </trkpt>
      <trkpt lat="47.87553" lon="6.71519">
        <ele>721.126221</ele>
      </trkpt>
      <trkpt lat="47.87553" lon="6.71516">
        <ele>717.281006</ele>
      </trkpt>
      <trkpt lat="47.8755" lon="6.71488">
        <ele>712.474121</ele>
      </trkpt>
      <trkpt lat="47.87547" lon="6.71467">
        <ele>714.396729</ele>
      </trkpt>
      <trkpt lat="47.87549" lon="6.71451">
        <ele>717.281006</ele>
      </trkpt>
      <trkpt lat="47.87557" lon="6.71442">
        <ele>722.087402</ele>
      </trkpt>
      <trkpt lat="47.87562" lon="6.71415">
        <ele>727.374756</ele>
      </trkpt>
      <trkpt lat="47.87558" lon="6.71393">
        <ele>723.529541</ele>
      </trkpt>
      <trkpt lat="47.87553" lon="6.71378">
        <ele>723.529541</ele>
      </trkpt>
      <trkpt lat="47.87551" lon="6.71358">
        <ele>727.374756</ele>
      </trkpt>
      <trkpt lat="47.8755" lon="6.71351">
        <ele>731.700439</ele>
      </trkpt>
      <trkpt lat="47.87544" lon="6.7134">
        <ele>732.662109</ele>
      </trkpt>
      <trkpt lat="47.87544" lon="6.71352">
        <ele>730.739258</ele>
      </trkpt>
      <trkpt lat="47.87539" lon="6.7137">
        <ele>728.335938</ele>
      </trkpt>
      <trkpt lat="47.87537" lon="6.71375">
        <ele>727.855225</ele>
      </trkpt>
      <trkpt lat="47.87532" lon="6.71389">
        <ele>734.584717</ele>
      </trkpt>
      <trkpt lat="47.87522" lon="6.71403">
        <ele>741.794434</ele>
      </trkpt>
      <trkpt lat="47.87509" lon="6.71397">
        <ele>745.158936</ele>
      </trkpt>
      <trkpt lat="47.87493" lon="6.71401">
        <ele>744.678223</ele>
      </trkpt>
      <trkpt lat="47.87486" lon="6.71406">
        <ele>748.523682</ele>
      </trkpt>
      <trkpt lat="47.87478" lon="6.71418">
        <ele>749.485107</ele>
      </trkpt>
      <trkpt lat="47.87469" lon="6.71431">
        <ele>752.849609</ele>
      </trkpt>
      <trkpt lat="47.87457" lon="6.7144">
        <ele>749.96582</ele>
      </trkpt>
      <trkpt lat="47.87455" lon="6.71441">
        <ele>748.043213</ele>
      </trkpt>
      <trkpt lat="47.87457" lon="6.71448">
        <ele>746.601074</ele>
      </trkpt>
      <trkpt lat="47.87461" lon="6.71452">
        <ele>747.081543</ele>
      </trkpt>
      <trkpt lat="47.87466" lon="6.71462">
        <ele>748.523682</ele>
      </trkpt>
      <trkpt lat="47.87469" lon="6.71473">
        <ele>748.043213</ele>
      </trkpt>
      <trkpt lat="47.87472" lon="6.71478">
        <ele>747.562256</ele>
      </trkpt>
      <trkpt lat="47.87474" lon="6.71481">
        <ele>745.639648</ele>
      </trkpt>
      <trkpt lat="47.87477" lon="6.71487">
        <ele>744.197754</ele>
      </trkpt>
      <trkpt lat="47.87492" lon="6.71508">
        <ele>741.794434</ele>
      </trkpt>
      <trkpt lat="47.87491" lon="6.7151">
        <ele>740.833008</ele>
      </trkpt>
      <trkpt lat="47.87482" lon="6.71505">
        <ele>746.601074</ele>
      </trkpt>
      <trkpt lat="47.87474" lon="6.71521">
        <ele>745.158936</ele>
      </trkpt>
      <trkpt lat="47.87473" lon="6.7153">
        <ele>746.601074</ele>
      </trkpt>
      <trkpt lat="47.87465" lon="6.71558">
        <ele>746.601074</ele>
      </trkpt>
      <trkpt lat="47.87455" lon="6.71574">
        <ele>749.96582</ele>
      </trkpt>
      <trkpt lat="47.87443" lon="6.71591">
        <ele>753.811035</ele>
      </trkpt>
      <trkpt lat="47.87426" lon="6.71602">
        <ele>752.849609</ele>
      </trkpt>
      <trkpt lat="47.8741" lon="6.71618">
        <ele>748.043213</ele>
      </trkpt>
      <trkpt lat="47.87397" lon="6.71647">
        <ele>750.927002</ele>
      </trkpt>
      <trkpt lat="47.8739" lon="6.71656">
        <ele>755.25293</ele>
      </trkpt>
      <trkpt lat="47.87385" lon="6.71678">
        <ele>761.501465</ele>
      </trkpt>
      <trkpt lat="47.87387" lon="6.71686">
        <ele>760.540039</ele>
      </trkpt>
      <trkpt lat="47.87391" lon="6.71693">
        <ele>759.098145</ele>
      </trkpt>
      <trkpt lat="47.87397" lon="6.71704">
        <ele>757.175537</ele>
      </trkpt>
      <trkpt lat="47.87398" lon="6.7171">
        <ele>755.25293</ele>
      </trkpt>
      <trkpt lat="47.87394" lon="6.71729">
        <ele>756.214111</ele>
      </trkpt>
      <trkpt lat="47.87391" lon="6.71752">
        <ele>751.407715</ele>
      </trkpt>
      <trkpt lat="47.87384" lon="6.71775">
        <ele>760.059326</ele>
      </trkpt>
      <trkpt lat="47.87383" lon="6.71777">
        <ele>760.540039</ele>
      </trkpt>
      <trkpt lat="47.87367" lon="6.7179">
        <ele>765.346924</ele>
      </trkpt>
      <trkpt lat="47.87357" lon="6.71808">
        <ele>761.982178</ele>
      </trkpt>
      <trkpt lat="47.87353" lon="6.71834">
        <ele>765.346924</ele>
      </trkpt>
      <trkpt lat="47.87344" lon="6.71865">
        <ele>766.788818</ele>
      </trkpt>
      <trkpt lat="47.87332" lon="6.7188">
        <ele>766.788818</ele>
      </trkpt>
      <trkpt lat="47.87317" lon="6.71866">
        <ele>768.230713</ele>
      </trkpt>
      <trkpt lat="47.87307" lon="6.71842">
        <ele>768.711426</ele>
      </trkpt>
      <trkpt lat="47.87297" lon="6.71835">
        <ele>766.788818</ele>
      </trkpt>
      <trkpt lat="47.87295" lon="6.71834">
        <ele>766.308105</ele>
      </trkpt>
      <trkpt lat="47.87291" lon="6.71838">
        <ele>766.788818</ele>
      </trkpt>
      <trkpt lat="47.87284" lon="6.71852">
        <ele>766.788818</ele>
      </trkpt>
      <trkpt lat="47.87279" lon="6.71882">
        <ele>764.866211</ele>
      </trkpt>
      <trkpt lat="47.87278" lon="6.71882">
        <ele>765.346924</ele>
      </trkpt>
      <trkpt lat="47.87269" lon="6.71888">
        <ele>769.672852</ele>
      </trkpt>
      <trkpt lat="47.8726" lon="6.71907">
        <ele>768.711426</ele>
      </trkpt>
      <trkpt lat="47.87252" lon="6.71922">
        <ele>768.711426</ele>
      </trkpt>
      <trkpt lat="47.87251" lon="6.71927">
        <ele>769.192139</ele>
      </trkpt>
      <trkpt lat="47.87252" lon="6.71956">
        <ele>767.75</ele>
      </trkpt>
      <trkpt lat="47.87248" lon="6.7197">
        <ele>769.672852</ele>
      </trkpt>
      <trkpt lat="47.87238" lon="6.71996">
        <ele>771.595215</ele>
      </trkpt>
      <trkpt lat="47.87233" lon="6.71996">
        <ele>771.595215</ele>
      </trkpt>
      <trkpt lat="47.87221" lon="6.72009">
        <ele>771.595215</ele>
      </trkpt>
      <trkpt lat="47.8721" lon="6.72022">
        <ele>772.556641</ele>
      </trkpt>
      <trkpt lat="47.87197" lon="6.72039">
        <ele>772.075928</ele>
      </trkpt>
      <trkpt lat="47.8718" lon="6.72052">
        <ele>770.15332</ele>
      </trkpt>
      <trkpt lat="47.87172" lon="6.72055">
        <ele>770.15332</ele>
      </trkpt>
      <trkpt lat="47.87163" lon="6.72061">
        <ele>770.15332</ele>
      </trkpt>
      <trkpt lat="47.87157" lon="6.72072">
        <ele>768.230713</ele>
      </trkpt>
      <trkpt lat="47.8715" lon="6.72101">
        <ele>762.462646</ele>
      </trkpt>
      <trkpt lat="47.87149" lon="6.72134">
        <ele>766.308105</ele>
      </trkpt>
      <trkpt lat="47.87143" lon="6.72157">
        <ele>763.424072</ele>
      </trkpt>
      <trkpt lat="47.87135" lon="6.7219">
        <ele>760.059326</ele>
      </trkpt>
      <trkpt lat="47.87132" lon="6.72224">
        <ele>754.291748</ele>
      </trkpt>
      <trkpt lat="47.87128" lon="6.7225">
        <ele>756.214111</ele>
      </trkpt>
      <trkpt lat="47.87115" lon="6.72275">
        <ele>756.694824</ele>
      </trkpt>
      <trkpt lat="47.87097" lon="6.72295">
        <ele>755.733643</ele>
      </trkpt>
      <trkpt lat="47.87093" lon="6.723">
        <ele>756.694824</ele>
      </trkpt>
      <trkpt lat="47.87091" lon="6.72314">
        <ele>756.694824</ele>
      </trkpt>
      <trkpt lat="47.87094" lon="6.72321">
        <ele>754.291748</ele>
      </trkpt>
      <trkpt lat="47.87106" lon="6.72337">
        <ele>752.849609</ele>
      </trkpt>
      <trkpt lat="47.87112" lon="6.72342">
        <ele>753.330322</ele>
      </trkpt>
      <trkpt lat="47.87124" lon="6.72365">
        <ele>754.772217</ele>
      </trkpt>
      <trkpt lat="47.87125" lon="6.72375">
        <ele>755.733643</ele>
      </trkpt>
      <trkpt lat="47.8713" lon="6.72395">
        <ele>754.772217</ele>
      </trkpt>
      <trkpt lat="47.87131" lon="6.72406">
        <ele>754.772217</ele>
      </trkpt>
      <trkpt lat="47.8712" lon="6.72423">
        <ele>757.65625</ele>
      </trkpt>
      <trkpt lat="47.87118" lon="6.72426">
        <ele>758.617432</ele>
      </trkpt>
      <trkpt lat="47.871" lon="6.72438">
        <ele>758.136963</ele>
      </trkpt>
      <trkpt lat="47.87084" lon="6.72456">
        <ele>757.65625</ele>
      </trkpt>
      <trkpt lat="47.87082" lon="6.72452">
        <ele>760.540039</ele>
      </trkpt>
      <trkpt lat="47.87074" lon="6.72447">
        <ele>759.098145</ele>
      </trkpt>
      <trkpt lat="47.87078" lon="6.72442">
        <ele>758.136963</ele>
      </trkpt>
      <trkpt lat="47.8707" lon="6.72451">
        <ele>751.888428</ele>
      </trkpt>
      <trkpt lat="47.87055" lon="6.72477">
        <ele>758.136963</ele>
      </trkpt>
      <trkpt lat="47.8705" lon="6.72491">
        <ele>753.330322</ele>
      </trkpt>
      <trkpt lat="47.87044" lon="6.72497">
        <ele>750.446533</ele>
      </trkpt>
      <trkpt lat="47.87035" lon="6.72514">
        <ele>758.136963</ele>
      </trkpt>
      <trkpt lat="47.87034" lon="6.72518">
        <ele>758.617432</ele>
      </trkpt>
      <trkpt lat="47.87031" lon="6.72522">
        <ele>758.136963</ele>
      </trkpt>
      <trkpt lat="47.87025" lon="6.72529">
        <ele>758.136963</ele>
      </trkpt>
      <trkpt lat="47.87015" lon="6.72547">
        <ele>762.462646</ele>
      </trkpt>
      <trkpt lat="47.87013" lon="6.72558">
        <ele>765.346924</ele>
      </trkpt>
      <trkpt lat="47.87019" lon="6.72581">
        <ele>763.424072</ele>
      </trkpt>
      <trkpt lat="47.87018" lon="6.72582">
        <ele>765.346924</ele>
      </trkpt>
      <trkpt lat="47.87027" lon="6.72598">
        <ele>761.982178</ele>
      </trkpt>
      <trkpt lat="47.87039" lon="6.72614">
        <ele>761.501465</ele>
      </trkpt>
      <trkpt lat="47.87039" lon="6.72636">
        <ele>762.943359</ele>
      </trkpt>
      <trkpt lat="47.87033" lon="6.72653">
        <ele>766.788818</ele>
      </trkpt>
      <trkpt lat="47.87032" lon="6.72664">
        <ele>766.308105</ele>
      </trkpt>
      <trkpt lat="47.87036" lon="6.72681">
        <ele>769.192139</ele>
      </trkpt>
      <trkpt lat="47.87037" lon="6.72687">
        <ele>768.711426</ele>
      </trkpt>
      <trkpt lat="47.87047" lon="6.72706">
        <ele>765.827637</ele>
      </trkpt>
      <trkpt lat="47.87048" lon="6.72712">
        <ele>767.269531</ele>
      </trkpt>
      <trkpt lat="47.87046" lon="6.72721">
        <ele>765.827637</ele>
      </trkpt>
      <trkpt lat="47.87035" lon="6.72735">
        <ele>767.75</ele>
      </trkpt>
      <trkpt lat="47.87029" lon="6.72737">
        <ele>766.308105</ele>
      </trkpt>
      <trkpt lat="47.87025" lon="6.72738">
        <ele>764.385498</ele>
      </trkpt>
      <trkpt lat="47.87012" lon="6.72754">
        <ele>766.788818</ele>
      </trkpt>
      <trkpt lat="47.8701" lon="6.7276">
        <ele>765.827637</ele>
      </trkpt>
      <trkpt lat="47.87001" lon="6.72774">
        <ele>769.192139</ele>
      </trkpt>
      <trkpt lat="47.86995" lon="6.72783">
        <ele>768.711426</ele>
      </trkpt>
      <trkpt lat="47.86982" lon="6.72806">
        <ele>771.595215</ele>
      </trkpt>
      <trkpt lat="47.86979" lon="6.72813">
        <ele>768.711426</ele>
      </trkpt>
      <trkpt lat="47.86977" lon="6.72817">
        <ele>767.269531</ele>
      </trkpt>
      <trkpt lat="47.86976" lon="6.72821">
        <ele>766.788818</ele>
      </trkpt>
      <trkpt lat="47.86965" lon="6.72836">
        <ele>765.827637</ele>
      </trkpt>
      <trkpt lat="47.86954" lon="6.72848">
        <ele>768.711426</ele>
      </trkpt>
      <trkpt lat="47.86949" lon="6.72863">
        <ele>768.230713</ele>
      </trkpt>
      <trkpt lat="47.86941" lon="6.72898">
        <ele>770.634033</ele>
      </trkpt>
      <trkpt lat="47.86939" lon="6.72904">
        <ele>768.711426</ele>
      </trkpt>
      <trkpt lat="47.86936" lon="6.72924">
        <ele>768.711426</ele>
      </trkpt>
      <trkpt lat="47.86934" lon="6.72942">
        <ele>762.462646</ele>
      </trkpt>
      <trkpt lat="47.86919" lon="6.72964">
        <ele>757.175537</ele>
      </trkpt>
      <trkpt lat="47.8691" lon="6.7297">
        <ele>756.214111</ele>
      </trkpt>
      <trkpt lat="47.86905" lon="6.72972">
        <ele>757.65625</ele>
      </trkpt>
      <trkpt lat="47.86899" lon="6.72977">
        <ele>756.694824</ele>
      </trkpt>
      <trkpt lat="47.86883" lon="6.72988">
        <ele>757.65625</ele>
      </trkpt>
      <trkpt lat="47.86868" lon="6.72999">
        <ele>760.059326</ele>
      </trkpt>
      <trkpt lat="47.86851" lon="6.73011">
        <ele>759.578857</ele>
      </trkpt>
      <trkpt lat="47.86837" lon="6.7303">
        <ele>757.175537</ele>
      </trkpt>
      <trkpt lat="47.86823" lon="6.73048">
        <ele>761.501465</ele>
      </trkpt>
      <trkpt lat="47.8682" lon="6.73077">
        <ele>759.098145</ele>
      </trkpt>
      <trkpt lat="47.86818" lon="6.73109">
        <ele>751.888428</ele>
      </trkpt>
      <trkpt lat="47.86801" lon="6.73132">
        <ele>751.888428</ele>
      </trkpt>
      <trkpt lat="47.8679" lon="6.73144">
        <ele>750.927002</ele>
      </trkpt>
      <trkpt lat="47.86787" lon="6.73152">
        <ele>749.485107</ele>
      </trkpt>
      <trkpt lat="47.8678" lon="6.73156">
        <ele>750.927002</ele>
      </trkpt>
      <trkpt lat="47.86775" lon="6.73154">
        <ele>757.175537</ele>
      </trkpt>
      <trkpt lat="47.86764" lon="6.73152">
        <ele>759.098145</ele>
      </trkpt>
      <trkpt lat="47.86743" lon="6.73143">
        <ele>750.927002</ele>
      </trkpt>
      <trkpt lat="47.86741" lon="6.73146">
        <ele>749.96582</ele>
      </trkpt>
      <trkpt lat="47.86733" lon="6.73139">
        <ele>750.927002</ele>
      </trkpt>
      <trkpt lat="47.86725" lon="6.73132">
        <ele>750.446533</ele>
      </trkpt>
      <trkpt lat="47.86723" lon="6.73128">
        <ele>751.407715</ele>
      </trkpt>
      <trkpt lat="47.86712" lon="6.73124">
        <ele>754.772217</ele>
      </trkpt>
      <trkpt lat="47.86702" lon="6.73151">
        <ele>748.523682</ele>
      </trkpt>
      <trkpt lat="47.867" lon="6.73151">
        <ele>749.004395</ele>
      </trkpt>
      <trkpt lat="47.86696" lon="6.73157">
        <ele>750.927002</ele>
      </trkpt>
      <trkpt lat="47.86689" lon="6.73169">
        <ele>742.275146</ele>
      </trkpt>
      <trkpt lat="47.86685" lon="6.7317">
        <ele>749.004395</ele>
      </trkpt>
      <trkpt lat="47.86683" lon="6.73174">
        <ele>749.96582</ele>
      </trkpt>
      <trkpt lat="47.86678" lon="6.7318">
        <ele>749.004395</ele>
      </trkpt>
      <trkpt lat="47.86675" lon="6.73188">
        <ele>748.043213</ele>
      </trkpt>
      <trkpt lat="47.86674" lon="6.73204">
        <ele>749.004395</ele>
      </trkpt>
      <trkpt lat="47.86679" lon="6.73226">
        <ele>750.927002</ele>
      </trkpt>
      <trkpt lat="47.86683" lon="6.73234">
        <ele>750.927002</ele>
      </trkpt>
      <trkpt lat="47.86697" lon="6.73255">
        <ele>753.811035</ele>
      </trkpt>
      <trkpt lat="47.867" lon="6.73259">
        <ele>752.849609</ele>
      </trkpt>
      <trkpt lat="47.86714" lon="6.73272">
        <ele>748.523682</ele>
      </trkpt>
      <trkpt lat="47.86718" lon="6.7328">
        <ele>750.927002</ele>
      </trkpt>
      <trkpt lat="47.86719" lon="6.73285">
        <ele>752.368896</ele>
      </trkpt>
      <trkpt lat="47.86726" lon="6.7329">
        <ele>750.446533</ele>
      </trkpt>
      <trkpt lat="47.86733" lon="6.73304">
        <ele>751.407715</ele>
      </trkpt>
      <trkpt lat="47.86734" lon="6.73304">
        <ele>749.485107</ele>
      </trkpt>
      <trkpt lat="47.8674" lon="6.7331">
        <ele>748.523682</ele>
      </trkpt>
      <trkpt lat="47.86751" lon="6.73325">
        <ele>752.849609</ele>
      </trkpt>
      <trkpt lat="47.8677" lon="6.73332">
        <ele>752.368896</ele>
      </trkpt>
      <trkpt lat="47.86774" lon="6.73323">
        <ele>759.098145</ele>
      </trkpt>
      <trkpt lat="47.86776" lon="6.7332">
        <ele>757.65625</ele>
      </trkpt>
      <trkpt lat="47.86789" lon="6.73335">
        <ele>754.291748</ele>
      </trkpt>
      <trkpt lat="47.86788" lon="6.73336">
        <ele>751.888428</ele>
      </trkpt>
      <trkpt lat="47.86783" lon="6.73335">
        <ele>746.601074</ele>
      </trkpt>
      <trkpt lat="47.86777" lon="6.73335">
        <ele>746.601074</ele>
      </trkpt>
      <trkpt lat="47.86764" lon="6.73326">
        <ele>748.043213</ele>
      </trkpt>
      <trkpt lat="47.86756" lon="6.73327">
        <ele>747.562256</ele>
      </trkpt>
      <trkpt lat="47.86748" lon="6.73328">
        <ele>749.004395</ele>
      </trkpt>
      <trkpt lat="47.86733" lon="6.73349">
        <ele>756.214111</ele>
      </trkpt>
      <trkpt lat="47.86731" lon="6.73353">
        <ele>756.214111</ele>
      </trkpt>
      <trkpt lat="47.86722" lon="6.73364">
        <ele>755.25293</ele>
      </trkpt>
      <trkpt lat="47.86715" lon="6.73379">
        <ele>755.25293</ele>
      </trkpt>
      <trkpt lat="47.86716" lon="6.73392">
        <ele>750.446533</ele>
      </trkpt>
      <trkpt lat="47.86719" lon="6.73415">
        <ele>752.849609</ele>
      </trkpt>
      <trkpt lat="47.86727" lon="6.7344">
        <ele>755.25293</ele>
      </trkpt>
      <trkpt lat="47.86736" lon="6.73466">
        <ele>749.96582</ele>
      </trkpt>
      <trkpt lat="47.86734" lon="6.73469">
        <ele>749.96582</ele>
      </trkpt>
      <trkpt lat="47.86728" lon="6.73476">
        <ele>749.485107</ele>
      </trkpt>
      <trkpt lat="47.86725" lon="6.73477">
        <ele>748.523682</ele>
      </trkpt>
      <trkpt lat="47.86718" lon="6.73483">
        <ele>749.004395</ele>
      </trkpt>
      <trkpt lat="47.86715" lon="6.73483">
        <ele>749.96582</ele>
      </trkpt>
      <trkpt lat="47.86692" lon="6.7348">
        <ele>754.291748</ele>
      </trkpt>
      <trkpt lat="47.86679" lon="6.73483">
        <ele>755.25293</ele>
      </trkpt>
      <trkpt lat="47.86674" lon="6.73486">
        <ele>754.772217</ele>
      </trkpt>
      <trkpt lat="47.86658" lon="6.73479">
        <ele>757.175537</ele>
      </trkpt>
      <trkpt lat="47.86643" lon="6.73474">
        <ele>755.733643</ele>
      </trkpt>
      <trkpt lat="47.86636" lon="6.73466">
        <ele>755.25293</ele>
      </trkpt>
      <trkpt lat="47.8662" lon="6.7346">
        <ele>756.214111</ele>
      </trkpt>
      <trkpt lat="47.86606" lon="6.73464">
        <ele>753.811035</ele>
      </trkpt>
      <trkpt lat="47.86604" lon="6.73464">
        <ele>753.811035</ele>
      </trkpt>
      <trkpt lat="47.86598" lon="6.73462">
        <ele>752.849609</ele>
      </trkpt>
      <trkpt lat="47.86589" lon="6.73474">
        <ele>750.927002</ele>
      </trkpt>
      <trkpt lat="47.86583" lon="6.73474">
        <ele>751.888428</ele>
      </trkpt>
      <trkpt lat="47.86591" lon="6.73484">
        <ele>754.772217</ele>
      </trkpt>
      <trkpt lat="47.86591" lon="6.73485">
        <ele>754.291748</ele>
      </trkpt>
      <trkpt lat="47.86593" lon="6.73502">
        <ele>758.617432</ele>
      </trkpt>
      <trkpt lat="47.86607" lon="6.73519">
        <ele>761.501465</ele>
      </trkpt>
      <trkpt lat="47.86608" lon="6.7352">
        <ele>761.501465</ele>
      </trkpt>
      <trkpt lat="47.86607" lon="6.73529">
        <ele>763.904541</ele>
      </trkpt>
      <trkpt lat="47.86605" lon="6.73536">
        <ele>766.788818</ele>
      </trkpt>
      <trkpt lat="47.86628" lon="6.7354">
        <ele>755.733643</ele>
      </trkpt>
      <trkpt lat="47.86645" lon="6.73542">
        <ele>755.733643</ele>
      </trkpt>
      <trkpt lat="47.8666" lon="6.73548">
        <ele>756.694824</ele>
      </trkpt>
      <trkpt lat="47.86681" lon="6.73555">
        <ele>758.136963</ele>
      </trkpt>
      <trkpt lat="47.86683" lon="6.73559">
        <ele>758.136963</ele>
      </trkpt>
      <trkpt lat="47.86689" lon="6.73563">
        <ele>760.540039</ele>
      </trkpt>
      <trkpt lat="47.86689" lon="6.7357">
        <ele>758.617432</ele>
      </trkpt>
      <trkpt lat="47.86687" lon="6.73592">
        <ele>756.694824</ele>
      </trkpt>
      <trkpt lat="47.86684" lon="6.73608">
        <ele>759.578857</ele>
      </trkpt>
      <trkpt lat="47.86689" lon="6.73626">
        <ele>756.694824</ele>
      </trkpt>
      <trkpt lat="47.867" lon="6.73629">
        <ele>751.888428</ele>
      </trkpt>
      <trkpt lat="47.86706" lon="6.7364">
        <ele>752.368896</ele>
      </trkpt>
      <trkpt lat="47.86709" lon="6.73666">
        <ele>758.617432</ele>
      </trkpt>
      <trkpt lat="47.86702" lon="6.73688">
        <ele>753.811035</ele>
      </trkpt>
      <trkpt lat="47.86686" lon="6.73708">
        <ele>749.004395</ele>
      </trkpt>
      <trkpt lat="47.86677" lon="6.7372">
        <ele>748.523682</ele>
      </trkpt>
      <trkpt lat="47.86667" lon="6.73745">
        <ele>750.446533</ele>
      </trkpt>
      <trkpt lat="47.8665" lon="6.73745">
        <ele>750.446533</ele>
      </trkpt>
      <trkpt lat="47.86645" lon="6.73752">
        <ele>750.446533</ele>
      </trkpt>
      <trkpt lat="47.86643" lon="6.73757">
        <ele>750.446533</ele>
      </trkpt>
      <trkpt lat="47.86644" lon="6.73768">
        <ele>749.485107</ele>
      </trkpt>
      <trkpt lat="47.8664" lon="6.73788">
        <ele>753.811035</ele>
      </trkpt>
      <trkpt lat="47.86641" lon="6.73794">
        <ele>748.523682</ele>
      </trkpt>
      <trkpt lat="47.86644" lon="6.73787">
        <ele>748.523682</ele>
      </trkpt>
      <trkpt lat="47.86648" lon="6.73791">
        <ele>741.313721</ele>
      </trkpt>
      <trkpt lat="47.86643" lon="6.73799">
        <ele>748.523682</ele>
      </trkpt>
      <trkpt lat="47.86646" lon="6.73793">
        <ele>740.352539</ele>
      </trkpt>
      <trkpt lat="47.8664" lon="6.73806">
        <ele>750.446533</ele>
      </trkpt>
      <trkpt lat="47.86637" lon="6.73816">
        <ele>742.275146</ele>
      </trkpt>
      <trkpt lat="47.86634" lon="6.73837">
        <ele>730.258545</ele>
      </trkpt>
      <trkpt lat="47.86632" lon="6.73858">
        <ele>732.662109</ele>
      </trkpt>
      <trkpt lat="47.86632" lon="6.73876">
        <ele>731.219971</ele>
      </trkpt>
      <trkpt lat="47.86641" lon="6.73899">
        <ele>729.297119</ele>
      </trkpt>
      <trkpt lat="47.8665" lon="6.73921">
        <ele>727.855225</ele>
      </trkpt>
      <trkpt lat="47.86652" lon="6.73925">
        <ele>728.335938</ele>
      </trkpt>
      <trkpt lat="47.86661" lon="6.73938">
        <ele>718.7229</ele>
      </trkpt>
      <trkpt lat="47.86675" lon="6.73944">
        <ele>709.109619</ele>
      </trkpt>
      <trkpt lat="47.86686" lon="6.7395">
        <ele>705.745117</ele>
      </trkpt>
      <trkpt lat="47.86693" lon="6.7397">
        <ele>708.148438</ele>
      </trkpt>
      <trkpt lat="47.86702" lon="6.73976">
        <ele>701.899902</ele>
      </trkpt>
      <trkpt lat="47.86713" lon="6.73983">
        <ele>699.977051</ele>
      </trkpt>
      <trkpt lat="47.86724" lon="6.73991">
        <ele>695.651123</ele>
      </trkpt>
      <trkpt lat="47.86736" lon="6.74">
        <ele>688.441406</ele>
      </trkpt>
      <trkpt lat="47.86745" lon="6.74015">
        <ele>686.038086</ele>
      </trkpt>
      <trkpt lat="47.86751" lon="6.74036">
        <ele>689.402588</ele>
      </trkpt>
      <trkpt lat="47.86762" lon="6.74044">
        <ele>681.231445</ele>
      </trkpt>
      <trkpt lat="47.86767" lon="6.74058">
        <ele>678.828125</ele>
      </trkpt>
      <trkpt lat="47.86772" lon="6.74066">
        <ele>673.541016</ele>
      </trkpt>
      <trkpt lat="47.86782" lon="6.74085">
        <ele>673.541016</ele>
      </trkpt>
      <trkpt lat="47.86792" lon="6.74089">
        <ele>665.369629</ele>
      </trkpt>
      <trkpt lat="47.86803" lon="6.74096">
        <ele>662.966309</ele>
      </trkpt>
      <trkpt lat="47.86811" lon="6.74102">
        <ele>655.275879</ele>
      </trkpt>
      <trkpt lat="47.86841" lon="6.7414">
        <ele>660.562988</ele>
      </trkpt>
      <trkpt lat="47.86849" lon="6.74148">
        <ele>656.237061</ele>
      </trkpt>
      <trkpt lat="47.86857" lon="6.7415">
        <ele>652.872559</ele>
      </trkpt>
      <trkpt lat="47.86877" lon="6.74152">
        <ele>652.391846</ele>
      </trkpt>
      <trkpt lat="47.86888" lon="6.74158">
        <ele>645.662598</ele>
      </trkpt>
      <trkpt lat="47.86901" lon="6.74166">
        <ele>637.010742</ele>
      </trkpt>
      <trkpt lat="47.86909" lon="6.7417">
        <ele>633.165283</ele>
      </trkpt>
      <trkpt lat="47.86924" lon="6.74179">
        <ele>628.8396</ele>
      </trkpt>
      <trkpt lat="47.8694" lon="6.7418">
        <ele>625.955566</ele>
      </trkpt>
      <trkpt lat="47.86955" lon="6.74176">
        <ele>625.474854</ele>
      </trkpt>
      <trkpt lat="47.86976" lon="6.74181">
        <ele>629.320068</ele>
      </trkpt>
      <trkpt lat="47.86993" lon="6.7419">
        <ele>629.320068</ele>
      </trkpt>
      <trkpt lat="47.87005" lon="6.742">
        <ele>624.513672</ele>
      </trkpt>
      <trkpt lat="47.87025" lon="6.742">
        <ele>619.226318</ele>
      </trkpt>
      <trkpt lat="47.87039" lon="6.742">
        <ele>619.707031</ele>
      </trkpt>
      <trkpt lat="47.87077" lon="6.74205">
        <ele>635.088135</ele>
      </trkpt>
      <trkpt lat="47.87095" lon="6.74205">
        <ele>645.181885</ele>
      </trkpt>
      <trkpt lat="47.8711" lon="6.74201">
        <ele>647.104492</ele>
      </trkpt>
      <trkpt lat="47.87113" lon="6.74196">
        <ele>644.220703</ele>
      </trkpt>
      <trkpt lat="47.8712" lon="6.74187">
        <ele>642.298096</ele>
      </trkpt>
      <trkpt lat="47.87134" lon="6.74162">
        <ele>637.010742</ele>
      </trkpt>
      <trkpt lat="47.87143" lon="6.74133">
        <ele>640.375488</ele>
      </trkpt>
      <trkpt lat="47.87144" lon="6.74128">
        <ele>639.414062</ele>
      </trkpt>
      <trkpt lat="47.8715" lon="6.74105">
        <ele>635.568604</ele>
      </trkpt>
      <trkpt lat="47.87151" lon="6.74094">
        <ele>632.684814</ele>
      </trkpt>
      <trkpt lat="47.87165" lon="6.74068">
        <ele>635.568604</ele>
      </trkpt>
      <trkpt lat="47.87166" lon="6.74047">
        <ele>633.165283</ele>
      </trkpt>
      <trkpt lat="47.87163" lon="6.74022">
        <ele>626.916992</ele>
      </trkpt>
      <trkpt lat="47.87159" lon="6.74002">
        <ele>619.707031</ele>
      </trkpt>
      <trkpt lat="47.87147" lon="6.73972">
        <ele>617.78418</ele>
      </trkpt>
      <trkpt lat="47.87145" lon="6.73968">
        <ele>617.78418</ele>
      </trkpt>
      <trkpt lat="47.8714" lon="6.73942">
        <ele>618.264893</ele>
      </trkpt>
      <trkpt lat="47.87134" lon="6.73918">
        <ele>623.55249</ele>
      </trkpt>
      <trkpt lat="47.87122" lon="6.73889">
        <ele>644.220703</ele>
      </trkpt>
      <trkpt lat="47.87118" lon="6.73879">
        <ele>647.104492</ele>
      </trkpt>
      <trkpt lat="47.87109" lon="6.73844">
        <ele>641.33667</ele>
      </trkpt>
      <trkpt lat="47.87106" lon="6.73838">
        <ele>637.010742</ele>
      </trkpt>
      <trkpt lat="47.87104" lon="6.73834">
        <ele>634.607422</ele>
      </trkpt>
      <trkpt lat="47.87094" lon="6.73806">
        <ele>612.977783</ele>
      </trkpt>
      <trkpt lat="47.87091" lon="6.73784">
        <ele>603.364502</ele>
      </trkpt>
      <trkpt lat="47.87083" lon="6.73759">
        <ele>594.712646</ele>
      </trkpt>
      <trkpt lat="47.87086" lon="6.73737">
        <ele>597.115967</ele>
      </trkpt>
      <trkpt lat="47.87097" lon="6.7371">
        <ele>620.668457</ele>
      </trkpt>
      <trkpt lat="47.87089" lon="6.73686">
        <ele>618.264893</ele>
      </trkpt>
      <trkpt lat="47.87083" lon="6.73664">
        <ele>618.745605</ele>
      </trkpt>
      <trkpt lat="47.8708" lon="6.73635">
        <ele>628.8396</ele>
      </trkpt>
      <trkpt lat="47.8708" lon="6.73633">
        <ele>629.800781</ele>
      </trkpt>
      <trkpt lat="47.87079" lon="6.73603">
        <ele>634.607422</ele>
      </trkpt>
      <trkpt lat="47.8707" lon="6.7357">
        <ele>623.071777</ele>
      </trkpt>
      <trkpt lat="47.87065" lon="6.73533">
        <ele>625.474854</ele>
      </trkpt>
      <trkpt lat="47.87064" lon="6.73513">
        <ele>628.8396</ele>
      </trkpt>
      <trkpt lat="47.87064" lon="6.73505">
        <ele>631.723389</ele>
      </trkpt>
      <trkpt lat="47.87071" lon="6.73473">
        <ele>642.298096</ele>
      </trkpt>
      <trkpt lat="47.87086" lon="6.73477">
        <ele>641.817383</ele>
      </trkpt>
      <trkpt lat="47.87112" lon="6.73481">
        <ele>646.624023</ele>
      </trkpt>
      <trkpt lat="47.87129" lon="6.73489">
        <ele>647.585205</ele>
      </trkpt>
      <trkpt lat="47.87148" lon="6.73484">
        <ele>649.988525</ele>
      </trkpt>
      <trkpt lat="47.87172" lon="6.7348">
        <ele>648.546387</ele>
      </trkpt>
      <trkpt lat="47.87175" lon="6.73482">
        <ele>646.143311</ele>
      </trkpt>
      <trkpt lat="47.87196" lon="6.73495">
        <ele>649.507812</ele>
      </trkpt>
      <trkpt lat="47.87201" lon="6.73495">
        <ele>649.988525</ele>
      </trkpt>
      <trkpt lat="47.87227" lon="6.73494">
        <ele>651.911133</ele>
      </trkpt>
      <trkpt lat="47.87245" lon="6.73498">
        <ele>658.640381</ele>
      </trkpt>
      <trkpt lat="47.87263" lon="6.73502">
        <ele>658.640381</ele>
      </trkpt>
      <trkpt lat="47.87285" lon="6.73501">
        <ele>657.198486</ele>
      </trkpt>
      <trkpt lat="47.87298" lon="6.73494">
        <ele>654.795166</ele>
      </trkpt>
      <trkpt lat="47.873" lon="6.73491">
        <ele>651.43042</ele>
      </trkpt>
      <trkpt lat="47.87305" lon="6.73486">
        <ele>652.872559</ele>
      </trkpt>
      <trkpt lat="47.87319" lon="6.7347">
        <ele>656.717773</ele>
      </trkpt>
      <trkpt lat="47.87324" lon="6.73462">
        <ele>655.275879</ele>
      </trkpt>
      <trkpt lat="47.87333" lon="6.73454">
        <ele>654.314697</ele>
      </trkpt>
      <trkpt lat="47.87345" lon="6.73431">
        <ele>660.082275</ele>
      </trkpt>
      <trkpt lat="47.87347" lon="6.73404">
        <ele>658.640381</ele>
      </trkpt>
      <trkpt lat="47.87348" lon="6.73379">
        <ele>659.121094</ele>
      </trkpt>
      <trkpt lat="47.87357" lon="6.73353">
        <ele>658.640381</ele>
      </trkpt>
      <trkpt lat="47.87362" lon="6.73327">
        <ele>657.679199</ele>
      </trkpt>
      <trkpt lat="47.87365" lon="6.73318">
        <ele>659.601807</ele>
      </trkpt>
      <trkpt lat="47.87365" lon="6.73305">
        <ele>666.811523</ele>
      </trkpt>
      <trkpt lat="47.87377" lon="6.73287">
        <ele>665.850342</ele>
      </trkpt>
      <trkpt lat="47.87382" lon="6.73267">
        <ele>662.005127</ele>
      </trkpt>
      <trkpt lat="47.87385" lon="6.7326">
        <ele>664.408203</ele>
      </trkpt>
      <trkpt lat="47.87402" lon="6.73245">
        <ele>663.447021</ele>
      </trkpt>
      <trkpt lat="47.87416" lon="6.73225">
        <ele>665.369629</ele>
      </trkpt>
      <trkpt lat="47.87426" lon="6.73203">
        <ele>662.966309</ele>
      </trkpt>
      <trkpt lat="47.87443" lon="6.73184">
        <ele>666.330811</ele>
      </trkpt>
      <trkpt lat="47.87456" lon="6.73179">
        <ele>662.485596</ele>
      </trkpt>
      <trkpt lat="47.87468" lon="6.73172">
        <ele>659.121094</ele>
      </trkpt>
      <trkpt lat="47.8747" lon="6.73166">
        <ele>658.159912</ele>
      </trkpt>
      <trkpt lat="47.87485" lon="6.73142">
        <ele>674.021484</ele>
      </trkpt>
      <trkpt lat="47.87485" lon="6.73122">
        <ele>680.750732</ele>
      </trkpt>
      <trkpt lat="47.87485" lon="6.73118">
        <ele>680.750732</ele>
      </trkpt>
      <trkpt lat="47.875" lon="6.73113">
        <ele>672.57959</ele>
      </trkpt>
      <trkpt lat="47.87508" lon="6.73109">
        <ele>669.215088</ele>
      </trkpt>
      <trkpt lat="47.87524" lon="6.73096">
        <ele>676.905518</ele>
      </trkpt>
      <trkpt lat="47.87534" lon="6.73087">
        <ele>684.115479</ele>
      </trkpt>
      <trkpt lat="47.87546" lon="6.73078">
        <ele>686.518799</ele>
      </trkpt>
      <trkpt lat="47.87566" lon="6.7308">
        <ele>689.883301</ele>
      </trkpt>
      <trkpt lat="47.87572" lon="6.73084">
        <ele>686.999268</ele>
      </trkpt>
      <trkpt lat="47.87584" lon="6.73083">
        <ele>681.231445</ele>
      </trkpt>
      <trkpt lat="47.87586" lon="6.73079">
        <ele>679.308594</ele>
      </trkpt>
      <trkpt lat="47.87592" lon="6.73073">
        <ele>679.308594</ele>
      </trkpt>
      <trkpt lat="47.87601" lon="6.73043">
        <ele>684.115479</ele>
      </trkpt>
      <trkpt lat="47.87606" lon="6.7303">
        <ele>685.076904</ele>
      </trkpt>
      <trkpt lat="47.87625" lon="6.7301">
        <ele>683.634521</ele>
      </trkpt>
      <trkpt lat="47.87633" lon="6.73007">
        <ele>686.518799</ele>
      </trkpt>
      <trkpt lat="47.8766" lon="6.73013">
        <ele>677.866699</ele>
      </trkpt>
      <trkpt lat="47.87684" lon="6.73027">
        <ele>676.424805</ele>
      </trkpt>
      <trkpt lat="47.8771" lon="6.73035">
        <ele>674.502197</ele>
      </trkpt>
      <trkpt lat="47.87714" lon="6.73027">
        <ele>674.502197</ele>
      </trkpt>
      <trkpt lat="47.87712" lon="6.73021">
        <ele>678.347412</ele>
      </trkpt>
    </trkseg>
  </trk>
  <trk>
    <name><![CDATA[Raquette Rando Collet]]></name>
    <trkseg>
      <trkpt lat="48.05428" lon="7.00485">
        <ele>1105.80078125</ele>
        <time>2012-01-21T08:59:40Z</time>
      </trkpt>
      <trkpt lat="48.05428" lon="7.00485">
        <ele>1105.80078125</ele>
        <time>2012-01-21T08:59:53Z</time>
      </trkpt>
      <trkpt lat="48.05428" lon="7.00485">
        <ele>1105.80078125</ele>
        <time>2012-01-21T08:59:54Z</time>
      </trkpt>
      <trkpt lat="48.05428" lon="7.00485">
        <ele>1105.79296875</ele>
        <time>2012-01-21T09:00:13Z</time>
      </trkpt>
      <trkpt lat="48.05428" lon="7.00485">
        <ele>1105.80859375</ele>
        <time>2012-01-21T09:00:15Z</time>
      </trkpt>
      <trkpt lat="48.05428" lon="7.00485">
        <ele>1105.80859375</ele>
        <time>2012-01-21T09:00:16Z</time>
      </trkpt>
      <trkpt lat="48.05438" lon="7.00507">
        <ele>1108.5859375</ele>
        <time>2012-01-21T09:00:24Z</time>
      </trkpt>
      <trkpt lat="48.05439" lon="7.00508">
        <ele>1108.7734375</ele>
        <time>2012-01-21T09:00:25Z</time>
      </trkpt>
      <trkpt lat="48.0544" lon="7.00511">
        <ele>1109.3359375</ele>
        <time>2012-01-21T09:00:29Z</time>
      </trkpt>
      <trkpt lat="48.05441" lon="7.00513">
        <ele>1109.61328125</ele>
        <time>2012-01-21T09:00:38Z</time>
      </trkpt>
      <trkpt lat="48.05439" lon="7.00517">
        <ele>1110.08984375</ele>
        <time>2012-01-21T09:00:55Z</time>
      </trkpt>
      <trkpt lat="48.05438" lon="7.0052">
        <ele>1110.53515625</ele>
        <time>2012-01-21T09:01:05Z</time>
      </trkpt>
      <trkpt lat="48.0544" lon="7.00525">
        <ele>1111.21484375</ele>
        <time>2012-01-21T09:01:16Z</time>
      </trkpt>
      <trkpt lat="48.0544" lon="7.00526">
        <ele>1111.36328125</ele>
        <time>2012-01-21T09:01:17Z</time>
      </trkpt>
      <trkpt lat="48.05444" lon="7.00536">
        <ele>1112.875</ele>
        <time>2012-01-21T09:01:32Z</time>
      </trkpt>
      <trkpt lat="48.05449" lon="7.0055">
        <ele>1114.765625</ele>
        <time>2012-01-21T09:01:45Z</time>
      </trkpt>
      <trkpt lat="48.05454" lon="7.00564">
        <ele>1116.6484375</ele>
        <time>2012-01-21T09:02:05Z</time>
      </trkpt>
      <trkpt lat="48.05457" lon="7.00576">
        <ele>1118.1328125</ele>
        <time>2012-01-21T09:02:18Z</time>
      </trkpt>
      <trkpt lat="48.05459" lon="7.0059">
        <ele>1120.34375</ele>
        <time>2012-01-21T09:02:29Z</time>
      </trkpt>
      <trkpt lat="48.05459" lon="7.00595">
        <ele>1121.25390625</ele>
        <time>2012-01-21T09:02:50Z</time>
      </trkpt>
      <trkpt lat="48.05461" lon="7.00611">
        <ele>1123.70703125</ele>
        <time>2012-01-21T09:03:06Z</time>
      </trkpt>
      <trkpt lat="48.05462" lon="7.00623">
        <ele>1125.69921875</ele>
        <time>2012-01-21T09:03:19Z</time>
      </trkpt>
      <trkpt lat="48.05462" lon="7.00623">
        <ele>1125.69921875</ele>
        <time>2012-01-21T09:03:23Z</time>
      </trkpt>
      <trkpt lat="48.05467" lon="7.00641">
        <ele>1128.484375</ele>
        <time>2012-01-21T09:03:44Z</time>
      </trkpt>
      <trkpt lat="48.05478" lon="7.00652">
        <ele>1130.3359375</ele>
        <time>2012-01-21T09:04:06Z</time>
      </trkpt>
      <trkpt lat="48.05487" lon="7.00665">
        <ele>1132.54296875</ele>
        <time>2012-01-21T09:04:17Z</time>
      </trkpt>
      <trkpt lat="48.0549" lon="7.00672">
        <ele>1133.8125</ele>
        <time>2012-01-21T09:04:31Z</time>
      </trkpt>
      <trkpt lat="48.05494" lon="7.00681">
        <ele>1134.984375</ele>
        <time>2012-01-21T09:04:46Z</time>
      </trkpt>
      <trkpt lat="48.05495" lon="7.00683">
        <ele>1135.19140625</ele>
        <time>2012-01-21T09:04:47Z</time>
      </trkpt>
      <trkpt lat="48.05497" lon="7.00688">
        <ele>1135.69921875</ele>
        <time>2012-01-21T09:04:51Z</time>
      </trkpt>
      <trkpt lat="48.05503" lon="7.00705">
        <ele>1138.15625</ele>
        <time>2012-01-21T09:05:04Z</time>
      </trkpt>
      <trkpt lat="48.05504" lon="7.00707">
        <ele>1138.37109375</ele>
        <time>2012-01-21T09:05:06Z</time>
      </trkpt>
      <trkpt lat="48.05508" lon="7.00717">
        <ele>1139.92578125</ele>
        <time>2012-01-21T09:05:16Z</time>
      </trkpt>
      <trkpt lat="48.05511" lon="7.00728">
        <ele>1141.8125</ele>
        <time>2012-01-21T09:05:27Z</time>
      </trkpt>
      <trkpt lat="48.05512" lon="7.00733">
        <ele>1142.48046875</ele>
        <time>2012-01-21T09:05:33Z</time>
      </trkpt>
      <trkpt lat="48.05514" lon="7.00739">
        <ele>1143.46875</ele>
        <time>2012-01-21T09:05:43Z</time>
      </trkpt>
      <trkpt lat="48.05515" lon="7.00742">
        <ele>1143.91015625</ele>
        <time>2012-01-21T09:06:05Z</time>
      </trkpt>
      <trkpt lat="48.05515" lon="7.00743">
        <ele>1143.98046875</ele>
        <time>2012-01-21T09:06:10Z</time>
      </trkpt>
      <trkpt lat="48.05516" lon="7.00744">
        <ele>1144.08984375</ele>
        <time>2012-01-21T09:06:22Z</time>
      </trkpt>
      <trkpt lat="48.05516" lon="7.00744">
        <ele>1144.08984375</ele>
        <time>2012-01-21T09:06:52Z</time>
      </trkpt>
      <trkpt lat="48.05516" lon="7.00744">
        <ele>1144.12890625</ele>
        <time>2012-01-21T09:06:57Z</time>
      </trkpt>
      <trkpt lat="48.05516" lon="7.00744">
        <ele>1144.12890625</ele>
        <time>2012-01-21T09:07:04Z</time>
      </trkpt>
      <trkpt lat="48.05516" lon="7.00745">
        <ele>1144.25</ele>
        <time>2012-01-21T09:07:46Z</time>
      </trkpt>
      <trkpt lat="48.05516" lon="7.00745">
        <ele>1144.25</ele>
        <time>2012-01-21T09:07:50Z</time>
      </trkpt>
      <trkpt lat="48.05516" lon="7.00745">
        <ele>1144.25</ele>
        <time>2012-01-21T09:08:01Z</time>
      </trkpt>
      <trkpt lat="48.05517" lon="7.00757">
        <ele>1146.1484375</ele>
        <time>2012-01-21T09:09:54Z</time>
      </trkpt>
      <trkpt lat="48.0552" lon="7.00768">
        <ele>1147.51171875</ele>
        <time>2012-01-21T09:10:06Z</time>
      </trkpt>
      <trkpt lat="48.05523" lon="7.00778">
        <ele>1148.7265625</ele>
        <time>2012-01-21T09:10:18Z</time>
      </trkpt>
      <trkpt lat="48.05526" lon="7.00791">
        <ele>1150.69921875</ele>
        <time>2012-01-21T09:10:31Z</time>
      </trkpt>
      <trkpt lat="48.05527" lon="7.00801">
        <ele>1152.2421875</ele>
        <time>2012-01-21T09:10:53Z</time>
      </trkpt>
      <trkpt lat="48.05532" lon="7.00819">
        <ele>1154.56640625</ele>
        <time>2012-01-21T09:11:08Z</time>
      </trkpt>
      <trkpt lat="48.05534" lon="7.00833">
        <ele>1156.453125</ele>
        <time>2012-01-21T09:11:28Z</time>
      </trkpt>
      <trkpt lat="48.05535" lon="7.0084">
        <ele>1157.203125</ele>
        <time>2012-01-21T09:11:34Z</time>
      </trkpt>
      <trkpt lat="48.05535" lon="7.0084">
        <ele>1157.203125</ele>
        <time>2012-01-21T09:11:35Z</time>
      </trkpt>
      <trkpt lat="48.05535" lon="7.00861">
        <ele>1159.84765625</ele>
        <time>2012-01-21T09:12:06Z</time>
      </trkpt>
      <trkpt lat="48.05539" lon="7.00885">
        <ele>1162.46875</ele>
        <time>2012-01-21T09:12:23Z</time>
      </trkpt>
      <trkpt lat="48.05541" lon="7.00898">
        <ele>1163.96484375</ele>
        <time>2012-01-21T09:12:33Z</time>
      </trkpt>
      <trkpt lat="48.05546" lon="7.00912">
        <ele>1165.20703125</ele>
        <time>2012-01-21T09:12:48Z</time>
      </trkpt>
      <trkpt lat="48.05546" lon="7.00925">
        <ele>1166.7734375</ele>
        <time>2012-01-21T09:13:10Z</time>
      </trkpt>
      <trkpt lat="48.05548" lon="7.00933">
        <ele>1167.5078125</ele>
        <time>2012-01-21T09:14:01Z</time>
      </trkpt>
      <trkpt lat="48.05548" lon="7.00933">
        <ele>1167.5078125</ele>
        <time>2012-01-21T09:14:02Z</time>
      </trkpt>
      <trkpt lat="48.05548" lon="7.00933">
        <ele>1167.5078125</ele>
        <time>2012-01-21T09:14:06Z</time>
      </trkpt>
      <trkpt lat="48.05548" lon="7.00933">
        <ele>1167.5078125</ele>
        <time>2012-01-21T09:14:11Z</time>
      </trkpt>
      <trkpt lat="48.05548" lon="7.00933">
        <ele>1167.5078125</ele>
        <time>2012-01-21T09:15:40Z</time>
      </trkpt>
      <trkpt lat="48.05548" lon="7.00949">
        <ele>1169.40625</ele>
        <time>2012-01-21T09:15:57Z</time>
      </trkpt>
      <trkpt lat="48.05546" lon="7.00954">
        <ele>1170.1953125</ele>
        <time>2012-01-21T09:16:03Z</time>
      </trkpt>
      <trkpt lat="48.05542" lon="7.00968">
        <ele>1172.34375</ele>
        <time>2012-01-21T09:16:14Z</time>
      </trkpt>
      <trkpt lat="48.05539" lon="7.00982">
        <ele>1174.29296875</ele>
        <time>2012-01-21T09:16:38Z</time>
      </trkpt>
      <trkpt lat="48.0554" lon="7.00988">
        <ele>1174.88671875</ele>
        <time>2012-01-21T09:16:43Z</time>
      </trkpt>
      <trkpt lat="48.0554" lon="7.00989">
        <ele>1174.98828125</ele>
        <time>2012-01-21T09:16:44Z</time>
      </trkpt>
      <trkpt lat="48.05539" lon="7.01">
        <ele>1176.05078125</ele>
        <time>2012-01-21T09:16:58Z</time>
      </trkpt>
      <trkpt lat="48.05535" lon="7.01013">
        <ele>1177.359375</ele>
        <time>2012-01-21T09:17:12Z</time>
      </trkpt>
      <trkpt lat="48.05532" lon="7.01022">
        <ele>1178.41015625</ele>
        <time>2012-01-21T09:17:17Z</time>
      </trkpt>
      <trkpt lat="48.05529" lon="7.01027">
        <ele>1179.0234375</ele>
        <time>2012-01-21T09:17:21Z</time>
      </trkpt>
      <trkpt lat="48.05522" lon="7.01034">
        <ele>1180.2109375</ele>
        <time>2012-01-21T09:17:35Z</time>
      </trkpt>
      <trkpt lat="48.05517" lon="7.01042">
        <ele>1181.24609375</ele>
        <time>2012-01-21T09:17:44Z</time>
      </trkpt>
      <trkpt lat="48.05513" lon="7.01053">
        <ele>1182.4765625</ele>
        <time>2012-01-21T09:17:51Z</time>
      </trkpt>
      <trkpt lat="48.0551" lon="7.01068">
        <ele>1183.84765625</ele>
        <time>2012-01-21T09:18:03Z</time>
      </trkpt>
      <trkpt lat="48.05509" lon="7.01069">
        <ele>1183.95703125</ele>
        <time>2012-01-21T09:18:05Z</time>
      </trkpt>
      <trkpt lat="48.05509" lon="7.01072">
        <ele>1184.265625</ele>
        <time>2012-01-21T09:18:09Z</time>
      </trkpt>
      <trkpt lat="48.05508" lon="7.01077">
        <ele>1184.76171875</ele>
        <time>2012-01-21T09:18:15Z</time>
      </trkpt>
      <trkpt lat="48.05509" lon="7.01085">
        <ele>1185.32421875</ele>
        <time>2012-01-21T09:18:28Z</time>
      </trkpt>
      <trkpt lat="48.05512" lon="7.01105">
        <ele>1186.8203125</ele>
        <time>2012-01-21T09:18:42Z</time>
      </trkpt>
      <trkpt lat="48.05516" lon="7.0112">
        <ele>1187.62109375</ele>
        <time>2012-01-21T09:18:54Z</time>
      </trkpt>
      <trkpt lat="48.05517" lon="7.01127">
        <ele>1188.18359375</ele>
        <time>2012-01-21T09:19:09Z</time>
      </trkpt>
      <trkpt lat="48.05522" lon="7.01134">
        <ele>1188.30859375</ele>
        <time>2012-01-21T09:19:17Z</time>
      </trkpt>
      <trkpt lat="48.05524" lon="7.01135">
        <ele>1188.234375</ele>
        <time>2012-01-21T09:19:19Z</time>
      </trkpt>
      <trkpt lat="48.05526" lon="7.01137">
        <ele>1188.32421875</ele>
        <time>2012-01-21T09:19:26Z</time>
      </trkpt>
      <trkpt lat="48.05529" lon="7.01137">
        <ele>1188.0234375</ele>
        <time>2012-01-21T09:19:39Z</time>
      </trkpt>
      <trkpt lat="48.05529" lon="7.01138">
        <ele>1188.0390625</ele>
        <time>2012-01-21T09:19:51Z</time>
      </trkpt>
      <trkpt lat="48.05536" lon="7.01142">
        <ele>1187.87109375</ele>
        <time>2012-01-21T09:21:48Z</time>
      </trkpt>
      <trkpt lat="48.05536" lon="7.01142">
        <ele>1187.87109375</ele>
        <time>2012-01-21T09:21:54Z</time>
      </trkpt>
      <trkpt lat="48.05535" lon="7.01142">
        <ele>1187.8828125</ele>
        <time>2012-01-21T09:23:07Z</time>
      </trkpt>
      <trkpt lat="48.05538" lon="7.01145">
        <ele>1187.94921875</ele>
        <time>2012-01-21T09:23:18Z</time>
      </trkpt>
      <trkpt lat="48.05546" lon="7.01156">
        <ele>1188.18359375</ele>
        <time>2012-01-21T09:23:33Z</time>
      </trkpt>
      <trkpt lat="48.05546" lon="7.01171">
        <ele>1189.87109375</ele>
        <time>2012-01-21T09:23:46Z</time>
      </trkpt>
      <trkpt lat="48.05545" lon="7.01185">
        <ele>1191.57421875</ele>
        <time>2012-01-21T09:24:00Z</time>
      </trkpt>
      <trkpt lat="48.05546" lon="7.01198">
        <ele>1192.8828125</ele>
        <time>2012-01-21T09:24:12Z</time>
      </trkpt>
      <trkpt lat="48.05547" lon="7.01214">
        <ele>1194.609375</ele>
        <time>2012-01-21T09:24:24Z</time>
      </trkpt>
      <trkpt lat="48.05548" lon="7.01221">
        <ele>1195.35546875</ele>
        <time>2012-01-21T09:24:36Z</time>
      </trkpt>
      <trkpt lat="48.05553" lon="7.01232">
        <ele>1196.28125</ele>
        <time>2012-01-21T09:24:47Z</time>
      </trkpt>
      <trkpt lat="48.05556" lon="7.01249">
        <ele>1198.1640625</ele>
        <time>2012-01-21T09:25:01Z</time>
      </trkpt>
      <trkpt lat="48.0556" lon="7.0126">
        <ele>1199.40234375</ele>
        <time>2012-01-21T09:25:13Z</time>
      </trkpt>
      <trkpt lat="48.05565" lon="7.0127">
        <ele>1200.4453125</ele>
        <time>2012-01-21T09:25:26Z</time>
      </trkpt>
      <trkpt lat="48.05569" lon="7.01281">
        <ele>1201.6953125</ele>
        <time>2012-01-21T09:25:36Z</time>
      </trkpt>
      <trkpt lat="48.05573" lon="7.01285">
        <ele>1201.8203125</ele>
        <time>2012-01-21T09:25:51Z</time>
      </trkpt>
      <trkpt lat="48.05576" lon="7.01288">
        <ele>1201.796875</ele>
        <time>2012-01-21T09:26:04Z</time>
      </trkpt>
      <trkpt lat="48.05579" lon="7.01295">
        <ele>1202.08203125</ele>
        <time>2012-01-21T09:26:21Z</time>
      </trkpt>
      <trkpt lat="48.05581" lon="7.01306">
        <ele>1203.31640625</ele>
        <time>2012-01-21T09:26:31Z</time>
      </trkpt>
      <trkpt lat="48.05583" lon="7.01316">
        <ele>1204.3984375</ele>
        <time>2012-01-21T09:26:41Z</time>
      </trkpt>
      <trkpt lat="48.05583" lon="7.01319">
        <ele>1204.69140625</ele>
        <time>2012-01-21T09:26:42Z</time>
      </trkpt>
      <trkpt lat="48.05585" lon="7.0133">
        <ele>1205.75390625</ele>
        <time>2012-01-21T09:26:54Z</time>
      </trkpt>
      <trkpt lat="48.05586" lon="7.01339">
        <ele>1206.61328125</ele>
        <time>2012-01-21T09:27:17Z</time>
      </trkpt>
      <trkpt lat="48.05587" lon="7.01342">
        <ele>1206.7890625</ele>
        <time>2012-01-21T09:27:36Z</time>
      </trkpt>
      <trkpt lat="48.05588" lon="7.01345">
        <ele>1207.01953125</ele>
        <time>2012-01-21T09:27:54Z</time>
      </trkpt>
      <trkpt lat="48.05587" lon="7.01356">
        <ele>1208.37109375</ele>
        <time>2012-01-21T09:28:06Z</time>
      </trkpt>
      <trkpt lat="48.05588" lon="7.0136">
        <ele>1208.72265625</ele>
        <time>2012-01-21T09:29:28Z</time>
      </trkpt>
      <trkpt lat="48.05588" lon="7.01362">
        <ele>1208.921875</ele>
        <time>2012-01-21T09:30:45Z</time>
      </trkpt>
      <trkpt lat="48.05588" lon="7.01366">
        <ele>1209.421875</ele>
        <time>2012-01-21T09:31:05Z</time>
      </trkpt>
      <trkpt lat="48.05588" lon="7.01366">
        <ele>1209.34375</ele>
        <time>2012-01-21T09:31:28Z</time>
      </trkpt>
      <trkpt lat="48.05588" lon="7.01366">
        <ele>1209.3203125</ele>
        <time>2012-01-21T09:31:58Z</time>
      </trkpt>
      <trkpt lat="48.05588" lon="7.01366">
        <ele>1209.3203125</ele>
        <time>2012-01-21T09:32:02Z</time>
      </trkpt>
      <trkpt lat="48.05588" lon="7.01366">
        <ele>1209.3203125</ele>
        <time>2012-01-21T09:32:09Z</time>
      </trkpt>
      <trkpt lat="48.05588" lon="7.01366">
        <ele>1209.3203125</ele>
        <time>2012-01-21T09:32:13Z</time>
      </trkpt>
      <trkpt lat="48.05588" lon="7.01366">
        <ele>1209.3203125</ele>
        <time>2012-01-21T09:32:16Z</time>
      </trkpt>
      <trkpt lat="48.05588" lon="7.01366">
        <ele>1209.3203125</ele>
        <time>2012-01-21T09:32:20Z</time>
      </trkpt>
      <trkpt lat="48.05588" lon="7.01366">
        <ele>1209.33984375</ele>
        <time>2012-01-21T09:32:32Z</time>
      </trkpt>
      <trkpt lat="48.05588" lon="7.01366">
        <ele>1209.34765625</ele>
        <time>2012-01-21T09:32:54Z</time>
      </trkpt>
      <trkpt lat="48.05589" lon="7.01369">
        <ele>1209.6484375</ele>
        <time>2012-01-21T09:33:16Z</time>
      </trkpt>
      <trkpt lat="48.05587" lon="7.0138">
        <ele>1211.03125</ele>
        <time>2012-01-21T09:33:36Z</time>
      </trkpt>
      <trkpt lat="48.05591" lon="7.01399">
        <ele>1212.765625</ele>
        <time>2012-01-21T09:33:50Z</time>
      </trkpt>
      <trkpt lat="48.05591" lon="7.01414">
        <ele>1214.40234375</ele>
        <time>2012-01-21T09:34:03Z</time>
      </trkpt>
      <trkpt lat="48.05594" lon="7.01427">
        <ele>1215.7890625</ele>
        <time>2012-01-21T09:34:15Z</time>
      </trkpt>
      <trkpt lat="48.05596" lon="7.01436">
        <ele>1216.58984375</ele>
        <time>2012-01-21T09:34:28Z</time>
      </trkpt>
      <trkpt lat="48.05596" lon="7.01444">
        <ele>1217.48828125</ele>
        <time>2012-01-21T09:34:42Z</time>
      </trkpt>
      <trkpt lat="48.056" lon="7.01457">
        <ele>1218.7109375</ele>
        <time>2012-01-21T09:34:56Z</time>
      </trkpt>
      <trkpt lat="48.05601" lon="7.01468">
        <ele>1219.8515625</ele>
        <time>2012-01-21T09:35:13Z</time>
      </trkpt>
      <trkpt lat="48.05607" lon="7.01485">
        <ele>1221.265625</ele>
        <time>2012-01-21T09:35:23Z</time>
      </trkpt>
      <trkpt lat="48.05611" lon="7.01498">
        <ele>1222.32421875</ele>
        <time>2012-01-21T09:35:34Z</time>
      </trkpt>
      <trkpt lat="48.05612" lon="7.01504">
        <ele>1223.0546875</ele>
        <time>2012-01-21T09:35:43Z</time>
      </trkpt>
      <trkpt lat="48.05611" lon="7.01508">
        <ele>1223.71875</ele>
        <time>2012-01-21T09:35:57Z</time>
      </trkpt>
      <trkpt lat="48.05616" lon="7.01529">
        <ele>1225.81640625</ele>
        <time>2012-01-21T09:36:12Z</time>
      </trkpt>
      <trkpt lat="48.05626" lon="7.01538">
        <ele>1226.015625</ele>
        <time>2012-01-21T09:36:24Z</time>
      </trkpt>
      <trkpt lat="48.05634" lon="7.01548">
        <ele>1226.48828125</ele>
        <time>2012-01-21T09:36:39Z</time>
      </trkpt>
      <trkpt lat="48.05636" lon="7.01551">
        <ele>1226.73828125</ele>
        <time>2012-01-21T09:36:41Z</time>
      </trkpt>
      <trkpt lat="48.05639" lon="7.01563">
        <ele>1228.1015625</ele>
        <time>2012-01-21T09:36:52Z</time>
      </trkpt>
      <trkpt lat="48.05642" lon="7.01569">
        <ele>1228.609375</ele>
        <time>2012-01-21T09:37:02Z</time>
      </trkpt>
      <trkpt lat="48.05645" lon="7.01576">
        <ele>1229.3046875</ele>
        <time>2012-01-21T09:37:13Z</time>
      </trkpt>
      <trkpt lat="48.0565" lon="7.01587">
        <ele>1230.171875</ele>
        <time>2012-01-21T09:37:25Z</time>
      </trkpt>
      <trkpt lat="48.05656" lon="7.01595">
        <ele>1230.6015625</ele>
        <time>2012-01-21T09:37:37Z</time>
      </trkpt>
      <trkpt lat="48.05664" lon="7.01606">
        <ele>1231.3046875</ele>
        <time>2012-01-21T09:37:46Z</time>
      </trkpt>
      <trkpt lat="48.05666" lon="7.0161">
        <ele>1231.57421875</ele>
        <time>2012-01-21T09:37:51Z</time>
      </trkpt>
      <trkpt lat="48.05671" lon="7.01618">
        <ele>1232.125</ele>
        <time>2012-01-21T09:37:58Z</time>
      </trkpt>
      <trkpt lat="48.05678" lon="7.01626">
        <ele>1232.58984375</ele>
        <time>2012-01-21T09:38:13Z</time>
      </trkpt>
      <trkpt lat="48.05683" lon="7.01631">
        <ele>1232.9375</ele>
        <time>2012-01-21T09:38:19Z</time>
      </trkpt>
      <trkpt lat="48.05687" lon="7.01636">
        <ele>1233.328125</ele>
        <time>2012-01-21T09:38:25Z</time>
      </trkpt>
      <trkpt lat="48.05687" lon="7.01639">
        <ele>1233.7109375</ele>
        <time>2012-01-21T09:38:33Z</time>
      </trkpt>
      <trkpt lat="48.05691" lon="7.0165">
        <ele>1234.99609375</ele>
        <time>2012-01-21T09:38:41Z</time>
      </trkpt>
      <trkpt lat="48.05693" lon="7.01658">
        <ele>1235.921875</ele>
        <time>2012-01-21T09:39:03Z</time>
      </trkpt>
      <trkpt lat="48.05693" lon="7.01661">
        <ele>1236.08984375</ele>
        <time>2012-01-21T09:40:32Z</time>
      </trkpt>
      <trkpt lat="48.05693" lon="7.01663">
        <ele>1236.27734375</ele>
        <time>2012-01-21T09:41:53Z</time>
      </trkpt>
      <trkpt lat="48.05692" lon="7.01664">
        <ele>1236.43359375</ele>
        <time>2012-01-21T09:44:46Z</time>
      </trkpt>
      <trkpt lat="48.05693" lon="7.01667">
        <ele>1236.5859375</ele>
        <time>2012-01-21T09:45:30Z</time>
      </trkpt>
      <trkpt lat="48.05693" lon="7.01667">
        <ele>1236.5859375</ele>
        <time>2012-01-21T09:45:36Z</time>
      </trkpt>
      <trkpt lat="48.05693" lon="7.01667">
        <ele>1236.5859375</ele>
        <time>2012-01-21T09:45:45Z</time>
      </trkpt>
      <trkpt lat="48.05693" lon="7.01667">
        <ele>1236.5859375</ele>
        <time>2012-01-21T09:45:50Z</time>
      </trkpt>
      <trkpt lat="48.05693" lon="7.01667">
        <ele>1236.5859375</ele>
        <time>2012-01-21T09:45:55Z</time>
      </trkpt>
      <trkpt lat="48.05693" lon="7.01667">
        <ele>1236.58203125</ele>
        <time>2012-01-21T09:47:01Z</time>
      </trkpt>
      <trkpt lat="48.05693" lon="7.01667">
        <ele>1236.58203125</ele>
        <time>2012-01-21T09:47:10Z</time>
      </trkpt>
      <trkpt lat="48.05692" lon="7.01667">
        <ele>1236.59375</ele>
        <time>2012-01-21T09:48:38Z</time>
      </trkpt>
      <trkpt lat="48.05692" lon="7.01667">
        <ele>1236.59375</ele>
        <time>2012-01-21T09:48:39Z</time>
      </trkpt>
      <trkpt lat="48.05693" lon="7.01678">
        <ele>1237.41015625</ele>
        <time>2012-01-21T09:50:00Z</time>
      </trkpt>
      <trkpt lat="48.05684" lon="7.01684">
        <ele>1238.21875</ele>
        <time>2012-01-21T09:50:11Z</time>
      </trkpt>
      <trkpt lat="48.05681" lon="7.01687">
        <ele>1238.51953125</ele>
        <time>2012-01-21T09:50:24Z</time>
      </trkpt>
      <trkpt lat="48.05673" lon="7.01693">
        <ele>1239.2109375</ele>
        <time>2012-01-21T09:50:35Z</time>
      </trkpt>
      <trkpt lat="48.05665" lon="7.01701">
        <ele>1239.8828125</ele>
        <time>2012-01-21T09:50:48Z</time>
      </trkpt>
      <trkpt lat="48.05662" lon="7.01704">
        <ele>1240.14453125</ele>
        <time>2012-01-21T09:50:52Z</time>
      </trkpt>
      <trkpt lat="48.05655" lon="7.01709">
        <ele>1240.55078125</ele>
        <time>2012-01-21T09:51:04Z</time>
      </trkpt>
      <trkpt lat="48.05648" lon="7.01713">
        <ele>1240.83984375</ele>
        <time>2012-01-21T09:51:15Z</time>
      </trkpt>
      <trkpt lat="48.05638" lon="7.01715">
        <ele>1241.00390625</ele>
        <time>2012-01-21T09:51:27Z</time>
      </trkpt>
      <trkpt lat="48.05629" lon="7.01718">
        <ele>1241.21484375</ele>
        <time>2012-01-21T09:51:38Z</time>
      </trkpt>
      <trkpt lat="48.05626" lon="7.01719">
        <ele>1241.26953125</ele>
        <time>2012-01-21T09:51:41Z</time>
      </trkpt>
      <trkpt lat="48.05617" lon="7.01713">
        <ele>1241.19140625</ele>
        <time>2012-01-21T09:51:54Z</time>
      </trkpt>
      <trkpt lat="48.05608" lon="7.01713">
        <ele>1241.296875</ele>
        <time>2012-01-21T09:52:05Z</time>
      </trkpt>
      <trkpt lat="48.05603" lon="7.01718">
        <ele>1241.46484375</ele>
        <time>2012-01-21T09:52:18Z</time>
      </trkpt>
      <trkpt lat="48.05594" lon="7.01722">
        <ele>1241.62890625</ele>
        <time>2012-01-21T09:52:29Z</time>
      </trkpt>
      <trkpt lat="48.05591" lon="7.01725">
        <ele>1241.71484375</ele>
        <time>2012-01-21T09:52:32Z</time>
      </trkpt>
      <trkpt lat="48.05585" lon="7.01729">
        <ele>1241.82421875</ele>
        <time>2012-01-21T09:52:38Z</time>
      </trkpt>
      <trkpt lat="48.05573" lon="7.01728">
        <ele>1241.85546875</ele>
        <time>2012-01-21T09:52:50Z</time>
      </trkpt>
      <trkpt lat="48.05566" lon="7.01728">
        <ele>1241.87890625</ele>
        <time>2012-01-21T09:53:01Z</time>
      </trkpt>
      <trkpt lat="48.05557" lon="7.01729">
        <ele>1241.90625</ele>
        <time>2012-01-21T09:53:12Z</time>
      </trkpt>
      <trkpt lat="48.05548" lon="7.01731">
        <ele>1241.9296875</ele>
        <time>2012-01-21T09:53:24Z</time>
      </trkpt>
      <trkpt lat="48.05543" lon="7.01732">
        <ele>1241.94140625</ele>
        <time>2012-01-21T09:53:32Z</time>
      </trkpt>
      <trkpt lat="48.05533" lon="7.01739">
        <ele>1241.99609375</ele>
        <time>2012-01-21T09:53:43Z</time>
      </trkpt>
      <trkpt lat="48.05528" lon="7.01737">
        <ele>1241.98828125</ele>
        <time>2012-01-21T09:53:51Z</time>
      </trkpt>
      <trkpt lat="48.05524" lon="7.01733">
        <ele>1241.96875</ele>
        <time>2012-01-21T09:53:55Z</time>
      </trkpt>
      <trkpt lat="48.05517" lon="7.01732">
        <ele>1241.97265625</ele>
        <time>2012-01-21T09:54:02Z</time>
      </trkpt>
      <trkpt lat="48.05506" lon="7.01737">
        <ele>1241.99609375</ele>
        <time>2012-01-21T09:54:13Z</time>
      </trkpt>
      <trkpt lat="48.055" lon="7.01737">
        <ele>1241.99609375</ele>
        <time>2012-01-21T09:54:23Z</time>
      </trkpt>
      <trkpt lat="48.0549" lon="7.01732">
        <ele>1242</ele>
        <time>2012-01-21T09:54:34Z</time>
      </trkpt>
      <trkpt lat="48.05475" lon="7.01734">
        <ele>1242</ele>
        <time>2012-01-21T09:54:48Z</time>
      </trkpt>
      <trkpt lat="48.05467" lon="7.01736">
        <ele>1242</ele>
        <time>2012-01-21T09:54:59Z</time>
      </trkpt>
      <trkpt lat="48.05455" lon="7.01739">
        <ele>1242</ele>
        <time>2012-01-21T09:55:11Z</time>
      </trkpt>
      <trkpt lat="48.05443" lon="7.01739">
        <ele>1242</ele>
        <time>2012-01-21T09:55:24Z</time>
      </trkpt>
      <trkpt lat="48.05435" lon="7.0174">
        <ele>1241.98828125</ele>
        <time>2012-01-21T09:55:33Z</time>
      </trkpt>
      <trkpt lat="48.05424" lon="7.01736">
        <ele>1242</ele>
        <time>2012-01-21T09:55:45Z</time>
      </trkpt>
      <trkpt lat="48.05411" lon="7.01739">
        <ele>1242</ele>
        <time>2012-01-21T09:55:57Z</time>
      </trkpt>
      <trkpt lat="48.05401" lon="7.01744">
        <ele>1241.890625</ele>
        <time>2012-01-21T09:56:10Z</time>
      </trkpt>
      <trkpt lat="48.05396" lon="7.01753">
        <ele>1241.73828125</ele>
        <time>2012-01-21T09:56:20Z</time>
      </trkpt>
      <trkpt lat="48.05392" lon="7.01762">
        <ele>1241.609375</ele>
        <time>2012-01-21T09:56:30Z</time>
      </trkpt>
      <trkpt lat="48.05386" lon="7.01776">
        <ele>1241.4296875</ele>
        <time>2012-01-21T09:56:41Z</time>
      </trkpt>
      <trkpt lat="48.05384" lon="7.01787">
        <ele>1241.31640625</ele>
        <time>2012-01-21T09:56:53Z</time>
      </trkpt>
      <trkpt lat="48.05383" lon="7.01791">
        <ele>1241.2734375</ele>
        <time>2012-01-21T09:57:05Z</time>
      </trkpt>
      <trkpt lat="48.05381" lon="7.01794">
        <ele>1241.24609375</ele>
        <time>2012-01-21T09:57:16Z</time>
      </trkpt>
      <trkpt lat="48.05381" lon="7.01794">
        <ele>1241.24609375</ele>
        <time>2012-01-21T09:57:20Z</time>
      </trkpt>
      <trkpt lat="48.05381" lon="7.01794">
        <ele>1241.24609375</ele>
        <time>2012-01-21T09:57:30Z</time>
      </trkpt>
      <trkpt lat="48.05381" lon="7.01794">
        <ele>1241.24609375</ele>
        <time>2012-01-21T09:57:34Z</time>
      </trkpt>
      <trkpt lat="48.05381" lon="7.01794">
        <ele>1241.24609375</ele>
        <time>2012-01-21T09:57:47Z</time>
      </trkpt>
      <trkpt lat="48.05381" lon="7.01794">
        <ele>1241.24609375</ele>
        <time>2012-01-21T09:58:28Z</time>
      </trkpt>
      <trkpt lat="48.05381" lon="7.01798">
        <ele>1241.2109375</ele>
        <time>2012-01-21T09:58:52Z</time>
      </trkpt>
      <trkpt lat="48.05381" lon="7.01804">
        <ele>1241.15625</ele>
        <time>2012-01-21T09:59:09Z</time>
      </trkpt>
      <trkpt lat="48.05381" lon="7.01806">
        <ele>1241.14453125</ele>
        <time>2012-01-21T09:59:16Z</time>
      </trkpt>
      <trkpt lat="48.05381" lon="7.0181">
        <ele>1241.10546875</ele>
        <time>2012-01-21T09:59:18Z</time>
      </trkpt>
      <trkpt lat="48.05384" lon="7.01829">
        <ele>1240.98046875</ele>
        <time>2012-01-21T09:59:34Z</time>
      </trkpt>
      <trkpt lat="48.05383" lon="7.01848">
        <ele>1240.9140625</ele>
        <time>2012-01-21T09:59:45Z</time>
      </trkpt>
      <trkpt lat="48.05383" lon="7.01862">
        <ele>1240.87109375</ele>
        <time>2012-01-21T09:59:55Z</time>
      </trkpt>
      <trkpt lat="48.05379" lon="7.01873">
        <ele>1240.80859375</ele>
        <time>2012-01-21T10:00:03Z</time>
      </trkpt>
      <trkpt lat="48.05374" lon="7.01881">
        <ele>1240.73046875</ele>
        <time>2012-01-21T10:00:15Z</time>
      </trkpt>
      <trkpt lat="48.05368" lon="7.01888">
        <ele>1240.6484375</ele>
        <time>2012-01-21T10:00:27Z</time>
      </trkpt>
      <trkpt lat="48.05366" lon="7.0189">
        <ele>1240.6171875</ele>
        <time>2012-01-21T10:00:29Z</time>
      </trkpt>
      <trkpt lat="48.05357" lon="7.01895">
        <ele>1240.48828125</ele>
        <time>2012-01-21T10:00:37Z</time>
      </trkpt>
      <trkpt lat="48.05348" lon="7.01897">
        <ele>1240.375</ele>
        <time>2012-01-21T10:00:50Z</time>
      </trkpt>
      <trkpt lat="48.05347" lon="7.01896">
        <ele>1240.37890625</ele>
        <time>2012-01-21T10:00:53Z</time>
      </trkpt>
      <trkpt lat="48.05347" lon="7.01896">
        <ele>1240.37890625</ele>
        <time>2012-01-21T10:01:14Z</time>
      </trkpt>
      <trkpt lat="48.05348" lon="7.01897">
        <ele>1240.37890625</ele>
        <time>2012-01-21T10:01:36Z</time>
      </trkpt>
      <trkpt lat="48.05348" lon="7.01897">
        <ele>1240.37890625</ele>
        <time>2012-01-21T10:02:06Z</time>
      </trkpt>
      <trkpt lat="48.05346" lon="7.01894">
        <ele>1240.3828125</ele>
        <time>2012-01-21T10:02:09Z</time>
      </trkpt>
      <trkpt lat="48.0534" lon="7.01891">
        <ele>1240.3515625</ele>
        <time>2012-01-21T10:02:14Z</time>
      </trkpt>
      <trkpt lat="48.05331" lon="7.01894">
        <ele>1240.23046875</ele>
        <time>2012-01-21T10:02:25Z</time>
      </trkpt>
      <trkpt lat="48.0532" lon="7.01898">
        <ele>1239.90625</ele>
        <time>2012-01-21T10:02:36Z</time>
      </trkpt>
      <trkpt lat="48.0531" lon="7.01902">
        <ele>1239.1953125</ele>
        <time>2012-01-21T10:02:47Z</time>
      </trkpt>
      <trkpt lat="48.0531" lon="7.01903">
        <ele>1239.140625</ele>
        <time>2012-01-21T10:02:48Z</time>
      </trkpt>
      <trkpt lat="48.05309" lon="7.01904">
        <ele>1239.078125</ele>
        <time>2012-01-21T10:02:49Z</time>
      </trkpt>
      <trkpt lat="48.05302" lon="7.01911">
        <ele>1238.4140625</ele>
        <time>2012-01-21T10:03:00Z</time>
      </trkpt>
      <trkpt lat="48.05301" lon="7.01912">
        <ele>1238.2421875</ele>
        <time>2012-01-21T10:03:03Z</time>
      </trkpt>
      <trkpt lat="48.05291" lon="7.01917">
        <ele>1237.421875</ele>
        <time>2012-01-21T10:03:13Z</time>
      </trkpt>
      <trkpt lat="48.05283" lon="7.01927">
        <ele>1236.4296875</ele>
        <time>2012-01-21T10:03:24Z</time>
      </trkpt>
      <trkpt lat="48.05278" lon="7.01933">
        <ele>1235.8203125</ele>
        <time>2012-01-21T10:03:31Z</time>
      </trkpt>
      <trkpt lat="48.05268" lon="7.01946">
        <ele>1234.51171875</ele>
        <time>2012-01-21T10:03:45Z</time>
      </trkpt>
      <trkpt lat="48.05259" lon="7.01959">
        <ele>1233.2421875</ele>
        <time>2012-01-21T10:03:56Z</time>
      </trkpt>
      <trkpt lat="48.05248" lon="7.01969">
        <ele>1231.734375</ele>
        <time>2012-01-21T10:04:09Z</time>
      </trkpt>
      <trkpt lat="48.05244" lon="7.01978">
        <ele>1231.00390625</ele>
        <time>2012-01-21T10:04:17Z</time>
      </trkpt>
      <trkpt lat="48.05239" lon="7.01982">
        <ele>1230.33984375</ele>
        <time>2012-01-21T10:04:24Z</time>
      </trkpt>
      <trkpt lat="48.05233" lon="7.01989">
        <ele>1229.18359375</ele>
        <time>2012-01-21T10:04:33Z</time>
      </trkpt>
      <trkpt lat="48.05222" lon="7.01999">
        <ele>1227.36328125</ele>
        <time>2012-01-21T10:04:45Z</time>
      </trkpt>
      <trkpt lat="48.05214" lon="7.02007">
        <ele>1226.12890625</ele>
        <time>2012-01-21T10:04:56Z</time>
      </trkpt>
      <trkpt lat="48.05212" lon="7.0201">
        <ele>1225.7109375</ele>
        <time>2012-01-21T10:04:59Z</time>
      </trkpt>
      <trkpt lat="48.05201" lon="7.02021">
        <ele>1224.1796875</ele>
        <time>2012-01-21T10:05:12Z</time>
      </trkpt>
      <trkpt lat="48.05197" lon="7.02024">
        <ele>1223.640625</ele>
        <time>2012-01-21T10:05:17Z</time>
      </trkpt>
      <trkpt lat="48.05185" lon="7.02034">
        <ele>1222.1015625</ele>
        <time>2012-01-21T10:05:30Z</time>
      </trkpt>
      <trkpt lat="48.05184" lon="7.02036">
        <ele>1222.01953125</ele>
        <time>2012-01-21T10:05:31Z</time>
      </trkpt>
      <trkpt lat="48.05181" lon="7.0204">
        <ele>1221.6484375</ele>
        <time>2012-01-21T10:05:35Z</time>
      </trkpt>
      <trkpt lat="48.05177" lon="7.02043">
        <ele>1221.13671875</ele>
        <time>2012-01-21T10:05:39Z</time>
      </trkpt>
      <trkpt lat="48.05167" lon="7.02045">
        <ele>1220.1171875</ele>
        <time>2012-01-21T10:05:47Z</time>
      </trkpt>
      <trkpt lat="48.05164" lon="7.02046">
        <ele>1219.875</ele>
        <time>2012-01-21T10:05:49Z</time>
      </trkpt>
      <trkpt lat="48.05159" lon="7.02042">
        <ele>1219.3046875</ele>
        <time>2012-01-21T10:05:55Z</time>
      </trkpt>
      <trkpt lat="48.05148" lon="7.02041">
        <ele>1215.33203125</ele>
        <time>2012-01-21T10:06:05Z</time>
      </trkpt>
      <trkpt lat="48.05146" lon="7.0204">
        <ele>1214.2265625</ele>
        <time>2012-01-21T10:06:07Z</time>
      </trkpt>
      <trkpt lat="48.05139" lon="7.02038">
        <ele>1210.5390625</ele>
        <time>2012-01-21T10:06:15Z</time>
      </trkpt>
      <trkpt lat="48.05135" lon="7.02035">
        <ele>1208.03125</ele>
        <time>2012-01-21T10:06:23Z</time>
      </trkpt>
      <trkpt lat="48.05134" lon="7.02034">
        <ele>1207.51171875</ele>
        <time>2012-01-21T10:06:26Z</time>
      </trkpt>
      <trkpt lat="48.05133" lon="7.02033">
        <ele>1207.02734375</ele>
        <time>2012-01-21T10:06:28Z</time>
      </trkpt>
      <trkpt lat="48.05133" lon="7.02033">
        <ele>1206.8515625</ele>
        <time>2012-01-21T10:06:30Z</time>
      </trkpt>
      <trkpt lat="48.05132" lon="7.02032">
        <ele>1206.39453125</ele>
        <time>2012-01-21T10:06:44Z</time>
      </trkpt>
      <trkpt lat="48.05132" lon="7.02032">
        <ele>1206.39453125</ele>
        <time>2012-01-21T10:06:48Z</time>
      </trkpt>
      <trkpt lat="48.05132" lon="7.02032">
        <ele>1206.39453125</ele>
        <time>2012-01-21T10:07:03Z</time>
      </trkpt>
      <trkpt lat="48.05132" lon="7.02032">
        <ele>1206.39453125</ele>
        <time>2012-01-21T10:07:07Z</time>
      </trkpt>
      <trkpt lat="48.05132" lon="7.02032">
        <ele>1206.39453125</ele>
        <time>2012-01-21T10:07:11Z</time>
      </trkpt>
      <trkpt lat="48.05132" lon="7.02032">
        <ele>1206.390625</ele>
        <time>2012-01-21T10:07:30Z</time>
      </trkpt>
      <trkpt lat="48.05132" lon="7.02032">
        <ele>1206.390625</ele>
        <time>2012-01-21T10:07:38Z</time>
      </trkpt>
      <trkpt lat="48.05132" lon="7.02032">
        <ele>1206.390625</ele>
        <time>2012-01-21T10:07:40Z</time>
      </trkpt>
      <trkpt lat="48.05132" lon="7.02032">
        <ele>1206.390625</ele>
        <time>2012-01-21T10:07:43Z</time>
      </trkpt>
      <trkpt lat="48.05131" lon="7.02031">
        <ele>1206.08984375</ele>
        <time>2012-01-21T10:07:45Z</time>
      </trkpt>
      <trkpt lat="48.05132" lon="7.02031">
        <ele>1206.140625</ele>
        <time>2012-01-21T10:08:33Z</time>
      </trkpt>
      <trkpt lat="48.0513" lon="7.02027">
        <ele>1205.40234375</ele>
        <time>2012-01-21T10:08:56Z</time>
      </trkpt>
      <trkpt lat="48.05128" lon="7.02025">
        <ele>1204.16015625</ele>
        <time>2012-01-21T10:09:05Z</time>
      </trkpt>
      <trkpt lat="48.05128" lon="7.02025">
        <ele>1204.16015625</ele>
        <time>2012-01-21T10:09:07Z</time>
      </trkpt>
      <trkpt lat="48.05126" lon="7.02022">
        <ele>1203</ele>
        <time>2012-01-21T10:09:10Z</time>
      </trkpt>
      <trkpt lat="48.05119" lon="7.02002">
        <ele>1197.58203125</ele>
        <time>2012-01-21T10:09:20Z</time>
      </trkpt>
      <trkpt lat="48.05113" lon="7.01982">
        <ele>1193.6484375</ele>
        <time>2012-01-21T10:09:31Z</time>
      </trkpt>
      <trkpt lat="48.05113" lon="7.01971">
        <ele>1193.92578125</ele>
        <time>2012-01-21T10:09:41Z</time>
      </trkpt>
      <trkpt lat="48.05113" lon="7.01969">
        <ele>1194.17578125</ele>
        <time>2012-01-21T10:09:47Z</time>
      </trkpt>
      <trkpt lat="48.05116" lon="7.01954">
        <ele>1196.44921875</ele>
        <time>2012-01-21T10:09:57Z</time>
      </trkpt>
      <trkpt lat="48.05118" lon="7.01938">
        <ele>1197.6015625</ele>
        <time>2012-01-21T10:10:07Z</time>
      </trkpt>
      <trkpt lat="48.05119" lon="7.01928">
        <ele>1198.59375</ele>
        <time>2012-01-21T10:10:13Z</time>
      </trkpt>
      <trkpt lat="48.0512" lon="7.01922">
        <ele>1199.140625</ele>
        <time>2012-01-21T10:10:19Z</time>
      </trkpt>
      <trkpt lat="48.05123" lon="7.01909">
        <ele>1201.08203125</ele>
        <time>2012-01-21T10:10:31Z</time>
      </trkpt>
      <trkpt lat="48.05122" lon="7.01906">
        <ele>1200.94921875</ele>
        <time>2012-01-21T10:10:38Z</time>
      </trkpt>
      <trkpt lat="48.05124" lon="7.01893">
        <ele>1204.1015625</ele>
        <time>2012-01-21T10:10:48Z</time>
      </trkpt>
      <trkpt lat="48.05127" lon="7.01883">
        <ele>1207.36328125</ele>
        <time>2012-01-21T10:10:58Z</time>
      </trkpt>
      <trkpt lat="48.05127" lon="7.0188">
        <ele>1207.84375</ele>
        <time>2012-01-21T10:11:01Z</time>
      </trkpt>
      <trkpt lat="48.05127" lon="7.01877">
        <ele>1208.2109375</ele>
        <time>2012-01-21T10:11:04Z</time>
      </trkpt>
      <trkpt lat="48.05125" lon="7.01863">
        <ele>1209.5859375</ele>
        <time>2012-01-21T10:11:12Z</time>
      </trkpt>
      <trkpt lat="48.05121" lon="7.01856">
        <ele>1209.7734375</ele>
        <time>2012-01-21T10:11:17Z</time>
      </trkpt>
      <trkpt lat="48.05118" lon="7.01849">
        <ele>1209.58203125</ele>
        <time>2012-01-21T10:11:27Z</time>
      </trkpt>
      <trkpt lat="48.05116" lon="7.01848">
        <ele>1209.47265625</ele>
        <time>2012-01-21T10:11:30Z</time>
      </trkpt>
      <trkpt lat="48.05114" lon="7.0184">
        <ele>1210.515625</ele>
        <time>2012-01-21T10:11:45Z</time>
      </trkpt>
      <trkpt lat="48.05108" lon="7.01824">
        <ele>1212.05078125</ele>
        <time>2012-01-21T10:11:57Z</time>
      </trkpt>
      <trkpt lat="48.05103" lon="7.01818">
        <ele>1212.18359375</ele>
        <time>2012-01-21T10:12:04Z</time>
      </trkpt>
      <trkpt lat="48.05097" lon="7.01807">
        <ele>1213.75390625</ele>
        <time>2012-01-21T10:12:15Z</time>
      </trkpt>
      <trkpt lat="48.05097" lon="7.01806">
        <ele>1213.88671875</ele>
        <time>2012-01-21T10:12:16Z</time>
      </trkpt>
      <trkpt lat="48.05095" lon="7.01803">
        <ele>1214.390625</ele>
        <time>2012-01-21T10:12:19Z</time>
      </trkpt>
      <trkpt lat="48.05087" lon="7.01797">
        <ele>1214.578125</ele>
        <time>2012-01-21T10:12:30Z</time>
      </trkpt>
      <trkpt lat="48.05082" lon="7.01793">
        <ele>1215.1015625</ele>
        <time>2012-01-21T10:12:39Z</time>
      </trkpt>
      <trkpt lat="48.05075" lon="7.01785">
        <ele>1216.390625</ele>
        <time>2012-01-21T10:12:51Z</time>
      </trkpt>
      <trkpt lat="48.05068" lon="7.0178">
        <ele>1216.375</ele>
        <time>2012-01-21T10:13:03Z</time>
      </trkpt>
      <trkpt lat="48.05064" lon="7.01778">
        <ele>1215.71484375</ele>
        <time>2012-01-21T10:13:13Z</time>
      </trkpt>
      <trkpt lat="48.05054" lon="7.01771">
        <ele>1215.453125</ele>
        <time>2012-01-21T10:13:25Z</time>
      </trkpt>
      <trkpt lat="48.05043" lon="7.01766">
        <ele>1215.01171875</ele>
        <time>2012-01-21T10:13:37Z</time>
      </trkpt>
      <trkpt lat="48.05033" lon="7.01761">
        <ele>1215.0390625</ele>
        <time>2012-01-21T10:13:51Z</time>
      </trkpt>
      <trkpt lat="48.05032" lon="7.01761">
        <ele>1214.8203125</ele>
        <time>2012-01-21T10:13:52Z</time>
      </trkpt>
      <trkpt lat="48.05024" lon="7.01756">
        <ele>1215.43359375</ele>
        <time>2012-01-21T10:14:03Z</time>
      </trkpt>
      <trkpt lat="48.0502" lon="7.01754">
        <ele>1215.46875</ele>
        <time>2012-01-21T10:14:08Z</time>
      </trkpt>
      <trkpt lat="48.05012" lon="7.01745">
        <ele>1219.015625</ele>
        <time>2012-01-21T10:14:19Z</time>
      </trkpt>
      <trkpt lat="48.05002" lon="7.01738">
        <ele>1221.39453125</ele>
        <time>2012-01-21T10:14:31Z</time>
      </trkpt>
      <trkpt lat="48.05002" lon="7.01738">
        <ele>1221.39453125</ele>
        <time>2012-01-21T10:14:32Z</time>
      </trkpt>
      <trkpt lat="48.04996" lon="7.01732">
        <ele>1222.27734375</ele>
        <time>2012-01-21T10:14:43Z</time>
      </trkpt>
      <trkpt lat="48.0499" lon="7.01729">
        <ele>1222.375</ele>
        <time>2012-01-21T10:14:53Z</time>
      </trkpt>
      <trkpt lat="48.04984" lon="7.01722">
        <ele>1221.07421875</ele>
        <time>2012-01-21T10:15:00Z</time>
      </trkpt>
      <trkpt lat="48.04978" lon="7.01714">
        <ele>1219.765625</ele>
        <time>2012-01-21T10:15:11Z</time>
      </trkpt>
      <trkpt lat="48.04974" lon="7.01702">
        <ele>1222.15625</ele>
        <time>2012-01-21T10:15:22Z</time>
      </trkpt>
      <trkpt lat="48.04967" lon="7.01685">
        <ele>1224.6640625</ele>
        <time>2012-01-21T10:15:34Z</time>
      </trkpt>
      <trkpt lat="48.04961" lon="7.01674">
        <ele>1226.69140625</ele>
        <time>2012-01-21T10:15:45Z</time>
      </trkpt>
      <trkpt lat="48.04958" lon="7.01669">
        <ele>1227.67578125</ele>
        <time>2012-01-21T10:15:51Z</time>
      </trkpt>
      <trkpt lat="48.04951" lon="7.01659">
        <ele>1229.46875</ele>
        <time>2012-01-21T10:16:05Z</time>
      </trkpt>
      <trkpt lat="48.04948" lon="7.01655">
        <ele>1230.1796875</ele>
        <time>2012-01-21T10:16:10Z</time>
      </trkpt>
      <trkpt lat="48.04944" lon="7.01651">
        <ele>1230.015625</ele>
        <time>2012-01-21T10:16:16Z</time>
      </trkpt>
      <trkpt lat="48.04938" lon="7.01648">
        <ele>1229.07421875</ele>
        <time>2012-01-21T10:16:28Z</time>
      </trkpt>
      <trkpt lat="48.04929" lon="7.01642">
        <ele>1227.859375</ele>
        <time>2012-01-21T10:16:38Z</time>
      </trkpt>
      <trkpt lat="48.04922" lon="7.01634">
        <ele>1228.72265625</ele>
        <time>2012-01-21T10:16:48Z</time>
      </trkpt>
      <trkpt lat="48.04915" lon="7.0163">
        <ele>1228.515625</ele>
        <time>2012-01-21T10:17:00Z</time>
      </trkpt>
      <trkpt lat="48.04908" lon="7.01623">
        <ele>1229.75390625</ele>
        <time>2012-01-21T10:17:12Z</time>
      </trkpt>
      <trkpt lat="48.04897" lon="7.01622">
        <ele>1228.1640625</ele>
        <time>2012-01-21T10:17:24Z</time>
      </trkpt>
      <trkpt lat="48.04891" lon="7.01619">
        <ele>1228.140625</ele>
        <time>2012-01-21T10:17:49Z</time>
      </trkpt>
      <trkpt lat="48.04891" lon="7.01619">
        <ele>1228.140625</ele>
        <time>2012-01-21T10:17:51Z</time>
      </trkpt>
      <trkpt lat="48.04887" lon="7.01617">
        <ele>1228.2734375</ele>
        <time>2012-01-21T10:18:08Z</time>
      </trkpt>
      <trkpt lat="48.04887" lon="7.01616">
        <ele>1228.32421875</ele>
        <time>2012-01-21T10:18:45Z</time>
      </trkpt>
      <trkpt lat="48.04885" lon="7.0161">
        <ele>1231.375</ele>
        <time>2012-01-21T10:18:49Z</time>
      </trkpt>
      <trkpt lat="48.04879" lon="7.01603">
        <ele>1233.79296875</ele>
        <time>2012-01-21T10:19:02Z</time>
      </trkpt>
      <trkpt lat="48.04873" lon="7.01593">
        <ele>1238.734375</ele>
        <time>2012-01-21T10:19:21Z</time>
      </trkpt>
      <trkpt lat="48.04873" lon="7.01593">
        <ele>1238.734375</ele>
        <time>2012-01-21T10:19:23Z</time>
      </trkpt>
      <trkpt lat="48.04871" lon="7.0159">
        <ele>1240.12109375</ele>
        <time>2012-01-21T10:19:30Z</time>
      </trkpt>
      <trkpt lat="48.04865" lon="7.01585">
        <ele>1242.38671875</ele>
        <time>2012-01-21T10:19:39Z</time>
      </trkpt>
      <trkpt lat="48.04857" lon="7.01574">
        <ele>1248.84765625</ele>
        <time>2012-01-21T10:19:52Z</time>
      </trkpt>
      <trkpt lat="48.04855" lon="7.01572">
        <ele>1249.58203125</ele>
        <time>2012-01-21T10:20:07Z</time>
      </trkpt>
      <trkpt lat="48.04849" lon="7.0157">
        <ele>1249.6328125</ele>
        <time>2012-01-21T10:20:50Z</time>
      </trkpt>
      <trkpt lat="48.04843" lon="7.01565">
        <ele>1250.28125</ele>
        <time>2012-01-21T10:21:02Z</time>
      </trkpt>
      <trkpt lat="48.04842" lon="7.01556">
        <ele>1251.69140625</ele>
        <time>2012-01-21T10:21:13Z</time>
      </trkpt>
      <trkpt lat="48.04836" lon="7.01546">
        <ele>1253.34375</ele>
        <time>2012-01-21T10:21:24Z</time>
      </trkpt>
      <trkpt lat="48.04835" lon="7.01544">
        <ele>1253.6484375</ele>
        <time>2012-01-21T10:21:26Z</time>
      </trkpt>
      <trkpt lat="48.04836" lon="7.01542">
        <ele>1254.0546875</ele>
        <time>2012-01-21T10:21:28Z</time>
      </trkpt>
      <trkpt lat="48.04835" lon="7.01537">
        <ele>1254.953125</ele>
        <time>2012-01-21T10:21:38Z</time>
      </trkpt>
      <trkpt lat="48.04835" lon="7.01537">
        <ele>1254.953125</ele>
        <time>2012-01-21T10:22:00Z</time>
      </trkpt>
      <trkpt lat="48.04835" lon="7.01537">
        <ele>1254.953125</ele>
        <time>2012-01-21T10:22:12Z</time>
      </trkpt>
      <trkpt lat="48.04835" lon="7.01537">
        <ele>1255.046875</ele>
        <time>2012-01-21T10:22:37Z</time>
      </trkpt>
      <trkpt lat="48.04835" lon="7.01537">
        <ele>1255.046875</ele>
        <time>2012-01-21T10:22:41Z</time>
      </trkpt>
      <trkpt lat="48.04835" lon="7.01537">
        <ele>1255.046875</ele>
        <time>2012-01-21T10:22:42Z</time>
      </trkpt>
      <trkpt lat="48.04835" lon="7.01537">
        <ele>1255.046875</ele>
        <time>2012-01-21T10:22:44Z</time>
      </trkpt>
      <trkpt lat="48.04835" lon="7.01537">
        <ele>1255.046875</ele>
        <time>2012-01-21T10:22:50Z</time>
      </trkpt>
      <trkpt lat="48.04834" lon="7.01535">
        <ele>1255.38671875</ele>
        <time>2012-01-21T10:23:23Z</time>
      </trkpt>
      <trkpt lat="48.04834" lon="7.01535">
        <ele>1255.38671875</ele>
        <time>2012-01-21T10:23:35Z</time>
      </trkpt>
      <trkpt lat="48.04834" lon="7.01534">
        <ele>1255.48828125</ele>
        <time>2012-01-21T10:24:04Z</time>
      </trkpt>
      <trkpt lat="48.04834" lon="7.01534">
        <ele>1255.546875</ele>
        <time>2012-01-21T10:24:37Z</time>
      </trkpt>
      <trkpt lat="48.04834" lon="7.01534">
        <ele>1255.546875</ele>
        <time>2012-01-21T10:24:48Z</time>
      </trkpt>
      <trkpt lat="48.04834" lon="7.01534">
        <ele>1255.546875</ele>
        <time>2012-01-21T10:24:55Z</time>
      </trkpt>
      <trkpt lat="48.0483" lon="7.01528">
        <ele>1256.76953125</ele>
        <time>2012-01-21T10:25:32Z</time>
      </trkpt>
      <trkpt lat="48.04824" lon="7.01519">
        <ele>1258.8046875</ele>
        <time>2012-01-21T10:25:45Z</time>
      </trkpt>
      <trkpt lat="48.04816" lon="7.0152">
        <ele>1259.04296875</ele>
        <time>2012-01-21T10:25:57Z</time>
      </trkpt>
      <trkpt lat="48.04803" lon="7.01518">
        <ele>1259.79296875</ele>
        <time>2012-01-21T10:26:14Z</time>
      </trkpt>
      <trkpt lat="48.04798" lon="7.01524">
        <ele>1258.96484375</ele>
        <time>2012-01-21T10:26:21Z</time>
      </trkpt>
      <trkpt lat="48.0479" lon="7.01524">
        <ele>1259.23046875</ele>
        <time>2012-01-21T10:26:33Z</time>
      </trkpt>
      <trkpt lat="48.04781" lon="7.01523">
        <ele>1259.75</ele>
        <time>2012-01-21T10:26:46Z</time>
      </trkpt>
      <trkpt lat="48.0478" lon="7.01522">
        <ele>1260.125</ele>
        <time>2012-01-21T10:26:52Z</time>
      </trkpt>
      <trkpt lat="48.04774" lon="7.0151">
        <ele>1262.28125</ele>
        <time>2012-01-21T10:27:08Z</time>
      </trkpt>
      <trkpt lat="48.04775" lon="7.01504">
        <ele>1263.15234375</ele>
        <time>2012-01-21T10:27:13Z</time>
      </trkpt>
      <trkpt lat="48.04775" lon="7.01503">
        <ele>1263.390625</ele>
        <time>2012-01-21T10:27:14Z</time>
      </trkpt>
      <trkpt lat="48.04776" lon="7.01498">
        <ele>1264.109375</ele>
        <time>2012-01-21T10:27:17Z</time>
      </trkpt>
      <trkpt lat="48.0478" lon="7.01477">
        <ele>1265.97265625</ele>
        <time>2012-01-21T10:27:31Z</time>
      </trkpt>
      <trkpt lat="48.04784" lon="7.0146">
        <ele>1266.46875</ele>
        <time>2012-01-21T10:27:41Z</time>
      </trkpt>
      <trkpt lat="48.0479" lon="7.0144">
        <ele>1266.91796875</ele>
        <time>2012-01-21T10:27:54Z</time>
      </trkpt>
      <trkpt lat="48.04791" lon="7.01433">
        <ele>1267.06640625</ele>
        <time>2012-01-21T10:27:58Z</time>
      </trkpt>
      <trkpt lat="48.04793" lon="7.01429">
        <ele>1267.09375</ele>
        <time>2012-01-21T10:28:02Z</time>
      </trkpt>
      <trkpt lat="48.04793" lon="7.01428">
        <ele>1267.109375</ele>
        <time>2012-01-21T10:28:03Z</time>
      </trkpt>
      <trkpt lat="48.04796" lon="7.0142">
        <ele>1267.20703125</ele>
        <time>2012-01-21T10:28:09Z</time>
      </trkpt>
      <trkpt lat="48.04796" lon="7.01419">
        <ele>1267.2109375</ele>
        <time>2012-01-21T10:28:10Z</time>
      </trkpt>
      <trkpt lat="48.04797" lon="7.01418">
        <ele>1267.2109375</ele>
        <time>2012-01-21T10:28:11Z</time>
      </trkpt>
      <trkpt lat="48.04797" lon="7.01417">
        <ele>1267.21484375</ele>
        <time>2012-01-21T10:28:12Z</time>
      </trkpt>
      <trkpt lat="48.04805" lon="7.01406">
        <ele>1267.05859375</ele>
        <time>2012-01-21T10:28:23Z</time>
      </trkpt>
      <trkpt lat="48.04805" lon="7.01406">
        <ele>1267.046875</ele>
        <time>2012-01-21T10:28:24Z</time>
      </trkpt>
      <trkpt lat="48.04808" lon="7.01401">
        <ele>1266.9453125</ele>
        <time>2012-01-21T10:28:29Z</time>
      </trkpt>
      <trkpt lat="48.04815" lon="7.01401">
        <ele>1266.5390625</ele>
        <time>2012-01-21T10:28:37Z</time>
      </trkpt>
      <trkpt lat="48.04817" lon="7.01404">
        <ele>1266.38671875</ele>
        <time>2012-01-21T10:28:40Z</time>
      </trkpt>
      <trkpt lat="48.0482" lon="7.01407">
        <ele>1266.10546875</ele>
        <time>2012-01-21T10:28:45Z</time>
      </trkpt>
      <trkpt lat="48.04826" lon="7.01416">
        <ele>1265.5078125</ele>
        <time>2012-01-21T10:28:52Z</time>
      </trkpt>
      <trkpt lat="48.04832" lon="7.01422">
        <ele>1264.6640625</ele>
        <time>2012-01-21T10:29:05Z</time>
      </trkpt>
      <trkpt lat="48.04834" lon="7.01422">
        <ele>1264.3828125</ele>
        <time>2012-01-21T10:29:08Z</time>
      </trkpt>
      <trkpt lat="48.04835" lon="7.01422">
        <ele>1264.3046875</ele>
        <time>2012-01-21T10:29:09Z</time>
      </trkpt>
      <trkpt lat="48.04837" lon="7.01421">
        <ele>1264.0703125</ele>
        <time>2012-01-21T10:29:16Z</time>
      </trkpt>
      <trkpt lat="48.04838" lon="7.01421">
        <ele>1264.00390625</ele>
        <time>2012-01-21T10:29:25Z</time>
      </trkpt>
      <trkpt lat="48.04842" lon="7.0142">
        <ele>1263.48046875</ele>
        <time>2012-01-21T10:29:41Z</time>
      </trkpt>
      <trkpt lat="48.04846" lon="7.01422">
        <ele>1262.921875</ele>
        <time>2012-01-21T10:29:55Z</time>
      </trkpt>
      <trkpt lat="48.04849" lon="7.01425">
        <ele>1262.62109375</ele>
        <time>2012-01-21T10:30:05Z</time>
      </trkpt>
      <trkpt lat="48.04853" lon="7.01431">
        <ele>1262.09375</ele>
        <time>2012-01-21T10:30:13Z</time>
      </trkpt>
      <trkpt lat="48.04854" lon="7.01433">
        <ele>1261.87109375</ele>
        <time>2012-01-21T10:30:15Z</time>
      </trkpt>
      <trkpt lat="48.04858" lon="7.01436">
        <ele>1261.3671875</ele>
        <time>2012-01-21T10:30:18Z</time>
      </trkpt>
      <trkpt lat="48.04867" lon="7.01437">
        <ele>1260.26171875</ele>
        <time>2012-01-21T10:30:27Z</time>
      </trkpt>
      <trkpt lat="48.04876" lon="7.01439">
        <ele>1259.109375</ele>
        <time>2012-01-21T10:30:36Z</time>
      </trkpt>
      <trkpt lat="48.04878" lon="7.0144">
        <ele>1258.88671875</ele>
        <time>2012-01-21T10:30:53Z</time>
      </trkpt>
      <trkpt lat="48.04883" lon="7.0144">
        <ele>1258.36328125</ele>
        <time>2012-01-21T10:32:21Z</time>
      </trkpt>
      <trkpt lat="48.04885" lon="7.01439">
        <ele>1258.11328125</ele>
        <time>2012-01-21T10:32:26Z</time>
      </trkpt>
      <trkpt lat="48.04889" lon="7.01441">
        <ele>1257.578125</ele>
        <time>2012-01-21T10:32:39Z</time>
      </trkpt>
      <trkpt lat="48.04896" lon="7.01441">
        <ele>1256.78125</ele>
        <time>2012-01-21T10:32:56Z</time>
      </trkpt>
      <trkpt lat="48.04902" lon="7.01445">
        <ele>1255.9765625</ele>
        <time>2012-01-21T10:33:07Z</time>
      </trkpt>
      <trkpt lat="48.04908" lon="7.01444">
        <ele>1255.33203125</ele>
        <time>2012-01-21T10:33:11Z</time>
      </trkpt>
      <trkpt lat="48.04928" lon="7.01437">
        <ele>1253.171875</ele>
        <time>2012-01-21T10:33:22Z</time>
      </trkpt>
      <trkpt lat="48.04931" lon="7.01435">
        <ele>1252.93359375</ele>
        <time>2012-01-21T10:33:25Z</time>
      </trkpt>
      <trkpt lat="48.04939" lon="7.01423">
        <ele>1252.17578125</ele>
        <time>2012-01-21T10:33:37Z</time>
      </trkpt>
      <trkpt lat="48.0494" lon="7.01422">
        <ele>1252.08203125</ele>
        <time>2012-01-21T10:33:39Z</time>
      </trkpt>
      <trkpt lat="48.04945" lon="7.01417">
        <ele>1251.5703125</ele>
        <time>2012-01-21T10:33:45Z</time>
      </trkpt>
      <trkpt lat="48.04953" lon="7.0141">
        <ele>1250.81640625</ele>
        <time>2012-01-21T10:33:55Z</time>
      </trkpt>
      <trkpt lat="48.04958" lon="7.01404">
        <ele>1250.42578125</ele>
        <time>2012-01-21T10:34:06Z</time>
      </trkpt>
      <trkpt lat="48.04962" lon="7.01394">
        <ele>1250.109375</ele>
        <time>2012-01-21T10:34:16Z</time>
      </trkpt>
      <trkpt lat="48.04964" lon="7.01389">
        <ele>1249.90234375</ele>
        <time>2012-01-21T10:34:20Z</time>
      </trkpt>
      <trkpt lat="48.04968" lon="7.01374">
        <ele>1249.7109375</ele>
        <time>2012-01-21T10:34:32Z</time>
      </trkpt>
      <trkpt lat="48.04969" lon="7.01371">
        <ele>1249.61328125</ele>
        <time>2012-01-21T10:34:37Z</time>
      </trkpt>
      <trkpt lat="48.04974" lon="7.01361">
        <ele>1249.14453125</ele>
        <time>2012-01-21T10:34:47Z</time>
      </trkpt>
      <trkpt lat="48.04978" lon="7.01356">
        <ele>1248.828125</ele>
        <time>2012-01-21T10:35:00Z</time>
      </trkpt>
      <trkpt lat="48.04987" lon="7.01346">
        <ele>1247.95703125</ele>
        <time>2012-01-21T10:35:12Z</time>
      </trkpt>
      <trkpt lat="48.04989" lon="7.01332">
        <ele>1247.91796875</ele>
        <time>2012-01-21T10:35:21Z</time>
      </trkpt>
      <trkpt lat="48.04994" lon="7.01319">
        <ele>1247.49609375</ele>
        <time>2012-01-21T10:35:36Z</time>
      </trkpt>
      <trkpt lat="48.04995" lon="7.01314">
        <ele>1247.35546875</ele>
        <time>2012-01-21T10:35:42Z</time>
      </trkpt>
      <trkpt lat="48.04996" lon="7.01298">
        <ele>1247.2578125</ele>
        <time>2012-01-21T10:35:53Z</time>
      </trkpt>
      <trkpt lat="48.04996" lon="7.01296">
        <ele>1247.2578125</ele>
        <time>2012-01-21T10:35:54Z</time>
      </trkpt>
      <trkpt lat="48.04998" lon="7.01282">
        <ele>1246.9765625</ele>
        <time>2012-01-21T10:36:05Z</time>
      </trkpt>
      <trkpt lat="48.04999" lon="7.01268">
        <ele>1246.93359375</ele>
        <time>2012-01-21T10:36:15Z</time>
      </trkpt>
      <trkpt lat="48.04998" lon="7.01265">
        <ele>1247.0078125</ele>
        <time>2012-01-21T10:36:17Z</time>
      </trkpt>
      <trkpt lat="48.04998" lon="7.01255">
        <ele>1247.05078125</ele>
        <time>2012-01-21T10:36:23Z</time>
      </trkpt>
      <trkpt lat="48.05" lon="7.01256">
        <ele>1246.78125</ele>
        <time>2012-01-21T10:36:28Z</time>
      </trkpt>
      <trkpt lat="48.05" lon="7.01237">
        <ele>1246.67578125</ele>
        <time>2012-01-21T10:36:38Z</time>
      </trkpt>
      <trkpt lat="48.05" lon="7.01234">
        <ele>1246.58203125</ele>
        <time>2012-01-21T10:36:41Z</time>
      </trkpt>
      <trkpt lat="48.04996" lon="7.01215">
        <ele>1246.39453125</ele>
        <time>2012-01-21T10:36:53Z</time>
      </trkpt>
      <trkpt lat="48.04991" lon="7.01199">
        <ele>1246.2890625</ele>
        <time>2012-01-21T10:37:05Z</time>
      </trkpt>
      <trkpt lat="48.04991" lon="7.01195">
        <ele>1246.171875</ele>
        <time>2012-01-21T10:37:07Z</time>
      </trkpt>
      <trkpt lat="48.04989" lon="7.01185">
        <ele>1246.046875</ele>
        <time>2012-01-21T10:37:13Z</time>
      </trkpt>
      <trkpt lat="48.04982" lon="7.01157">
        <ele>1245.75390625</ele>
        <time>2012-01-21T10:37:27Z</time>
      </trkpt>
      <trkpt lat="48.04979" lon="7.01146">
        <ele>1245.23828125</ele>
        <time>2012-01-21T10:37:34Z</time>
      </trkpt>
      <trkpt lat="48.04979" lon="7.01134">
        <ele>1244.2890625</ele>
        <time>2012-01-21T10:37:43Z</time>
      </trkpt>
      <trkpt lat="48.04977" lon="7.01119">
        <ele>1243.45703125</ele>
        <time>2012-01-21T10:37:54Z</time>
      </trkpt>
      <trkpt lat="48.04977" lon="7.01115">
        <ele>1243.12890625</ele>
        <time>2012-01-21T10:38:02Z</time>
      </trkpt>
      <trkpt lat="48.04973" lon="7.01102">
        <ele>1242.515625</ele>
        <time>2012-01-21T10:38:09Z</time>
      </trkpt>
      <trkpt lat="48.04973" lon="7.01095">
        <ele>1241.98828125</ele>
        <time>2012-01-21T10:38:12Z</time>
      </trkpt>
      <trkpt lat="48.04968" lon="7.01079">
        <ele>1241.2109375</ele>
        <time>2012-01-21T10:38:24Z</time>
      </trkpt>
      <trkpt lat="48.04964" lon="7.01063">
        <ele>1239.73828125</ele>
        <time>2012-01-21T10:38:34Z</time>
      </trkpt>
      <trkpt lat="48.04963" lon="7.01058">
        <ele>1239.25</ele>
        <time>2012-01-21T10:38:38Z</time>
      </trkpt>
      <trkpt lat="48.0496" lon="7.01046">
        <ele>1237.91796875</ele>
        <time>2012-01-21T10:38:49Z</time>
      </trkpt>
      <trkpt lat="48.04959" lon="7.01045">
        <ele>1237.8515625</ele>
        <time>2012-01-21T10:38:50Z</time>
      </trkpt>
      <trkpt lat="48.04958" lon="7.01039">
        <ele>1237.16796875</ele>
        <time>2012-01-21T10:38:56Z</time>
      </trkpt>
      <trkpt lat="48.04955" lon="7.01025">
        <ele>1235.69921875</ele>
        <time>2012-01-21T10:39:07Z</time>
      </trkpt>
      <trkpt lat="48.04953" lon="7.01021">
        <ele>1235.30859375</ele>
        <time>2012-01-21T10:39:12Z</time>
      </trkpt>
      <trkpt lat="48.04952" lon="7.01016">
        <ele>1234.875</ele>
        <time>2012-01-21T10:39:18Z</time>
      </trkpt>
      <trkpt lat="48.04952" lon="7.01009">
        <ele>1233.984375</ele>
        <time>2012-01-21T10:39:30Z</time>
      </trkpt>
      <trkpt lat="48.04952" lon="7.01009">
        <ele>1233.984375</ele>
        <time>2012-01-21T10:39:31Z</time>
      </trkpt>
      <trkpt lat="48.04954" lon="7.01001">
        <ele>1232.73828125</ele>
        <time>2012-01-21T10:39:44Z</time>
      </trkpt>
      <trkpt lat="48.04954" lon="7.00999">
        <ele>1232.51953125</ele>
        <time>2012-01-21T10:40:10Z</time>
      </trkpt>
      <trkpt lat="48.04954" lon="7.00997">
        <ele>1232.25</ele>
        <time>2012-01-21T10:40:16Z</time>
      </trkpt>
      <trkpt lat="48.04954" lon="7.00994">
        <ele>1231.796875</ele>
        <time>2012-01-21T10:40:18Z</time>
      </trkpt>
      <trkpt lat="48.04955" lon="7.00984">
        <ele>1230.14453125</ele>
        <time>2012-01-21T10:40:25Z</time>
      </trkpt>
      <trkpt lat="48.04958" lon="7.00985">
        <ele>1229.921875</ele>
        <time>2012-01-21T10:40:34Z</time>
      </trkpt>
      <trkpt lat="48.04965" lon="7.00982">
        <ele>1228.4921875</ele>
        <time>2012-01-21T10:40:48Z</time>
      </trkpt>
      <trkpt lat="48.04968" lon="7.0098">
        <ele>1227.765625</ele>
        <time>2012-01-21T10:40:53Z</time>
      </trkpt>
      <trkpt lat="48.0497" lon="7.00979">
        <ele>1227.5234375</ele>
        <time>2012-01-21T10:40:55Z</time>
      </trkpt>
      <trkpt lat="48.04974" lon="7.00978">
        <ele>1226.75</ele>
        <time>2012-01-21T10:41:13Z</time>
      </trkpt>
      <trkpt lat="48.04977" lon="7.00971">
        <ele>1225.31640625</ele>
        <time>2012-01-21T10:41:19Z</time>
      </trkpt>
      <trkpt lat="48.04977" lon="7.00971">
        <ele>1225.31640625</ele>
        <time>2012-01-21T10:41:22Z</time>
      </trkpt>
      <trkpt lat="48.04977" lon="7.0097">
        <ele>1225.046875</ele>
        <time>2012-01-21T10:41:23Z</time>
      </trkpt>
      <trkpt lat="48.04979" lon="7.00963">
        <ele>1223.54296875</ele>
        <time>2012-01-21T10:41:30Z</time>
      </trkpt>
      <trkpt lat="48.04979" lon="7.00963">
        <ele>1223.54296875</ele>
        <time>2012-01-21T10:41:31Z</time>
      </trkpt>
      <trkpt lat="48.0498" lon="7.00962">
        <ele>1223.26953125</ele>
        <time>2012-01-21T10:41:32Z</time>
      </trkpt>
      <trkpt lat="48.0498" lon="7.00961">
        <ele>1222.92578125</ele>
        <time>2012-01-21T10:41:34Z</time>
      </trkpt>
      <trkpt lat="48.04982" lon="7.00954">
        <ele>1221.4921875</ele>
        <time>2012-01-21T10:41:42Z</time>
      </trkpt>
      <trkpt lat="48.04984" lon="7.00947">
        <ele>1220.01171875</ele>
        <time>2012-01-21T10:41:53Z</time>
      </trkpt>
      <trkpt lat="48.04984" lon="7.00937">
        <ele>1218.19140625</ele>
        <time>2012-01-21T10:42:01Z</time>
      </trkpt>
      <trkpt lat="48.04982" lon="7.00919">
        <ele>1215.25390625</ele>
        <time>2012-01-21T10:42:11Z</time>
      </trkpt>
      <trkpt lat="48.04982" lon="7.0091">
        <ele>1213.6875</ele>
        <time>2012-01-21T10:42:15Z</time>
      </trkpt>
      <trkpt lat="48.04983" lon="7.00903">
        <ele>1212.1953125</ele>
        <time>2012-01-21T10:42:20Z</time>
      </trkpt>
      <trkpt lat="48.04988" lon="7.00892">
        <ele>1208.97265625</ele>
        <time>2012-01-21T10:42:29Z</time>
      </trkpt>
      <trkpt lat="48.04992" lon="7.00891">
        <ele>1208.37109375</ele>
        <time>2012-01-21T10:42:37Z</time>
      </trkpt>
      <trkpt lat="48.04993" lon="7.00891">
        <ele>1208.140625</ele>
        <time>2012-01-21T10:42:41Z</time>
      </trkpt>
      <trkpt lat="48.04997" lon="7.00885">
        <ele>1206.30078125</ele>
        <time>2012-01-21T10:42:51Z</time>
      </trkpt>
      <trkpt lat="48.04997" lon="7.00884">
        <ele>1205.98046875</ele>
        <time>2012-01-21T10:42:52Z</time>
      </trkpt>
      <trkpt lat="48.04998" lon="7.00872">
        <ele>1203.44140625</ele>
        <time>2012-01-21T10:42:56Z</time>
      </trkpt>
      <trkpt lat="48.05007" lon="7.00858">
        <ele>1199.22265625</ele>
        <time>2012-01-21T10:43:04Z</time>
      </trkpt>
      <trkpt lat="48.05015" lon="7.00845">
        <ele>1195.3125</ele>
        <time>2012-01-21T10:43:13Z</time>
      </trkpt>
      <trkpt lat="48.05018" lon="7.00844">
        <ele>1194.83203125</ele>
        <time>2012-01-21T10:43:26Z</time>
      </trkpt>
      <trkpt lat="48.05028" lon="7.00841">
        <ele>1192.75390625</ele>
        <time>2012-01-21T10:43:46Z</time>
      </trkpt>
      <trkpt lat="48.05038" lon="7.00839">
        <ele>1191.0703125</ele>
        <time>2012-01-21T10:43:58Z</time>
      </trkpt>
      <trkpt lat="48.0504" lon="7.00841">
        <ele>1191.125</ele>
        <time>2012-01-21T10:44:00Z</time>
      </trkpt>
      <trkpt lat="48.05052" lon="7.00842">
        <ele>1189.74609375</ele>
        <time>2012-01-21T10:44:07Z</time>
      </trkpt>
      <trkpt lat="48.05069" lon="7.00843">
        <ele>1187.8359375</ele>
        <time>2012-01-21T10:44:21Z</time>
      </trkpt>
      <trkpt lat="48.05077" lon="7.00843">
        <ele>1186.96484375</ele>
        <time>2012-01-21T10:44:27Z</time>
      </trkpt>
      <trkpt lat="48.05077" lon="7.00843">
        <ele>1186.96484375</ele>
        <time>2012-01-21T10:44:42Z</time>
      </trkpt>
      <trkpt lat="48.05078" lon="7.00843">
        <ele>1187.0078125</ele>
        <time>2012-01-21T10:45:32Z</time>
      </trkpt>
      <trkpt lat="48.05084" lon="7.00847">
        <ele>1187.51171875</ele>
        <time>2012-01-21T10:46:23Z</time>
      </trkpt>
      <trkpt lat="48.05084" lon="7.00847">
        <ele>1187.51171875</ele>
        <time>2012-01-21T10:46:42Z</time>
      </trkpt>
      <trkpt lat="48.05084" lon="7.00847">
        <ele>1187.453125</ele>
        <time>2012-01-21T10:47:23Z</time>
      </trkpt>
      <trkpt lat="48.05084" lon="7.00847">
        <ele>1187.44921875</ele>
        <time>2012-01-21T10:47:59Z</time>
      </trkpt>
      <trkpt lat="48.05084" lon="7.00847">
        <ele>1187.44921875</ele>
        <time>2012-01-21T10:48:01Z</time>
      </trkpt>
      <trkpt lat="48.05084" lon="7.00847">
        <ele>1187.44921875</ele>
        <time>2012-01-21T10:48:06Z</time>
      </trkpt>
      <trkpt lat="48.05084" lon="7.00847">
        <ele>1187.44921875</ele>
        <time>2012-01-21T10:48:07Z</time>
      </trkpt>
      <trkpt lat="48.05084" lon="7.00847">
        <ele>1187.4765625</ele>
        <time>2012-01-21T10:48:15Z</time>
      </trkpt>
      <trkpt lat="48.05085" lon="7.00847">
        <ele>1187.32421875</ele>
        <time>2012-01-21T10:48:55Z</time>
      </trkpt>
      <trkpt lat="48.05085" lon="7.00847">
        <ele>1187.32421875</ele>
        <time>2012-01-21T10:49:19Z</time>
      </trkpt>
      <trkpt lat="48.05085" lon="7.00847">
        <ele>1187.33203125</ele>
        <time>2012-01-21T10:49:29Z</time>
      </trkpt>
      <trkpt lat="48.05085" lon="7.00847">
        <ele>1187.33203125</ele>
        <time>2012-01-21T10:49:43Z</time>
      </trkpt>
      <trkpt lat="48.05085" lon="7.00847">
        <ele>1187.33203125</ele>
        <time>2012-01-21T10:49:45Z</time>
      </trkpt>
      <trkpt lat="48.05085" lon="7.00847">
        <ele>1187.33203125</ele>
        <time>2012-01-21T10:49:49Z</time>
      </trkpt>
      <trkpt lat="48.05086" lon="7.00849">
        <ele>1187.73046875</ele>
        <time>2012-01-21T10:52:46Z</time>
      </trkpt>
      <trkpt lat="48.05086" lon="7.00849">
        <ele>1187.73046875</ele>
        <time>2012-01-21T10:52:51Z</time>
      </trkpt>
      <trkpt lat="48.05086" lon="7.00849">
        <ele>1187.73046875</ele>
        <time>2012-01-21T10:52:53Z</time>
      </trkpt>
      <trkpt lat="48.05086" lon="7.00849">
        <ele>1187.73046875</ele>
        <time>2012-01-21T10:52:55Z</time>
      </trkpt>
      <trkpt lat="48.05086" lon="7.0085">
        <ele>1187.86328125</ele>
        <time>2012-01-21T10:54:18Z</time>
      </trkpt>
      <trkpt lat="48.05086" lon="7.0085">
        <ele>1187.86328125</ele>
        <time>2012-01-21T10:54:28Z</time>
      </trkpt>
      <trkpt lat="48.05086" lon="7.00848">
        <ele>1187.53125</ele>
        <time>2012-01-21T10:55:37Z</time>
      </trkpt>
      <trkpt lat="48.05086" lon="7.00848">
        <ele>1187.53125</ele>
        <time>2012-01-21T10:55:56Z</time>
      </trkpt>
      <trkpt lat="48.05086" lon="7.00848">
        <ele>1187.5234375</ele>
        <time>2012-01-21T10:57:29Z</time>
      </trkpt>
      <trkpt lat="48.05086" lon="7.00848">
        <ele>1187.5234375</ele>
        <time>2012-01-21T10:57:53Z</time>
      </trkpt>
      <trkpt lat="48.05086" lon="7.00848">
        <ele>1187.5234375</ele>
        <time>2012-01-21T10:57:58Z</time>
      </trkpt>
      <trkpt lat="48.05086" lon="7.00847">
        <ele>1187.21484375</ele>
        <time>2012-01-21T10:58:17Z</time>
      </trkpt>
      <trkpt lat="48.05086" lon="7.00847">
        <ele>1187.21484375</ele>
        <time>2012-01-21T10:58:20Z</time>
      </trkpt>
      <trkpt lat="48.05087" lon="7.00847">
        <ele>1187.24609375</ele>
        <time>2012-01-21T10:58:59Z</time>
      </trkpt>
      <trkpt lat="48.05087" lon="7.00847">
        <ele>1187.24609375</ele>
        <time>2012-01-21T10:59:05Z</time>
      </trkpt>
      <trkpt lat="48.05087" lon="7.00847">
        <ele>1187.24609375</ele>
        <time>2012-01-21T10:59:11Z</time>
      </trkpt>
      <trkpt lat="48.05099" lon="7.00847">
        <ele>1186.37890625</ele>
        <time>2012-01-21T10:59:32Z</time>
      </trkpt>
      <trkpt lat="48.05099" lon="7.00848">
        <ele>1186.5625</ele>
        <time>2012-01-21T10:59:34Z</time>
      </trkpt>
      <trkpt lat="48.05104" lon="7.00849">
        <ele>1186.5625</ele>
        <time>2012-01-21T10:59:44Z</time>
      </trkpt>
      <trkpt lat="48.05111" lon="7.00859">
        <ele>1188.0234375</ele>
        <time>2012-01-21T11:00:02Z</time>
      </trkpt>
      <trkpt lat="48.05117" lon="7.0087">
        <ele>1189.80078125</ele>
        <time>2012-01-21T11:00:20Z</time>
      </trkpt>
      <trkpt lat="48.05126" lon="7.00877">
        <ele>1190.64453125</ele>
        <time>2012-01-21T11:00:41Z</time>
      </trkpt>
      <trkpt lat="48.05135" lon="7.00887">
        <ele>1191.80859375</ele>
        <time>2012-01-21T11:00:54Z</time>
      </trkpt>
      <trkpt lat="48.05144" lon="7.00903">
        <ele>1194.39453125</ele>
        <time>2012-01-21T11:01:15Z</time>
      </trkpt>
      <trkpt lat="48.05157" lon="7.00914">
        <ele>1195.203125</ele>
        <time>2012-01-21T11:01:30Z</time>
      </trkpt>
      <trkpt lat="48.05161" lon="7.0092">
        <ele>1195.82421875</ele>
        <time>2012-01-21T11:01:43Z</time>
      </trkpt>
      <trkpt lat="48.05162" lon="7.00923">
        <ele>1196.12890625</ele>
        <time>2012-01-21T11:01:49Z</time>
      </trkpt>
      <trkpt lat="48.05172" lon="7.00934">
        <ele>1197.1015625</ele>
        <time>2012-01-21T11:01:58Z</time>
      </trkpt>
      <trkpt lat="48.05174" lon="7.0094">
        <ele>1197.8125</ele>
        <time>2012-01-21T11:02:01Z</time>
      </trkpt>
      <trkpt lat="48.05175" lon="7.00941">
        <ele>1197.85546875</ele>
        <time>2012-01-21T11:02:02Z</time>
      </trkpt>
      <trkpt lat="48.05177" lon="7.00946">
        <ele>1198.54296875</ele>
        <time>2012-01-21T11:02:08Z</time>
      </trkpt>
      <trkpt lat="48.05178" lon="7.00948">
        <ele>1198.734375</ele>
        <time>2012-01-21T11:02:10Z</time>
      </trkpt>
      <trkpt lat="48.05181" lon="7.00952">
        <ele>1199.09375</ele>
        <time>2012-01-21T11:02:16Z</time>
      </trkpt>
      <trkpt lat="48.05182" lon="7.00955">
        <ele>1199.41796875</ele>
        <time>2012-01-21T11:02:18Z</time>
      </trkpt>
      <trkpt lat="48.05183" lon="7.00958">
        <ele>1199.9375</ele>
        <time>2012-01-21T11:02:21Z</time>
      </trkpt>
      <trkpt lat="48.05185" lon="7.00962">
        <ele>1200.40234375</ele>
        <time>2012-01-21T11:02:26Z</time>
      </trkpt>
      <trkpt lat="48.05185" lon="7.00966">
        <ele>1201</ele>
        <time>2012-01-21T11:02:30Z</time>
      </trkpt>
      <trkpt lat="48.05185" lon="7.00967">
        <ele>1201.15625</ele>
        <time>2012-01-21T11:02:31Z</time>
      </trkpt>
      <trkpt lat="48.05185" lon="7.00972">
        <ele>1201.94140625</ele>
        <time>2012-01-21T11:02:35Z</time>
      </trkpt>
      <trkpt lat="48.05186" lon="7.00974">
        <ele>1202.2890625</ele>
        <time>2012-01-21T11:02:37Z</time>
      </trkpt>
      <trkpt lat="48.05187" lon="7.00979">
        <ele>1202.890625</ele>
        <time>2012-01-21T11:02:42Z</time>
      </trkpt>
      <trkpt lat="48.05188" lon="7.00982">
        <ele>1203.203125</ele>
        <time>2012-01-21T11:02:45Z</time>
      </trkpt>
      <trkpt lat="48.05189" lon="7.00994">
        <ele>1204.92578125</ele>
        <time>2012-01-21T11:02:55Z</time>
      </trkpt>
      <trkpt lat="48.05189" lon="7.00995">
        <ele>1204.9765625</ele>
        <time>2012-01-21T11:02:57Z</time>
      </trkpt>
      <trkpt lat="48.0519" lon="7.00998">
        <ele>1205.21484375</ele>
        <time>2012-01-21T11:03:00Z</time>
      </trkpt>
      <trkpt lat="48.05191" lon="7.01">
        <ele>1205.375</ele>
        <time>2012-01-21T11:03:03Z</time>
      </trkpt>
      <trkpt lat="48.05191" lon="7.01004">
        <ele>1205.7890625</ele>
        <time>2012-01-21T11:03:06Z</time>
      </trkpt>
      <trkpt lat="48.05191" lon="7.01006">
        <ele>1205.9375</ele>
        <time>2012-01-21T11:03:08Z</time>
      </trkpt>
      <trkpt lat="48.05191" lon="7.01007">
        <ele>1206.0234375</ele>
        <time>2012-01-21T11:03:09Z</time>
      </trkpt>
      <trkpt lat="48.05192" lon="7.01019">
        <ele>1207.18359375</ele>
        <time>2012-01-21T11:03:21Z</time>
      </trkpt>
      <trkpt lat="48.05194" lon="7.01023">
        <ele>1207.4296875</ele>
        <time>2012-01-21T11:03:26Z</time>
      </trkpt>
      <trkpt lat="48.05199" lon="7.01029">
        <ele>1207.63671875</ele>
        <time>2012-01-21T11:03:44Z</time>
      </trkpt>
      <trkpt lat="48.05209" lon="7.01057">
        <ele>1209.47265625</ele>
        <time>2012-01-21T11:04:19Z</time>
      </trkpt>
      <trkpt lat="48.05207" lon="7.01062">
        <ele>1210.20703125</ele>
        <time>2012-01-21T11:04:33Z</time>
      </trkpt>
      <trkpt lat="48.05208" lon="7.01069">
        <ele>1210.921875</ele>
        <time>2012-01-21T11:04:51Z</time>
      </trkpt>
      <trkpt lat="48.05208" lon="7.0108">
        <ele>1211.78125</ele>
        <time>2012-01-21T11:05:14Z</time>
      </trkpt>
      <trkpt lat="48.05209" lon="7.01082">
        <ele>1211.86328125</ele>
        <time>2012-01-21T11:07:25Z</time>
      </trkpt>
      <trkpt lat="48.05213" lon="7.01089">
        <ele>1211.953125</ele>
        <time>2012-01-21T11:08:12Z</time>
      </trkpt>
      <trkpt lat="48.05213" lon="7.01093">
        <ele>1212.125</ele>
        <time>2012-01-21T11:08:16Z</time>
      </trkpt>
      <trkpt lat="48.05206" lon="7.01107">
        <ele>1213.953125</ele>
        <time>2012-01-21T11:08:24Z</time>
      </trkpt>
      <trkpt lat="48.05203" lon="7.01108">
        <ele>1214.390625</ele>
        <time>2012-01-21T11:08:29Z</time>
      </trkpt>
      <trkpt lat="48.05202" lon="7.01112">
        <ele>1214.76171875</ele>
        <time>2012-01-21T11:08:32Z</time>
      </trkpt>
      <trkpt lat="48.05201" lon="7.01115">
        <ele>1215.12109375</ele>
        <time>2012-01-21T11:08:34Z</time>
      </trkpt>
      <trkpt lat="48.05195" lon="7.0112">
        <ele>1216.1796875</ele>
        <time>2012-01-21T11:08:43Z</time>
      </trkpt>
      <trkpt lat="48.05189" lon="7.01127">
        <ele>1217.453125</ele>
        <time>2012-01-21T11:08:55Z</time>
      </trkpt>
      <trkpt lat="48.05188" lon="7.01133">
        <ele>1218.02734375</ele>
        <time>2012-01-21T11:09:02Z</time>
      </trkpt>
      <trkpt lat="48.05188" lon="7.01141">
        <ele>1218.60546875</ele>
        <time>2012-01-21T11:09:07Z</time>
      </trkpt>
      <trkpt lat="48.05187" lon="7.01152">
        <ele>1219.5625</ele>
        <time>2012-01-21T11:09:20Z</time>
      </trkpt>
      <trkpt lat="48.05189" lon="7.01161">
        <ele>1219.81640625</ele>
        <time>2012-01-21T11:09:30Z</time>
      </trkpt>
      <trkpt lat="48.05192" lon="7.01169">
        <ele>1219.85546875</ele>
        <time>2012-01-21T11:09:41Z</time>
      </trkpt>
      <trkpt lat="48.05192" lon="7.01169">
        <ele>1219.85546875</ele>
        <time>2012-01-21T11:09:42Z</time>
      </trkpt>
      <trkpt lat="48.05196" lon="7.01182">
        <ele>1219.88671875</ele>
        <time>2012-01-21T11:09:54Z</time>
      </trkpt>
      <trkpt lat="48.05198" lon="7.01191">
        <ele>1220.06640625</ele>
        <time>2012-01-21T11:09:58Z</time>
      </trkpt>
      <trkpt lat="48.05198" lon="7.01192">
        <ele>1220.078125</ele>
        <time>2012-01-21T11:09:59Z</time>
      </trkpt>
      <trkpt lat="48.05199" lon="7.012">
        <ele>1220.43359375</ele>
        <time>2012-01-21T11:10:02Z</time>
      </trkpt>
      <trkpt lat="48.05201" lon="7.01223">
        <ele>1221.16796875</ele>
        <time>2012-01-21T11:10:16Z</time>
      </trkpt>
      <trkpt lat="48.05203" lon="7.0123">
        <ele>1221.2734375</ele>
        <time>2012-01-21T11:10:20Z</time>
      </trkpt>
      <trkpt lat="48.05204" lon="7.01234">
        <ele>1221.2890625</ele>
        <time>2012-01-21T11:10:24Z</time>
      </trkpt>
      <trkpt lat="48.05207" lon="7.01239">
        <ele>1221.265625</ele>
        <time>2012-01-21T11:10:28Z</time>
      </trkpt>
      <trkpt lat="48.05208" lon="7.01242">
        <ele>1221.16015625</ele>
        <time>2012-01-21T11:10:30Z</time>
      </trkpt>
      <trkpt lat="48.05213" lon="7.01248">
        <ele>1220.74609375</ele>
        <time>2012-01-21T11:10:37Z</time>
      </trkpt>
      <trkpt lat="48.05225" lon="7.01259">
        <ele>1219.671875</ele>
        <time>2012-01-21T11:10:49Z</time>
      </trkpt>
      <trkpt lat="48.05226" lon="7.0126">
        <ele>1219.55859375</ele>
        <time>2012-01-21T11:10:50Z</time>
      </trkpt>
      <trkpt lat="48.05237" lon="7.01269">
        <ele>1218.71484375</ele>
        <time>2012-01-21T11:11:03Z</time>
      </trkpt>
      <trkpt lat="48.05236" lon="7.0127">
        <ele>1218.7890625</ele>
        <time>2012-01-21T11:12:00Z</time>
      </trkpt>
      <trkpt lat="48.05246" lon="7.01279">
        <ele>1218.04296875</ele>
        <time>2012-01-21T11:12:42Z</time>
      </trkpt>
      <trkpt lat="48.05254" lon="7.01292">
        <ele>1217.7421875</ele>
        <time>2012-01-21T11:12:55Z</time>
      </trkpt>
      <trkpt lat="48.05255" lon="7.01293">
        <ele>1217.69921875</ele>
        <time>2012-01-21T11:12:56Z</time>
      </trkpt>
      <trkpt lat="48.05256" lon="7.01295">
        <ele>1217.67578125</ele>
        <time>2012-01-21T11:12:58Z</time>
      </trkpt>
      <trkpt lat="48.05262" lon="7.01308">
        <ele>1217.69140625</ele>
        <time>2012-01-21T11:13:08Z</time>
      </trkpt>
      <trkpt lat="48.05266" lon="7.01312">
        <ele>1217.5546875</ele>
        <time>2012-01-21T11:13:14Z</time>
      </trkpt>
      <trkpt lat="48.05272" lon="7.01319">
        <ele>1217.20703125</ele>
        <time>2012-01-21T11:13:27Z</time>
      </trkpt>
      <trkpt lat="48.05272" lon="7.01319">
        <ele>1217.2265625</ele>
        <time>2012-01-21T11:13:32Z</time>
      </trkpt>
      <trkpt lat="48.05272" lon="7.01321">
        <ele>1217.2734375</ele>
        <time>2012-01-21T11:13:35Z</time>
      </trkpt>
      <trkpt lat="48.05291" lon="7.01326">
        <ele>1215.546875</ele>
        <time>2012-01-21T11:14:07Z</time>
      </trkpt>
      <trkpt lat="48.05297" lon="7.01323">
        <ele>1214.73828125</ele>
        <time>2012-01-21T11:14:11Z</time>
      </trkpt>
      <trkpt lat="48.05298" lon="7.01322">
        <ele>1214.51171875</ele>
        <time>2012-01-21T11:14:12Z</time>
      </trkpt>
      <trkpt lat="48.05303" lon="7.01316">
        <ele>1213.6328125</ele>
        <time>2012-01-21T11:14:16Z</time>
      </trkpt>
      <trkpt lat="48.05305" lon="7.01312">
        <ele>1213.171875</ele>
        <time>2012-01-21T11:14:20Z</time>
      </trkpt>
      <trkpt lat="48.05312" lon="7.01311">
        <ele>1212.27734375</ele>
        <time>2012-01-21T11:14:33Z</time>
      </trkpt>
      <trkpt lat="48.05321" lon="7.01303">
        <ele>1210.76171875</ele>
        <time>2012-01-21T11:14:49Z</time>
      </trkpt>
      <trkpt lat="48.05332" lon="7.01271">
        <ele>1207.87890625</ele>
        <time>2012-01-21T11:15:01Z</time>
      </trkpt>
      <trkpt lat="48.05334" lon="7.01268">
        <ele>1207.58984375</ele>
        <time>2012-01-21T11:15:03Z</time>
      </trkpt>
      <trkpt lat="48.05336" lon="7.01267">
        <ele>1207.47265625</ele>
        <time>2012-01-21T11:15:08Z</time>
      </trkpt>
      <trkpt lat="48.05342" lon="7.01266">
        <ele>1207.15625</ele>
        <time>2012-01-21T11:15:31Z</time>
      </trkpt>
      <trkpt lat="48.05351" lon="7.01266">
        <ele>1206.7421875</ele>
        <time>2012-01-21T11:15:39Z</time>
      </trkpt>
      <trkpt lat="48.0537" lon="7.01256">
        <ele>1205.1171875</ele>
        <time>2012-01-21T11:16:01Z</time>
      </trkpt>
      <trkpt lat="48.0537" lon="7.01256">
        <ele>1205.1171875</ele>
        <time>2012-01-21T11:16:30Z</time>
      </trkpt>
      <trkpt lat="48.05371" lon="7.01256">
        <ele>1205.09375</ele>
        <time>2012-01-21T11:16:38Z</time>
      </trkpt>
      <trkpt lat="48.05371" lon="7.01256">
        <ele>1205.09375</ele>
        <time>2012-01-21T11:16:53Z</time>
      </trkpt>
      <trkpt lat="48.05371" lon="7.01256">
        <ele>1205.09375</ele>
        <time>2012-01-21T11:16:56Z</time>
      </trkpt>
      <trkpt lat="48.05371" lon="7.01256">
        <ele>1205.09375</ele>
        <time>2012-01-21T11:17:05Z</time>
      </trkpt>
      <trkpt lat="48.05371" lon="7.01256">
        <ele>1205.0703125</ele>
        <time>2012-01-21T11:17:28Z</time>
      </trkpt>
      <trkpt lat="48.05371" lon="7.01256">
        <ele>1205.0703125</ele>
        <time>2012-01-21T11:17:38Z</time>
      </trkpt>
      <trkpt lat="48.05371" lon="7.01256">
        <ele>1205.0703125</ele>
        <time>2012-01-21T11:17:39Z</time>
      </trkpt>
      <trkpt lat="48.05371" lon="7.01256">
        <ele>1205.0703125</ele>
        <time>2012-01-21T11:17:41Z</time>
      </trkpt>
      <trkpt lat="48.05371" lon="7.01256">
        <ele>1205.0703125</ele>
        <time>2012-01-21T11:17:43Z</time>
      </trkpt>
      <trkpt lat="48.05371" lon="7.01256">
        <ele>1205.0703125</ele>
        <time>2012-01-21T11:17:44Z</time>
      </trkpt>
      <trkpt lat="48.05371" lon="7.01256">
        <ele>1205.0703125</ele>
        <time>2012-01-21T11:17:46Z</time>
      </trkpt>
      <trkpt lat="48.05371" lon="7.01256">
        <ele>1205.0703125</ele>
        <time>2012-01-21T11:17:47Z</time>
      </trkpt>
      <trkpt lat="48.05371" lon="7.01256">
        <ele>1205.0703125</ele>
        <time>2012-01-21T11:17:48Z</time>
      </trkpt>
      <trkpt lat="48.05371" lon="7.01256">
        <ele>1205.0703125</ele>
        <time>2012-01-21T11:17:50Z</time>
      </trkpt>
      <trkpt lat="48.05371" lon="7.01256">
        <ele>1205.0703125</ele>
        <time>2012-01-21T11:17:51Z</time>
      </trkpt>
      <trkpt lat="48.05371" lon="7.01256">
        <ele>1205.0703125</ele>
        <time>2012-01-21T11:17:54Z</time>
      </trkpt>
      <trkpt lat="48.05371" lon="7.01256">
        <ele>1205.0703125</ele>
        <time>2012-01-21T11:17:55Z</time>
      </trkpt>
      <trkpt lat="48.05372" lon="7.01256">
        <ele>1205.078125</ele>
        <time>2012-01-21T11:18:00Z</time>
      </trkpt>
      <trkpt lat="48.05372" lon="7.01256">
        <ele>1205.078125</ele>
        <time>2012-01-21T11:18:01Z</time>
      </trkpt>
      <trkpt lat="48.05372" lon="7.01256">
        <ele>1205.078125</ele>
        <time>2012-01-21T11:18:05Z</time>
      </trkpt>
      <trkpt lat="48.05372" lon="7.01256">
        <ele>1205.078125</ele>
        <time>2012-01-21T11:18:07Z</time>
      </trkpt>
      <trkpt lat="48.05372" lon="7.01256">
        <ele>1205.078125</ele>
        <time>2012-01-21T11:18:08Z</time>
      </trkpt>
      <trkpt lat="48.05372" lon="7.01256">
        <ele>1205.078125</ele>
        <time>2012-01-21T11:18:15Z</time>
      </trkpt>
      <trkpt lat="48.05372" lon="7.01256">
        <ele>1205.078125</ele>
        <time>2012-01-21T11:18:18Z</time>
      </trkpt>
      <trkpt lat="48.05372" lon="7.01256">
        <ele>1205.078125</ele>
        <time>2012-01-21T11:18:19Z</time>
      </trkpt>
      <trkpt lat="48.05372" lon="7.01256">
        <ele>1205.078125</ele>
        <time>2012-01-21T11:18:22Z</time>
      </trkpt>
      <trkpt lat="48.05372" lon="7.01256">
        <ele>1205.078125</ele>
        <time>2012-01-21T11:18:23Z</time>
      </trkpt>
      <trkpt lat="48.05378" lon="7.01246">
        <ele>1203.8671875</ele>
        <time>2012-01-21T11:19:12Z</time>
      </trkpt>
      <trkpt lat="48.0538" lon="7.01238">
        <ele>1203.09375</ele>
        <time>2012-01-21T11:19:17Z</time>
      </trkpt>
      <trkpt lat="48.05382" lon="7.01229">
        <ele>1202.3828125</ele>
        <time>2012-01-21T11:19:24Z</time>
      </trkpt>
      <trkpt lat="48.05383" lon="7.01224">
        <ele>1201.9765625</ele>
        <time>2012-01-21T11:19:29Z</time>
      </trkpt>
      <trkpt lat="48.05384" lon="7.01221">
        <ele>1201.63671875</ele>
        <time>2012-01-21T11:19:32Z</time>
      </trkpt>
      <trkpt lat="48.05387" lon="7.01211">
        <ele>1200.73046875</ele>
        <time>2012-01-21T11:19:44Z</time>
      </trkpt>
      <trkpt lat="48.05389" lon="7.01206">
        <ele>1200.171875</ele>
        <time>2012-01-21T11:19:55Z</time>
      </trkpt>
      <trkpt lat="48.0539" lon="7.012">
        <ele>1199.6875</ele>
        <time>2012-01-21T11:19:59Z</time>
      </trkpt>
      <trkpt lat="48.05385" lon="7.01191">
        <ele>1199.35546875</ele>
        <time>2012-01-21T11:20:08Z</time>
      </trkpt>
      <trkpt lat="48.05383" lon="7.01186">
        <ele>1199.09765625</ele>
        <time>2012-01-21T11:20:14Z</time>
      </trkpt>
      <trkpt lat="48.0538" lon="7.01166">
        <ele>1197.921875</ele>
        <time>2012-01-21T11:20:26Z</time>
      </trkpt>
      <trkpt lat="48.05378" lon="7.01158">
        <ele>1197.46484375</ele>
        <time>2012-01-21T11:20:30Z</time>
      </trkpt>
      <trkpt lat="48.05377" lon="7.01154">
        <ele>1197.2421875</ele>
        <time>2012-01-21T11:20:32Z</time>
      </trkpt>
      <trkpt lat="48.05376" lon="7.0114">
        <ele>1196.21484375</ele>
        <time>2012-01-21T11:20:45Z</time>
      </trkpt>
      <trkpt lat="48.05377" lon="7.01134">
        <ele>1195.70703125</ele>
        <time>2012-01-21T11:20:48Z</time>
      </trkpt>
      <trkpt lat="48.0538" lon="7.01126">
        <ele>1194.83984375</ele>
        <time>2012-01-21T11:21:02Z</time>
      </trkpt>
      <trkpt lat="48.05381" lon="7.01125">
        <ele>1194.6953125</ele>
        <time>2012-01-21T11:21:16Z</time>
      </trkpt>
      <trkpt lat="48.05381" lon="7.01125">
        <ele>1194.6953125</ele>
        <time>2012-01-21T11:21:31Z</time>
      </trkpt>
      <trkpt lat="48.05381" lon="7.01125">
        <ele>1194.65625</ele>
        <time>2012-01-21T11:21:40Z</time>
      </trkpt>
      <trkpt lat="48.05381" lon="7.01125">
        <ele>1194.65625</ele>
        <time>2012-01-21T11:21:41Z</time>
      </trkpt>
      <trkpt lat="48.05381" lon="7.01125">
        <ele>1194.65625</ele>
        <time>2012-01-21T11:21:43Z</time>
      </trkpt>
      <trkpt lat="48.05386" lon="7.01123">
        <ele>1193.9921875</ele>
        <time>2012-01-21T11:21:50Z</time>
      </trkpt>
      <trkpt lat="48.05388" lon="7.01119">
        <ele>1193.53125</ele>
        <time>2012-01-21T11:21:55Z</time>
      </trkpt>
      <trkpt lat="48.05384" lon="7.01098">
        <ele>1192.30859375</ele>
        <time>2012-01-21T11:22:07Z</time>
      </trkpt>
      <trkpt lat="48.05386" lon="7.01092">
        <ele>1191.65234375</ele>
        <time>2012-01-21T11:22:12Z</time>
      </trkpt>
      <trkpt lat="48.0538" lon="7.01088">
        <ele>1191.8828125</ele>
        <time>2012-01-21T11:22:20Z</time>
      </trkpt>
      <trkpt lat="48.05377" lon="7.01076">
        <ele>1191.3359375</ele>
        <time>2012-01-21T11:22:28Z</time>
      </trkpt>
      <trkpt lat="48.05377" lon="7.01062">
        <ele>1189.88671875</ele>
        <time>2012-01-21T11:22:37Z</time>
      </trkpt>
      <trkpt lat="48.05378" lon="7.01059">
        <ele>1189.41796875</ele>
        <time>2012-01-21T11:22:40Z</time>
      </trkpt>
      <trkpt lat="48.05378" lon="7.01047">
        <ele>1188.10546875</ele>
        <time>2012-01-21T11:22:48Z</time>
      </trkpt>
      <trkpt lat="48.05378" lon="7.01034">
        <ele>1186.7890625</ele>
        <time>2012-01-21T11:22:56Z</time>
      </trkpt>
      <trkpt lat="48.05371" lon="7.01016">
        <ele>1185.375</ele>
        <time>2012-01-21T11:23:06Z</time>
      </trkpt>
      <trkpt lat="48.05365" lon="7.01001">
        <ele>1184.1796875</ele>
        <time>2012-01-21T11:23:16Z</time>
      </trkpt>
      <trkpt lat="48.05365" lon="7.00988">
        <ele>1182.68359375</ele>
        <time>2012-01-21T11:23:26Z</time>
      </trkpt>
      <trkpt lat="48.05363" lon="7.00975">
        <ele>1181.015625</ele>
        <time>2012-01-21T11:23:35Z</time>
      </trkpt>
      <trkpt lat="48.05363" lon="7.00973">
        <ele>1180.82421875</ele>
        <time>2012-01-21T11:23:36Z</time>
      </trkpt>
      <trkpt lat="48.05364" lon="7.00964">
        <ele>1179.53125</ele>
        <time>2012-01-21T11:23:43Z</time>
      </trkpt>
      <trkpt lat="48.05365" lon="7.00955">
        <ele>1178.140625</ele>
        <time>2012-01-21T11:23:53Z</time>
      </trkpt>
      <trkpt lat="48.05364" lon="7.00954">
        <ele>1178.0703125</ele>
        <time>2012-01-21T11:23:55Z</time>
      </trkpt>
      <trkpt lat="48.0536" lon="7.00943">
        <ele>1176.83984375</ele>
        <time>2012-01-21T11:24:07Z</time>
      </trkpt>
      <trkpt lat="48.05362" lon="7.00933">
        <ele>1175.359375</ele>
        <time>2012-01-21T11:24:18Z</time>
      </trkpt>
      <trkpt lat="48.05362" lon="7.00929">
        <ele>1174.703125</ele>
        <time>2012-01-21T11:24:23Z</time>
      </trkpt>
      <trkpt lat="48.05364" lon="7.00919">
        <ele>1173.24609375</ele>
        <time>2012-01-21T11:24:29Z</time>
      </trkpt>
      <trkpt lat="48.05364" lon="7.00914">
        <ele>1172.6171875</ele>
        <time>2012-01-21T11:24:35Z</time>
      </trkpt>
      <trkpt lat="48.05362" lon="7.00904">
        <ele>1171.21484375</ele>
        <time>2012-01-21T11:24:47Z</time>
      </trkpt>
      <trkpt lat="48.0536" lon="7.00899">
        <ele>1170.62890625</ele>
        <time>2012-01-21T11:24:52Z</time>
      </trkpt>
      <trkpt lat="48.05364" lon="7.00888">
        <ele>1168.7890625</ele>
        <time>2012-01-21T11:25:08Z</time>
      </trkpt>
      <trkpt lat="48.05367" lon="7.00881">
        <ele>1167.5234375</ele>
        <time>2012-01-21T11:25:13Z</time>
      </trkpt>
      <trkpt lat="48.05376" lon="7.00871">
        <ele>1165.4765625</ele>
        <time>2012-01-21T11:25:23Z</time>
      </trkpt>
      <trkpt lat="48.05376" lon="7.00866">
        <ele>1164.78515625</ele>
        <time>2012-01-21T11:25:27Z</time>
      </trkpt>
      <trkpt lat="48.05376" lon="7.00864">
        <ele>1164.53515625</ele>
        <time>2012-01-21T11:25:30Z</time>
      </trkpt>
      <trkpt lat="48.05374" lon="7.00841">
        <ele>1161.25390625</ele>
        <time>2012-01-21T11:26:01Z</time>
      </trkpt>
      <trkpt lat="48.05372" lon="7.00834">
        <ele>1160.23828125</ele>
        <time>2012-01-21T11:26:09Z</time>
      </trkpt>
      <trkpt lat="48.05371" lon="7.00826">
        <ele>1159.0625</ele>
        <time>2012-01-21T11:26:12Z</time>
      </trkpt>
      <trkpt lat="48.0537" lon="7.00821">
        <ele>1158.35546875</ele>
        <time>2012-01-21T11:26:14Z</time>
      </trkpt>
      <trkpt lat="48.0537" lon="7.00813">
        <ele>1157.125</ele>
        <time>2012-01-21T11:26:20Z</time>
      </trkpt>
      <trkpt lat="48.0537" lon="7.00813">
        <ele>1157.125</ele>
        <time>2012-01-21T11:26:22Z</time>
      </trkpt>
      <trkpt lat="48.05366" lon="7.00807">
        <ele>1156.3359375</ele>
        <time>2012-01-21T11:26:34Z</time>
      </trkpt>
      <trkpt lat="48.05364" lon="7.00797">
        <ele>1154.7265625</ele>
        <time>2012-01-21T11:26:51Z</time>
      </trkpt>
      <trkpt lat="48.05361" lon="7.0079">
        <ele>1153.734375</ele>
        <time>2012-01-21T11:27:13Z</time>
      </trkpt>
      <trkpt lat="48.05362" lon="7.0078">
        <ele>1152.0703125</ele>
        <time>2012-01-21T11:27:34Z</time>
      </trkpt>
      <trkpt lat="48.05365" lon="7.00767">
        <ele>1149.80078125</ele>
        <time>2012-01-21T11:27:44Z</time>
      </trkpt>
      <trkpt lat="48.05364" lon="7.00764">
        <ele>1149.4140625</ele>
        <time>2012-01-21T11:27:48Z</time>
      </trkpt>
      <trkpt lat="48.05364" lon="7.00764">
        <ele>1149.4140625</ele>
        <time>2012-01-21T11:27:50Z</time>
      </trkpt>
      <trkpt lat="48.05361" lon="7.0075">
        <ele>1147.2265625</ele>
        <time>2012-01-21T11:28:06Z</time>
      </trkpt>
      <trkpt lat="48.05365" lon="7.00721">
        <ele>1142.3203125</ele>
        <time>2012-01-21T11:28:23Z</time>
      </trkpt>
      <trkpt lat="48.05366" lon="7.00714">
        <ele>1141.02734375</ele>
        <time>2012-01-21T11:28:27Z</time>
      </trkpt>
      <trkpt lat="48.05368" lon="7.00705">
        <ele>1139.50390625</ele>
        <time>2012-01-21T11:28:32Z</time>
      </trkpt>
      <trkpt lat="48.05372" lon="7.00686">
        <ele>1136.3359375</ele>
        <time>2012-01-21T11:28:44Z</time>
      </trkpt>
      <trkpt lat="48.05372" lon="7.00685">
        <ele>1136.078125</ele>
        <time>2012-01-21T11:28:53Z</time>
      </trkpt>
      <trkpt lat="48.0537" lon="7.00679">
        <ele>1135.1953125</ele>
        <time>2012-01-21T11:29:27Z</time>
      </trkpt>
      <trkpt lat="48.05368" lon="7.00678">
        <ele>1135.0078125</ele>
        <time>2012-01-21T11:29:30Z</time>
      </trkpt>
      <trkpt lat="48.05365" lon="7.00669">
        <ele>1133.546875</ele>
        <time>2012-01-21T11:29:35Z</time>
      </trkpt>
      <trkpt lat="48.05362" lon="7.00665">
        <ele>1132.9140625</ele>
        <time>2012-01-21T11:29:38Z</time>
      </trkpt>
      <trkpt lat="48.05361" lon="7.00663">
        <ele>1132.67578125</ele>
        <time>2012-01-21T11:29:39Z</time>
      </trkpt>
      <trkpt lat="48.05357" lon="7.0065">
        <ele>1130.51171875</ele>
        <time>2012-01-21T11:29:45Z</time>
      </trkpt>
      <trkpt lat="48.05358" lon="7.0064">
        <ele>1128.734375</ele>
        <time>2012-01-21T11:29:49Z</time>
      </trkpt>
      <trkpt lat="48.05358" lon="7.00634">
        <ele>1127.79296875</ele>
        <time>2012-01-21T11:29:51Z</time>
      </trkpt>
      <trkpt lat="48.0536" lon="7.00625">
        <ele>1126.140625</ele>
        <time>2012-01-21T11:29:55Z</time>
      </trkpt>
      <trkpt lat="48.05363" lon="7.00616">
        <ele>1124.62109375</ele>
        <time>2012-01-21T11:29:59Z</time>
      </trkpt>
      <trkpt lat="48.05369" lon="7.00599">
        <ele>1121.9375</ele>
        <time>2012-01-21T11:30:08Z</time>
      </trkpt>
      <trkpt lat="48.05371" lon="7.00594">
        <ele>1121.1484375</ele>
        <time>2012-01-21T11:30:10Z</time>
      </trkpt>
      <trkpt lat="48.05374" lon="7.00583">
        <ele>1119.51953125</ele>
        <time>2012-01-21T11:30:14Z</time>
      </trkpt>
      <trkpt lat="48.05382" lon="7.0056">
        <ele>1115.70703125</ele>
        <time>2012-01-21T11:30:27Z</time>
      </trkpt>
      <trkpt lat="48.05383" lon="7.00554">
        <ele>1114.68359375</ele>
        <time>2012-01-21T11:30:30Z</time>
      </trkpt>
      <trkpt lat="48.05386" lon="7.00543">
        <ele>1112.953125</ele>
        <time>2012-01-21T11:30:35Z</time>
      </trkpt>
      <trkpt lat="48.05395" lon="7.00517">
        <ele>1108.86328125</ele>
        <time>2012-01-21T11:30:49Z</time>
      </trkpt>
      <trkpt lat="48.05403" lon="7.00505">
        <ele>1107.46875</ele>
        <time>2012-01-21T11:31:05Z</time>
      </trkpt>
      <trkpt lat="48.05404" lon="7.00504">
        <ele>1107.27734375</ele>
        <time>2012-01-21T11:31:06Z</time>
      </trkpt>
      <trkpt lat="48.05413" lon="7.00496">
        <ele>1106.29296875</ele>
        <time>2012-01-21T11:31:15Z</time>
      </trkpt>
      <trkpt lat="48.05422" lon="7.00494">
        <ele>1106.26171875</ele>
        <time>2012-01-21T11:31:28Z</time>
      </trkpt>
      <trkpt lat="48.05425" lon="7.00494">
        <ele>1106.26953125</ele>
        <time>2012-01-21T11:32:04Z</time>
      </trkpt>
      <trkpt lat="48.05428" lon="7.00493">
        <ele>1106.21484375</ele>
        <time>2012-01-21T11:32:37Z</time>
      </trkpt>
    </trkseg>
  </trk>
  <trk>
    <name><![CDATA[Raquette Ventron frere joseph]]></name>
    <trkseg>
      <trkpt lat="47.92458" lon="6.8646">
        <ele>886.953369</ele>
      </trkpt>
      <trkpt lat="47.9246" lon="6.8646">
        <ele>887.434082</ele>
      </trkpt>
      <trkpt lat="47.92461" lon="6.86459">
        <ele>887.434082</ele>
      </trkpt>
      <trkpt lat="47.9246" lon="6.86458">
        <ele>884.550293</ele>
      </trkpt>
      <trkpt lat="47.92459" lon="6.86458">
        <ele>884.06958</ele>
      </trkpt>
      <trkpt lat="47.92459" lon="6.86458">
        <ele>883.108154</ele>
      </trkpt>
      <trkpt lat="47.92459" lon="6.86459">
        <ele>884.06958</ele>
      </trkpt>
      <trkpt lat="47.92459" lon="6.86457">
        <ele>883.588867</ele>
      </trkpt>
      <trkpt lat="47.92458" lon="6.86454">
        <ele>883.588867</ele>
      </trkpt>
      <trkpt lat="47.92448" lon="6.86453">
        <ele>883.108154</ele>
      </trkpt>
      <trkpt lat="47.92445" lon="6.86453">
        <ele>882.146973</ele>
      </trkpt>
      <trkpt lat="47.92444" lon="6.86453">
        <ele>884.06958</ele>
      </trkpt>
      <trkpt lat="47.92444" lon="6.86453">
        <ele>886.4729</ele>
      </trkpt>
      <trkpt lat="47.92432" lon="6.86457">
        <ele>886.4729</ele>
      </trkpt>
      <trkpt lat="47.92411" lon="6.86456">
        <ele>887.434082</ele>
      </trkpt>
      <trkpt lat="47.92398" lon="6.86471">
        <ele>887.914795</ele>
      </trkpt>
      <trkpt lat="47.92391" lon="6.86486">
        <ele>890.318115</ele>
      </trkpt>
      <trkpt lat="47.9239" lon="6.86485">
        <ele>890.798584</ele>
      </trkpt>
      <trkpt lat="47.9238" lon="6.86486">
        <ele>893.682861</ele>
      </trkpt>
      <trkpt lat="47.92378" lon="6.86503">
        <ele>896.086182</ele>
      </trkpt>
      <trkpt lat="47.92377" lon="6.86505">
        <ele>896.566895</ele>
      </trkpt>
      <trkpt lat="47.92374" lon="6.86509">
        <ele>897.047363</ele>
      </trkpt>
      <trkpt lat="47.92364" lon="6.8651">
        <ele>898.969971</ele>
      </trkpt>
      <trkpt lat="47.92351" lon="6.86512">
        <ele>902.815186</ele>
      </trkpt>
      <trkpt lat="47.92333" lon="6.86517">
        <ele>905.699219</ele>
      </trkpt>
      <trkpt lat="47.92319" lon="6.86523">
        <ele>910.025146</ele>
      </trkpt>
      <trkpt lat="47.92308" lon="6.86527">
        <ele>912.428467</ele>
      </trkpt>
      <trkpt lat="47.92298" lon="6.86531">
        <ele>912.90918</ele>
      </trkpt>
      <trkpt lat="47.92297" lon="6.86533">
        <ele>913.389893</ele>
      </trkpt>
      <trkpt lat="47.92289" lon="6.86556">
        <ele>916.273682</ele>
      </trkpt>
      <trkpt lat="47.92281" lon="6.86576">
        <ele>921.560791</ele>
      </trkpt>
      <trkpt lat="47.92269" lon="6.86597">
        <ele>924.445068</ele>
      </trkpt>
      <trkpt lat="47.92258" lon="6.86623">
        <ele>931.174316</ele>
      </trkpt>
      <trkpt lat="47.92249" lon="6.86645">
        <ele>934.538818</ele>
      </trkpt>
      <trkpt lat="47.9224" lon="6.86669">
        <ele>935.019531</ele>
      </trkpt>
      <trkpt lat="47.92225" lon="6.86691">
        <ele>939.825928</ele>
      </trkpt>
      <trkpt lat="47.92215" lon="6.86709">
        <ele>945.593994</ele>
      </trkpt>
      <trkpt lat="47.92204" lon="6.8671">
        <ele>950.881104</ele>
      </trkpt>
      <trkpt lat="47.92197" lon="6.86714">
        <ele>949.919922</ele>
      </trkpt>
      <trkpt lat="47.92193" lon="6.86711">
        <ele>951.361816</ele>
      </trkpt>
      <trkpt lat="47.92177" lon="6.86707">
        <ele>955.207031</ele>
      </trkpt>
      <trkpt lat="47.92176" lon="6.86707">
        <ele>955.207031</ele>
      </trkpt>
      <trkpt lat="47.92154" lon="6.86698">
        <ele>957.610596</ele>
      </trkpt>
      <trkpt lat="47.9214" lon="6.86693">
        <ele>960.494385</ele>
      </trkpt>
      <trkpt lat="47.92122" lon="6.86694">
        <ele>967.223633</ele>
      </trkpt>
      <trkpt lat="47.92117" lon="6.8669">
        <ele>970.588135</ele>
      </trkpt>
      <trkpt lat="47.92095" lon="6.86686">
        <ele>974.914307</ele>
      </trkpt>
      <trkpt lat="47.92076" lon="6.86685">
        <ele>977.317627</ele>
      </trkpt>
      <trkpt lat="47.92056" lon="6.86689">
        <ele>976.356201</ele>
      </trkpt>
      <trkpt lat="47.92036" lon="6.86695">
        <ele>976.836914</ele>
      </trkpt>
      <trkpt lat="47.92018" lon="6.86694">
        <ele>985.488525</ele>
      </trkpt>
      <trkpt lat="47.92003" lon="6.86694">
        <ele>993.659912</ele>
      </trkpt>
      <trkpt lat="47.91985" lon="6.86692">
        <ele>999.427734</ele>
      </trkpt>
      <trkpt lat="47.91966" lon="6.86684">
        <ele>999.908447</ele>
      </trkpt>
      <trkpt lat="47.91945" lon="6.86691">
        <ele>1002.792236</ele>
      </trkpt>
      <trkpt lat="47.91927" lon="6.86702">
        <ele>1002.792236</ele>
      </trkpt>
      <trkpt lat="47.91913" lon="6.86702">
        <ele>999.908447</ele>
      </trkpt>
      <trkpt lat="47.91898" lon="6.86703">
        <ele>1003.753662</ele>
      </trkpt>
      <trkpt lat="47.91878" lon="6.86708">
        <ele>1009.521729</ele>
      </trkpt>
      <trkpt lat="47.91862" lon="6.86717">
        <ele>1007.118408</ele>
      </trkpt>
      <trkpt lat="47.91847" lon="6.86736">
        <ele>1006.637695</ele>
      </trkpt>
      <trkpt lat="47.91831" lon="6.86745">
        <ele>1007.599121</ele>
      </trkpt>
      <trkpt lat="47.91814" lon="6.8675">
        <ele>1015.289551</ele>
      </trkpt>
      <trkpt lat="47.918" lon="6.86756">
        <ele>1019.615479</ele>
      </trkpt>
      <trkpt lat="47.91786" lon="6.86762">
        <ele>1023.460938</ele>
      </trkpt>
      <trkpt lat="47.91773" lon="6.86763">
        <ele>1023.460938</ele>
      </trkpt>
      <trkpt lat="47.91759" lon="6.86766">
        <ele>1024.902832</ele>
      </trkpt>
      <trkpt lat="47.91743" lon="6.86769">
        <ele>1024.422119</ele>
      </trkpt>
      <trkpt lat="47.91727" lon="6.86769">
        <ele>1027.306152</ele>
      </trkpt>
      <trkpt lat="47.9171" lon="6.86765">
        <ele>1027.786621</ele>
      </trkpt>
      <trkpt lat="47.9169" lon="6.86769">
        <ele>1023.941406</ele>
      </trkpt>
      <trkpt lat="47.91667" lon="6.86775">
        <ele>1024.902832</ele>
      </trkpt>
      <trkpt lat="47.91646" lon="6.86776">
        <ele>1025.383301</ele>
      </trkpt>
      <trkpt lat="47.91633" lon="6.86775">
        <ele>1024.902832</ele>
      </trkpt>
      <trkpt lat="47.9162" lon="6.86779">
        <ele>1025.383301</ele>
      </trkpt>
      <trkpt lat="47.91599" lon="6.86787">
        <ele>1024.902832</ele>
      </trkpt>
      <trkpt lat="47.91582" lon="6.86803">
        <ele>1026.344727</ele>
      </trkpt>
      <trkpt lat="47.91567" lon="6.86813">
        <ele>1024.902832</ele>
      </trkpt>
      <trkpt lat="47.91541" lon="6.86816">
        <ele>1025.383301</ele>
      </trkpt>
      <trkpt lat="47.91526" lon="6.86817">
        <ele>1024.902832</ele>
      </trkpt>
      <trkpt lat="47.91518" lon="6.86819">
        <ele>1024.422119</ele>
      </trkpt>
      <trkpt lat="47.91508" lon="6.86821">
        <ele>1024.902832</ele>
      </trkpt>
      <trkpt lat="47.91493" lon="6.86832">
        <ele>1025.864014</ele>
      </trkpt>
      <trkpt lat="47.91495" lon="6.86832">
        <ele>1026.825439</ele>
      </trkpt>
      <trkpt lat="47.91523" lon="6.86821">
        <ele>1028.267334</ele>
      </trkpt>
      <trkpt lat="47.91551" lon="6.86818">
        <ele>1027.306152</ele>
      </trkpt>
      <trkpt lat="47.91575" lon="6.86807">
        <ele>1029.228516</ele>
      </trkpt>
      <trkpt lat="47.91594" lon="6.86787">
        <ele>1031.631836</ele>
      </trkpt>
      <trkpt lat="47.91609" lon="6.8677">
        <ele>1029.228516</ele>
      </trkpt>
      <trkpt lat="47.91627" lon="6.86751">
        <ele>1028.748047</ele>
      </trkpt>
      <trkpt lat="47.91643" lon="6.86733">
        <ele>1029.709229</ele>
      </trkpt>
      <trkpt lat="47.91658" lon="6.86717">
        <ele>1032.112549</ele>
      </trkpt>
      <trkpt lat="47.91679" lon="6.86688">
        <ele>1029.228516</ele>
      </trkpt>
      <trkpt lat="47.91697" lon="6.86672">
        <ele>1029.709229</ele>
      </trkpt>
      <trkpt lat="47.91714" lon="6.86652">
        <ele>1031.151367</ele>
      </trkpt>
      <trkpt lat="47.91734" lon="6.86635">
        <ele>1032.593262</ele>
      </trkpt>
      <trkpt lat="47.91751" lon="6.8662">
        <ele>1032.112549</ele>
      </trkpt>
      <trkpt lat="47.91758" lon="6.8661">
        <ele>1032.112549</ele>
      </trkpt>
      <trkpt lat="47.91769" lon="6.86591">
        <ele>1031.151367</ele>
      </trkpt>
      <trkpt lat="47.91777" lon="6.86575">
        <ele>1034.515869</ele>
      </trkpt>
      <trkpt lat="47.9179" lon="6.86558">
        <ele>1038.361328</ele>
      </trkpt>
      <trkpt lat="47.91805" lon="6.86535">
        <ele>1038.842041</ele>
      </trkpt>
      <trkpt lat="47.91824" lon="6.86514">
        <ele>1038.842041</ele>
      </trkpt>
      <trkpt lat="47.91827" lon="6.86509">
        <ele>1040.283936</ele>
      </trkpt>
      <trkpt lat="47.9183" lon="6.86497">
        <ele>1041.245117</ele>
      </trkpt>
      <trkpt lat="47.91839" lon="6.86467">
        <ele>1039.32251</ele>
      </trkpt>
      <trkpt lat="47.91845" lon="6.86442">
        <ele>1040.764404</ele>
      </trkpt>
      <trkpt lat="47.91849" lon="6.86414">
        <ele>1038.842041</ele>
      </trkpt>
      <trkpt lat="47.91852" lon="6.86398">
        <ele>1037.399902</ele>
      </trkpt>
      <trkpt lat="47.91854" lon="6.86394">
        <ele>1050.377686</ele>
      </trkpt>
      <trkpt lat="47.91856" lon="6.86378">
        <ele>1051.338867</ele>
      </trkpt>
      <trkpt lat="47.91864" lon="6.86346">
        <ele>1049.41626</ele>
      </trkpt>
      <trkpt lat="47.91865" lon="6.86342">
        <ele>1051.338867</ele>
      </trkpt>
      <trkpt lat="47.91878" lon="6.8632">
        <ele>1053.742432</ele>
      </trkpt>
      <trkpt lat="47.91887" lon="6.86298">
        <ele>1053.742432</ele>
      </trkpt>
      <trkpt lat="47.91892" lon="6.86274">
        <ele>1053.742432</ele>
      </trkpt>
      <trkpt lat="47.91901" lon="6.86247">
        <ele>1053.261719</ele>
      </trkpt>
      <trkpt lat="47.91913" lon="6.86225">
        <ele>1053.261719</ele>
      </trkpt>
      <trkpt lat="47.9192" lon="6.86194">
        <ele>1056.626221</ele>
      </trkpt>
      <trkpt lat="47.91934" lon="6.86168">
        <ele>1060.471436</ele>
      </trkpt>
      <trkpt lat="47.9195" lon="6.86151">
        <ele>1059.510254</ele>
      </trkpt>
      <trkpt lat="47.91965" lon="6.86138">
        <ele>1061.913574</ele>
      </trkpt>
      <trkpt lat="47.91969" lon="6.86132">
        <ele>1063.355469</ele>
      </trkpt>
      <trkpt lat="47.91975" lon="6.86107">
        <ele>1065.758789</ele>
      </trkpt>
      <trkpt lat="47.91977" lon="6.86088">
        <ele>1066.239258</ele>
      </trkpt>
      <trkpt lat="47.91981" lon="6.8606">
        <ele>1067.200684</ele>
      </trkpt>
      <trkpt lat="47.91979" lon="6.86044">
        <ele>1070.56543</ele>
      </trkpt>
      <trkpt lat="47.91972" lon="6.86018">
        <ele>1073.929932</ele>
      </trkpt>
      <trkpt lat="47.9197" lon="6.86009">
        <ele>1072.96875</ele>
      </trkpt>
      <trkpt lat="47.9196" lon="6.85975">
        <ele>1070.56543</ele>
      </trkpt>
      <trkpt lat="47.9195" lon="6.85946">
        <ele>1078.736572</ele>
      </trkpt>
      <trkpt lat="47.9194" lon="6.85918">
        <ele>1081.139893</ele>
      </trkpt>
      <trkpt lat="47.91927" lon="6.85889">
        <ele>1082.581787</ele>
      </trkpt>
      <trkpt lat="47.91914" lon="6.85858">
        <ele>1083.062256</ele>
      </trkpt>
      <trkpt lat="47.91903" lon="6.85822">
        <ele>1084.985352</ele>
      </trkpt>
      <trkpt lat="47.91891" lon="6.85783">
        <ele>1082.581787</ele>
      </trkpt>
      <trkpt lat="47.91892" lon="6.85747">
        <ele>1079.217041</ele>
      </trkpt>
      <trkpt lat="47.91896" lon="6.85715">
        <ele>1080.178467</ele>
      </trkpt>
      <trkpt lat="47.91906" lon="6.85662">
        <ele>1085.946533</ele>
      </trkpt>
      <trkpt lat="47.9191" lon="6.85656">
        <ele>1086.907715</ele>
      </trkpt>
      <trkpt lat="47.91927" lon="6.85647">
        <ele>1087.388428</ele>
      </trkpt>
      <trkpt lat="47.91952" lon="6.85636">
        <ele>1089.791748</ele>
      </trkpt>
      <trkpt lat="47.91974" lon="6.85623">
        <ele>1088.349854</ele>
      </trkpt>
      <trkpt lat="47.91995" lon="6.8561">
        <ele>1087.869141</ele>
      </trkpt>
      <trkpt lat="47.92017" lon="6.85595">
        <ele>1087.869141</ele>
      </trkpt>
      <trkpt lat="47.92035" lon="6.85577">
        <ele>1086.907715</ele>
      </trkpt>
      <trkpt lat="47.9204" lon="6.85569">
        <ele>1083.062256</ele>
      </trkpt>
      <trkpt lat="47.9205" lon="6.8555">
        <ele>1083.062256</ele>
      </trkpt>
      <trkpt lat="47.92054" lon="6.85525">
        <ele>1089.311035</ele>
      </trkpt>
      <trkpt lat="47.92051" lon="6.85496">
        <ele>1092.675781</ele>
      </trkpt>
      <trkpt lat="47.92048" lon="6.85478">
        <ele>1094.117676</ele>
      </trkpt>
      <trkpt lat="47.92041" lon="6.8545">
        <ele>1093.15625</ele>
      </trkpt>
      <trkpt lat="47.92034" lon="6.85425">
        <ele>1093.636963</ele>
      </trkpt>
      <trkpt lat="47.92028" lon="6.85409">
        <ele>1095.55957</ele>
      </trkpt>
      <trkpt lat="47.92022" lon="6.85384">
        <ele>1095.078857</ele>
      </trkpt>
      <trkpt lat="47.92016" lon="6.85355">
        <ele>1097.482178</ele>
      </trkpt>
      <trkpt lat="47.92009" lon="6.85334">
        <ele>1098.443359</ele>
      </trkpt>
      <trkpt lat="47.92002" lon="6.85309">
        <ele>1098.924072</ele>
      </trkpt>
      <trkpt lat="47.91999" lon="6.85286">
        <ele>1099.885498</ele>
      </trkpt>
      <trkpt lat="47.92004" lon="6.85253">
        <ele>1096.040283</ele>
      </trkpt>
      <trkpt lat="47.92011" lon="6.85227">
        <ele>1093.636963</ele>
      </trkpt>
      <trkpt lat="47.92019" lon="6.85202">
        <ele>1096.040283</ele>
      </trkpt>
      <trkpt lat="47.92025" lon="6.85181">
        <ele>1097.962891</ele>
      </trkpt>
      <trkpt lat="47.92026" lon="6.85179">
        <ele>1097.482178</ele>
      </trkpt>
      <trkpt lat="47.92045" lon="6.85156">
        <ele>1096.520996</ele>
      </trkpt>
      <trkpt lat="47.92066" lon="6.85154">
        <ele>1089.791748</ele>
      </trkpt>
      <trkpt lat="47.92083" lon="6.85183">
        <ele>1088.830566</ele>
      </trkpt>
      <trkpt lat="47.92097" lon="6.85212">
        <ele>1091.233643</ele>
      </trkpt>
      <trkpt lat="47.92111" lon="6.8524">
        <ele>1093.636963</ele>
      </trkpt>
      <trkpt lat="47.92124" lon="6.85266">
        <ele>1096.520996</ele>
      </trkpt>
      <trkpt lat="47.92126" lon="6.85269">
        <ele>1097.001465</ele>
      </trkpt>
      <trkpt lat="47.92144" lon="6.85284">
        <ele>1099.885498</ele>
      </trkpt>
      <trkpt lat="47.9216" lon="6.85302">
        <ele>1103.250244</ele>
      </trkpt>
      <trkpt lat="47.92173" lon="6.85323">
        <ele>1106.134033</ele>
      </trkpt>
      <trkpt lat="47.92187" lon="6.85341">
        <ele>1109.018066</ele>
      </trkpt>
      <trkpt lat="47.92201" lon="6.85364">
        <ele>1111.421387</ele>
      </trkpt>
      <trkpt lat="47.92204" lon="6.85369">
        <ele>1111.421387</ele>
      </trkpt>
      <trkpt lat="47.92215" lon="6.8539">
        <ele>1110.940674</ele>
      </trkpt>
      <trkpt lat="47.92223" lon="6.8539">
        <ele>1112.382568</ele>
      </trkpt>
      <trkpt lat="47.92229" lon="6.85386">
        <ele>1113.824463</ele>
      </trkpt>
      <trkpt lat="47.92246" lon="6.85335">
        <ele>1112.863281</ele>
      </trkpt>
      <trkpt lat="47.92251" lon="6.8533">
        <ele>1113.824463</ele>
      </trkpt>
      <trkpt lat="47.92259" lon="6.85322">
        <ele>1114.785889</ele>
      </trkpt>
      <trkpt lat="47.92264" lon="6.85324">
        <ele>1114.305176</ele>
      </trkpt>
      <trkpt lat="47.92268" lon="6.85326">
        <ele>1114.305176</ele>
      </trkpt>
      <trkpt lat="47.92274" lon="6.85325">
        <ele>1115.266602</ele>
      </trkpt>
      <trkpt lat="47.92279" lon="6.85327">
        <ele>1114.305176</ele>
      </trkpt>
      <trkpt lat="47.92297" lon="6.85324">
        <ele>1114.305176</ele>
      </trkpt>
      <trkpt lat="47.92305" lon="6.85307">
        <ele>1111.421387</ele>
      </trkpt>
      <trkpt lat="47.92308" lon="6.85306">
        <ele>1110.940674</ele>
      </trkpt>
      <trkpt lat="47.92325" lon="6.85314">
        <ele>1109.498779</ele>
      </trkpt>
      <trkpt lat="47.92328" lon="6.85315">
        <ele>1109.498779</ele>
      </trkpt>
      <trkpt lat="47.92334" lon="6.85312">
        <ele>1109.018066</ele>
      </trkpt>
      <trkpt lat="47.92343" lon="6.85282">
        <ele>1107.576172</ele>
      </trkpt>
      <trkpt lat="47.92348" lon="6.85264">
        <ele>1109.018066</ele>
      </trkpt>
      <trkpt lat="47.92357" lon="6.85245">
        <ele>1108.056885</ele>
      </trkpt>
      <trkpt lat="47.92358" lon="6.85244">
        <ele>1108.056885</ele>
      </trkpt>
      <trkpt lat="47.92373" lon="6.85226">
        <ele>1103.730957</ele>
      </trkpt>
      <trkpt lat="47.9239" lon="6.85211">
        <ele>1098.924072</ele>
      </trkpt>
      <trkpt lat="47.92403" lon="6.85198">
        <ele>1095.078857</ele>
      </trkpt>
      <trkpt lat="47.92421" lon="6.85184">
        <ele>1090.75293</ele>
      </trkpt>
      <trkpt lat="47.92436" lon="6.85174">
        <ele>1087.869141</ele>
      </trkpt>
      <trkpt lat="47.92461" lon="6.85145">
        <ele>1082.581787</ele>
      </trkpt>
      <trkpt lat="47.92475" lon="6.85131">
        <ele>1079.697754</ele>
      </trkpt>
      <trkpt lat="47.92486" lon="6.85117">
        <ele>1076.813965</ele>
      </trkpt>
      <trkpt lat="47.92508" lon="6.85095">
        <ele>1074.891357</ele>
      </trkpt>
      <trkpt lat="47.92536" lon="6.85067">
        <ele>1071.526611</ele>
      </trkpt>
      <trkpt lat="47.92561" lon="6.85047">
        <ele>1067.681152</ele>
      </trkpt>
      <trkpt lat="47.92588" lon="6.85024">
        <ele>1065.758789</ele>
      </trkpt>
      <trkpt lat="47.92619" lon="6.85002">
        <ele>1064.797363</ele>
      </trkpt>
      <trkpt lat="47.92645" lon="6.84982">
        <ele>1062.874756</ele>
      </trkpt>
      <trkpt lat="47.9266" lon="6.84949">
        <ele>1060.471436</ele>
      </trkpt>
      <trkpt lat="47.92661" lon="6.8491">
        <ele>1059.510254</ele>
      </trkpt>
      <trkpt lat="47.92656" lon="6.84871">
        <ele>1056.145508</ele>
      </trkpt>
      <trkpt lat="47.92649" lon="6.84842">
        <ele>1055.184326</ele>
      </trkpt>
      <trkpt lat="47.9265" lon="6.84831">
        <ele>1054.223145</ele>
      </trkpt>
      <trkpt lat="47.9266" lon="6.84806">
        <ele>1052.300293</ele>
      </trkpt>
      <trkpt lat="47.9267" lon="6.84777">
        <ele>1051.338867</ele>
      </trkpt>
      <trkpt lat="47.92684" lon="6.84752">
        <ele>1048.454834</ele>
      </trkpt>
      <trkpt lat="47.92692" lon="6.84732">
        <ele>1046.532471</ele>
      </trkpt>
      <trkpt lat="47.927" lon="6.8472">
        <ele>1046.532471</ele>
      </trkpt>
      <trkpt lat="47.92712" lon="6.84699">
        <ele>1047.493652</ele>
      </trkpt>
      <trkpt lat="47.9272" lon="6.84662">
        <ele>1042.206543</ele>
      </trkpt>
      <trkpt lat="47.92724" lon="6.84636">
        <ele>1041.72583</ele>
      </trkpt>
      <trkpt lat="47.92726" lon="6.84614">
        <ele>1038.361328</ele>
      </trkpt>
      <trkpt lat="47.92729" lon="6.84573">
        <ele>1034.996582</ele>
      </trkpt>
      <trkpt lat="47.92729" lon="6.84565">
        <ele>1035.477051</ele>
      </trkpt>
      <trkpt lat="47.92735" lon="6.84551">
        <ele>1034.996582</ele>
      </trkpt>
      <trkpt lat="47.92746" lon="6.84511">
        <ele>1033.07373</ele>
      </trkpt>
      <trkpt lat="47.92755" lon="6.84475">
        <ele>1033.554443</ele>
      </trkpt>
      <trkpt lat="47.92759" lon="6.84463">
        <ele>1034.035156</ele>
      </trkpt>
      <trkpt lat="47.92766" lon="6.84443">
        <ele>1033.554443</ele>
      </trkpt>
      <trkpt lat="47.92776" lon="6.84418">
        <ele>1034.515869</ele>
      </trkpt>
      <trkpt lat="47.92788" lon="6.84386">
        <ele>1027.306152</ele>
      </trkpt>
      <trkpt lat="47.92796" lon="6.84358">
        <ele>1024.902832</ele>
      </trkpt>
      <trkpt lat="47.92807" lon="6.84326">
        <ele>1024.902832</ele>
      </trkpt>
      <trkpt lat="47.92825" lon="6.84292">
        <ele>1022.499512</ele>
      </trkpt>
      <trkpt lat="47.92836" lon="6.84276">
        <ele>1022.499512</ele>
      </trkpt>
      <trkpt lat="47.92838" lon="6.84275">
        <ele>1022.499512</ele>
      </trkpt>
      <trkpt lat="47.9284" lon="6.84272">
        <ele>1022.018799</ele>
      </trkpt>
      <trkpt lat="47.92861" lon="6.84251">
        <ele>1020.096191</ele>
      </trkpt>
      <trkpt lat="47.9288" lon="6.84232">
        <ele>1022.499512</ele>
      </trkpt>
      <trkpt lat="47.92894" lon="6.84225">
        <ele>1021.538086</ele>
      </trkpt>
      <trkpt lat="47.92902" lon="6.84218">
        <ele>1022.018799</ele>
      </trkpt>
      <trkpt lat="47.92905" lon="6.8421">
        <ele>1021.538086</ele>
      </trkpt>
      <trkpt lat="47.92909" lon="6.84199">
        <ele>1020.576904</ele>
      </trkpt>
      <trkpt lat="47.92904" lon="6.84169">
        <ele>1019.134766</ele>
      </trkpt>
      <trkpt lat="47.92892" lon="6.84141">
        <ele>1019.134766</ele>
      </trkpt>
      <trkpt lat="47.92886" lon="6.84109">
        <ele>1017.212158</ele>
      </trkpt>
      <trkpt lat="47.92883" lon="6.84104">
        <ele>1015.770264</ele>
      </trkpt>
      <trkpt lat="47.92873" lon="6.84075">
        <ele>1012.405518</ele>
      </trkpt>
      <trkpt lat="47.92864" lon="6.8405">
        <ele>1012.88623</ele>
      </trkpt>
      <trkpt lat="47.92859" lon="6.8404">
        <ele>1010.002197</ele>
      </trkpt>
      <trkpt lat="47.92859" lon="6.84034">
        <ele>1009.041016</ele>
      </trkpt>
      <trkpt lat="47.92874" lon="6.84053">
        <ele>1000.869629</ele>
      </trkpt>
      <trkpt lat="47.92891" lon="6.84068">
        <ele>999.427734</ele>
      </trkpt>
      <trkpt lat="47.92907" lon="6.84076">
        <ele>1001.350342</ele>
      </trkpt>
      <trkpt lat="47.9292" lon="6.84082">
        <ele>996.543945</ele>
      </trkpt>
      <trkpt lat="47.92942" lon="6.8409">
        <ele>992.218018</ele>
      </trkpt>
      <trkpt lat="47.92963" lon="6.84105">
        <ele>987.411133</ele>
      </trkpt>
      <trkpt lat="47.92981" lon="6.84123">
        <ele>988.853516</ele>
      </trkpt>
      <trkpt lat="47.92994" lon="6.84145">
        <ele>987.411133</ele>
      </trkpt>
      <trkpt lat="47.93002" lon="6.84164">
        <ele>986.93042</ele>
      </trkpt>
      <trkpt lat="47.93009" lon="6.84201">
        <ele>991.256592</ele>
      </trkpt>
      <trkpt lat="47.93005" lon="6.84224">
        <ele>992.69873</ele>
      </trkpt>
      <trkpt lat="47.93004" lon="6.84227">
        <ele>992.69873</ele>
      </trkpt>
      <trkpt lat="47.92999" lon="6.84243">
        <ele>993.179199</ele>
      </trkpt>
      <trkpt lat="47.92998" lon="6.84247">
        <ele>992.218018</ele>
      </trkpt>
      <trkpt lat="47.9299" lon="6.84264">
        <ele>993.179199</ele>
      </trkpt>
      <trkpt lat="47.92973" lon="6.84282">
        <ele>987.891846</ele>
      </trkpt>
      <trkpt lat="47.9296" lon="6.84298">
        <ele>988.853516</ele>
      </trkpt>
      <trkpt lat="47.92945" lon="6.84317">
        <ele>990.29541</ele>
      </trkpt>
      <trkpt lat="47.92932" lon="6.84341">
        <ele>993.659912</ele>
      </trkpt>
      <trkpt lat="47.92923" lon="6.84363">
        <ele>997.024414</ele>
      </trkpt>
      <trkpt lat="47.92918" lon="6.84379">
        <ele>998.466309</ele>
      </trkpt>
      <trkpt lat="47.92912" lon="6.84397">
        <ele>997.505127</ele>
      </trkpt>
      <trkpt lat="47.92905" lon="6.84425">
        <ele>996.063232</ele>
      </trkpt>
      <trkpt lat="47.92898" lon="6.84457">
        <ele>995.101807</ele>
      </trkpt>
      <trkpt lat="47.92898" lon="6.84484">
        <ele>996.543945</ele>
      </trkpt>
      <trkpt lat="47.92899" lon="6.84489">
        <ele>996.063232</ele>
      </trkpt>
      <trkpt lat="47.92896" lon="6.84528">
        <ele>990.29541</ele>
      </trkpt>
      <trkpt lat="47.92889" lon="6.84564">
        <ele>977.317627</ele>
      </trkpt>
      <trkpt lat="47.92888" lon="6.84585">
        <ele>975.394775</ele>
      </trkpt>
      <trkpt lat="47.92886" lon="6.84594">
        <ele>974.433594</ele>
      </trkpt>
      <trkpt lat="47.9288" lon="6.84627">
        <ele>970.107422</ele>
      </trkpt>
      <trkpt lat="47.92879" lon="6.84655">
        <ele>972.510986</ele>
      </trkpt>
      <trkpt lat="47.92877" lon="6.84672">
        <ele>973.952881</ele>
      </trkpt>
      <trkpt lat="47.92875" lon="6.84682">
        <ele>971.068848</ele>
      </trkpt>
      <trkpt lat="47.92862" lon="6.84714">
        <ele>959.533203</ele>
      </trkpt>
      <trkpt lat="47.92854" lon="6.84742">
        <ele>953.284424</ele>
      </trkpt>
      <trkpt lat="47.92845" lon="6.84762">
        <ele>949.439209</ele>
      </trkpt>
      <trkpt lat="47.92844" lon="6.84793">
        <ele>947.516602</ele>
      </trkpt>
      <trkpt lat="47.92851" lon="6.84799">
        <ele>960.494385</ele>
      </trkpt>
      <trkpt lat="47.92855" lon="6.84807">
        <ele>966.74292</ele>
      </trkpt>
      <trkpt lat="47.92858" lon="6.84845">
        <ele>954.726318</ele>
      </trkpt>
      <trkpt lat="47.92856" lon="6.84881">
        <ele>943.190674</ele>
      </trkpt>
      <trkpt lat="47.92859" lon="6.84918">
        <ele>947.035889</ele>
      </trkpt>
      <trkpt lat="47.92849" lon="6.84969">
        <ele>933.09668</ele>
      </trkpt>
      <trkpt lat="47.92847" lon="6.84987">
        <ele>934.538818</ele>
      </trkpt>
      <trkpt lat="47.92847" lon="6.85003">
        <ele>934.538818</ele>
      </trkpt>
      <trkpt lat="47.92845" lon="6.85021">
        <ele>932.135498</ele>
      </trkpt>
      <trkpt lat="47.92844" lon="6.85028">
        <ele>932.616211</ele>
      </trkpt>
      <trkpt lat="47.92839" lon="6.85053">
        <ele>931.654785</ele>
      </trkpt>
      <trkpt lat="47.92839" lon="6.85056">
        <ele>932.135498</ele>
      </trkpt>
      <trkpt lat="47.92837" lon="6.85074">
        <ele>930.212891</ele>
      </trkpt>
      <trkpt lat="47.92836" lon="6.85082">
        <ele>930.212891</ele>
      </trkpt>
      <trkpt lat="47.92837" lon="6.85105">
        <ele>928.770996</ele>
      </trkpt>
      <trkpt lat="47.92835" lon="6.85113">
        <ele>926.367676</ele>
      </trkpt>
      <trkpt lat="47.92834" lon="6.85143">
        <ele>919.638428</ele>
      </trkpt>
      <trkpt lat="47.92835" lon="6.8517">
        <ele>917.235107</ele>
      </trkpt>
      <trkpt lat="47.92841" lon="6.85195">
        <ele>915.3125</ele>
      </trkpt>
      <trkpt lat="47.92854" lon="6.85231">
        <ele>915.3125</ele>
      </trkpt>
      <trkpt lat="47.92871" lon="6.85277">
        <ele>917.235107</ele>
      </trkpt>
      <trkpt lat="47.92879" lon="6.85318">
        <ele>914.831787</ele>
      </trkpt>
      <trkpt lat="47.92864" lon="6.85373">
        <ele>912.428467</ele>
      </trkpt>
      <trkpt lat="47.92851" lon="6.85414">
        <ele>913.389893</ele>
      </trkpt>
      <trkpt lat="47.92837" lon="6.85458">
        <ele>914.351074</ele>
      </trkpt>
      <trkpt lat="47.92825" lon="6.85498">
        <ele>917.715576</ele>
      </trkpt>
      <trkpt lat="47.92816" lon="6.85536">
        <ele>921.080322</ele>
      </trkpt>
      <trkpt lat="47.92814" lon="6.8557">
        <ele>924.445068</ele>
      </trkpt>
      <trkpt lat="47.9281" lon="6.85604">
        <ele>927.329102</ele>
      </trkpt>
      <trkpt lat="47.92822" lon="6.85634">
        <ele>929.732178</ele>
      </trkpt>
      <trkpt lat="47.92844" lon="6.85644">
        <ele>928.290283</ele>
      </trkpt>
      <trkpt lat="47.92867" lon="6.85651">
        <ele>926.848389</ele>
      </trkpt>
      <trkpt lat="47.92893" lon="6.85658">
        <ele>924.925781</ele>
      </trkpt>
      <trkpt lat="47.92926" lon="6.85669">
        <ele>922.041504</ele>
      </trkpt>
      <trkpt lat="47.92969" lon="6.85671">
        <ele>920.118896</ele>
      </trkpt>
      <trkpt lat="47.93" lon="6.85681">
        <ele>918.196289</ele>
      </trkpt>
      <trkpt lat="47.93024" lon="6.85704">
        <ele>915.793213</ele>
      </trkpt>
      <trkpt lat="47.93038" lon="6.85743">
        <ele>915.793213</ele>
      </trkpt>
      <trkpt lat="47.93064" lon="6.85772">
        <ele>916.754395</ele>
      </trkpt>
      <trkpt lat="47.93081" lon="6.85815">
        <ele>916.754395</ele>
      </trkpt>
      <trkpt lat="47.93068" lon="6.85845">
        <ele>916.273682</ele>
      </trkpt>
      <trkpt lat="47.93049" lon="6.8587">
        <ele>916.754395</ele>
      </trkpt>
      <trkpt lat="47.93044" lon="6.85876">
        <ele>916.273682</ele>
      </trkpt>
      <trkpt lat="47.93024" lon="6.85894">
        <ele>914.351074</ele>
      </trkpt>
      <trkpt lat="47.93004" lon="6.85909">
        <ele>910.986572</ele>
      </trkpt>
      <trkpt lat="47.92989" lon="6.85918">
        <ele>911.467285</ele>
      </trkpt>
      <trkpt lat="47.92972" lon="6.85933">
        <ele>916.754395</ele>
      </trkpt>
      <trkpt lat="47.92963" lon="6.85943">
        <ele>920.118896</ele>
      </trkpt>
      <trkpt lat="47.92939" lon="6.85966">
        <ele>917.715576</ele>
      </trkpt>
      <trkpt lat="47.92917" lon="6.85994">
        <ele>911.467285</ele>
      </trkpt>
      <trkpt lat="47.92896" lon="6.86025">
        <ele>907.621826</ele>
      </trkpt>
      <trkpt lat="47.9287" lon="6.86058">
        <ele>896.566895</ele>
      </trkpt>
      <trkpt lat="47.92849" lon="6.8609">
        <ele>892.240967</ele>
      </trkpt>
      <trkpt lat="47.92832" lon="6.8612">
        <ele>889.837402</ele>
      </trkpt>
      <trkpt lat="47.92807" lon="6.86147">
        <ele>888.395508</ele>
      </trkpt>
      <trkpt lat="47.92786" lon="6.8617">
        <ele>886.4729</ele>
      </trkpt>
      <trkpt lat="47.92766" lon="6.86184">
        <ele>884.06958</ele>
      </trkpt>
      <trkpt lat="47.92743" lon="6.86183">
        <ele>879.743652</ele>
      </trkpt>
      <trkpt lat="47.92717" lon="6.86163">
        <ele>875.898193</ele>
      </trkpt>
      <trkpt lat="47.92691" lon="6.8614">
        <ele>873.975586</ele>
      </trkpt>
      <trkpt lat="47.92689" lon="6.86139">
        <ele>873.975586</ele>
      </trkpt>
      <trkpt lat="47.92656" lon="6.86153">
        <ele>868.207764</ele>
      </trkpt>
      <trkpt lat="47.92631" lon="6.86171">
        <ele>867.727051</ele>
      </trkpt>
      <trkpt lat="47.92602" lon="6.86184">
        <ele>867.727051</ele>
      </trkpt>
      <trkpt lat="47.92568" lon="6.86197">
        <ele>867.727051</ele>
      </trkpt>
      <trkpt lat="47.92528" lon="6.86214">
        <ele>869.169189</ele>
      </trkpt>
      <trkpt lat="47.92499" lon="6.86231">
        <ele>871.572266</ele>
      </trkpt>
      <trkpt lat="47.92471" lon="6.86244">
        <ele>875.898193</ele>
      </trkpt>
      <trkpt lat="47.92463" lon="6.8628">
        <ele>877.340576</ele>
      </trkpt>
      <trkpt lat="47.92474" lon="6.86336">
        <ele>880.224365</ele>
      </trkpt>
      <trkpt lat="47.92486" lon="6.86373">
        <ele>881.66626</ele>
      </trkpt>
      <trkpt lat="47.9248" lon="6.86409">
        <ele>885.511475</ele>
      </trkpt>
      <trkpt lat="47.9246" lon="6.86439">
        <ele>886.953369</ele>
      </trkpt>
      <trkpt lat="47.92456" lon="6.86447">
        <ele>886.953369</ele>
      </trkpt>
      <trkpt lat="47.92458" lon="6.86457">
        <ele>886.953369</ele>
      </trkpt>
      <trkpt lat="47.92459" lon="6.86456">
        <ele>885.031006</ele>
      </trkpt>
      <trkpt lat="47.92459" lon="6.86458">
        <ele>883.108154</ele>
      </trkpt>
      <trkpt lat="47.92459" lon="6.86459">
        <ele>884.550293</ele>
      </trkpt>
      <trkpt lat="47.9246" lon="6.86461">
        <ele>884.550293</ele>
      </trkpt>
      <trkpt lat="47.92459" lon="6.8646">
        <ele>883.108154</ele>
      </trkpt>
    </trkseg>
  </trk>
  <trk>
    <name><![CDATA[VTT Lac Pierre Percé]]></name>
    <trkseg>
      <trkpt lat="48.49701" lon="6.89603">
        <ele>325.279</ele>
        <time>2009-10-28T07:26:23Z</time>
      </trkpt>
      <trkpt lat="48.49701" lon="6.89599">
        <ele>324.497</ele>
        <time>2009-10-28T07:27:02Z</time>
      </trkpt>
      <trkpt lat="48.49701" lon="6.89602">
        <ele>323.834</ele>
        <time>2009-10-28T07:27:09Z</time>
      </trkpt>
      <trkpt lat="48.49691" lon="6.89581">
        <ele>323.807</ele>
        <time>2009-10-28T07:28:28Z</time>
      </trkpt>
      <trkpt lat="48.49683" lon="6.89554">
        <ele>323.478</ele>
        <time>2009-10-28T07:28:34Z</time>
      </trkpt>
      <trkpt lat="48.49661" lon="6.89527">
        <ele>323.147</ele>
        <time>2009-10-28T07:28:41Z</time>
      </trkpt>
      <trkpt lat="48.49649" lon="6.89511">
        <ele>322.497</ele>
        <time>2009-10-28T07:28:45Z</time>
      </trkpt>
      <trkpt lat="48.49636" lon="6.89494">
        <ele>323.008</ele>
        <time>2009-10-28T07:28:49Z</time>
      </trkpt>
      <trkpt lat="48.4962" lon="6.89501">
        <ele>324.098</ele>
        <time>2009-10-28T07:28:54Z</time>
      </trkpt>
      <trkpt lat="48.49599" lon="6.89523">
        <ele>325.408</ele>
        <time>2009-10-28T07:29:02Z</time>
      </trkpt>
      <trkpt lat="48.49583" lon="6.89539">
        <ele>326.639</ele>
        <time>2009-10-28T07:29:10Z</time>
      </trkpt>
      <trkpt lat="48.49573" lon="6.89546">
        <ele>327.328</ele>
        <time>2009-10-28T07:29:15Z</time>
      </trkpt>
      <trkpt lat="48.4956" lon="6.89553">
        <ele>328.348</ele>
        <time>2009-10-28T07:29:20Z</time>
      </trkpt>
      <trkpt lat="48.49547" lon="6.89567">
        <ele>329.608</ele>
        <time>2009-10-28T07:29:26Z</time>
      </trkpt>
      <trkpt lat="48.49539" lon="6.8958">
        <ele>330.468</ele>
        <time>2009-10-28T07:29:31Z</time>
      </trkpt>
      <trkpt lat="48.49529" lon="6.89596">
        <ele>330.937</ele>
        <time>2009-10-28T07:29:37Z</time>
      </trkpt>
      <trkpt lat="48.49522" lon="6.8961">
        <ele>330.796</ele>
        <time>2009-10-28T07:29:42Z</time>
      </trkpt>
      <trkpt lat="48.49511" lon="6.89626">
        <ele>331.477</ele>
        <time>2009-10-28T07:29:49Z</time>
      </trkpt>
      <trkpt lat="48.495" lon="6.89638">
        <ele>333.008</ele>
        <time>2009-10-28T07:29:55Z</time>
      </trkpt>
      <trkpt lat="48.49491" lon="6.8965">
        <ele>336.069</ele>
        <time>2009-10-28T07:30:01Z</time>
      </trkpt>
      <trkpt lat="48.49483" lon="6.8966">
        <ele>339.23</ele>
        <time>2009-10-28T07:30:06Z</time>
      </trkpt>
      <trkpt lat="48.49478" lon="6.8967">
        <ele>345.17</ele>
        <time>2009-10-28T07:30:11Z</time>
      </trkpt>
      <trkpt lat="48.49465" lon="6.89681">
        <ele>350.151</ele>
        <time>2009-10-28T07:30:18Z</time>
      </trkpt>
      <trkpt lat="48.49455" lon="6.89683">
        <ele>351.148</ele>
        <time>2009-10-28T07:30:24Z</time>
      </trkpt>
      <trkpt lat="48.49441" lon="6.89672">
        <ele>352.478</ele>
        <time>2009-10-28T07:30:31Z</time>
      </trkpt>
      <trkpt lat="48.49427" lon="6.89653">
        <ele>352.568</ele>
        <time>2009-10-28T07:30:39Z</time>
      </trkpt>
      <trkpt lat="48.49415" lon="6.89635">
        <ele>353.898</ele>
        <time>2009-10-28T07:30:47Z</time>
      </trkpt>
      <trkpt lat="48.49404" lon="6.89619">
        <ele>355.568</ele>
        <time>2009-10-28T07:30:54Z</time>
      </trkpt>
      <trkpt lat="48.4939" lon="6.89612">
        <ele>355.767</ele>
        <time>2009-10-28T07:31:00Z</time>
      </trkpt>
      <trkpt lat="48.49379" lon="6.89608">
        <ele>356.988</ele>
        <time>2009-10-28T07:31:05Z</time>
      </trkpt>
      <trkpt lat="48.49356" lon="6.89602">
        <ele>358.048</ele>
        <time>2009-10-28T07:31:14Z</time>
      </trkpt>
      <trkpt lat="48.49335" lon="6.89592">
        <ele>358.598</ele>
        <time>2009-10-28T07:31:22Z</time>
      </trkpt>
      <trkpt lat="48.49313" lon="6.89588">
        <ele>358.497</ele>
        <time>2009-10-28T07:31:30Z</time>
      </trkpt>
      <trkpt lat="48.4928" lon="6.89586">
        <ele>359.687</ele>
        <time>2009-10-28T07:31:41Z</time>
      </trkpt>
      <trkpt lat="48.49257" lon="6.89583">
        <ele>360.848</ele>
        <time>2009-10-28T07:31:49Z</time>
      </trkpt>
      <trkpt lat="48.49234" lon="6.8958">
        <ele>361.617</ele>
        <time>2009-10-28T07:31:57Z</time>
      </trkpt>
      <trkpt lat="48.492" lon="6.89581">
        <ele>363.078</ele>
        <time>2009-10-28T07:32:08Z</time>
      </trkpt>
      <trkpt lat="48.4917" lon="6.89584">
        <ele>364.217</ele>
        <time>2009-10-28T07:32:18Z</time>
      </trkpt>
      <trkpt lat="48.49143" lon="6.89597">
        <ele>364.587</ele>
        <time>2009-10-28T07:32:27Z</time>
      </trkpt>
      <trkpt lat="48.49117" lon="6.89606">
        <ele>365.467</ele>
        <time>2009-10-28T07:32:36Z</time>
      </trkpt>
      <trkpt lat="48.49096" lon="6.89613">
        <ele>364.857</ele>
        <time>2009-10-28T07:32:43Z</time>
      </trkpt>
      <trkpt lat="48.49073" lon="6.89621">
        <ele>365.527</ele>
        <time>2009-10-28T07:32:51Z</time>
      </trkpt>
      <trkpt lat="48.49061" lon="6.8964">
        <ele>366.917</ele>
        <time>2009-10-28T07:32:57Z</time>
      </trkpt>
      <trkpt lat="48.49052" lon="6.89659">
        <ele>370.027</ele>
        <time>2009-10-28T07:33:03Z</time>
      </trkpt>
      <trkpt lat="48.49051" lon="6.8966">
        <ele>370.108</ele>
        <time>2009-10-28T07:33:06Z</time>
      </trkpt>
      <trkpt lat="48.49041" lon="6.89651">
        <ele>363.546</ele>
        <time>2009-10-28T07:33:31Z</time>
      </trkpt>
      <trkpt lat="48.49026" lon="6.89637">
        <ele>363.666</ele>
        <time>2009-10-28T07:33:37Z</time>
      </trkpt>
      <trkpt lat="48.49009" lon="6.89631">
        <ele>364.146</ele>
        <time>2009-10-28T07:33:42Z</time>
      </trkpt>
      <trkpt lat="48.48988" lon="6.89624">
        <ele>367.477</ele>
        <time>2009-10-28T07:33:50Z</time>
      </trkpt>
      <trkpt lat="48.4897" lon="6.89619">
        <ele>368.386</ele>
        <time>2009-10-28T07:33:56Z</time>
      </trkpt>
      <trkpt lat="48.48942" lon="6.89609">
        <ele>370.137</ele>
        <time>2009-10-28T07:34:04Z</time>
      </trkpt>
      <trkpt lat="48.48923" lon="6.89604">
        <ele>372.137</ele>
        <time>2009-10-28T07:34:10Z</time>
      </trkpt>
      <trkpt lat="48.48911" lon="6.8961">
        <ele>373.516</ele>
        <time>2009-10-28T07:34:15Z</time>
      </trkpt>
      <trkpt lat="48.48899" lon="6.89631">
        <ele>374.826</ele>
        <time>2009-10-28T07:34:21Z</time>
      </trkpt>
      <trkpt lat="48.48891" lon="6.89643">
        <ele>375.226</ele>
        <time>2009-10-28T07:34:25Z</time>
      </trkpt>
      <trkpt lat="48.48881" lon="6.89665">
        <ele>377.927</ele>
        <time>2009-10-28T07:34:32Z</time>
      </trkpt>
      <trkpt lat="48.48871" lon="6.89678">
        <ele>380.747</ele>
        <time>2009-10-28T07:34:37Z</time>
      </trkpt>
      <trkpt lat="48.48859" lon="6.89692">
        <ele>383.178</ele>
        <time>2009-10-28T07:34:44Z</time>
      </trkpt>
      <trkpt lat="48.48843" lon="6.89708">
        <ele>385.177</ele>
        <time>2009-10-28T07:34:52Z</time>
      </trkpt>
      <trkpt lat="48.48829" lon="6.89726">
        <ele>387.117</ele>
        <time>2009-10-28T07:35:01Z</time>
      </trkpt>
      <trkpt lat="48.48817" lon="6.89742">
        <ele>387.996</ele>
        <time>2009-10-28T07:35:09Z</time>
      </trkpt>
      <trkpt lat="48.48806" lon="6.89758">
        <ele>388.466</ele>
        <time>2009-10-28T07:35:17Z</time>
      </trkpt>
      <trkpt lat="48.48793" lon="6.89774">
        <ele>389.896</ele>
        <time>2009-10-28T07:35:25Z</time>
      </trkpt>
      <trkpt lat="48.4878" lon="6.89789">
        <ele>391.046</ele>
        <time>2009-10-28T07:35:32Z</time>
      </trkpt>
      <trkpt lat="48.4876" lon="6.89809">
        <ele>392.067</ele>
        <time>2009-10-28T07:35:40Z</time>
      </trkpt>
      <trkpt lat="48.48741" lon="6.89829">
        <ele>393.847</ele>
        <time>2009-10-28T07:35:47Z</time>
      </trkpt>
      <trkpt lat="48.48738" lon="6.89832">
        <ele>393.856</ele>
        <time>2009-10-28T07:35:48Z</time>
      </trkpt>
      <trkpt lat="48.48722" lon="6.89846">
        <ele>394.796</ele>
        <time>2009-10-28T07:35:53Z</time>
      </trkpt>
      <trkpt lat="48.48705" lon="6.8986">
        <ele>397.147</ele>
        <time>2009-10-28T07:35:58Z</time>
      </trkpt>
      <trkpt lat="48.48686" lon="6.89881">
        <ele>398.415</ele>
        <time>2009-10-28T07:36:05Z</time>
      </trkpt>
      <trkpt lat="48.48673" lon="6.899">
        <ele>397.205</ele>
        <time>2009-10-28T07:36:11Z</time>
      </trkpt>
      <trkpt lat="48.48657" lon="6.89919">
        <ele>396.485</ele>
        <time>2009-10-28T07:36:18Z</time>
      </trkpt>
      <trkpt lat="48.48644" lon="6.89935">
        <ele>396.105</ele>
        <time>2009-10-28T07:36:24Z</time>
      </trkpt>
      <trkpt lat="48.48627" lon="6.8995">
        <ele>397.226</ele>
        <time>2009-10-28T07:36:31Z</time>
      </trkpt>
      <trkpt lat="48.48612" lon="6.89963">
        <ele>399.346</ele>
        <time>2009-10-28T07:36:38Z</time>
      </trkpt>
      <trkpt lat="48.486" lon="6.89976">
        <ele>402.477</ele>
        <time>2009-10-28T07:36:44Z</time>
      </trkpt>
      <trkpt lat="48.48584" lon="6.89998">
        <ele>405.807</ele>
        <time>2009-10-28T07:36:52Z</time>
      </trkpt>
      <trkpt lat="48.48575" lon="6.90013">
        <ele>407.506</ele>
        <time>2009-10-28T07:36:58Z</time>
      </trkpt>
      <trkpt lat="48.48564" lon="6.9003">
        <ele>408.155</ele>
        <time>2009-10-28T07:37:04Z</time>
      </trkpt>
      <trkpt lat="48.4855" lon="6.90048">
        <ele>410.575</ele>
        <time>2009-10-28T07:37:11Z</time>
      </trkpt>
      <trkpt lat="48.48538" lon="6.90064">
        <ele>413.009</ele>
        <time>2009-10-28T07:37:18Z</time>
      </trkpt>
      <trkpt lat="48.48527" lon="6.90081">
        <ele>413.726</ele>
        <time>2009-10-28T07:37:24Z</time>
      </trkpt>
      <trkpt lat="48.48515" lon="6.90099">
        <ele>416.096</ele>
        <time>2009-10-28T07:37:31Z</time>
      </trkpt>
      <trkpt lat="48.48505" lon="6.90117">
        <ele>416.515</ele>
        <time>2009-10-28T07:37:38Z</time>
      </trkpt>
      <trkpt lat="48.4849" lon="6.90134">
        <ele>419.066</ele>
        <time>2009-10-28T07:37:46Z</time>
      </trkpt>
      <trkpt lat="48.4847" lon="6.90151">
        <ele>420.906</ele>
        <time>2009-10-28T07:37:54Z</time>
      </trkpt>
      <trkpt lat="48.48457" lon="6.90163">
        <ele>422.446</ele>
        <time>2009-10-28T07:38:00Z</time>
      </trkpt>
      <trkpt lat="48.48444" lon="6.90177">
        <ele>420.975</ele>
        <time>2009-10-28T07:38:07Z</time>
      </trkpt>
      <trkpt lat="48.48428" lon="6.90192">
        <ele>421.045</ele>
        <time>2009-10-28T07:38:15Z</time>
      </trkpt>
      <trkpt lat="48.48415" lon="6.90205">
        <ele>421.545</ele>
        <time>2009-10-28T07:38:21Z</time>
      </trkpt>
      <trkpt lat="48.48398" lon="6.9022">
        <ele>424.527</ele>
        <time>2009-10-28T07:38:29Z</time>
      </trkpt>
      <trkpt lat="48.48378" lon="6.90239">
        <ele>426.366</ele>
        <time>2009-10-28T07:38:38Z</time>
      </trkpt>
      <trkpt lat="48.48367" lon="6.90254">
        <ele>426.915</ele>
        <time>2009-10-28T07:38:44Z</time>
      </trkpt>
      <trkpt lat="48.48352" lon="6.90271">
        <ele>426.885</ele>
        <time>2009-10-28T07:38:51Z</time>
      </trkpt>
      <trkpt lat="48.48338" lon="6.90288">
        <ele>427.184</ele>
        <time>2009-10-28T07:38:58Z</time>
      </trkpt>
      <trkpt lat="48.4832" lon="6.90305">
        <ele>429.455</ele>
        <time>2009-10-28T07:39:06Z</time>
      </trkpt>
      <trkpt lat="48.48313" lon="6.90312">
        <ele>430.115</ele>
        <time>2009-10-28T07:39:12Z</time>
      </trkpt>
      <trkpt lat="48.48303" lon="6.90321">
        <ele>431.705</ele>
        <time>2009-10-28T07:39:18Z</time>
      </trkpt>
      <trkpt lat="48.48301" lon="6.90323">
        <ele>432.115</ele>
        <time>2009-10-28T07:39:20Z</time>
      </trkpt>
      <trkpt lat="48.48296" lon="6.90318">
        <ele>431.665</ele>
        <time>2009-10-28T07:39:25Z</time>
      </trkpt>
      <trkpt lat="48.48296" lon="6.9031">
        <ele>431.315</ele>
        <time>2009-10-28T07:39:28Z</time>
      </trkpt>
      <trkpt lat="48.48293" lon="6.90308">
        <ele>430.922</ele>
        <time>2009-10-28T07:39:33Z</time>
      </trkpt>
      <trkpt lat="48.48296" lon="6.90325">
        <ele>436.135</ele>
        <time>2009-10-28T07:40:02Z</time>
      </trkpt>
      <trkpt lat="48.4828" lon="6.90347">
        <ele>435.995</ele>
        <time>2009-10-28T07:40:08Z</time>
      </trkpt>
      <trkpt lat="48.48254" lon="6.90362">
        <ele>434.904</ele>
        <time>2009-10-28T07:40:14Z</time>
      </trkpt>
      <trkpt lat="48.48238" lon="6.90371">
        <ele>432.874</ele>
        <time>2009-10-28T07:40:17Z</time>
      </trkpt>
      <trkpt lat="48.48216" lon="6.90386">
        <ele>429.583</ele>
        <time>2009-10-28T07:40:21Z</time>
      </trkpt>
      <trkpt lat="48.48185" lon="6.90416">
        <ele>426.543</ele>
        <time>2009-10-28T07:40:27Z</time>
      </trkpt>
      <trkpt lat="48.48159" lon="6.90437">
        <ele>424.442</ele>
        <time>2009-10-28T07:40:32Z</time>
      </trkpt>
      <trkpt lat="48.48147" lon="6.90448">
        <ele>423.383</ele>
        <time>2009-10-28T07:40:34Z</time>
      </trkpt>
      <trkpt lat="48.4813" lon="6.90459">
        <ele>423.613</ele>
        <time>2009-10-28T07:40:38Z</time>
      </trkpt>
      <trkpt lat="48.48131" lon="6.90459">
        <ele>422.413</ele>
        <time>2009-10-28T07:40:41Z</time>
      </trkpt>
      <trkpt lat="48.4814" lon="6.90464">
        <ele>421.084</ele>
        <time>2009-10-28T07:40:46Z</time>
      </trkpt>
      <trkpt lat="48.48143" lon="6.90481">
        <ele>420.263</ele>
        <time>2009-10-28T07:40:50Z</time>
      </trkpt>
      <trkpt lat="48.48148" lon="6.90507">
        <ele>418.203</ele>
        <time>2009-10-28T07:40:56Z</time>
      </trkpt>
      <trkpt lat="48.48148" lon="6.90533">
        <ele>417.502</ele>
        <time>2009-10-28T07:41:00Z</time>
      </trkpt>
      <trkpt lat="48.48143" lon="6.90573">
        <ele>416.123</ele>
        <time>2009-10-28T07:41:07Z</time>
      </trkpt>
      <trkpt lat="48.48144" lon="6.90611">
        <ele>415.684</ele>
        <time>2009-10-28T07:41:13Z</time>
      </trkpt>
      <trkpt lat="48.48146" lon="6.90642">
        <ele>418.775</ele>
        <time>2009-10-28T07:41:18Z</time>
      </trkpt>
      <trkpt lat="48.48146" lon="6.90663">
        <ele>421.596</ele>
        <time>2009-10-28T07:41:22Z</time>
      </trkpt>
      <trkpt lat="48.48158" lon="6.90692">
        <ele>422.536</ele>
        <time>2009-10-28T07:41:27Z</time>
      </trkpt>
      <trkpt lat="48.48171" lon="6.90714">
        <ele>420.164</ele>
        <time>2009-10-28T07:41:32Z</time>
      </trkpt>
      <trkpt lat="48.48178" lon="6.90716">
        <ele>418.263</ele>
        <time>2009-10-28T07:41:34Z</time>
      </trkpt>
      <trkpt lat="48.48195" lon="6.90702">
        <ele>413.552</ele>
        <time>2009-10-28T07:41:39Z</time>
      </trkpt>
      <trkpt lat="48.48205" lon="6.90692">
        <ele>410.001</ele>
        <time>2009-10-28T07:41:42Z</time>
      </trkpt>
      <trkpt lat="48.48213" lon="6.90666">
        <ele>405.051</ele>
        <time>2009-10-28T07:41:46Z</time>
      </trkpt>
      <trkpt lat="48.48225" lon="6.90626">
        <ele>399.2</ele>
        <time>2009-10-28T07:41:51Z</time>
      </trkpt>
      <trkpt lat="48.48237" lon="6.90599">
        <ele>397.929</ele>
        <time>2009-10-28T07:41:55Z</time>
      </trkpt>
      <trkpt lat="48.48246" lon="6.90599">
        <ele>395.831</ele>
        <time>2009-10-28T07:41:58Z</time>
      </trkpt>
      <trkpt lat="48.48257" lon="6.90605">
        <ele>394.203</ele>
        <time>2009-10-28T07:42:04Z</time>
      </trkpt>
      <trkpt lat="48.48264" lon="6.90599">
        <ele>393.983</ele>
        <time>2009-10-28T07:42:07Z</time>
      </trkpt>
      <trkpt lat="48.48278" lon="6.9058">
        <ele>392.232</ele>
        <time>2009-10-28T07:42:13Z</time>
      </trkpt>
      <trkpt lat="48.48287" lon="6.90565">
        <ele>391.522</ele>
        <time>2009-10-28T07:42:17Z</time>
      </trkpt>
      <trkpt lat="48.48295" lon="6.90567">
        <ele>391.774</ele>
        <time>2009-10-28T07:42:21Z</time>
      </trkpt>
      <trkpt lat="48.483" lon="6.90571">
        <ele>393.215</ele>
        <time>2009-10-28T07:42:23Z</time>
      </trkpt>
      <trkpt lat="48.48312" lon="6.90592">
        <ele>396.046</ele>
        <time>2009-10-28T07:42:30Z</time>
      </trkpt>
      <trkpt lat="48.48321" lon="6.9061">
        <ele>400.747</ele>
        <time>2009-10-28T07:42:35Z</time>
      </trkpt>
      <trkpt lat="48.48334" lon="6.90633">
        <ele>405.887</ele>
        <time>2009-10-28T07:42:41Z</time>
      </trkpt>
      <trkpt lat="48.48343" lon="6.90644">
        <ele>408.768</ele>
        <time>2009-10-28T07:42:45Z</time>
      </trkpt>
      <trkpt lat="48.4835" lon="6.90658">
        <ele>412.969</ele>
        <time>2009-10-28T07:42:50Z</time>
      </trkpt>
      <trkpt lat="48.4836" lon="6.90677">
        <ele>419.488</ele>
        <time>2009-10-28T07:42:56Z</time>
      </trkpt>
      <trkpt lat="48.48369" lon="6.90693">
        <ele>423.969</ele>
        <time>2009-10-28T07:43:01Z</time>
      </trkpt>
      <trkpt lat="48.48379" lon="6.90711">
        <ele>426.648</ele>
        <time>2009-10-28T07:43:06Z</time>
      </trkpt>
      <trkpt lat="48.48389" lon="6.90729">
        <ele>429.067</ele>
        <time>2009-10-28T07:43:12Z</time>
      </trkpt>
      <trkpt lat="48.48393" lon="6.90752">
        <ele>429.376</ele>
        <time>2009-10-28T07:43:18Z</time>
      </trkpt>
      <trkpt lat="48.48401" lon="6.90774">
        <ele>426.006</ele>
        <time>2009-10-28T07:43:23Z</time>
      </trkpt>
      <trkpt lat="48.48407" lon="6.9079">
        <ele>421.875</ele>
        <time>2009-10-28T07:43:28Z</time>
      </trkpt>
      <trkpt lat="48.48415" lon="6.90811">
        <ele>421.585</ele>
        <time>2009-10-28T07:43:33Z</time>
      </trkpt>
      <trkpt lat="48.48424" lon="6.90833">
        <ele>419.424</ele>
        <time>2009-10-28T07:43:38Z</time>
      </trkpt>
      <trkpt lat="48.48426" lon="6.90837">
        <ele>418.214</ele>
        <time>2009-10-28T07:43:39Z</time>
      </trkpt>
      <trkpt lat="48.48438" lon="6.90858">
        <ele>415.973</ele>
        <time>2009-10-28T07:43:44Z</time>
      </trkpt>
      <trkpt lat="48.48439" lon="6.90863">
        <ele>414.343</ele>
        <time>2009-10-28T07:43:45Z</time>
      </trkpt>
      <trkpt lat="48.48444" lon="6.90886">
        <ele>414.684</ele>
        <time>2009-10-28T07:43:51Z</time>
      </trkpt>
      <trkpt lat="48.48444" lon="6.9089">
        <ele>415.384</ele>
        <time>2009-10-28T07:43:52Z</time>
      </trkpt>
      <trkpt lat="48.48446" lon="6.90907">
        <ele>419.585</ele>
        <time>2009-10-28T07:43:58Z</time>
      </trkpt>
      <trkpt lat="48.48443" lon="6.90906">
        <ele>420.795</ele>
        <time>2009-10-28T07:44:02Z</time>
      </trkpt>
      <trkpt lat="48.4844" lon="6.90905">
        <ele>420.825</ele>
        <time>2009-10-28T07:44:03Z</time>
      </trkpt>
      <trkpt lat="48.48416" lon="6.90895">
        <ele>416.933</ele>
        <time>2009-10-28T07:44:09Z</time>
      </trkpt>
      <trkpt lat="48.4839" lon="6.90898">
        <ele>412.382</ele>
        <time>2009-10-28T07:44:15Z</time>
      </trkpt>
      <trkpt lat="48.48379" lon="6.90906">
        <ele>412.614</ele>
        <time>2009-10-28T07:44:19Z</time>
      </trkpt>
      <trkpt lat="48.48369" lon="6.9092">
        <ele>415.135</ele>
        <time>2009-10-28T07:44:23Z</time>
      </trkpt>
      <trkpt lat="48.48352" lon="6.90945">
        <ele>419.328</ele>
        <time>2009-10-28T07:44:30Z</time>
      </trkpt>
      <trkpt lat="48.4834" lon="6.90972">
        <ele>422.359</ele>
        <time>2009-10-28T07:44:36Z</time>
      </trkpt>
      <trkpt lat="48.48336" lon="6.90981">
        <ele>423.018</ele>
        <time>2009-10-28T07:44:38Z</time>
      </trkpt>
      <trkpt lat="48.48323" lon="6.91015">
        <ele>424.197</ele>
        <time>2009-10-28T07:44:45Z</time>
      </trkpt>
      <trkpt lat="48.48322" lon="6.91037">
        <ele>424.647</ele>
        <time>2009-10-28T07:44:49Z</time>
      </trkpt>
      <trkpt lat="48.48317" lon="6.91053">
        <ele>423.346</ele>
        <time>2009-10-28T07:44:53Z</time>
      </trkpt>
      <trkpt lat="48.48308" lon="6.91044">
        <ele>419.524</ele>
        <time>2009-10-28T07:44:57Z</time>
      </trkpt>
      <trkpt lat="48.48291" lon="6.91036">
        <ele>416.653</ele>
        <time>2009-10-28T07:45:01Z</time>
      </trkpt>
      <trkpt lat="48.48281" lon="6.91041">
        <ele>414.803</ele>
        <time>2009-10-28T07:45:03Z</time>
      </trkpt>
      <trkpt lat="48.48266" lon="6.91054">
        <ele>414.374</ele>
        <time>2009-10-28T07:45:07Z</time>
      </trkpt>
      <trkpt lat="48.48253" lon="6.91079">
        <ele>415.345</ele>
        <time>2009-10-28T07:45:13Z</time>
      </trkpt>
      <trkpt lat="48.48248" lon="6.91094">
        <ele>413.274</ele>
        <time>2009-10-28T07:45:17Z</time>
      </trkpt>
      <trkpt lat="48.48243" lon="6.91088">
        <ele>410.053</ele>
        <time>2009-10-28T07:45:21Z</time>
      </trkpt>
      <trkpt lat="48.48239" lon="6.91083">
        <ele>408.673</ele>
        <time>2009-10-28T07:45:23Z</time>
      </trkpt>
      <trkpt lat="48.48215" lon="6.91074">
        <ele>403.792</ele>
        <time>2009-10-28T07:45:30Z</time>
      </trkpt>
      <trkpt lat="48.48211" lon="6.91072">
        <ele>402.842</ele>
        <time>2009-10-28T07:45:31Z</time>
      </trkpt>
      <trkpt lat="48.48189" lon="6.91066">
        <ele>400.392</ele>
        <time>2009-10-28T07:45:36Z</time>
      </trkpt>
      <trkpt lat="48.48185" lon="6.91066">
        <ele>399.102</ele>
        <time>2009-10-28T07:45:39Z</time>
      </trkpt>
      <trkpt lat="48.48184" lon="6.91064">
        <ele>398.512</ele>
        <time>2009-10-28T07:45:40Z</time>
      </trkpt>
      <trkpt lat="48.48176" lon="6.9105">
        <ele>395.903</ele>
        <time>2009-10-28T07:45:45Z</time>
      </trkpt>
      <trkpt lat="48.48176" lon="6.9105">
        <ele>395.343</ele>
        <time>2009-10-28T07:45:46Z</time>
      </trkpt>
      <trkpt lat="48.48174" lon="6.91043">
        <ele>391.841</ele>
        <time>2009-10-28T07:45:55Z</time>
      </trkpt>
      <trkpt lat="48.48176" lon="6.91049">
        <ele>394.025</ele>
        <time>2009-10-28T07:47:41Z</time>
      </trkpt>
      <trkpt lat="48.48177" lon="6.91054">
        <ele>394.685</ele>
        <time>2009-10-28T07:47:45Z</time>
      </trkpt>
      <trkpt lat="48.48177" lon="6.91058">
        <ele>395.555</ele>
        <time>2009-10-28T07:47:48Z</time>
      </trkpt>
      <trkpt lat="48.48178" lon="6.9106">
        <ele>396.045</ele>
        <time>2009-10-28T07:47:50Z</time>
      </trkpt>
      <trkpt lat="48.48178" lon="6.91066">
        <ele>397.366</ele>
        <time>2009-10-28T07:47:54Z</time>
      </trkpt>
      <trkpt lat="48.48173" lon="6.91071">
        <ele>399.505</ele>
        <time>2009-10-28T07:48:00Z</time>
      </trkpt>
      <trkpt lat="48.48165" lon="6.9108">
        <ele>401.106</ele>
        <time>2009-10-28T07:48:05Z</time>
      </trkpt>
      <trkpt lat="48.48158" lon="6.9109">
        <ele>403.516</ele>
        <time>2009-10-28T07:48:11Z</time>
      </trkpt>
      <trkpt lat="48.48151" lon="6.91102">
        <ele>404.505</ele>
        <time>2009-10-28T07:48:16Z</time>
      </trkpt>
      <trkpt lat="48.48139" lon="6.91123">
        <ele>404.847</ele>
        <time>2009-10-28T07:48:24Z</time>
      </trkpt>
      <trkpt lat="48.48131" lon="6.91142">
        <ele>406.846</ele>
        <time>2009-10-28T07:48:30Z</time>
      </trkpt>
      <trkpt lat="48.48118" lon="6.91164">
        <ele>411.506</ele>
        <time>2009-10-28T07:48:38Z</time>
      </trkpt>
      <trkpt lat="48.48112" lon="6.91182">
        <ele>412.847</ele>
        <time>2009-10-28T07:48:44Z</time>
      </trkpt>
      <trkpt lat="48.48107" lon="6.91202">
        <ele>414.997</ele>
        <time>2009-10-28T07:48:50Z</time>
      </trkpt>
      <trkpt lat="48.48101" lon="6.91225">
        <ele>418.427</ele>
        <time>2009-10-28T07:48:57Z</time>
      </trkpt>
      <trkpt lat="48.48099" lon="6.91243">
        <ele>418.016</ele>
        <time>2009-10-28T07:49:02Z</time>
      </trkpt>
      <trkpt lat="48.48097" lon="6.91257">
        <ele>418.806</ele>
        <time>2009-10-28T07:49:06Z</time>
      </trkpt>
      <trkpt lat="48.48101" lon="6.91279">
        <ele>417.375</ele>
        <time>2009-10-28T07:49:12Z</time>
      </trkpt>
      <trkpt lat="48.48109" lon="6.91296">
        <ele>414.004</ele>
        <time>2009-10-28T07:49:17Z</time>
      </trkpt>
      <trkpt lat="48.4812" lon="6.913">
        <ele>413.435</ele>
        <time>2009-10-28T07:49:21Z</time>
      </trkpt>
      <trkpt lat="48.4814" lon="6.91298">
        <ele>413.485</ele>
        <time>2009-10-28T07:49:28Z</time>
      </trkpt>
      <trkpt lat="48.48153" lon="6.91306">
        <ele>413.975</ele>
        <time>2009-10-28T07:49:33Z</time>
      </trkpt>
      <trkpt lat="48.48162" lon="6.91321">
        <ele>415.195</ele>
        <time>2009-10-28T07:49:38Z</time>
      </trkpt>
      <trkpt lat="48.48171" lon="6.91335">
        <ele>416.496</ele>
        <time>2009-10-28T07:49:43Z</time>
      </trkpt>
      <trkpt lat="48.48184" lon="6.91349">
        <ele>417.776</ele>
        <time>2009-10-28T07:49:48Z</time>
      </trkpt>
      <trkpt lat="48.48197" lon="6.91363">
        <ele>417.445</ele>
        <time>2009-10-28T07:49:53Z</time>
      </trkpt>
      <trkpt lat="48.48215" lon="6.91367">
        <ele>417.185</ele>
        <time>2009-10-28T07:49:59Z</time>
      </trkpt>
      <trkpt lat="48.4823" lon="6.91368">
        <ele>416.804</ele>
        <time>2009-10-28T07:50:04Z</time>
      </trkpt>
      <trkpt lat="48.48242" lon="6.9136">
        <ele>415.604</ele>
        <time>2009-10-28T07:50:08Z</time>
      </trkpt>
      <trkpt lat="48.48253" lon="6.91363">
        <ele>415.154</ele>
        <time>2009-10-28T07:50:12Z</time>
      </trkpt>
      <trkpt lat="48.48263" lon="6.9137">
        <ele>415.105</ele>
        <time>2009-10-28T07:50:17Z</time>
      </trkpt>
      <trkpt lat="48.48287" lon="6.91378">
        <ele>414.434</ele>
        <time>2009-10-28T07:50:24Z</time>
      </trkpt>
      <trkpt lat="48.48307" lon="6.91387">
        <ele>414.244</ele>
        <time>2009-10-28T07:50:30Z</time>
      </trkpt>
      <trkpt lat="48.48321" lon="6.91391">
        <ele>415.325</ele>
        <time>2009-10-28T07:50:35Z</time>
      </trkpt>
      <trkpt lat="48.48333" lon="6.91389">
        <ele>417.325</ele>
        <time>2009-10-28T07:50:40Z</time>
      </trkpt>
      <trkpt lat="48.48348" lon="6.91389">
        <ele>417.265</ele>
        <time>2009-10-28T07:50:45Z</time>
      </trkpt>
      <trkpt lat="48.48364" lon="6.9139">
        <ele>417.515</ele>
        <time>2009-10-28T07:50:50Z</time>
      </trkpt>
      <trkpt lat="48.48376" lon="6.91391">
        <ele>417.825</ele>
        <time>2009-10-28T07:50:54Z</time>
      </trkpt>
      <trkpt lat="48.48387" lon="6.91399">
        <ele>419.716</ele>
        <time>2009-10-28T07:50:58Z</time>
      </trkpt>
      <trkpt lat="48.4839" lon="6.91419">
        <ele>423.077</ele>
        <time>2009-10-28T07:51:03Z</time>
      </trkpt>
      <trkpt lat="48.48383" lon="6.91434">
        <ele>427.108</ele>
        <time>2009-10-28T07:51:07Z</time>
      </trkpt>
      <trkpt lat="48.48368" lon="6.91446">
        <ele>429.897</ele>
        <time>2009-10-28T07:51:11Z</time>
      </trkpt>
      <trkpt lat="48.48359" lon="6.91472">
        <ele>431.167</ele>
        <time>2009-10-28T07:51:16Z</time>
      </trkpt>
      <trkpt lat="48.4836" lon="6.91486">
        <ele>432.686</ele>
        <time>2009-10-28T07:51:20Z</time>
      </trkpt>
      <trkpt lat="48.48359" lon="6.91506">
        <ele>430.726</ele>
        <time>2009-10-28T07:51:24Z</time>
      </trkpt>
      <trkpt lat="48.48356" lon="6.91526">
        <ele>433.137</ele>
        <time>2009-10-28T07:51:27Z</time>
      </trkpt>
      <trkpt lat="48.48349" lon="6.91533">
        <ele>432.825</ele>
        <time>2009-10-28T07:51:32Z</time>
      </trkpt>
      <trkpt lat="48.48342" lon="6.91533">
        <ele>433.105</ele>
        <time>2009-10-28T07:51:34Z</time>
      </trkpt>
      <trkpt lat="48.4832" lon="6.91538">
        <ele>430.494</ele>
        <time>2009-10-28T07:51:40Z</time>
      </trkpt>
      <trkpt lat="48.48307" lon="6.91546">
        <ele>427.245</ele>
        <time>2009-10-28T07:51:44Z</time>
      </trkpt>
      <trkpt lat="48.48303" lon="6.91563">
        <ele>426.295</ele>
        <time>2009-10-28T07:51:50Z</time>
      </trkpt>
      <trkpt lat="48.48303" lon="6.91567">
        <ele>424.895</ele>
        <time>2009-10-28T07:51:51Z</time>
      </trkpt>
      <trkpt lat="48.48304" lon="6.91588">
        <ele>425.406</ele>
        <time>2009-10-28T07:51:57Z</time>
      </trkpt>
      <trkpt lat="48.48311" lon="6.91612">
        <ele>426.886</ele>
        <time>2009-10-28T07:52:04Z</time>
      </trkpt>
      <trkpt lat="48.48314" lon="6.91633">
        <ele>426.876</ele>
        <time>2009-10-28T07:52:10Z</time>
      </trkpt>
      <trkpt lat="48.48309" lon="6.91651">
        <ele>430.127</ele>
        <time>2009-10-28T07:52:15Z</time>
      </trkpt>
      <trkpt lat="48.48314" lon="6.91666">
        <ele>430.696</ele>
        <time>2009-10-28T07:52:20Z</time>
      </trkpt>
      <trkpt lat="48.48316" lon="6.9167">
        <ele>430.727</ele>
        <time>2009-10-28T07:52:21Z</time>
      </trkpt>
      <trkpt lat="48.48328" lon="6.91689">
        <ele>431.007</ele>
        <time>2009-10-28T07:52:27Z</time>
      </trkpt>
      <trkpt lat="48.48344" lon="6.91705">
        <ele>429.665</ele>
        <time>2009-10-28T07:52:33Z</time>
      </trkpt>
      <trkpt lat="48.48356" lon="6.91721">
        <ele>429.115</ele>
        <time>2009-10-28T07:52:38Z</time>
      </trkpt>
      <trkpt lat="48.48373" lon="6.91736">
        <ele>428.535</ele>
        <time>2009-10-28T07:52:44Z</time>
      </trkpt>
      <trkpt lat="48.48382" lon="6.9175">
        <ele>429.746</ele>
        <time>2009-10-28T07:52:49Z</time>
      </trkpt>
      <trkpt lat="48.48382" lon="6.91753">
        <ele>430.056</ele>
        <time>2009-10-28T07:52:50Z</time>
      </trkpt>
      <trkpt lat="48.48372" lon="6.91758">
        <ele>430.926</ele>
        <time>2009-10-28T07:52:55Z</time>
      </trkpt>
      <trkpt lat="48.48355" lon="6.9176">
        <ele>428.644</ele>
        <time>2009-10-28T07:53:01Z</time>
      </trkpt>
      <trkpt lat="48.48352" lon="6.91761">
        <ele>428.064</ele>
        <time>2009-10-28T07:53:02Z</time>
      </trkpt>
      <trkpt lat="48.48334" lon="6.91784">
        <ele>422.412</ele>
        <time>2009-10-28T07:53:09Z</time>
      </trkpt>
      <trkpt lat="48.48321" lon="6.918">
        <ele>417.722</ele>
        <time>2009-10-28T07:53:14Z</time>
      </trkpt>
      <trkpt lat="48.48311" lon="6.91815">
        <ele>413.652</ele>
        <time>2009-10-28T07:53:18Z</time>
      </trkpt>
      <trkpt lat="48.483" lon="6.91834">
        <ele>408.112</ele>
        <time>2009-10-28T07:53:23Z</time>
      </trkpt>
      <trkpt lat="48.48296" lon="6.9184">
        <ele>406.752</ele>
        <time>2009-10-28T07:53:26Z</time>
      </trkpt>
      <trkpt lat="48.48302" lon="6.91849">
        <ele>405.893</ele>
        <time>2009-10-28T07:53:30Z</time>
      </trkpt>
      <trkpt lat="48.48301" lon="6.91865">
        <ele>405.994</ele>
        <time>2009-10-28T07:53:35Z</time>
      </trkpt>
      <trkpt lat="48.48303" lon="6.9187">
        <ele>405.114</ele>
        <time>2009-10-28T07:53:38Z</time>
      </trkpt>
      <trkpt lat="48.48312" lon="6.91883">
        <ele>406.375</ele>
        <time>2009-10-28T07:53:42Z</time>
      </trkpt>
      <trkpt lat="48.48325" lon="6.919">
        <ele>409.436</ele>
        <time>2009-10-28T07:53:48Z</time>
      </trkpt>
      <trkpt lat="48.48333" lon="6.91911">
        <ele>411.397</ele>
        <time>2009-10-28T07:53:52Z</time>
      </trkpt>
      <trkpt lat="48.48342" lon="6.91924">
        <ele>412.217</ele>
        <time>2009-10-28T07:53:57Z</time>
      </trkpt>
      <trkpt lat="48.48346" lon="6.91929">
        <ele>413.53</ele>
        <time>2009-10-28T07:54:01Z</time>
      </trkpt>
      <trkpt lat="48.48357" lon="6.91945">
        <ele>416.907</ele>
        <time>2009-10-28T07:54:09Z</time>
      </trkpt>
      <trkpt lat="48.48365" lon="6.91961">
        <ele>420.118</ele>
        <time>2009-10-28T07:54:14Z</time>
      </trkpt>
      <trkpt lat="48.48378" lon="6.91979">
        <ele>424.538</ele>
        <time>2009-10-28T07:54:20Z</time>
      </trkpt>
      <trkpt lat="48.48382" lon="6.91987">
        <ele>425.928</ele>
        <time>2009-10-28T07:54:23Z</time>
      </trkpt>
      <trkpt lat="48.48391" lon="6.92003">
        <ele>427.738</ele>
        <time>2009-10-28T07:54:29Z</time>
      </trkpt>
      <trkpt lat="48.48403" lon="6.92018">
        <ele>428.647</ele>
        <time>2009-10-28T07:54:34Z</time>
      </trkpt>
      <trkpt lat="48.48412" lon="6.92033">
        <ele>431.358</ele>
        <time>2009-10-28T07:54:39Z</time>
      </trkpt>
      <trkpt lat="48.48417" lon="6.92038">
        <ele>432.478</ele>
        <time>2009-10-28T07:54:41Z</time>
      </trkpt>
      <trkpt lat="48.4843" lon="6.92057">
        <ele>434.608</ele>
        <time>2009-10-28T07:54:47Z</time>
      </trkpt>
      <trkpt lat="48.48438" lon="6.92072">
        <ele>434.596</ele>
        <time>2009-10-28T07:54:52Z</time>
      </trkpt>
      <trkpt lat="48.48452" lon="6.92098">
        <ele>436.898</ele>
        <time>2009-10-28T07:55:00Z</time>
      </trkpt>
      <trkpt lat="48.4846" lon="6.92113">
        <ele>440.74</ele>
        <time>2009-10-28T07:55:05Z</time>
      </trkpt>
      <trkpt lat="48.48462" lon="6.92117">
        <ele>441.369</ele>
        <time>2009-10-28T07:55:06Z</time>
      </trkpt>
      <trkpt lat="48.48465" lon="6.92125">
        <ele>439.508</ele>
        <time>2009-10-28T07:55:08Z</time>
      </trkpt>
      <trkpt lat="48.4847" lon="6.92141">
        <ele>437.676</ele>
        <time>2009-10-28T07:55:14Z</time>
      </trkpt>
      <trkpt lat="48.48476" lon="6.92151">
        <ele>433.265</ele>
        <time>2009-10-28T07:55:18Z</time>
      </trkpt>
      <trkpt lat="48.48495" lon="6.92166">
        <ele>431.315</ele>
        <time>2009-10-28T07:55:25Z</time>
      </trkpt>
      <trkpt lat="48.48516" lon="6.92169">
        <ele>432.015</ele>
        <time>2009-10-28T07:55:32Z</time>
      </trkpt>
      <trkpt lat="48.48532" lon="6.92171">
        <ele>430.924</ele>
        <time>2009-10-28T07:55:38Z</time>
      </trkpt>
      <trkpt lat="48.48539" lon="6.9218">
        <ele>431.835</ele>
        <time>2009-10-28T07:55:42Z</time>
      </trkpt>
      <trkpt lat="48.48538" lon="6.92184">
        <ele>432.565</ele>
        <time>2009-10-28T07:55:43Z</time>
      </trkpt>
      <trkpt lat="48.48531" lon="6.92197">
        <ele>434.535</ele>
        <time>2009-10-28T07:55:48Z</time>
      </trkpt>
      <trkpt lat="48.4852" lon="6.9221">
        <ele>434.315</ele>
        <time>2009-10-28T07:55:53Z</time>
      </trkpt>
      <trkpt lat="48.48513" lon="6.92223">
        <ele>435.396</ele>
        <time>2009-10-28T07:55:58Z</time>
      </trkpt>
      <trkpt lat="48.48511" lon="6.92241">
        <ele>438.178</ele>
        <time>2009-10-28T07:56:03Z</time>
      </trkpt>
      <trkpt lat="48.48513" lon="6.9227">
        <ele>441.978</ele>
        <time>2009-10-28T07:56:10Z</time>
      </trkpt>
      <trkpt lat="48.48515" lon="6.92294">
        <ele>444.168</ele>
        <time>2009-10-28T07:56:16Z</time>
      </trkpt>
      <trkpt lat="48.48514" lon="6.92316">
        <ele>446.657</ele>
        <time>2009-10-28T07:56:21Z</time>
      </trkpt>
      <trkpt lat="48.48516" lon="6.92337">
        <ele>446.627</ele>
        <time>2009-10-28T07:56:25Z</time>
      </trkpt>
      <trkpt lat="48.48514" lon="6.92356">
        <ele>445.736</ele>
        <time>2009-10-28T07:56:29Z</time>
      </trkpt>
      <trkpt lat="48.48508" lon="6.92384">
        <ele>446.076</ele>
        <time>2009-10-28T07:56:34Z</time>
      </trkpt>
      <trkpt lat="48.48498" lon="6.92403">
        <ele>448.007</ele>
        <time>2009-10-28T07:56:39Z</time>
      </trkpt>
      <trkpt lat="48.48496" lon="6.92414">
        <ele>446.116</ele>
        <time>2009-10-28T07:56:42Z</time>
      </trkpt>
      <trkpt lat="48.48491" lon="6.92412">
        <ele>441.073</ele>
        <time>2009-10-28T07:56:46Z</time>
      </trkpt>
      <trkpt lat="48.48482" lon="6.92396">
        <ele>437.133</ele>
        <time>2009-10-28T07:56:51Z</time>
      </trkpt>
      <trkpt lat="48.48478" lon="6.9238">
        <ele>432.893</ele>
        <time>2009-10-28T07:56:56Z</time>
      </trkpt>
      <trkpt lat="48.48472" lon="6.92368">
        <ele>429.402</ele>
        <time>2009-10-28T07:57:02Z</time>
      </trkpt>
      <trkpt lat="48.48467" lon="6.9236">
        <ele>428.504</ele>
        <time>2009-10-28T07:57:07Z</time>
      </trkpt>
      <trkpt lat="48.4846" lon="6.92354">
        <ele>428.575</ele>
        <time>2009-10-28T07:57:13Z</time>
      </trkpt>
      <trkpt lat="48.48451" lon="6.92348">
        <ele>430.035</ele>
        <time>2009-10-28T07:57:21Z</time>
      </trkpt>
      <trkpt lat="48.48446" lon="6.92347">
        <ele>432.735</ele>
        <time>2009-10-28T07:57:27Z</time>
      </trkpt>
      <trkpt lat="48.48441" lon="6.92344">
        <ele>433.815</ele>
        <time>2009-10-28T07:57:34Z</time>
      </trkpt>
      <trkpt lat="48.48433" lon="6.9234">
        <ele>435.004</ele>
        <time>2009-10-28T07:57:42Z</time>
      </trkpt>
      <trkpt lat="48.48427" lon="6.92337">
        <ele>435.644</ele>
        <time>2009-10-28T07:57:48Z</time>
      </trkpt>
      <trkpt lat="48.48421" lon="6.92335">
        <ele>435.605</ele>
        <time>2009-10-28T07:57:53Z</time>
      </trkpt>
      <trkpt lat="48.48409" lon="6.92331">
        <ele>438.035</ele>
        <time>2009-10-28T07:58:00Z</time>
      </trkpt>
      <trkpt lat="48.48408" lon="6.92332">
        <ele>438.155</ele>
        <time>2009-10-28T07:58:01Z</time>
      </trkpt>
      <trkpt lat="48.48397" lon="6.92337">
        <ele>440.815</ele>
        <time>2009-10-28T07:58:08Z</time>
      </trkpt>
      <trkpt lat="48.48387" lon="6.92338">
        <ele>441.345</ele>
        <time>2009-10-28T07:58:13Z</time>
      </trkpt>
      <trkpt lat="48.48375" lon="6.92338">
        <ele>444.026</ele>
        <time>2009-10-28T07:58:19Z</time>
      </trkpt>
      <trkpt lat="48.48365" lon="6.92348">
        <ele>447.296</ele>
        <time>2009-10-28T07:58:25Z</time>
      </trkpt>
      <trkpt lat="48.48355" lon="6.92356">
        <ele>452.068</ele>
        <time>2009-10-28T07:58:32Z</time>
      </trkpt>
      <trkpt lat="48.48347" lon="6.92365">
        <ele>457.967</ele>
        <time>2009-10-28T07:58:39Z</time>
      </trkpt>
      <trkpt lat="48.48337" lon="6.92376">
        <ele>461.566</ele>
        <time>2009-10-28T07:58:46Z</time>
      </trkpt>
      <trkpt lat="48.48328" lon="6.92386">
        <ele>465.327</ele>
        <time>2009-10-28T07:58:52Z</time>
      </trkpt>
      <trkpt lat="48.48321" lon="6.92396">
        <ele>467.587</ele>
        <time>2009-10-28T07:58:58Z</time>
      </trkpt>
      <trkpt lat="48.48312" lon="6.92404">
        <ele>470.336</ele>
        <time>2009-10-28T07:59:04Z</time>
      </trkpt>
      <trkpt lat="48.48301" lon="6.92411">
        <ele>471.755</ele>
        <time>2009-10-28T07:59:10Z</time>
      </trkpt>
      <trkpt lat="48.48291" lon="6.92421">
        <ele>472.065</ele>
        <time>2009-10-28T07:59:16Z</time>
      </trkpt>
      <trkpt lat="48.48279" lon="6.92431">
        <ele>476.366</ele>
        <time>2009-10-28T07:59:23Z</time>
      </trkpt>
      <trkpt lat="48.48277" lon="6.92435">
        <ele>476.795</ele>
        <time>2009-10-28T07:59:25Z</time>
      </trkpt>
      <trkpt lat="48.48267" lon="6.92447">
        <ele>479.825</ele>
        <time>2009-10-28T07:59:32Z</time>
      </trkpt>
      <trkpt lat="48.48257" lon="6.92456">
        <ele>482.726</ele>
        <time>2009-10-28T07:59:38Z</time>
      </trkpt>
      <trkpt lat="48.48255" lon="6.92456">
        <ele>482.455</ele>
        <time>2009-10-28T07:59:39Z</time>
      </trkpt>
      <trkpt lat="48.48255" lon="6.92466">
        <ele>482.385</ele>
        <time>2009-10-28T07:59:45Z</time>
      </trkpt>
      <trkpt lat="48.48257" lon="6.92472">
        <ele>482.215</ele>
        <time>2009-10-28T07:59:48Z</time>
      </trkpt>
      <trkpt lat="48.48267" lon="6.92491">
        <ele>484.098</ele>
        <time>2009-10-28T07:59:55Z</time>
      </trkpt>
      <trkpt lat="48.48274" lon="6.92514">
        <ele>486.577</ele>
        <time>2009-10-28T08:00:01Z</time>
      </trkpt>
      <trkpt lat="48.4828" lon="6.92534">
        <ele>486.626</ele>
        <time>2009-10-28T08:00:06Z</time>
      </trkpt>
      <trkpt lat="48.48283" lon="6.92555">
        <ele>484.975</ele>
        <time>2009-10-28T08:00:10Z</time>
      </trkpt>
      <trkpt lat="48.48289" lon="6.92576">
        <ele>486.126</ele>
        <time>2009-10-28T08:00:14Z</time>
      </trkpt>
      <trkpt lat="48.48305" lon="6.92613">
        <ele>482.227</ele>
        <time>2009-10-28T08:00:20Z</time>
      </trkpt>
      <trkpt lat="48.48318" lon="6.92636">
        <ele>483.706</ele>
        <time>2009-10-28T08:00:25Z</time>
      </trkpt>
      <trkpt lat="48.4833" lon="6.92651">
        <ele>484.806</ele>
        <time>2009-10-28T08:00:29Z</time>
      </trkpt>
      <trkpt lat="48.48345" lon="6.92673">
        <ele>487.009</ele>
        <time>2009-10-28T08:00:34Z</time>
      </trkpt>
      <trkpt lat="48.48344" lon="6.92701">
        <ele>489.867</ele>
        <time>2009-10-28T08:00:39Z</time>
      </trkpt>
      <trkpt lat="48.48346" lon="6.92705">
        <ele>489.687</ele>
        <time>2009-10-28T08:00:40Z</time>
      </trkpt>
      <trkpt lat="48.48355" lon="6.92729">
        <ele>489.347</ele>
        <time>2009-10-28T08:00:46Z</time>
      </trkpt>
      <trkpt lat="48.48362" lon="6.92749">
        <ele>487.856</ele>
        <time>2009-10-28T08:00:51Z</time>
      </trkpt>
      <trkpt lat="48.48372" lon="6.92776">
        <ele>489.197</ele>
        <time>2009-10-28T08:00:57Z</time>
      </trkpt>
      <trkpt lat="48.48376" lon="6.92794">
        <ele>490.327</ele>
        <time>2009-10-28T08:01:01Z</time>
      </trkpt>
      <trkpt lat="48.48376" lon="6.9282">
        <ele>493.538</ele>
        <time>2009-10-28T08:01:06Z</time>
      </trkpt>
      <trkpt lat="48.48372" lon="6.92839">
        <ele>494.448</ele>
        <time>2009-10-28T08:01:10Z</time>
      </trkpt>
      <trkpt lat="48.48368" lon="6.92863">
        <ele>496.587</ele>
        <time>2009-10-28T08:01:15Z</time>
      </trkpt>
      <trkpt lat="48.48378" lon="6.92879">
        <ele>495.918</ele>
        <time>2009-10-28T08:01:20Z</time>
      </trkpt>
      <trkpt lat="48.4838" lon="6.92883">
        <ele>494.567</ele>
        <time>2009-10-28T08:01:21Z</time>
      </trkpt>
      <trkpt lat="48.4839" lon="6.92892">
        <ele>496.097</ele>
        <time>2009-10-28T08:01:26Z</time>
      </trkpt>
      <trkpt lat="48.48396" lon="6.929">
        <ele>497.867</ele>
        <time>2009-10-28T08:01:29Z</time>
      </trkpt>
      <trkpt lat="48.48394" lon="6.92922">
        <ele>499.187</ele>
        <time>2009-10-28T08:01:34Z</time>
      </trkpt>
      <trkpt lat="48.48387" lon="6.92948">
        <ele>501.237</ele>
        <time>2009-10-28T08:01:39Z</time>
      </trkpt>
      <trkpt lat="48.48381" lon="6.92972">
        <ele>499.716</ele>
        <time>2009-10-28T08:01:44Z</time>
      </trkpt>
      <trkpt lat="48.4837" lon="6.93007">
        <ele>501.327</ele>
        <time>2009-10-28T08:01:51Z</time>
      </trkpt>
      <trkpt lat="48.48357" lon="6.93024">
        <ele>504.147</ele>
        <time>2009-10-28T08:01:56Z</time>
      </trkpt>
      <trkpt lat="48.48343" lon="6.93036">
        <ele>503.336</ele>
        <time>2009-10-28T08:02:01Z</time>
      </trkpt>
      <trkpt lat="48.48329" lon="6.93045">
        <ele>501.696</ele>
        <time>2009-10-28T08:02:07Z</time>
      </trkpt>
      <trkpt lat="48.48316" lon="6.93052">
        <ele>501.976</ele>
        <time>2009-10-28T08:02:12Z</time>
      </trkpt>
      <trkpt lat="48.48305" lon="6.93061">
        <ele>500.175</ele>
        <time>2009-10-28T08:02:17Z</time>
      </trkpt>
      <trkpt lat="48.48286" lon="6.93072">
        <ele>501.166</ele>
        <time>2009-10-28T08:02:24Z</time>
      </trkpt>
      <trkpt lat="48.48271" lon="6.93086">
        <ele>495.405</ele>
        <time>2009-10-28T08:02:31Z</time>
      </trkpt>
      <trkpt lat="48.48254" lon="6.93094">
        <ele>496.575</ele>
        <time>2009-10-28T08:02:37Z</time>
      </trkpt>
      <trkpt lat="48.48239" lon="6.931">
        <ele>496.634</ele>
        <time>2009-10-28T08:02:42Z</time>
      </trkpt>
      <trkpt lat="48.48227" lon="6.93095">
        <ele>492.884</ele>
        <time>2009-10-28T08:02:48Z</time>
      </trkpt>
      <trkpt lat="48.48226" lon="6.93099">
        <ele>493.074</ele>
        <time>2009-10-28T08:02:50Z</time>
      </trkpt>
      <trkpt lat="48.48223" lon="6.93103">
        <ele>493.714</ele>
        <time>2009-10-28T08:02:52Z</time>
      </trkpt>
      <trkpt lat="48.48211" lon="6.93105">
        <ele>493.814</ele>
        <time>2009-10-28T08:02:56Z</time>
      </trkpt>
      <trkpt lat="48.48189" lon="6.93103">
        <ele>492.043</ele>
        <time>2009-10-28T08:03:02Z</time>
      </trkpt>
      <trkpt lat="48.48177" lon="6.93099">
        <ele>492.064</ele>
        <time>2009-10-28T08:03:06Z</time>
      </trkpt>
      <trkpt lat="48.48156" lon="6.93086">
        <ele>490.743</ele>
        <time>2009-10-28T08:03:12Z</time>
      </trkpt>
      <trkpt lat="48.48136" lon="6.93071">
        <ele>489.543</ele>
        <time>2009-10-28T08:03:18Z</time>
      </trkpt>
      <trkpt lat="48.48122" lon="6.93061">
        <ele>487.882</ele>
        <time>2009-10-28T08:03:22Z</time>
      </trkpt>
      <trkpt lat="48.48103" lon="6.93042">
        <ele>484.762</ele>
        <time>2009-10-28T08:03:28Z</time>
      </trkpt>
      <trkpt lat="48.48094" lon="6.93033">
        <ele>483.112</ele>
        <time>2009-10-28T08:03:31Z</time>
      </trkpt>
      <trkpt lat="48.48083" lon="6.93022">
        <ele>483.163</ele>
        <time>2009-10-28T08:03:34Z</time>
      </trkpt>
      <trkpt lat="48.48063" lon="6.92983">
        <ele>480.302</ele>
        <time>2009-10-28T08:03:42Z</time>
      </trkpt>
      <trkpt lat="48.48055" lon="6.92974">
        <ele>479.213</ele>
        <time>2009-10-28T08:03:47Z</time>
      </trkpt>
      <trkpt lat="48.48046" lon="6.92959">
        <ele>478.633</ele>
        <time>2009-10-28T08:03:51Z</time>
      </trkpt>
      <trkpt lat="48.48036" lon="6.92949">
        <ele>477.452</ele>
        <time>2009-10-28T08:03:55Z</time>
      </trkpt>
      <trkpt lat="48.48022" lon="6.92932">
        <ele>477.583</ele>
        <time>2009-10-28T08:04:00Z</time>
      </trkpt>
      <trkpt lat="48.48019" lon="6.92928">
        <ele>476.973</ele>
        <time>2009-10-28T08:04:01Z</time>
      </trkpt>
      <trkpt lat="48.48003" lon="6.92909">
        <ele>475.072</ele>
        <time>2009-10-28T08:04:06Z</time>
      </trkpt>
      <trkpt lat="48.47982" lon="6.92882">
        <ele>474.363</ele>
        <time>2009-10-28T08:04:12Z</time>
      </trkpt>
      <trkpt lat="48.47979" lon="6.92878">
        <ele>474.223</ele>
        <time>2009-10-28T08:04:13Z</time>
      </trkpt>
      <trkpt lat="48.47968" lon="6.92864">
        <ele>473.213</ele>
        <time>2009-10-28T08:04:16Z</time>
      </trkpt>
      <trkpt lat="48.47955" lon="6.92851">
        <ele>471.792</ele>
        <time>2009-10-28T08:04:19Z</time>
      </trkpt>
      <trkpt lat="48.47947" lon="6.92841">
        <ele>470.912</ele>
        <time>2009-10-28T08:04:21Z</time>
      </trkpt>
      <trkpt lat="48.47933" lon="6.92816">
        <ele>470.703</ele>
        <time>2009-10-28T08:04:25Z</time>
      </trkpt>
      <trkpt lat="48.47927" lon="6.92804">
        <ele>470.613</ele>
        <time>2009-10-28T08:04:27Z</time>
      </trkpt>
      <trkpt lat="48.47901" lon="6.92779">
        <ele>468.692</ele>
        <time>2009-10-28T08:04:32Z</time>
      </trkpt>
      <trkpt lat="48.47884" lon="6.92768">
        <ele>467.442</ele>
        <time>2009-10-28T08:04:35Z</time>
      </trkpt>
      <trkpt lat="48.47868" lon="6.92755">
        <ele>465.582</ele>
        <time>2009-10-28T08:04:38Z</time>
      </trkpt>
      <trkpt lat="48.47847" lon="6.92737">
        <ele>464.753</ele>
        <time>2009-10-28T08:04:42Z</time>
      </trkpt>
      <trkpt lat="48.47813" lon="6.92714">
        <ele>464.724</ele>
        <time>2009-10-28T08:04:49Z</time>
      </trkpt>
      <trkpt lat="48.47795" lon="6.927">
        <ele>465.284</ele>
        <time>2009-10-28T08:04:54Z</time>
      </trkpt>
      <trkpt lat="48.47776" lon="6.92689">
        <ele>465.764</ele>
        <time>2009-10-28T08:04:59Z</time>
      </trkpt>
      <trkpt lat="48.47745" lon="6.92665">
        <ele>465.904</ele>
        <time>2009-10-28T08:05:07Z</time>
      </trkpt>
      <trkpt lat="48.47715" lon="6.92648">
        <ele>465.243</ele>
        <time>2009-10-28T08:05:14Z</time>
      </trkpt>
      <trkpt lat="48.47677" lon="6.92629">
        <ele>467.104</ele>
        <time>2009-10-28T08:05:22Z</time>
      </trkpt>
      <trkpt lat="48.47673" lon="6.92626">
        <ele>467.154</ele>
        <time>2009-10-28T08:05:23Z</time>
      </trkpt>
      <trkpt lat="48.47645" lon="6.92613">
        <ele>468.464</ele>
        <time>2009-10-28T08:05:29Z</time>
      </trkpt>
      <trkpt lat="48.47631" lon="6.92606">
        <ele>468.733</ele>
        <time>2009-10-28T08:05:32Z</time>
      </trkpt>
      <trkpt lat="48.47608" lon="6.92591">
        <ele>468.994</ele>
        <time>2009-10-28T08:05:37Z</time>
      </trkpt>
      <trkpt lat="48.47601" lon="6.92584">
        <ele>468.743</ele>
        <time>2009-10-28T08:05:39Z</time>
      </trkpt>
      <trkpt lat="48.47593" lon="6.92574">
        <ele>468.433</ele>
        <time>2009-10-28T08:05:41Z</time>
      </trkpt>
      <trkpt lat="48.47567" lon="6.92525">
        <ele>466.393</ele>
        <time>2009-10-28T08:05:49Z</time>
      </trkpt>
      <trkpt lat="48.47559" lon="6.92515">
        <ele>465.872</ele>
        <time>2009-10-28T08:05:51Z</time>
      </trkpt>
      <trkpt lat="48.47542" lon="6.92491">
        <ele>463.622</ele>
        <time>2009-10-28T08:05:56Z</time>
      </trkpt>
      <trkpt lat="48.47523" lon="6.92446">
        <ele>460.432</ele>
        <time>2009-10-28T08:06:03Z</time>
      </trkpt>
      <trkpt lat="48.47519" lon="6.92435">
        <ele>459.241</ele>
        <time>2009-10-28T08:06:05Z</time>
      </trkpt>
      <trkpt lat="48.47511" lon="6.9241">
        <ele>457.211</ele>
        <time>2009-10-28T08:06:09Z</time>
      </trkpt>
      <trkpt lat="48.47494" lon="6.92376">
        <ele>455.522</ele>
        <time>2009-10-28T08:06:15Z</time>
      </trkpt>
      <trkpt lat="48.47487" lon="6.92357">
        <ele>454.221</ele>
        <time>2009-10-28T08:06:19Z</time>
      </trkpt>
      <trkpt lat="48.47477" lon="6.92332">
        <ele>451.351</ele>
        <time>2009-10-28T08:06:24Z</time>
      </trkpt>
      <trkpt lat="48.47473" lon="6.92319">
        <ele>448.751</ele>
        <time>2009-10-28T08:06:28Z</time>
      </trkpt>
      <trkpt lat="48.47471" lon="6.92316">
        <ele>447.96</ele>
        <time>2009-10-28T08:06:29Z</time>
      </trkpt>
      <trkpt lat="48.47467" lon="6.92304">
        <ele>444.911</ele>
        <time>2009-10-28T08:06:34Z</time>
      </trkpt>
      <trkpt lat="48.47463" lon="6.92294">
        <ele>441.95</ele>
        <time>2009-10-28T08:06:38Z</time>
      </trkpt>
      <trkpt lat="48.47455" lon="6.9228">
        <ele>438.079</ele>
        <time>2009-10-28T08:06:43Z</time>
      </trkpt>
      <trkpt lat="48.4745" lon="6.92268">
        <ele>434.049</ele>
        <time>2009-10-28T08:06:47Z</time>
      </trkpt>
      <trkpt lat="48.47441" lon="6.92258">
        <ele>430.08</ele>
        <time>2009-10-28T08:06:52Z</time>
      </trkpt>
      <trkpt lat="48.47423" lon="6.92244">
        <ele>425.311</ele>
        <time>2009-10-28T08:07:00Z</time>
      </trkpt>
      <trkpt lat="48.47413" lon="6.92238">
        <ele>419.329</ele>
        <time>2009-10-28T08:07:05Z</time>
      </trkpt>
      <trkpt lat="48.474" lon="6.92232">
        <ele>414.75</ele>
        <time>2009-10-28T08:07:11Z</time>
      </trkpt>
      <trkpt lat="48.47389" lon="6.92221">
        <ele>410.309</ele>
        <time>2009-10-28T08:07:16Z</time>
      </trkpt>
      <trkpt lat="48.47385" lon="6.92218">
        <ele>408.93</ele>
        <time>2009-10-28T08:07:18Z</time>
      </trkpt>
      <trkpt lat="48.47379" lon="6.92227">
        <ele>407.521</ele>
        <time>2009-10-28T08:07:22Z</time>
      </trkpt>
      <trkpt lat="48.47376" lon="6.92239">
        <ele>407.412</ele>
        <time>2009-10-28T08:07:24Z</time>
      </trkpt>
      <trkpt lat="48.47377" lon="6.92302">
        <ele>409.323</ele>
        <time>2009-10-28T08:07:33Z</time>
      </trkpt>
      <trkpt lat="48.47378" lon="6.92314">
        <ele>409.403</ele>
        <time>2009-10-28T08:07:35Z</time>
      </trkpt>
      <trkpt lat="48.47384" lon="6.92354">
        <ele>408.833</ele>
        <time>2009-10-28T08:07:41Z</time>
      </trkpt>
      <trkpt lat="48.47395" lon="6.92408">
        <ele>409.973</ele>
        <time>2009-10-28T08:07:49Z</time>
      </trkpt>
      <trkpt lat="48.47406" lon="6.92446">
        <ele>411.905</ele>
        <time>2009-10-28T08:07:55Z</time>
      </trkpt>
      <trkpt lat="48.47412" lon="6.92465">
        <ele>414.074</ele>
        <time>2009-10-28T08:07:58Z</time>
      </trkpt>
      <trkpt lat="48.47418" lon="6.92491">
        <ele>419.476</ele>
        <time>2009-10-28T08:08:02Z</time>
      </trkpt>
      <trkpt lat="48.47434" lon="6.92545">
        <ele>419.795</ele>
        <time>2009-10-28T08:08:10Z</time>
      </trkpt>
      <trkpt lat="48.47445" lon="6.92577">
        <ele>422.245</ele>
        <time>2009-10-28T08:08:15Z</time>
      </trkpt>
      <trkpt lat="48.4746" lon="6.92611">
        <ele>422.794</ele>
        <time>2009-10-28T08:08:21Z</time>
      </trkpt>
      <trkpt lat="48.47476" lon="6.92645">
        <ele>420.903</ele>
        <time>2009-10-28T08:08:27Z</time>
      </trkpt>
      <trkpt lat="48.47495" lon="6.92678">
        <ele>421.764</ele>
        <time>2009-10-28T08:08:33Z</time>
      </trkpt>
      <trkpt lat="48.47521" lon="6.92713">
        <ele>420.213</ele>
        <time>2009-10-28T08:08:40Z</time>
      </trkpt>
      <trkpt lat="48.47532" lon="6.92726">
        <ele>419.703</ele>
        <time>2009-10-28T08:08:43Z</time>
      </trkpt>
      <trkpt lat="48.4756" lon="6.92749">
        <ele>422.054</ele>
        <time>2009-10-28T08:08:50Z</time>
      </trkpt>
      <trkpt lat="48.47564" lon="6.92751">
        <ele>421.833</ele>
        <time>2009-10-28T08:08:51Z</time>
      </trkpt>
      <trkpt lat="48.47589" lon="6.92759">
        <ele>420.833</ele>
        <time>2009-10-28T08:08:57Z</time>
      </trkpt>
      <trkpt lat="48.47616" lon="6.92763">
        <ele>423.044</ele>
        <time>2009-10-28T08:09:03Z</time>
      </trkpt>
      <trkpt lat="48.47634" lon="6.92767">
        <ele>424.684</ele>
        <time>2009-10-28T08:09:08Z</time>
      </trkpt>
      <trkpt lat="48.4764" lon="6.92769">
        <ele>427.924</ele>
        <time>2009-10-28T08:09:12Z</time>
      </trkpt>
      <trkpt lat="48.4764" lon="6.92769">
        <ele>428.958</ele>
        <time>2009-10-28T08:09:13Z</time>
      </trkpt>
      <trkpt lat="48.47638" lon="6.92773">
        <ele>432.892</ele>
        <time>2009-10-28T08:09:22Z</time>
      </trkpt>
      <trkpt lat="48.47641" lon="6.92772">
        <ele>432.084</ele>
        <time>2009-10-28T08:09:25Z</time>
      </trkpt>
      <trkpt lat="48.47643" lon="6.92768">
        <ele>429.303</ele>
        <time>2009-10-28T08:09:30Z</time>
      </trkpt>
      <trkpt lat="48.47639" lon="6.92775">
        <ele>427.962</ele>
        <time>2009-10-28T08:09:35Z</time>
      </trkpt>
      <trkpt lat="48.47637" lon="6.92788">
        <ele>420.328</ele>
        <time>2009-10-28T08:09:41Z</time>
      </trkpt>
      <trkpt lat="48.47637" lon="6.92789">
        <ele>419.612</ele>
        <time>2009-10-28T08:09:42Z</time>
      </trkpt>
      <trkpt lat="48.47626" lon="6.92795">
        <ele>412.59</ele>
        <time>2009-10-28T08:09:55Z</time>
      </trkpt>
      <trkpt lat="48.47614" lon="6.92796">
        <ele>407.411</ele>
        <time>2009-10-28T08:10:01Z</time>
      </trkpt>
      <trkpt lat="48.4761" lon="6.92807">
        <ele>403.65</ele>
        <time>2009-10-28T08:10:06Z</time>
      </trkpt>
      <trkpt lat="48.47611" lon="6.92814">
        <ele>399.779</ele>
        <time>2009-10-28T08:10:10Z</time>
      </trkpt>
      <trkpt lat="48.47612" lon="6.92816">
        <ele>398.649</ele>
        <time>2009-10-28T08:10:11Z</time>
      </trkpt>
      <trkpt lat="48.47614" lon="6.92823">
        <ele>396.129</ele>
        <time>2009-10-28T08:10:14Z</time>
      </trkpt>
      <trkpt lat="48.47628" lon="6.92836">
        <ele>396.601</ele>
        <time>2009-10-28T08:10:20Z</time>
      </trkpt>
      <trkpt lat="48.47641" lon="6.92851">
        <ele>397.982</ele>
        <time>2009-10-28T08:10:25Z</time>
      </trkpt>
      <trkpt lat="48.47659" lon="6.92863">
        <ele>399.863</ele>
        <time>2009-10-28T08:10:30Z</time>
      </trkpt>
      <trkpt lat="48.47672" lon="6.92876">
        <ele>403.844</ele>
        <time>2009-10-28T08:10:34Z</time>
      </trkpt>
      <trkpt lat="48.47673" lon="6.9288">
        <ele>405.775</ele>
        <time>2009-10-28T08:10:35Z</time>
      </trkpt>
      <trkpt lat="48.47674" lon="6.92898">
        <ele>408.254</ele>
        <time>2009-10-28T08:10:40Z</time>
      </trkpt>
      <trkpt lat="48.47671" lon="6.92904">
        <ele>406.834</ele>
        <time>2009-10-28T08:10:43Z</time>
      </trkpt>
      <trkpt lat="48.47679" lon="6.92902">
        <ele>401.532</ele>
        <time>2009-10-28T08:10:48Z</time>
      </trkpt>
      <trkpt lat="48.47683" lon="6.92899">
        <ele>399.122</ele>
        <time>2009-10-28T08:10:50Z</time>
      </trkpt>
      <trkpt lat="48.47687" lon="6.92901">
        <ele>398.313</ele>
        <time>2009-10-28T08:10:54Z</time>
      </trkpt>
      <trkpt lat="48.47696" lon="6.92905">
        <ele>399.013</ele>
        <time>2009-10-28T08:10:58Z</time>
      </trkpt>
      <trkpt lat="48.47701" lon="6.92909">
        <ele>398.503</ele>
        <time>2009-10-28T08:11:02Z</time>
      </trkpt>
      <trkpt lat="48.47708" lon="6.92912">
        <ele>398.624</ele>
        <time>2009-10-28T08:11:07Z</time>
      </trkpt>
      <trkpt lat="48.47719" lon="6.92919">
        <ele>398.734</ele>
        <time>2009-10-28T08:11:12Z</time>
      </trkpt>
      <trkpt lat="48.47732" lon="6.92927">
        <ele>398.914</ele>
        <time>2009-10-28T08:11:17Z</time>
      </trkpt>
      <trkpt lat="48.4775" lon="6.9294">
        <ele>397.473</ele>
        <time>2009-10-28T08:11:23Z</time>
      </trkpt>
      <trkpt lat="48.47769" lon="6.92956">
        <ele>395.743</ele>
        <time>2009-10-28T08:11:30Z</time>
      </trkpt>
      <trkpt lat="48.47786" lon="6.9297">
        <ele>395.744</ele>
        <time>2009-10-28T08:11:37Z</time>
      </trkpt>
      <trkpt lat="48.47791" lon="6.92976">
        <ele>397.054</ele>
        <time>2009-10-28T08:11:40Z</time>
      </trkpt>
      <trkpt lat="48.47794" lon="6.92977">
        <ele>396.674</ele>
        <time>2009-10-28T08:11:42Z</time>
      </trkpt>
      <trkpt lat="48.47801" lon="6.92977">
        <ele>394.763</ele>
        <time>2009-10-28T08:11:46Z</time>
      </trkpt>
      <trkpt lat="48.47808" lon="6.92984">
        <ele>393.653</ele>
        <time>2009-10-28T08:11:49Z</time>
      </trkpt>
      <trkpt lat="48.47818" lon="6.92999">
        <ele>396.535</ele>
        <time>2009-10-28T08:11:55Z</time>
      </trkpt>
      <trkpt lat="48.47826" lon="6.93009">
        <ele>398.955</ele>
        <time>2009-10-28T08:12:00Z</time>
      </trkpt>
      <trkpt lat="48.47836" lon="6.93022">
        <ele>399.915</ele>
        <time>2009-10-28T08:12:05Z</time>
      </trkpt>
      <trkpt lat="48.47846" lon="6.93027">
        <ele>400.915</ele>
        <time>2009-10-28T08:12:10Z</time>
      </trkpt>
      <trkpt lat="48.47856" lon="6.93028">
        <ele>401.174</ele>
        <time>2009-10-28T08:12:16Z</time>
      </trkpt>
      <trkpt lat="48.47854" lon="6.93032">
        <ele>402.485</ele>
        <time>2009-10-28T08:12:18Z</time>
      </trkpt>
      <trkpt lat="48.47851" lon="6.93037">
        <ele>404.535</ele>
        <time>2009-10-28T08:12:20Z</time>
      </trkpt>
      <trkpt lat="48.47849" lon="6.93048">
        <ele>410.746</ele>
        <time>2009-10-28T08:12:24Z</time>
      </trkpt>
      <trkpt lat="48.47856" lon="6.9306">
        <ele>414.907</ele>
        <time>2009-10-28T08:12:29Z</time>
      </trkpt>
      <trkpt lat="48.47859" lon="6.93066">
        <ele>416.438</ele>
        <time>2009-10-28T08:12:31Z</time>
      </trkpt>
      <trkpt lat="48.47863" lon="6.93072">
        <ele>418.009</ele>
        <time>2009-10-28T08:12:33Z</time>
      </trkpt>
      <trkpt lat="48.47869" lon="6.9308">
        <ele>420.987</ele>
        <time>2009-10-28T08:12:37Z</time>
      </trkpt>
      <trkpt lat="48.47883" lon="6.93097">
        <ele>422.329</ele>
        <time>2009-10-28T08:12:44Z</time>
      </trkpt>
      <trkpt lat="48.47887" lon="6.93102">
        <ele>423.698</ele>
        <time>2009-10-28T08:12:46Z</time>
      </trkpt>
      <trkpt lat="48.47898" lon="6.93115">
        <ele>425.617</ele>
        <time>2009-10-28T08:12:51Z</time>
      </trkpt>
      <trkpt lat="48.4791" lon="6.93131">
        <ele>424.906</ele>
        <time>2009-10-28T08:12:56Z</time>
      </trkpt>
      <trkpt lat="48.47922" lon="6.93144">
        <ele>425.206</ele>
        <time>2009-10-28T08:13:01Z</time>
      </trkpt>
      <trkpt lat="48.47933" lon="6.93158">
        <ele>424.696</ele>
        <time>2009-10-28T08:13:06Z</time>
      </trkpt>
      <trkpt lat="48.47941" lon="6.93167">
        <ele>423.726</ele>
        <time>2009-10-28T08:13:09Z</time>
      </trkpt>
      <trkpt lat="48.47954" lon="6.93184">
        <ele>426.536</ele>
        <time>2009-10-28T08:13:16Z</time>
      </trkpt>
      <trkpt lat="48.47958" lon="6.93191">
        <ele>428.017</ele>
        <time>2009-10-28T08:13:19Z</time>
      </trkpt>
      <trkpt lat="48.47964" lon="6.93205">
        <ele>429.987</ele>
        <time>2009-10-28T08:13:24Z</time>
      </trkpt>
      <trkpt lat="48.47968" lon="6.93211">
        <ele>429.237</ele>
        <time>2009-10-28T08:13:27Z</time>
      </trkpt>
      <trkpt lat="48.47979" lon="6.93231">
        <ele>429.407</ele>
        <time>2009-10-28T08:13:34Z</time>
      </trkpt>
      <trkpt lat="48.47988" lon="6.93245">
        <ele>431.097</ele>
        <time>2009-10-28T08:13:39Z</time>
      </trkpt>
      <trkpt lat="48.47998" lon="6.93262">
        <ele>435.56</ele>
        <time>2009-10-28T08:13:45Z</time>
      </trkpt>
      <trkpt lat="48.48002" lon="6.93269">
        <ele>438.858</ele>
        <time>2009-10-28T08:13:48Z</time>
      </trkpt>
      <trkpt lat="48.48012" lon="6.93286">
        <ele>445.552</ele>
        <time>2009-10-28T08:13:55Z</time>
      </trkpt>
      <trkpt lat="48.48018" lon="6.93296">
        <ele>448.188</ele>
        <time>2009-10-28T08:13:59Z</time>
      </trkpt>
      <trkpt lat="48.48024" lon="6.93306">
        <ele>451.928</ele>
        <time>2009-10-28T08:14:03Z</time>
      </trkpt>
      <trkpt lat="48.48033" lon="6.93322">
        <ele>456.907</ele>
        <time>2009-10-28T08:14:09Z</time>
      </trkpt>
      <trkpt lat="48.48042" lon="6.9334">
        <ele>459.958</ele>
        <time>2009-10-28T08:14:15Z</time>
      </trkpt>
      <trkpt lat="48.48048" lon="6.93356">
        <ele>463.008</ele>
        <time>2009-10-28T08:14:21Z</time>
      </trkpt>
      <trkpt lat="48.48056" lon="6.93372">
        <ele>463.887</ele>
        <time>2009-10-28T08:14:26Z</time>
      </trkpt>
      <trkpt lat="48.48061" lon="6.93386">
        <ele>462.336</ele>
        <time>2009-10-28T08:14:30Z</time>
      </trkpt>
      <trkpt lat="48.48069" lon="6.93399">
        <ele>462.737</ele>
        <time>2009-10-28T08:14:35Z</time>
      </trkpt>
      <trkpt lat="48.48081" lon="6.93411">
        <ele>461.327</ele>
        <time>2009-10-28T08:14:41Z</time>
      </trkpt>
      <trkpt lat="48.48096" lon="6.93426">
        <ele>460.457</ele>
        <time>2009-10-28T08:14:48Z</time>
      </trkpt>
      <trkpt lat="48.48112" lon="6.93441">
        <ele>458.047</ele>
        <time>2009-10-28T08:14:55Z</time>
      </trkpt>
      <trkpt lat="48.48127" lon="6.93454">
        <ele>455.185</ele>
        <time>2009-10-28T08:15:02Z</time>
      </trkpt>
      <trkpt lat="48.48142" lon="6.93464">
        <ele>453.715</ele>
        <time>2009-10-28T08:15:09Z</time>
      </trkpt>
      <trkpt lat="48.48156" lon="6.93475">
        <ele>451.735</ele>
        <time>2009-10-28T08:15:16Z</time>
      </trkpt>
      <trkpt lat="48.48166" lon="6.9348">
        <ele>450.504</ele>
        <time>2009-10-28T08:15:21Z</time>
      </trkpt>
      <trkpt lat="48.48183" lon="6.93489">
        <ele>451.535</ele>
        <time>2009-10-28T08:15:29Z</time>
      </trkpt>
      <trkpt lat="48.48193" lon="6.93494">
        <ele>451.534</ele>
        <time>2009-10-28T08:15:35Z</time>
      </trkpt>
      <trkpt lat="48.48209" lon="6.93499">
        <ele>449.394</ele>
        <time>2009-10-28T08:15:42Z</time>
      </trkpt>
      <trkpt lat="48.48226" lon="6.93504">
        <ele>448.474</ele>
        <time>2009-10-28T08:15:49Z</time>
      </trkpt>
      <trkpt lat="48.48239" lon="6.93507">
        <ele>449.725</ele>
        <time>2009-10-28T08:15:56Z</time>
      </trkpt>
      <trkpt lat="48.48249" lon="6.9351">
        <ele>449.355</ele>
        <time>2009-10-28T08:16:01Z</time>
      </trkpt>
      <trkpt lat="48.48261" lon="6.93512">
        <ele>447.394</ele>
        <time>2009-10-28T08:16:06Z</time>
      </trkpt>
      <trkpt lat="48.48277" lon="6.93514">
        <ele>448.045</ele>
        <time>2009-10-28T08:16:14Z</time>
      </trkpt>
      <trkpt lat="48.48289" lon="6.93514">
        <ele>447.574</ele>
        <time>2009-10-28T08:16:20Z</time>
      </trkpt>
      <trkpt lat="48.48302" lon="6.93514">
        <ele>449.684</ele>
        <time>2009-10-28T08:16:27Z</time>
      </trkpt>
      <trkpt lat="48.48313" lon="6.93513">
        <ele>450.834</ele>
        <time>2009-10-28T08:16:32Z</time>
      </trkpt>
      <trkpt lat="48.48324" lon="6.9351">
        <ele>451.394</ele>
        <time>2009-10-28T08:16:39Z</time>
      </trkpt>
      <trkpt lat="48.48338" lon="6.9351">
        <ele>451.624</ele>
        <time>2009-10-28T08:16:47Z</time>
      </trkpt>
      <trkpt lat="48.4835" lon="6.93507">
        <ele>453.564</ele>
        <time>2009-10-28T08:16:54Z</time>
      </trkpt>
      <trkpt lat="48.48352" lon="6.93506">
        <ele>454.095</ele>
        <time>2009-10-28T08:16:55Z</time>
      </trkpt>
      <trkpt lat="48.48364" lon="6.93505">
        <ele>456.275</ele>
        <time>2009-10-28T08:17:02Z</time>
      </trkpt>
      <trkpt lat="48.48373" lon="6.93507">
        <ele>460.215</ele>
        <time>2009-10-28T08:17:08Z</time>
      </trkpt>
      <trkpt lat="48.48383" lon="6.93509">
        <ele>460.955</ele>
        <time>2009-10-28T08:17:15Z</time>
      </trkpt>
      <trkpt lat="48.48391" lon="6.93513">
        <ele>464.346</ele>
        <time>2009-10-28T08:17:21Z</time>
      </trkpt>
      <trkpt lat="48.484" lon="6.93518">
        <ele>466.255</ele>
        <time>2009-10-28T08:17:28Z</time>
      </trkpt>
      <trkpt lat="48.48405" lon="6.93519">
        <ele>468.006</ele>
        <time>2009-10-28T08:17:33Z</time>
      </trkpt>
      <trkpt lat="48.48408" lon="6.93521">
        <ele>469.496</ele>
        <time>2009-10-28T08:17:35Z</time>
      </trkpt>
      <trkpt lat="48.4841" lon="6.93523">
        <ele>471.276</ele>
        <time>2009-10-28T08:17:37Z</time>
      </trkpt>
      <trkpt lat="48.48418" lon="6.93528">
        <ele>476.536</ele>
        <time>2009-10-28T08:17:45Z</time>
      </trkpt>
      <trkpt lat="48.48422" lon="6.9353">
        <ele>477.747</ele>
        <time>2009-10-28T08:17:48Z</time>
      </trkpt>
      <trkpt lat="48.4843" lon="6.93537">
        <ele>482.787</ele>
        <time>2009-10-28T08:17:56Z</time>
      </trkpt>
      <trkpt lat="48.48439" lon="6.93544">
        <ele>486.747</ele>
        <time>2009-10-28T08:18:04Z</time>
      </trkpt>
      <trkpt lat="48.48446" lon="6.93552">
        <ele>489.936</ele>
        <time>2009-10-28T08:18:11Z</time>
      </trkpt>
      <trkpt lat="48.48452" lon="6.93558">
        <ele>493.127</ele>
        <time>2009-10-28T08:18:18Z</time>
      </trkpt>
      <trkpt lat="48.48459" lon="6.93567">
        <ele>496.417</ele>
        <time>2009-10-28T08:18:25Z</time>
      </trkpt>
      <trkpt lat="48.48464" lon="6.93576">
        <ele>499.067</ele>
        <time>2009-10-28T08:18:31Z</time>
      </trkpt>
      <trkpt lat="48.48465" lon="6.93579">
        <ele>499.387</ele>
        <time>2009-10-28T08:18:33Z</time>
      </trkpt>
      <trkpt lat="48.4846" lon="6.93584">
        <ele>495.595</ele>
        <time>2009-10-28T08:18:39Z</time>
      </trkpt>
      <trkpt lat="48.48455" lon="6.93594">
        <ele>494.865</ele>
        <time>2009-10-28T08:18:43Z</time>
      </trkpt>
      <trkpt lat="48.48448" lon="6.9361">
        <ele>491.404</ele>
        <time>2009-10-28T08:18:49Z</time>
      </trkpt>
      <trkpt lat="48.48438" lon="6.93623">
        <ele>497.478</ele>
        <time>2009-10-28T08:18:55Z</time>
      </trkpt>
      <trkpt lat="48.48429" lon="6.93635">
        <ele>502.866</ele>
        <time>2009-10-28T08:19:01Z</time>
      </trkpt>
      <trkpt lat="48.48419" lon="6.9365">
        <ele>505.456</ele>
        <time>2009-10-28T08:19:08Z</time>
      </trkpt>
      <trkpt lat="48.48412" lon="6.93661">
        <ele>508.236</ele>
        <time>2009-10-28T08:19:14Z</time>
      </trkpt>
      <trkpt lat="48.48403" lon="6.93664">
        <ele>503.494</ele>
        <time>2009-10-28T08:19:20Z</time>
      </trkpt>
      <trkpt lat="48.484" lon="6.93667">
        <ele>502.814</ele>
        <time>2009-10-28T08:19:22Z</time>
      </trkpt>
      <trkpt lat="48.48392" lon="6.93682">
        <ele>492.263</ele>
        <time>2009-10-28T08:19:29Z</time>
      </trkpt>
      <trkpt lat="48.4838" lon="6.93694">
        <ele>494.824</ele>
        <time>2009-10-28T08:19:34Z</time>
      </trkpt>
      <trkpt lat="48.48372" lon="6.93704">
        <ele>497.045</ele>
        <time>2009-10-28T08:19:38Z</time>
      </trkpt>
      <trkpt lat="48.48362" lon="6.93712">
        <ele>497.064</ele>
        <time>2009-10-28T08:19:43Z</time>
      </trkpt>
      <trkpt lat="48.48353" lon="6.93721">
        <ele>497.715</ele>
        <time>2009-10-28T08:19:48Z</time>
      </trkpt>
      <trkpt lat="48.48348" lon="6.93734">
        <ele>495.134</ele>
        <time>2009-10-28T08:19:55Z</time>
      </trkpt>
      <trkpt lat="48.48347" lon="6.93739">
        <ele>494.134</ele>
        <time>2009-10-28T08:19:57Z</time>
      </trkpt>
      <trkpt lat="48.48347" lon="6.93761">
        <ele>497.856</ele>
        <time>2009-10-28T08:20:04Z</time>
      </trkpt>
      <trkpt lat="48.4835" lon="6.93782">
        <ele>501.266</ele>
        <time>2009-10-28T08:20:10Z</time>
      </trkpt>
      <trkpt lat="48.4835" lon="6.93798">
        <ele>499.065</ele>
        <time>2009-10-28T08:20:16Z</time>
      </trkpt>
      <trkpt lat="48.48349" lon="6.93815">
        <ele>502.916</ele>
        <time>2009-10-28T08:20:23Z</time>
      </trkpt>
      <trkpt lat="48.48338" lon="6.93826">
        <ele>503.655</ele>
        <time>2009-10-28T08:20:28Z</time>
      </trkpt>
      <trkpt lat="48.48317" lon="6.93844">
        <ele>500.253</ele>
        <time>2009-10-28T08:20:34Z</time>
      </trkpt>
      <trkpt lat="48.48309" lon="6.93874">
        <ele>492.931</ele>
        <time>2009-10-28T08:20:39Z</time>
      </trkpt>
      <trkpt lat="48.48307" lon="6.93904">
        <ele>486.791</ele>
        <time>2009-10-28T08:20:43Z</time>
      </trkpt>
      <trkpt lat="48.48304" lon="6.93932">
        <ele>483.531</ele>
        <time>2009-10-28T08:20:46Z</time>
      </trkpt>
      <trkpt lat="48.48299" lon="6.93957">
        <ele>479.091</ele>
        <time>2009-10-28T08:20:49Z</time>
      </trkpt>
      <trkpt lat="48.48286" lon="6.93991">
        <ele>477.831</ele>
        <time>2009-10-28T08:20:53Z</time>
      </trkpt>
      <trkpt lat="48.48276" lon="6.94042">
        <ele>471.281</ele>
        <time>2009-10-28T08:20:58Z</time>
      </trkpt>
      <trkpt lat="48.48277" lon="6.94054">
        <ele>469.751</ele>
        <time>2009-10-28T08:20:59Z</time>
      </trkpt>
      <trkpt lat="48.48282" lon="6.94064">
        <ele>468.841</ele>
        <time>2009-10-28T08:21:02Z</time>
      </trkpt>
      <trkpt lat="48.48284" lon="6.94082">
        <ele>469.042</ele>
        <time>2009-10-28T08:21:07Z</time>
      </trkpt>
      <trkpt lat="48.48281" lon="6.94115">
        <ele>470.103</ele>
        <time>2009-10-28T08:21:13Z</time>
      </trkpt>
      <trkpt lat="48.48273" lon="6.94136">
        <ele>470.594</ele>
        <time>2009-10-28T08:21:17Z</time>
      </trkpt>
      <trkpt lat="48.48267" lon="6.9415">
        <ele>466.563</ele>
        <time>2009-10-28T08:21:20Z</time>
      </trkpt>
      <trkpt lat="48.48251" lon="6.94163">
        <ele>467.773</ele>
        <time>2009-10-28T08:21:24Z</time>
      </trkpt>
      <trkpt lat="48.4823" lon="6.94165">
        <ele>468.754</ele>
        <time>2009-10-28T08:21:29Z</time>
      </trkpt>
      <trkpt lat="48.48204" lon="6.94167">
        <ele>471.244</ele>
        <time>2009-10-28T08:21:36Z</time>
      </trkpt>
      <trkpt lat="48.48184" lon="6.94172">
        <ele>471.053</ele>
        <time>2009-10-28T08:21:42Z</time>
      </trkpt>
      <trkpt lat="48.48161" lon="6.94179">
        <ele>471.164</ele>
        <time>2009-10-28T08:21:48Z</time>
      </trkpt>
      <trkpt lat="48.48145" lon="6.94188">
        <ele>470.493</ele>
        <time>2009-10-28T08:21:53Z</time>
      </trkpt>
      <trkpt lat="48.4813" lon="6.94203">
        <ele>470.553</ele>
        <time>2009-10-28T08:21:57Z</time>
      </trkpt>
      <trkpt lat="48.48119" lon="6.94215">
        <ele>471.704</ele>
        <time>2009-10-28T08:22:00Z</time>
      </trkpt>
      <trkpt lat="48.48108" lon="6.94235">
        <ele>469.584</ele>
        <time>2009-10-28T08:22:04Z</time>
      </trkpt>
      <trkpt lat="48.481" lon="6.94273">
        <ele>460.283</ele>
        <time>2009-10-28T08:22:11Z</time>
      </trkpt>
      <trkpt lat="48.48097" lon="6.943">
        <ele>459.023</ele>
        <time>2009-10-28T08:22:16Z</time>
      </trkpt>
      <trkpt lat="48.48097" lon="6.94328">
        <ele>463.424</ele>
        <time>2009-10-28T08:22:21Z</time>
      </trkpt>
      <trkpt lat="48.48105" lon="6.94359">
        <ele>456.793</ele>
        <time>2009-10-28T08:22:26Z</time>
      </trkpt>
      <trkpt lat="48.48107" lon="6.94375">
        <ele>456.093</ele>
        <time>2009-10-28T08:22:30Z</time>
      </trkpt>
      <trkpt lat="48.48107" lon="6.94377">
        <ele>455.421</ele>
        <time>2009-10-28T08:22:33Z</time>
      </trkpt>
      <trkpt lat="48.48109" lon="6.94389">
        <ele>459.494</ele>
        <time>2009-10-28T08:22:48Z</time>
      </trkpt>
      <trkpt lat="48.48117" lon="6.94415">
        <ele>458.803</ele>
        <time>2009-10-28T08:22:55Z</time>
      </trkpt>
      <trkpt lat="48.48118" lon="6.94418">
        <ele>457.823</ele>
        <time>2009-10-28T08:22:56Z</time>
      </trkpt>
      <trkpt lat="48.48114" lon="6.94419">
        <ele>456.072</ele>
        <time>2009-10-28T08:23:00Z</time>
      </trkpt>
      <trkpt lat="48.4811" lon="6.94411">
        <ele>455.013</ele>
        <time>2009-10-28T08:23:02Z</time>
      </trkpt>
      <trkpt lat="48.48096" lon="6.94378">
        <ele>451.132</ele>
        <time>2009-10-28T08:23:08Z</time>
      </trkpt>
      <trkpt lat="48.48082" lon="6.94344">
        <ele>448.172</ele>
        <time>2009-10-28T08:23:13Z</time>
      </trkpt>
      <trkpt lat="48.48065" lon="6.94297">
        <ele>442.311</ele>
        <time>2009-10-28T08:23:19Z</time>
      </trkpt>
      <trkpt lat="48.48048" lon="6.94246">
        <ele>438.351</ele>
        <time>2009-10-28T08:23:25Z</time>
      </trkpt>
      <trkpt lat="48.48038" lon="6.94196">
        <ele>436.771</ele>
        <time>2009-10-28T08:23:30Z</time>
      </trkpt>
      <trkpt lat="48.4804" lon="6.94146">
        <ele>433.221</ele>
        <time>2009-10-28T08:23:35Z</time>
      </trkpt>
      <trkpt lat="48.48042" lon="6.94139">
        <ele>432.411</ele>
        <time>2009-10-28T08:23:36Z</time>
      </trkpt>
      <trkpt lat="48.48046" lon="6.94128">
        <ele>431.061</ele>
        <time>2009-10-28T08:23:38Z</time>
      </trkpt>
      <trkpt lat="48.48051" lon="6.94116">
        <ele>430.041</ele>
        <time>2009-10-28T08:23:40Z</time>
      </trkpt>
      <trkpt lat="48.48076" lon="6.94085">
        <ele>426.85</ele>
        <time>2009-10-28T08:23:45Z</time>
      </trkpt>
      <trkpt lat="48.48114" lon="6.94044">
        <ele>423.468</ele>
        <time>2009-10-28T08:23:51Z</time>
      </trkpt>
      <trkpt lat="48.4813" lon="6.94025">
        <ele>422.06</ele>
        <time>2009-10-28T08:23:54Z</time>
      </trkpt>
      <trkpt lat="48.48139" lon="6.94">
        <ele>420.35</ele>
        <time>2009-10-28T08:23:58Z</time>
      </trkpt>
      <trkpt lat="48.4814" lon="6.93994">
        <ele>419.81</ele>
        <time>2009-10-28T08:23:59Z</time>
      </trkpt>
      <trkpt lat="48.4814" lon="6.93986">
        <ele>418</ele>
        <time>2009-10-28T08:24:01Z</time>
      </trkpt>
      <trkpt lat="48.48125" lon="6.93972">
        <ele>419.741</ele>
        <time>2009-10-28T08:24:08Z</time>
      </trkpt>
      <trkpt lat="48.48117" lon="6.93966">
        <ele>420.272</ele>
        <time>2009-10-28T08:24:12Z</time>
      </trkpt>
      <trkpt lat="48.48102" lon="6.93958">
        <ele>423.792</ele>
        <time>2009-10-28T08:24:17Z</time>
      </trkpt>
      <trkpt lat="48.48086" lon="6.93951">
        <ele>426.104</ele>
        <time>2009-10-28T08:24:22Z</time>
      </trkpt>
      <trkpt lat="48.48064" lon="6.93944">
        <ele>431.455</ele>
        <time>2009-10-28T08:24:29Z</time>
      </trkpt>
      <trkpt lat="48.48048" lon="6.93939">
        <ele>432.425</ele>
        <time>2009-10-28T08:24:35Z</time>
      </trkpt>
      <trkpt lat="48.48024" lon="6.93936">
        <ele>434.644</ele>
        <time>2009-10-28T08:24:43Z</time>
      </trkpt>
      <trkpt lat="48.48004" lon="6.93934">
        <ele>435.534</ele>
        <time>2009-10-28T08:24:50Z</time>
      </trkpt>
      <trkpt lat="48.47989" lon="6.93931">
        <ele>435.124</ele>
        <time>2009-10-28T08:24:56Z</time>
      </trkpt>
      <trkpt lat="48.47965" lon="6.93928">
        <ele>437.624</ele>
        <time>2009-10-28T08:25:05Z</time>
      </trkpt>
      <trkpt lat="48.47949" lon="6.93932">
        <ele>438.675</ele>
        <time>2009-10-28T08:25:11Z</time>
      </trkpt>
      <trkpt lat="48.47929" lon="6.93937">
        <ele>440.074</ele>
        <time>2009-10-28T08:25:17Z</time>
      </trkpt>
      <trkpt lat="48.479" lon="6.93939">
        <ele>441.504</ele>
        <time>2009-10-28T08:25:24Z</time>
      </trkpt>
      <trkpt lat="48.47877" lon="6.93937">
        <ele>441.883</ele>
        <time>2009-10-28T08:25:29Z</time>
      </trkpt>
      <trkpt lat="48.4785" lon="6.93926">
        <ele>440.703</ele>
        <time>2009-10-28T08:25:36Z</time>
      </trkpt>
      <trkpt lat="48.47833" lon="6.93915">
        <ele>442.084</ele>
        <time>2009-10-28T08:25:41Z</time>
      </trkpt>
      <trkpt lat="48.47811" lon="6.93896">
        <ele>444.205</ele>
        <time>2009-10-28T08:25:48Z</time>
      </trkpt>
      <trkpt lat="48.47789" lon="6.93876">
        <ele>444.384</ele>
        <time>2009-10-28T08:25:55Z</time>
      </trkpt>
      <trkpt lat="48.4777" lon="6.93856">
        <ele>443.143</ele>
        <time>2009-10-28T08:26:01Z</time>
      </trkpt>
      <trkpt lat="48.47754" lon="6.93839">
        <ele>442.722</ele>
        <time>2009-10-28T08:26:05Z</time>
      </trkpt>
      <trkpt lat="48.47742" lon="6.93819">
        <ele>440.482</ele>
        <time>2009-10-28T08:26:09Z</time>
      </trkpt>
      <trkpt lat="48.47737" lon="6.93806">
        <ele>438.902</ele>
        <time>2009-10-28T08:26:11Z</time>
      </trkpt>
      <trkpt lat="48.47732" lon="6.93768">
        <ele>434.77</ele>
        <time>2009-10-28T08:26:16Z</time>
      </trkpt>
      <trkpt lat="48.47732" lon="6.93739">
        <ele>432.741</ele>
        <time>2009-10-28T08:26:20Z</time>
      </trkpt>
      <trkpt lat="48.47727" lon="6.93682">
        <ele>429.901</ele>
        <time>2009-10-28T08:26:28Z</time>
      </trkpt>
      <trkpt lat="48.47727" lon="6.93645">
        <ele>427.651</ele>
        <time>2009-10-28T08:26:32Z</time>
      </trkpt>
      <trkpt lat="48.47729" lon="6.93619">
        <ele>426.661</ele>
        <time>2009-10-28T08:26:35Z</time>
      </trkpt>
      <trkpt lat="48.4773" lon="6.93585">
        <ele>427.982</ele>
        <time>2009-10-28T08:26:40Z</time>
      </trkpt>
      <trkpt lat="48.47716" lon="6.93547">
        <ele>430.682</ele>
        <time>2009-10-28T08:26:46Z</time>
      </trkpt>
      <trkpt lat="48.47713" lon="6.93541">
        <ele>430.752</ele>
        <time>2009-10-28T08:26:47Z</time>
      </trkpt>
      <trkpt lat="48.47699" lon="6.93518">
        <ele>432.123</ele>
        <time>2009-10-28T08:26:52Z</time>
      </trkpt>
      <trkpt lat="48.47688" lon="6.93504">
        <ele>435.014</ele>
        <time>2009-10-28T08:26:58Z</time>
      </trkpt>
      <trkpt lat="48.47688" lon="6.93505">
        <ele>435.253</ele>
        <time>2009-10-28T08:27:00Z</time>
      </trkpt>
      <trkpt lat="48.47676" lon="6.935">
        <ele>447.784</ele>
        <time>2009-10-28T08:27:11Z</time>
      </trkpt>
      <trkpt lat="48.47663" lon="6.93495">
        <ele>448.634</ele>
        <time>2009-10-28T08:27:18Z</time>
      </trkpt>
      <trkpt lat="48.47652" lon="6.93492">
        <ele>446.923</ele>
        <time>2009-10-28T08:27:25Z</time>
      </trkpt>
      <trkpt lat="48.47642" lon="6.9349">
        <ele>446.863</ele>
        <time>2009-10-28T08:27:32Z</time>
      </trkpt>
      <trkpt lat="48.4763" lon="6.9349">
        <ele>447.894</ele>
        <time>2009-10-28T08:27:39Z</time>
      </trkpt>
      <trkpt lat="48.47624" lon="6.93493">
        <ele>449.904</ele>
        <time>2009-10-28T08:27:45Z</time>
      </trkpt>
      <trkpt lat="48.47623" lon="6.93493">
        <ele>450.975</ele>
        <time>2009-10-28T08:27:46Z</time>
      </trkpt>
      <trkpt lat="48.47617" lon="6.93493">
        <ele>449.173</ele>
        <time>2009-10-28T08:27:54Z</time>
      </trkpt>
      <trkpt lat="48.47608" lon="6.93492">
        <ele>450.403</ele>
        <time>2009-10-28T08:27:59Z</time>
      </trkpt>
      <trkpt lat="48.47597" lon="6.93492">
        <ele>451.944</ele>
        <time>2009-10-28T08:28:06Z</time>
      </trkpt>
      <trkpt lat="48.47594" lon="6.93491">
        <ele>451.544</ele>
        <time>2009-10-28T08:28:08Z</time>
      </trkpt>
      <trkpt lat="48.47581" lon="6.93496">
        <ele>454.924</ele>
        <time>2009-10-28T08:28:17Z</time>
      </trkpt>
      <trkpt lat="48.47572" lon="6.935">
        <ele>456.714</ele>
        <time>2009-10-28T08:28:24Z</time>
      </trkpt>
      <trkpt lat="48.47561" lon="6.93501">
        <ele>458.194</ele>
        <time>2009-10-28T08:28:32Z</time>
      </trkpt>
      <trkpt lat="48.47556" lon="6.93502">
        <ele>457.513</ele>
        <time>2009-10-28T08:28:36Z</time>
      </trkpt>
      <trkpt lat="48.47545" lon="6.93506">
        <ele>459.223</ele>
        <time>2009-10-28T08:28:43Z</time>
      </trkpt>
      <trkpt lat="48.47534" lon="6.9351">
        <ele>461.024</ele>
        <time>2009-10-28T08:28:49Z</time>
      </trkpt>
      <trkpt lat="48.47524" lon="6.93515">
        <ele>463.844</ele>
        <time>2009-10-28T08:28:56Z</time>
      </trkpt>
      <trkpt lat="48.47513" lon="6.93523">
        <ele>467.314</ele>
        <time>2009-10-28T08:29:04Z</time>
      </trkpt>
      <trkpt lat="48.47512" lon="6.93525">
        <ele>468.795</ele>
        <time>2009-10-28T08:29:05Z</time>
      </trkpt>
      <trkpt lat="48.47505" lon="6.93531">
        <ele>470.264</ele>
        <time>2009-10-28T08:29:10Z</time>
      </trkpt>
      <trkpt lat="48.47499" lon="6.93536">
        <ele>470.864</ele>
        <time>2009-10-28T08:29:14Z</time>
      </trkpt>
      <trkpt lat="48.47488" lon="6.93547">
        <ele>471.254</ele>
        <time>2009-10-28T08:29:21Z</time>
      </trkpt>
      <trkpt lat="48.47477" lon="6.9356">
        <ele>473.634</ele>
        <time>2009-10-28T08:29:28Z</time>
      </trkpt>
      <trkpt lat="48.47466" lon="6.93571">
        <ele>474.944</ele>
        <time>2009-10-28T08:29:34Z</time>
      </trkpt>
      <trkpt lat="48.47456" lon="6.93582">
        <ele>476.064</ele>
        <time>2009-10-28T08:29:40Z</time>
      </trkpt>
      <trkpt lat="48.47447" lon="6.93596">
        <ele>474.503</ele>
        <time>2009-10-28T08:29:45Z</time>
      </trkpt>
      <trkpt lat="48.47432" lon="6.93606">
        <ele>473.842</ele>
        <time>2009-10-28T08:29:49Z</time>
      </trkpt>
      <trkpt lat="48.47413" lon="6.9361">
        <ele>474.133</ele>
        <time>2009-10-28T08:29:53Z</time>
      </trkpt>
      <trkpt lat="48.47397" lon="6.93608">
        <ele>473.473</ele>
        <time>2009-10-28T08:29:56Z</time>
      </trkpt>
      <trkpt lat="48.47368" lon="6.93596">
        <ele>471.963</ele>
        <time>2009-10-28T08:30:01Z</time>
      </trkpt>
      <trkpt lat="48.47362" lon="6.93592">
        <ele>470.993</ele>
        <time>2009-10-28T08:30:02Z</time>
      </trkpt>
      <trkpt lat="48.47321" lon="6.9356">
        <ele>466.511</ele>
        <time>2009-10-28T08:30:08Z</time>
      </trkpt>
      <trkpt lat="48.47281" lon="6.93529">
        <ele>462.911</ele>
        <time>2009-10-28T08:30:14Z</time>
      </trkpt>
      <trkpt lat="48.4724" lon="6.93491">
        <ele>458.201</ele>
        <time>2009-10-28T08:30:20Z</time>
      </trkpt>
      <trkpt lat="48.47208" lon="6.9346">
        <ele>458.28</ele>
        <time>2009-10-28T08:30:25Z</time>
      </trkpt>
      <trkpt lat="48.47198" lon="6.93447">
        <ele>457.281</ele>
        <time>2009-10-28T08:30:28Z</time>
      </trkpt>
      <trkpt lat="48.47195" lon="6.93431">
        <ele>455.522</ele>
        <time>2009-10-28T08:30:33Z</time>
      </trkpt>
      <trkpt lat="48.47194" lon="6.93417">
        <ele>454.852</ele>
        <time>2009-10-28T08:30:39Z</time>
      </trkpt>
      <trkpt lat="48.47192" lon="6.9341">
        <ele>454.312</ele>
        <time>2009-10-28T08:30:43Z</time>
      </trkpt>
      <trkpt lat="48.47188" lon="6.93397">
        <ele>455.932</ele>
        <time>2009-10-28T08:30:50Z</time>
      </trkpt>
      <trkpt lat="48.47184" lon="6.93381">
        <ele>458.482</ele>
        <time>2009-10-28T08:30:57Z</time>
      </trkpt>
      <trkpt lat="48.47184" lon="6.93379">
        <ele>458.912</ele>
        <time>2009-10-28T08:30:58Z</time>
      </trkpt>
      <trkpt lat="48.47179" lon="6.93365">
        <ele>461.713</ele>
        <time>2009-10-28T08:31:06Z</time>
      </trkpt>
      <trkpt lat="48.47173" lon="6.9335">
        <ele>463.273</ele>
        <time>2009-10-28T08:31:13Z</time>
      </trkpt>
      <trkpt lat="48.47169" lon="6.93335">
        <ele>464.102</ele>
        <time>2009-10-28T08:31:20Z</time>
      </trkpt>
      <trkpt lat="48.47163" lon="6.93323">
        <ele>465.402</ele>
        <time>2009-10-28T08:31:26Z</time>
      </trkpt>
      <trkpt lat="48.47162" lon="6.93308">
        <ele>461.811</ele>
        <time>2009-10-28T08:31:34Z</time>
      </trkpt>
      <trkpt lat="48.4716" lon="6.93304">
        <ele>462.141</ele>
        <time>2009-10-28T08:31:36Z</time>
      </trkpt>
      <trkpt lat="48.47154" lon="6.9329">
        <ele>464.091</ele>
        <time>2009-10-28T08:31:43Z</time>
      </trkpt>
      <trkpt lat="48.47145" lon="6.93272">
        <ele>468.843</ele>
        <time>2009-10-28T08:31:52Z</time>
      </trkpt>
      <trkpt lat="48.47142" lon="6.93265">
        <ele>471.014</ele>
        <time>2009-10-28T08:31:55Z</time>
      </trkpt>
      <trkpt lat="48.47137" lon="6.93248">
        <ele>477.174</ele>
        <time>2009-10-28T08:32:02Z</time>
      </trkpt>
      <trkpt lat="48.47135" lon="6.93229">
        <ele>478.163</ele>
        <time>2009-10-28T08:32:10Z</time>
      </trkpt>
      <trkpt lat="48.47127" lon="6.93215">
        <ele>479.682</ele>
        <time>2009-10-28T08:32:17Z</time>
      </trkpt>
      <trkpt lat="48.47125" lon="6.93214">
        <ele>479.582</ele>
        <time>2009-10-28T08:32:18Z</time>
      </trkpt>
      <trkpt lat="48.47114" lon="6.93214">
        <ele>478.151</ele>
        <time>2009-10-28T08:32:23Z</time>
      </trkpt>
      <trkpt lat="48.47096" lon="6.93214">
        <ele>474.949</ele>
        <time>2009-10-28T08:32:29Z</time>
      </trkpt>
      <trkpt lat="48.47085" lon="6.93216">
        <ele>473.289</ele>
        <time>2009-10-28T08:32:32Z</time>
      </trkpt>
      <trkpt lat="48.47066" lon="6.9321">
        <ele>471.86</ele>
        <time>2009-10-28T08:32:36Z</time>
      </trkpt>
      <trkpt lat="48.47036" lon="6.9321">
        <ele>467.76</ele>
        <time>2009-10-28T08:32:42Z</time>
      </trkpt>
      <trkpt lat="48.47016" lon="6.93212">
        <ele>460.868</ele>
        <time>2009-10-28T08:32:46Z</time>
      </trkpt>
      <trkpt lat="48.47005" lon="6.93214">
        <ele>456.267</ele>
        <time>2009-10-28T08:32:48Z</time>
      </trkpt>
      <trkpt lat="48.46984" lon="6.93217">
        <ele>450.027</ele>
        <time>2009-10-28T08:32:52Z</time>
      </trkpt>
      <trkpt lat="48.4696" lon="6.93218">
        <ele>444.948</ele>
        <time>2009-10-28T08:32:56Z</time>
      </trkpt>
      <trkpt lat="48.46945" lon="6.93212">
        <ele>443.548</ele>
        <time>2009-10-28T08:32:59Z</time>
      </trkpt>
      <trkpt lat="48.46926" lon="6.9321">
        <ele>441.97</ele>
        <time>2009-10-28T08:33:02Z</time>
      </trkpt>
      <trkpt lat="48.46898" lon="6.9322">
        <ele>439.4</ele>
        <time>2009-10-28T08:33:06Z</time>
      </trkpt>
      <trkpt lat="48.46867" lon="6.9323">
        <ele>439.912</ele>
        <time>2009-10-28T08:33:10Z</time>
      </trkpt>
      <trkpt lat="48.46835" lon="6.93231">
        <ele>438.552</ele>
        <time>2009-10-28T08:33:15Z</time>
      </trkpt>
      <trkpt lat="48.46815" lon="6.93231">
        <ele>439.213</ele>
        <time>2009-10-28T08:33:20Z</time>
      </trkpt>
      <trkpt lat="48.46801" lon="6.93228">
        <ele>441.474</ele>
        <time>2009-10-28T08:33:25Z</time>
      </trkpt>
      <trkpt lat="48.46778" lon="6.93222">
        <ele>444.794</ele>
        <time>2009-10-28T08:33:32Z</time>
      </trkpt>
      <trkpt lat="48.46753" lon="6.93206">
        <ele>446.943</ele>
        <time>2009-10-28T08:33:41Z</time>
      </trkpt>
      <trkpt lat="48.46727" lon="6.93195">
        <ele>447.082</ele>
        <time>2009-10-28T08:33:50Z</time>
      </trkpt>
      <trkpt lat="48.46705" lon="6.93191">
        <ele>448.243</ele>
        <time>2009-10-28T08:33:58Z</time>
      </trkpt>
      <trkpt lat="48.46689" lon="6.93185">
        <ele>449.642</ele>
        <time>2009-10-28T08:34:05Z</time>
      </trkpt>
      <trkpt lat="48.46673" lon="6.93178">
        <ele>450.853</ele>
        <time>2009-10-28T08:34:14Z</time>
      </trkpt>
      <trkpt lat="48.46656" lon="6.93173">
        <ele>451.602</ele>
        <time>2009-10-28T08:34:24Z</time>
      </trkpt>
      <trkpt lat="48.46642" lon="6.93167">
        <ele>453.162</ele>
        <time>2009-10-28T08:34:33Z</time>
      </trkpt>
      <trkpt lat="48.46627" lon="6.93163">
        <ele>455.553</ele>
        <time>2009-10-28T08:34:42Z</time>
      </trkpt>
      <trkpt lat="48.46614" lon="6.93158">
        <ele>457.032</ele>
        <time>2009-10-28T08:34:50Z</time>
      </trkpt>
      <trkpt lat="48.46598" lon="6.93149">
        <ele>459.432</ele>
        <time>2009-10-28T08:34:59Z</time>
      </trkpt>
      <trkpt lat="48.46582" lon="6.93146">
        <ele>460.082</ele>
        <time>2009-10-28T08:35:07Z</time>
      </trkpt>
      <trkpt lat="48.46568" lon="6.93142">
        <ele>461.642</ele>
        <time>2009-10-28T08:35:15Z</time>
      </trkpt>
      <trkpt lat="48.46553" lon="6.93136">
        <ele>463.412</ele>
        <time>2009-10-28T08:35:23Z</time>
      </trkpt>
      <trkpt lat="48.46543" lon="6.93132">
        <ele>464.471</ele>
        <time>2009-10-28T08:35:29Z</time>
      </trkpt>
      <trkpt lat="48.46531" lon="6.93131">
        <ele>465.762</ele>
        <time>2009-10-28T08:35:36Z</time>
      </trkpt>
      <trkpt lat="48.46526" lon="6.93142">
        <ele>466.912</ele>
        <time>2009-10-28T08:35:41Z</time>
      </trkpt>
      <trkpt lat="48.46516" lon="6.93156">
        <ele>467.802</ele>
        <time>2009-10-28T08:35:50Z</time>
      </trkpt>
      <trkpt lat="48.46506" lon="6.93163">
        <ele>470.172</ele>
        <time>2009-10-28T08:35:58Z</time>
      </trkpt>
      <trkpt lat="48.46496" lon="6.93166">
        <ele>471.382</ele>
        <time>2009-10-28T08:36:05Z</time>
      </trkpt>
      <trkpt lat="48.46485" lon="6.93168">
        <ele>473.702</ele>
        <time>2009-10-28T08:36:12Z</time>
      </trkpt>
      <trkpt lat="48.46474" lon="6.93171">
        <ele>474.922</ele>
        <time>2009-10-28T08:36:19Z</time>
      </trkpt>
      <trkpt lat="48.46462" lon="6.93178">
        <ele>474.401</ele>
        <time>2009-10-28T08:36:28Z</time>
      </trkpt>
      <trkpt lat="48.4645" lon="6.93185">
        <ele>473.31</ele>
        <time>2009-10-28T08:36:36Z</time>
      </trkpt>
      <trkpt lat="48.46441" lon="6.9319">
        <ele>474.711</ele>
        <time>2009-10-28T08:36:43Z</time>
      </trkpt>
      <trkpt lat="48.46432" lon="6.93196">
        <ele>475.861</ele>
        <time>2009-10-28T08:36:49Z</time>
      </trkpt>
      <trkpt lat="48.46422" lon="6.93204">
        <ele>476.632</ele>
        <time>2009-10-28T08:36:56Z</time>
      </trkpt>
      <trkpt lat="48.46412" lon="6.93211">
        <ele>476.26</ele>
        <time>2009-10-28T08:37:01Z</time>
      </trkpt>
      <trkpt lat="48.46396" lon="6.93222">
        <ele>476.921</ele>
        <time>2009-10-28T08:37:08Z</time>
      </trkpt>
      <trkpt lat="48.46374" lon="6.93239">
        <ele>478.431</ele>
        <time>2009-10-28T08:37:16Z</time>
      </trkpt>
      <trkpt lat="48.46354" lon="6.93253">
        <ele>480.032</ele>
        <time>2009-10-28T08:37:23Z</time>
      </trkpt>
      <trkpt lat="48.46341" lon="6.93259">
        <ele>481.162</ele>
        <time>2009-10-28T08:37:27Z</time>
      </trkpt>
      <trkpt lat="48.4632" lon="6.93267">
        <ele>481.251</ele>
        <time>2009-10-28T08:37:34Z</time>
      </trkpt>
      <trkpt lat="48.46301" lon="6.93274">
        <ele>481.151</ele>
        <time>2009-10-28T08:37:40Z</time>
      </trkpt>
      <trkpt lat="48.46275" lon="6.93288">
        <ele>482.341</ele>
        <time>2009-10-28T08:37:49Z</time>
      </trkpt>
      <trkpt lat="48.46254" lon="6.93307">
        <ele>484.511</ele>
        <time>2009-10-28T08:37:57Z</time>
      </trkpt>
      <trkpt lat="48.46245" lon="6.93321">
        <ele>485.701</ele>
        <time>2009-10-28T08:38:02Z</time>
      </trkpt>
      <trkpt lat="48.46234" lon="6.93347">
        <ele>489.282</ele>
        <time>2009-10-28T08:38:10Z</time>
      </trkpt>
      <trkpt lat="48.46229" lon="6.93375">
        <ele>492.233</ele>
        <time>2009-10-28T08:38:18Z</time>
      </trkpt>
      <trkpt lat="48.4623" lon="6.93393">
        <ele>492.982</ele>
        <time>2009-10-28T08:38:23Z</time>
      </trkpt>
      <trkpt lat="48.46233" lon="6.93415">
        <ele>497.073</ele>
        <time>2009-10-28T08:38:29Z</time>
      </trkpt>
      <trkpt lat="48.46238" lon="6.93437">
        <ele>501.292</ele>
        <time>2009-10-28T08:38:35Z</time>
      </trkpt>
      <trkpt lat="48.46246" lon="6.93465">
        <ele>505.683</ele>
        <time>2009-10-28T08:38:42Z</time>
      </trkpt>
      <trkpt lat="48.46251" lon="6.93485">
        <ele>509.123</ele>
        <time>2009-10-28T08:38:47Z</time>
      </trkpt>
      <trkpt lat="48.46255" lon="6.93516">
        <ele>514.454</ele>
        <time>2009-10-28T08:38:54Z</time>
      </trkpt>
      <trkpt lat="48.46258" lon="6.93551">
        <ele>520.415</ele>
        <time>2009-10-28T08:39:01Z</time>
      </trkpt>
      <trkpt lat="48.46261" lon="6.93578">
        <ele>518.953</ele>
        <time>2009-10-28T08:39:06Z</time>
      </trkpt>
      <trkpt lat="48.46263" lon="6.93614">
        <ele>520.973</ele>
        <time>2009-10-28T08:39:13Z</time>
      </trkpt>
      <trkpt lat="48.46267" lon="6.93649">
        <ele>517.442</ele>
        <time>2009-10-28T08:39:19Z</time>
      </trkpt>
      <trkpt lat="48.46266" lon="6.9367">
        <ele>515.67</ele>
        <time>2009-10-28T08:39:22Z</time>
      </trkpt>
      <trkpt lat="48.4626" lon="6.93723">
        <ele>510.659</ele>
        <time>2009-10-28T08:39:29Z</time>
      </trkpt>
      <trkpt lat="48.46256" lon="6.93754">
        <ele>506.71</ele>
        <time>2009-10-28T08:39:34Z</time>
      </trkpt>
      <trkpt lat="48.46254" lon="6.93773">
        <ele>504.84</ele>
        <time>2009-10-28T08:39:39Z</time>
      </trkpt>
      <trkpt lat="48.46244" lon="6.93782">
        <ele>503.911</ele>
        <time>2009-10-28T08:39:44Z</time>
      </trkpt>
      <trkpt lat="48.46236" lon="6.93793">
        <ele>503.011</ele>
        <time>2009-10-28T08:39:49Z</time>
      </trkpt>
      <trkpt lat="48.46234" lon="6.93795">
        <ele>502.841</ele>
        <time>2009-10-28T08:39:50Z</time>
      </trkpt>
      <trkpt lat="48.46236" lon="6.93798">
        <ele>501.45</ele>
        <time>2009-10-28T08:39:55Z</time>
      </trkpt>
      <trkpt lat="48.46239" lon="6.93792">
        <ele>500.81</ele>
        <time>2009-10-28T08:39:57Z</time>
      </trkpt>
      <trkpt lat="48.46257" lon="6.93757">
        <ele>499.661</ele>
        <time>2009-10-28T08:40:06Z</time>
      </trkpt>
      <trkpt lat="48.46261" lon="6.93729">
        <ele>500.541</ele>
        <time>2009-10-28T08:40:12Z</time>
      </trkpt>
      <trkpt lat="48.46269" lon="6.9368">
        <ele>501.251</ele>
        <time>2009-10-28T08:40:23Z</time>
      </trkpt>
      <trkpt lat="48.46273" lon="6.93652">
        <ele>499.65</ele>
        <time>2009-10-28T08:40:29Z</time>
      </trkpt>
      <trkpt lat="48.46274" lon="6.93621">
        <ele>496.759</ele>
        <time>2009-10-28T08:40:36Z</time>
      </trkpt>
      <trkpt lat="48.46272" lon="6.93584">
        <ele>494.199</ele>
        <time>2009-10-28T08:40:43Z</time>
      </trkpt>
      <trkpt lat="48.46269" lon="6.93547">
        <ele>494.059</ele>
        <time>2009-10-28T08:40:50Z</time>
      </trkpt>
      <trkpt lat="48.46266" lon="6.93516">
        <ele>494.729</ele>
        <time>2009-10-28T08:40:56Z</time>
      </trkpt>
      <trkpt lat="48.46257" lon="6.93479">
        <ele>496.05</ele>
        <time>2009-10-28T08:41:03Z</time>
      </trkpt>
      <trkpt lat="48.46245" lon="6.93446">
        <ele>497.94</ele>
        <time>2009-10-28T08:41:09Z</time>
      </trkpt>
      <trkpt lat="48.46232" lon="6.93412">
        <ele>503.49</ele>
        <time>2009-10-28T08:41:15Z</time>
      </trkpt>
      <trkpt lat="48.46228" lon="6.93397">
        <ele>503.52</ele>
        <time>2009-10-28T08:41:17Z</time>
      </trkpt>
      <trkpt lat="48.46228" lon="6.93358">
        <ele>501.98</ele>
        <time>2009-10-28T08:41:22Z</time>
      </trkpt>
      <trkpt lat="48.46239" lon="6.93323">
        <ele>499.028</ele>
        <time>2009-10-28T08:41:26Z</time>
      </trkpt>
      <trkpt lat="48.46261" lon="6.93293">
        <ele>496.778</ele>
        <time>2009-10-28T08:41:30Z</time>
      </trkpt>
      <trkpt lat="48.46276" lon="6.93283">
        <ele>495.388</ele>
        <time>2009-10-28T08:41:32Z</time>
      </trkpt>
      <trkpt lat="48.46335" lon="6.93259">
        <ele>488.229</ele>
        <time>2009-10-28T08:41:39Z</time>
      </trkpt>
      <trkpt lat="48.46343" lon="6.93255">
        <ele>487.538</ele>
        <time>2009-10-28T08:41:40Z</time>
      </trkpt>
      <trkpt lat="48.46395" lon="6.93221">
        <ele>483.017</ele>
        <time>2009-10-28T08:41:47Z</time>
      </trkpt>
      <trkpt lat="48.46418" lon="6.93206">
        <ele>479.648</ele>
        <time>2009-10-28T08:41:51Z</time>
      </trkpt>
      <trkpt lat="48.46456" lon="6.93181">
        <ele>473.737</ele>
        <time>2009-10-28T08:41:57Z</time>
      </trkpt>
      <trkpt lat="48.46495" lon="6.93169">
        <ele>468.86</ele>
        <time>2009-10-28T08:42:03Z</time>
      </trkpt>
      <trkpt lat="48.46501" lon="6.93167">
        <ele>467.747</ele>
        <time>2009-10-28T08:42:04Z</time>
      </trkpt>
      <trkpt lat="48.46525" lon="6.93148">
        <ele>461.106</ele>
        <time>2009-10-28T08:42:09Z</time>
      </trkpt>
      <trkpt lat="48.46529" lon="6.93132">
        <ele>459.466</ele>
        <time>2009-10-28T08:42:12Z</time>
      </trkpt>
      <trkpt lat="48.46523" lon="6.93124">
        <ele>459.408</ele>
        <time>2009-10-28T08:42:15Z</time>
      </trkpt>
      <trkpt lat="48.46515" lon="6.93121">
        <ele>461.87</ele>
        <time>2009-10-28T08:42:17Z</time>
      </trkpt>
      <trkpt lat="48.46482" lon="6.93112">
        <ele>465.061</ele>
        <time>2009-10-28T08:42:27Z</time>
      </trkpt>
      <trkpt lat="48.46459" lon="6.93112">
        <ele>464.381</ele>
        <time>2009-10-28T08:42:34Z</time>
      </trkpt>
      <trkpt lat="48.4644" lon="6.93113">
        <ele>464.26</ele>
        <time>2009-10-28T08:42:40Z</time>
      </trkpt>
      <trkpt lat="48.46437" lon="6.93112">
        <ele>464.271</ele>
        <time>2009-10-28T08:42:41Z</time>
      </trkpt>
      <trkpt lat="48.46424" lon="6.93115">
        <ele>463.19</ele>
        <time>2009-10-28T08:42:45Z</time>
      </trkpt>
      <trkpt lat="48.46402" lon="6.93131">
        <ele>463.1</ele>
        <time>2009-10-28T08:42:52Z</time>
      </trkpt>
      <trkpt lat="48.46381" lon="6.93155">
        <ele>461.69</ele>
        <time>2009-10-28T08:43:00Z</time>
      </trkpt>
      <trkpt lat="48.46364" lon="6.93172">
        <ele>460.54</ele>
        <time>2009-10-28T08:43:06Z</time>
      </trkpt>
      <trkpt lat="48.46343" lon="6.93195">
        <ele>459.76</ele>
        <time>2009-10-28T08:43:12Z</time>
      </trkpt>
      <trkpt lat="48.46323" lon="6.93205">
        <ele>458.879</ele>
        <time>2009-10-28T08:43:18Z</time>
      </trkpt>
      <trkpt lat="48.46312" lon="6.93203">
        <ele>458.97</ele>
        <time>2009-10-28T08:43:22Z</time>
      </trkpt>
      <trkpt lat="48.46296" lon="6.93202">
        <ele>459.83</ele>
        <time>2009-10-28T08:43:28Z</time>
      </trkpt>
      <trkpt lat="48.46274" lon="6.93194">
        <ele>461.03</ele>
        <time>2009-10-28T08:43:34Z</time>
      </trkpt>
      <trkpt lat="48.46256" lon="6.93183">
        <ele>461.5</ele>
        <time>2009-10-28T08:43:39Z</time>
      </trkpt>
      <trkpt lat="48.46234" lon="6.93174">
        <ele>461.47</ele>
        <time>2009-10-28T08:43:45Z</time>
      </trkpt>
      <trkpt lat="48.46215" lon="6.93171">
        <ele>462.239</ele>
        <time>2009-10-28T08:43:50Z</time>
      </trkpt>
      <trkpt lat="48.46195" lon="6.93168">
        <ele>460.437</ele>
        <time>2009-10-28T08:43:55Z</time>
      </trkpt>
      <trkpt lat="48.46169" lon="6.93156">
        <ele>460.959</ele>
        <time>2009-10-28T08:44:01Z</time>
      </trkpt>
      <trkpt lat="48.46147" lon="6.93143">
        <ele>459.059</ele>
        <time>2009-10-28T08:44:05Z</time>
      </trkpt>
      <trkpt lat="48.46121" lon="6.9313">
        <ele>457.123</ele>
        <time>2009-10-28T08:44:09Z</time>
      </trkpt>
      <trkpt lat="48.46077" lon="6.93123">
        <ele>455.49</ele>
        <time>2009-10-28T08:44:16Z</time>
      </trkpt>
      <trkpt lat="48.4607" lon="6.93123">
        <ele>455.52</ele>
        <time>2009-10-28T08:44:17Z</time>
      </trkpt>
      <trkpt lat="48.46033" lon="6.93106">
        <ele>455.329</ele>
        <time>2009-10-28T08:44:23Z</time>
      </trkpt>
      <trkpt lat="48.45992" lon="6.93073">
        <ele>454.699</ele>
        <time>2009-10-28T08:44:30Z</time>
      </trkpt>
      <trkpt lat="48.45973" lon="6.93061">
        <ele>453.879</ele>
        <time>2009-10-28T08:44:33Z</time>
      </trkpt>
      <trkpt lat="48.45932" lon="6.9302">
        <ele>453.849</ele>
        <time>2009-10-28T08:44:41Z</time>
      </trkpt>
      <trkpt lat="48.45932" lon="6.93002">
        <ele>453.3</ele>
        <time>2009-10-28T08:44:45Z</time>
      </trkpt>
      <trkpt lat="48.45931" lon="6.92989">
        <ele>453.43</ele>
        <time>2009-10-28T08:44:47Z</time>
      </trkpt>
      <trkpt lat="48.45929" lon="6.92975">
        <ele>453.02</ele>
        <time>2009-10-28T08:44:49Z</time>
      </trkpt>
      <trkpt lat="48.45923" lon="6.92932">
        <ele>452.089</ele>
        <time>2009-10-28T08:44:54Z</time>
      </trkpt>
      <trkpt lat="48.45918" lon="6.92915">
        <ele>451.96</ele>
        <time>2009-10-28T08:44:56Z</time>
      </trkpt>
      <trkpt lat="48.45908" lon="6.92875">
        <ele>451.51</ele>
        <time>2009-10-28T08:45:00Z</time>
      </trkpt>
      <trkpt lat="48.45903" lon="6.92843">
        <ele>451.09</ele>
        <time>2009-10-28T08:45:03Z</time>
      </trkpt>
      <trkpt lat="48.45893" lon="6.92793">
        <ele>450.609</ele>
        <time>2009-10-28T08:45:08Z</time>
      </trkpt>
      <trkpt lat="48.45891" lon="6.92784">
        <ele>450.159</ele>
        <time>2009-10-28T08:45:09Z</time>
      </trkpt>
      <trkpt lat="48.45876" lon="6.92752">
        <ele>449.56</ele>
        <time>2009-10-28T08:45:13Z</time>
      </trkpt>
      <trkpt lat="48.45868" lon="6.92713">
        <ele>448.86</ele>
        <time>2009-10-28T08:45:17Z</time>
      </trkpt>
      <trkpt lat="48.45874" lon="6.92677">
        <ele>445.019</ele>
        <time>2009-10-28T08:45:22Z</time>
      </trkpt>
      <trkpt lat="48.45884" lon="6.92649">
        <ele>440.008</ele>
        <time>2009-10-28T08:45:27Z</time>
      </trkpt>
      <trkpt lat="48.45879" lon="6.92608">
        <ele>437.938</ele>
        <time>2009-10-28T08:45:31Z</time>
      </trkpt>
      <trkpt lat="48.45876" lon="6.92577">
        <ele>435.567</ele>
        <time>2009-10-28T08:45:34Z</time>
      </trkpt>
      <trkpt lat="48.45863" lon="6.92535">
        <ele>432.297</ele>
        <time>2009-10-28T08:45:39Z</time>
      </trkpt>
      <trkpt lat="48.45856" lon="6.925">
        <ele>427.897</ele>
        <time>2009-10-28T08:45:44Z</time>
      </trkpt>
      <trkpt lat="48.45833" lon="6.92472">
        <ele>424.308</ele>
        <time>2009-10-28T08:45:51Z</time>
      </trkpt>
      <trkpt lat="48.45817" lon="6.92461">
        <ele>421.585</ele>
        <time>2009-10-28T08:45:55Z</time>
      </trkpt>
      <trkpt lat="48.45796" lon="6.92443">
        <ele>418.337</ele>
        <time>2009-10-28T08:46:00Z</time>
      </trkpt>
      <trkpt lat="48.4578" lon="6.92439">
        <ele>413.956</ele>
        <time>2009-10-28T08:46:04Z</time>
      </trkpt>
      <trkpt lat="48.45765" lon="6.92437">
        <ele>410.866</ele>
        <time>2009-10-28T08:46:08Z</time>
      </trkpt>
      <trkpt lat="48.45756" lon="6.92426">
        <ele>407.557</ele>
        <time>2009-10-28T08:46:13Z</time>
      </trkpt>
      <trkpt lat="48.45745" lon="6.92418">
        <ele>402.477</ele>
        <time>2009-10-28T08:46:18Z</time>
      </trkpt>
      <trkpt lat="48.45743" lon="6.92417">
        <ele>401.324</ele>
        <time>2009-10-28T08:46:21Z</time>
      </trkpt>
      <trkpt lat="48.45739" lon="6.92408">
        <ele>395.909</ele>
        <time>2009-10-28T08:46:49Z</time>
      </trkpt>
      <trkpt lat="48.45739" lon="6.92407">
        <ele>395.637</ele>
        <time>2009-10-28T08:46:51Z</time>
      </trkpt>
      <trkpt lat="48.45724" lon="6.92424">
        <ele>396.309</ele>
        <time>2009-10-28T08:47:06Z</time>
      </trkpt>
      <trkpt lat="48.45715" lon="6.92431">
        <ele>395.999</ele>
        <time>2009-10-28T08:47:11Z</time>
      </trkpt>
      <trkpt lat="48.45707" lon="6.92439">
        <ele>395.99</ele>
        <time>2009-10-28T08:47:15Z</time>
      </trkpt>
      <trkpt lat="48.4569" lon="6.92453">
        <ele>395.729</ele>
        <time>2009-10-28T08:47:20Z</time>
      </trkpt>
      <trkpt lat="48.45659" lon="6.92476">
        <ele>393.099</ele>
        <time>2009-10-28T08:47:28Z</time>
      </trkpt>
      <trkpt lat="48.45627" lon="6.92488">
        <ele>392.908</ele>
        <time>2009-10-28T08:47:35Z</time>
      </trkpt>
      <trkpt lat="48.45614" lon="6.92491">
        <ele>392.488</ele>
        <time>2009-10-28T08:47:38Z</time>
      </trkpt>
      <trkpt lat="48.456" lon="6.92492">
        <ele>391.598</ele>
        <time>2009-10-28T08:47:41Z</time>
      </trkpt>
      <trkpt lat="48.45577" lon="6.92484">
        <ele>394.099</ele>
        <time>2009-10-28T08:47:46Z</time>
      </trkpt>
      <trkpt lat="48.45555" lon="6.9245">
        <ele>403.21</ele>
        <time>2009-10-28T08:47:52Z</time>
      </trkpt>
      <trkpt lat="48.45552" lon="6.92436">
        <ele>405.581</ele>
        <time>2009-10-28T08:47:54Z</time>
      </trkpt>
      <trkpt lat="48.45544" lon="6.92374">
        <ele>408.32</ele>
        <time>2009-10-28T08:48:03Z</time>
      </trkpt>
      <trkpt lat="48.45541" lon="6.92309">
        <ele>405.238</ele>
        <time>2009-10-28T08:48:11Z</time>
      </trkpt>
      <trkpt lat="48.4554" lon="6.92249">
        <ele>403.868</ele>
        <time>2009-10-28T08:48:17Z</time>
      </trkpt>
      <trkpt lat="48.45541" lon="6.92219">
        <ele>402.839</ele>
        <time>2009-10-28T08:48:21Z</time>
      </trkpt>
      <trkpt lat="48.45543" lon="6.92199">
        <ele>401.379</ele>
        <time>2009-10-28T08:48:26Z</time>
      </trkpt>
      <trkpt lat="48.45545" lon="6.92186">
        <ele>400.499</ele>
        <time>2009-10-28T08:48:29Z</time>
      </trkpt>
      <trkpt lat="48.45554" lon="6.92163">
        <ele>400.03</ele>
        <time>2009-10-28T08:48:34Z</time>
      </trkpt>
      <trkpt lat="48.45554" lon="6.92137">
        <ele>399.279</ele>
        <time>2009-10-28T08:48:40Z</time>
      </trkpt>
      <trkpt lat="48.45538" lon="6.92106">
        <ele>396.998</ele>
        <time>2009-10-28T08:48:45Z</time>
      </trkpt>
      <trkpt lat="48.45535" lon="6.92099">
        <ele>396.799</ele>
        <time>2009-10-28T08:48:46Z</time>
      </trkpt>
      <trkpt lat="48.45522" lon="6.92081">
        <ele>395.499</ele>
        <time>2009-10-28T08:48:49Z</time>
      </trkpt>
      <trkpt lat="48.45512" lon="6.92073">
        <ele>395.23</ele>
        <time>2009-10-28T08:48:53Z</time>
      </trkpt>
      <trkpt lat="48.4551" lon="6.92071">
        <ele>395.39</ele>
        <time>2009-10-28T08:48:59Z</time>
      </trkpt>
      <trkpt lat="48.4551" lon="6.9207">
        <ele>395.406</ele>
        <time>2009-10-28T08:49:00Z</time>
      </trkpt>
      <trkpt lat="48.45494" lon="6.92073">
        <ele>395.738</ele>
        <time>2009-10-28T08:56:41Z</time>
      </trkpt>
      <trkpt lat="48.4547" lon="6.92079">
        <ele>393.058</ele>
        <time>2009-10-28T08:56:45Z</time>
      </trkpt>
      <trkpt lat="48.45449" lon="6.92088">
        <ele>391.429</ele>
        <time>2009-10-28T08:56:50Z</time>
      </trkpt>
      <trkpt lat="48.45435" lon="6.9209">
        <ele>390.67</ele>
        <time>2009-10-28T08:56:56Z</time>
      </trkpt>
      <trkpt lat="48.45431" lon="6.92089">
        <ele>390.65</ele>
        <time>2009-10-28T08:56:58Z</time>
      </trkpt>
      <trkpt lat="48.4543" lon="6.92089">
        <ele>390.6</ele>
        <time>2009-10-28T08:57:02Z</time>
      </trkpt>
      <trkpt lat="48.4542" lon="6.92071">
        <ele>390.2</ele>
        <time>2009-10-28T08:57:14Z</time>
      </trkpt>
      <trkpt lat="48.45413" lon="6.92056">
        <ele>390.2</ele>
        <time>2009-10-28T08:57:19Z</time>
      </trkpt>
      <trkpt lat="48.45406" lon="6.92037">
        <ele>390.37</ele>
        <time>2009-10-28T08:57:25Z</time>
      </trkpt>
      <trkpt lat="48.45402" lon="6.9203">
        <ele>390.44</ele>
        <time>2009-10-28T08:57:30Z</time>
      </trkpt>
      <trkpt lat="48.45401" lon="6.92029">
        <ele>390.256</ele>
        <time>2009-10-28T08:57:33Z</time>
      </trkpt>
      <trkpt lat="48.45406" lon="6.92023">
        <ele>388.54</ele>
        <time>2009-10-28T08:59:04Z</time>
      </trkpt>
      <trkpt lat="48.45399" lon="6.92014">
        <ele>391.43</ele>
        <time>2009-10-28T09:02:48Z</time>
      </trkpt>
      <trkpt lat="48.45387" lon="6.91988">
        <ele>391.46</ele>
        <time>2009-10-28T09:02:55Z</time>
      </trkpt>
      <trkpt lat="48.45377" lon="6.91963">
        <ele>391.18</ele>
        <time>2009-10-28T09:03:00Z</time>
      </trkpt>
      <trkpt lat="48.45372" lon="6.91953">
        <ele>391.12</ele>
        <time>2009-10-28T09:03:02Z</time>
      </trkpt>
      <trkpt lat="48.45358" lon="6.91918">
        <ele>390.98</ele>
        <time>2009-10-28T09:03:09Z</time>
      </trkpt>
      <trkpt lat="48.4534" lon="6.91873">
        <ele>390.5</ele>
        <time>2009-10-28T09:03:17Z</time>
      </trkpt>
      <trkpt lat="48.45318" lon="6.91821">
        <ele>389.91</ele>
        <time>2009-10-28T09:03:26Z</time>
      </trkpt>
      <trkpt lat="48.45299" lon="6.91771">
        <ele>389.4</ele>
        <time>2009-10-28T09:03:34Z</time>
      </trkpt>
      <trkpt lat="48.45282" lon="6.91731">
        <ele>388.93</ele>
        <time>2009-10-28T09:03:41Z</time>
      </trkpt>
      <trkpt lat="48.45279" lon="6.9172">
        <ele>388.83</ele>
        <time>2009-10-28T09:03:43Z</time>
      </trkpt>
      <trkpt lat="48.45284" lon="6.91697">
        <ele>388.84</ele>
        <time>2009-10-28T09:03:47Z</time>
      </trkpt>
      <trkpt lat="48.45292" lon="6.91689">
        <ele>389.08</ele>
        <time>2009-10-28T09:03:49Z</time>
      </trkpt>
      <trkpt lat="48.4531" lon="6.91675">
        <ele>390.942</ele>
        <time>2009-10-28T09:03:55Z</time>
      </trkpt>
      <trkpt lat="48.45325" lon="6.91663">
        <ele>393.391</ele>
        <time>2009-10-28T09:04:01Z</time>
      </trkpt>
      <trkpt lat="48.45329" lon="6.91661">
        <ele>393.711</ele>
        <time>2009-10-28T09:04:03Z</time>
      </trkpt>
      <trkpt lat="48.4534" lon="6.91643">
        <ele>395.08</ele>
        <time>2009-10-28T09:04:09Z</time>
      </trkpt>
      <trkpt lat="48.45346" lon="6.91631">
        <ele>395.019</ele>
        <time>2009-10-28T09:04:14Z</time>
      </trkpt>
      <trkpt lat="48.45354" lon="6.91614">
        <ele>394.969</ele>
        <time>2009-10-28T09:04:19Z</time>
      </trkpt>
      <trkpt lat="48.45357" lon="6.91585">
        <ele>395.349</ele>
        <time>2009-10-28T09:04:24Z</time>
      </trkpt>
      <trkpt lat="48.45352" lon="6.91559">
        <ele>395.109</ele>
        <time>2009-10-28T09:04:29Z</time>
      </trkpt>
      <trkpt lat="48.45336" lon="6.91532">
        <ele>395.94</ele>
        <time>2009-10-28T09:04:36Z</time>
      </trkpt>
      <trkpt lat="48.45317" lon="6.9151">
        <ele>397.52</ele>
        <time>2009-10-28T09:04:43Z</time>
      </trkpt>
      <trkpt lat="48.45296" lon="6.91491">
        <ele>399.041</ele>
        <time>2009-10-28T09:04:50Z</time>
      </trkpt>
      <trkpt lat="48.45273" lon="6.91471">
        <ele>399.96</ele>
        <time>2009-10-28T09:04:57Z</time>
      </trkpt>
      <trkpt lat="48.45253" lon="6.9145">
        <ele>399.969</ele>
        <time>2009-10-28T09:05:03Z</time>
      </trkpt>
      <trkpt lat="48.45221" lon="6.91404">
        <ele>398.689</ele>
        <time>2009-10-28T09:05:14Z</time>
      </trkpt>
      <trkpt lat="48.45201" lon="6.91362">
        <ele>400.941</ele>
        <time>2009-10-28T09:05:23Z</time>
      </trkpt>
      <trkpt lat="48.45184" lon="6.91323">
        <ele>404.891</ele>
        <time>2009-10-28T09:05:31Z</time>
      </trkpt>
      <trkpt lat="48.45174" lon="6.91294">
        <ele>407.431</ele>
        <time>2009-10-28T09:05:37Z</time>
      </trkpt>
      <trkpt lat="48.45168" lon="6.91268">
        <ele>409.481</ele>
        <time>2009-10-28T09:05:42Z</time>
      </trkpt>
      <trkpt lat="48.4517" lon="6.91241">
        <ele>411.2</ele>
        <time>2009-10-28T09:05:47Z</time>
      </trkpt>
      <trkpt lat="48.45179" lon="6.91219">
        <ele>409.889</ele>
        <time>2009-10-28T09:05:51Z</time>
      </trkpt>
      <trkpt lat="48.45185" lon="6.91211">
        <ele>409.56</ele>
        <time>2009-10-28T09:05:53Z</time>
      </trkpt>
      <trkpt lat="48.45206" lon="6.91197">
        <ele>409.37</ele>
        <time>2009-10-28T09:05:59Z</time>
      </trkpt>
      <trkpt lat="48.45226" lon="6.91196">
        <ele>412.761</ele>
        <time>2009-10-28T09:06:05Z</time>
      </trkpt>
      <trkpt lat="48.45243" lon="6.91201">
        <ele>415.972</ele>
        <time>2009-10-28T09:06:10Z</time>
      </trkpt>
      <trkpt lat="48.45246" lon="6.91202">
        <ele>416.412</ele>
        <time>2009-10-28T09:06:11Z</time>
      </trkpt>
      <trkpt lat="48.45271" lon="6.91204">
        <ele>418.362</ele>
        <time>2009-10-28T09:06:17Z</time>
      </trkpt>
      <trkpt lat="48.45292" lon="6.91206">
        <ele>420.332</ele>
        <time>2009-10-28T09:06:22Z</time>
      </trkpt>
      <trkpt lat="48.45314" lon="6.91203">
        <ele>419.251</ele>
        <time>2009-10-28T09:06:27Z</time>
      </trkpt>
      <trkpt lat="48.45328" lon="6.91199">
        <ele>419.751</ele>
        <time>2009-10-28T09:06:30Z</time>
      </trkpt>
      <trkpt lat="48.45352" lon="6.91181">
        <ele>414.72</ele>
        <time>2009-10-28T09:06:35Z</time>
      </trkpt>
      <trkpt lat="48.45375" lon="6.91145">
        <ele>410.259</ele>
        <time>2009-10-28T09:06:42Z</time>
      </trkpt>
      <trkpt lat="48.45389" lon="6.91125">
        <ele>409.18</ele>
        <time>2009-10-28T09:06:46Z</time>
      </trkpt>
      <trkpt lat="48.45398" lon="6.91094">
        <ele>409.37</ele>
        <time>2009-10-28T09:06:51Z</time>
      </trkpt>
      <trkpt lat="48.45399" lon="6.91079">
        <ele>408.719</ele>
        <time>2009-10-28T09:06:53Z</time>
      </trkpt>
      <trkpt lat="48.45394" lon="6.91028">
        <ele>407.109</ele>
        <time>2009-10-28T09:07:00Z</time>
      </trkpt>
      <trkpt lat="48.45375" lon="6.90978">
        <ele>405.69</ele>
        <time>2009-10-28T09:07:08Z</time>
      </trkpt>
      <trkpt lat="48.45351" lon="6.90932">
        <ele>404.849</ele>
        <time>2009-10-28T09:07:16Z</time>
      </trkpt>
      <trkpt lat="48.45319" lon="6.90876">
        <ele>404.29</ele>
        <time>2009-10-28T09:07:26Z</time>
      </trkpt>
      <trkpt lat="48.45288" lon="6.9082">
        <ele>403.51</ele>
        <time>2009-10-28T09:07:36Z</time>
      </trkpt>
      <trkpt lat="48.45254" lon="6.90765">
        <ele>402.609</ele>
        <time>2009-10-28T09:07:46Z</time>
      </trkpt>
      <trkpt lat="48.45226" lon="6.90714">
        <ele>401.798</ele>
        <time>2009-10-28T09:07:55Z</time>
      </trkpt>
      <trkpt lat="48.45212" lon="6.90684">
        <ele>402.179</ele>
        <time>2009-10-28T09:08:00Z</time>
      </trkpt>
      <trkpt lat="48.45207" lon="6.90664">
        <ele>402.059</ele>
        <time>2009-10-28T09:08:03Z</time>
      </trkpt>
      <trkpt lat="48.45209" lon="6.90637">
        <ele>402.259</ele>
        <time>2009-10-28T09:08:07Z</time>
      </trkpt>
      <trkpt lat="48.45223" lon="6.9062">
        <ele>402.35</ele>
        <time>2009-10-28T09:08:11Z</time>
      </trkpt>
      <trkpt lat="48.45244" lon="6.90608">
        <ele>404.581</ele>
        <time>2009-10-28T09:08:16Z</time>
      </trkpt>
      <trkpt lat="48.45264" lon="6.90599">
        <ele>406.781</ele>
        <time>2009-10-28T09:08:21Z</time>
      </trkpt>
      <trkpt lat="48.45292" lon="6.90592">
        <ele>409.592</ele>
        <time>2009-10-28T09:08:28Z</time>
      </trkpt>
      <trkpt lat="48.45323" lon="6.90593">
        <ele>411.721</ele>
        <time>2009-10-28T09:08:35Z</time>
      </trkpt>
      <trkpt lat="48.45349" lon="6.90599">
        <ele>411.801</ele>
        <time>2009-10-28T09:08:41Z</time>
      </trkpt>
      <trkpt lat="48.45381" lon="6.90609">
        <ele>414.551</ele>
        <time>2009-10-28T09:08:48Z</time>
      </trkpt>
      <trkpt lat="48.45385" lon="6.90611">
        <ele>414.671</ele>
        <time>2009-10-28T09:08:49Z</time>
      </trkpt>
      <trkpt lat="48.45398" lon="6.90619">
        <ele>414.451</ele>
        <time>2009-10-28T09:08:52Z</time>
      </trkpt>
      <trkpt lat="48.45407" lon="6.90625">
        <ele>414.131</ele>
        <time>2009-10-28T09:08:54Z</time>
      </trkpt>
      <trkpt lat="48.45444" lon="6.90648">
        <ele>412.56</ele>
        <time>2009-10-28T09:09:02Z</time>
      </trkpt>
      <trkpt lat="48.45481" lon="6.90671">
        <ele>411.941</ele>
        <time>2009-10-28T09:09:10Z</time>
      </trkpt>
      <trkpt lat="48.45485" lon="6.90673">
        <ele>411.891</ele>
        <time>2009-10-28T09:09:11Z</time>
      </trkpt>
      <trkpt lat="48.45506" lon="6.90675">
        <ele>410.22</ele>
        <time>2009-10-28T09:09:16Z</time>
      </trkpt>
      <trkpt lat="48.45514" lon="6.9067">
        <ele>408.33</ele>
        <time>2009-10-28T09:09:21Z</time>
      </trkpt>
      <trkpt lat="48.45514" lon="6.9067">
        <ele>407.744</ele>
        <time>2009-10-28T09:09:22Z</time>
      </trkpt>
      <trkpt lat="48.45518" lon="6.90651">
        <ele>407.52</ele>
        <time>2009-10-28T09:09:35Z</time>
      </trkpt>
      <trkpt lat="48.45518" lon="6.90645">
        <ele>407.3</ele>
        <time>2009-10-28T09:09:36Z</time>
      </trkpt>
      <trkpt lat="48.45508" lon="6.90605">
        <ele>406.97</ele>
        <time>2009-10-28T09:09:43Z</time>
      </trkpt>
      <trkpt lat="48.45494" lon="6.90562">
        <ele>408.091</ele>
        <time>2009-10-28T09:09:51Z</time>
      </trkpt>
      <trkpt lat="48.45481" lon="6.90522">
        <ele>410.551</ele>
        <time>2009-10-28T09:09:59Z</time>
      </trkpt>
      <trkpt lat="48.45473" lon="6.90488">
        <ele>412.971</ele>
        <time>2009-10-28T09:10:06Z</time>
      </trkpt>
      <trkpt lat="48.45471" lon="6.90457">
        <ele>412.91</ele>
        <time>2009-10-28T09:10:12Z</time>
      </trkpt>
      <trkpt lat="48.45469" lon="6.90417">
        <ele>414.541</ele>
        <time>2009-10-28T09:10:20Z</time>
      </trkpt>
      <trkpt lat="48.45463" lon="6.90381">
        <ele>414.9</ele>
        <time>2009-10-28T09:10:27Z</time>
      </trkpt>
      <trkpt lat="48.45467" lon="6.90356">
        <ele>416.131</ele>
        <time>2009-10-28T09:10:32Z</time>
      </trkpt>
      <trkpt lat="48.45476" lon="6.90312">
        <ele>418.432</ele>
        <time>2009-10-28T09:10:41Z</time>
      </trkpt>
      <trkpt lat="48.45476" lon="6.90278">
        <ele>420.871</ele>
        <time>2009-10-28T09:10:48Z</time>
      </trkpt>
      <trkpt lat="48.45469" lon="6.90232">
        <ele>422.25</ele>
        <time>2009-10-28T09:10:57Z</time>
      </trkpt>
      <trkpt lat="48.45464" lon="6.902">
        <ele>424.001</ele>
        <time>2009-10-28T09:11:04Z</time>
      </trkpt>
      <trkpt lat="48.4546" lon="6.90153">
        <ele>424.651</ele>
        <time>2009-10-28T09:11:14Z</time>
      </trkpt>
      <trkpt lat="48.4546" lon="6.90137">
        <ele>425.791</ele>
        <time>2009-10-28T09:11:18Z</time>
      </trkpt>
      <trkpt lat="48.45467" lon="6.90135">
        <ele>426.49</ele>
        <time>2009-10-28T09:11:23Z</time>
      </trkpt>
      <trkpt lat="48.45473" lon="6.90136">
        <ele>426.801</ele>
        <time>2009-10-28T09:11:25Z</time>
      </trkpt>
      <trkpt lat="48.4549" lon="6.90141">
        <ele>426.911</ele>
        <time>2009-10-28T09:11:30Z</time>
      </trkpt>
      <trkpt lat="48.45516" lon="6.90147">
        <ele>429.121</ele>
        <time>2009-10-28T09:11:36Z</time>
      </trkpt>
      <trkpt lat="48.45537" lon="6.90146">
        <ele>430.741</ele>
        <time>2009-10-28T09:11:42Z</time>
      </trkpt>
      <trkpt lat="48.45552" lon="6.90149">
        <ele>430.581</ele>
        <time>2009-10-28T09:11:46Z</time>
      </trkpt>
      <trkpt lat="48.45569" lon="6.90161">
        <ele>431.771</ele>
        <time>2009-10-28T09:11:50Z</time>
      </trkpt>
      <trkpt lat="48.45579" lon="6.90176">
        <ele>433.341</ele>
        <time>2009-10-28T09:11:53Z</time>
      </trkpt>
      <trkpt lat="48.45605" lon="6.902">
        <ele>431.66</ele>
        <time>2009-10-28T09:11:59Z</time>
      </trkpt>
      <trkpt lat="48.4563" lon="6.90218">
        <ele>433.001</ele>
        <time>2009-10-28T09:12:05Z</time>
      </trkpt>
      <trkpt lat="48.45644" lon="6.9023">
        <ele>430.54</ele>
        <time>2009-10-28T09:12:09Z</time>
      </trkpt>
      <trkpt lat="48.45648" lon="6.90234">
        <ele>429.69</ele>
        <time>2009-10-28T09:12:10Z</time>
      </trkpt>
      <trkpt lat="48.4566" lon="6.90244">
        <ele>427.189</ele>
        <time>2009-10-28T09:12:13Z</time>
      </trkpt>
      <trkpt lat="48.45671" lon="6.9026">
        <ele>426.02</ele>
        <time>2009-10-28T09:12:16Z</time>
      </trkpt>
      <trkpt lat="48.45694" lon="6.90299">
        <ele>426.501</ele>
        <time>2009-10-28T09:12:24Z</time>
      </trkpt>
      <trkpt lat="48.45703" lon="6.9031">
        <ele>427.551</ele>
        <time>2009-10-28T09:12:27Z</time>
      </trkpt>
      <trkpt lat="48.45731" lon="6.90335">
        <ele>428.001</ele>
        <time>2009-10-28T09:12:35Z</time>
      </trkpt>
      <trkpt lat="48.45746" lon="6.90353">
        <ele>427.94</ele>
        <time>2009-10-28T09:12:40Z</time>
      </trkpt>
      <trkpt lat="48.45761" lon="6.90372">
        <ele>427.79</ele>
        <time>2009-10-28T09:12:45Z</time>
      </trkpt>
      <trkpt lat="48.45789" lon="6.9038">
        <ele>428.751</ele>
        <time>2009-10-28T09:12:51Z</time>
      </trkpt>
      <trkpt lat="48.45814" lon="6.90378">
        <ele>429.932</ele>
        <time>2009-10-28T09:12:56Z</time>
      </trkpt>
      <trkpt lat="48.45835" lon="6.90394">
        <ele>430.371</ele>
        <time>2009-10-28T09:13:01Z</time>
      </trkpt>
      <trkpt lat="48.45838" lon="6.904">
        <ele>430.171</ele>
        <time>2009-10-28T09:13:02Z</time>
      </trkpt>
      <trkpt lat="48.45852" lon="6.90439">
        <ele>427.44</ele>
        <time>2009-10-28T09:13:07Z</time>
      </trkpt>
      <trkpt lat="48.45855" lon="6.90457">
        <ele>425.99</ele>
        <time>2009-10-28T09:13:09Z</time>
      </trkpt>
      <trkpt lat="48.45856" lon="6.90476">
        <ele>424.92</ele>
        <time>2009-10-28T09:13:11Z</time>
      </trkpt>
      <trkpt lat="48.45859" lon="6.90504">
        <ele>423.069</ele>
        <time>2009-10-28T09:13:14Z</time>
      </trkpt>
      <trkpt lat="48.45866" lon="6.90563">
        <ele>420.069</ele>
        <time>2009-10-28T09:13:20Z</time>
      </trkpt>
      <trkpt lat="48.45859" lon="6.90589">
        <ele>419.059</ele>
        <time>2009-10-28T09:13:23Z</time>
      </trkpt>
      <trkpt lat="48.45856" lon="6.90597">
        <ele>418.239</ele>
        <time>2009-10-28T09:13:24Z</time>
      </trkpt>
      <trkpt lat="48.45846" lon="6.90647">
        <ele>414.649</ele>
        <time>2009-10-28T09:13:29Z</time>
      </trkpt>
      <trkpt lat="48.45848" lon="6.90703">
        <ele>411.769</ele>
        <time>2009-10-28T09:13:34Z</time>
      </trkpt>
      <trkpt lat="48.4585" lon="6.90726">
        <ele>411.53</ele>
        <time>2009-10-28T09:13:36Z</time>
      </trkpt>
      <trkpt lat="48.45843" lon="6.90749">
        <ele>411.99</ele>
        <time>2009-10-28T09:13:39Z</time>
      </trkpt>
      <trkpt lat="48.45824" lon="6.90768">
        <ele>410.689</ele>
        <time>2009-10-28T09:13:43Z</time>
      </trkpt>
      <trkpt lat="48.45818" lon="6.90799">
        <ele>408.589</ele>
        <time>2009-10-28T09:13:47Z</time>
      </trkpt>
      <trkpt lat="48.45822" lon="6.90863">
        <ele>406.469</ele>
        <time>2009-10-28T09:13:54Z</time>
      </trkpt>
      <trkpt lat="48.45829" lon="6.9092">
        <ele>406.07</ele>
        <time>2009-10-28T09:14:01Z</time>
      </trkpt>
      <trkpt lat="48.45831" lon="6.90936">
        <ele>405.94</ele>
        <time>2009-10-28T09:14:03Z</time>
      </trkpt>
      <trkpt lat="48.45832" lon="6.90952">
        <ele>406.84</ele>
        <time>2009-10-28T09:14:05Z</time>
      </trkpt>
      <trkpt lat="48.45829" lon="6.90993">
        <ele>410.552</ele>
        <time>2009-10-28T09:14:10Z</time>
      </trkpt>
      <trkpt lat="48.45829" lon="6.91">
        <ele>410.571</ele>
        <time>2009-10-28T09:14:11Z</time>
      </trkpt>
      <trkpt lat="48.45831" lon="6.91056">
        <ele>411.221</ele>
        <time>2009-10-28T09:14:18Z</time>
      </trkpt>
      <trkpt lat="48.45829" lon="6.91086">
        <ele>409.29</ele>
        <time>2009-10-28T09:14:22Z</time>
      </trkpt>
      <trkpt lat="48.45829" lon="6.91101">
        <ele>409.261</ele>
        <time>2009-10-28T09:14:24Z</time>
      </trkpt>
      <trkpt lat="48.45832" lon="6.91153">
        <ele>409.171</ele>
        <time>2009-10-28T09:14:31Z</time>
      </trkpt>
      <trkpt lat="48.45835" lon="6.91169">
        <ele>410.071</ele>
        <time>2009-10-28T09:14:33Z</time>
      </trkpt>
      <trkpt lat="48.45837" lon="6.91184">
        <ele>411.132</ele>
        <time>2009-10-28T09:14:35Z</time>
      </trkpt>
      <trkpt lat="48.45847" lon="6.91217">
        <ele>411.122</ele>
        <time>2009-10-28T09:14:40Z</time>
      </trkpt>
      <trkpt lat="48.4586" lon="6.9124">
        <ele>412.842</ele>
        <time>2009-10-28T09:14:44Z</time>
      </trkpt>
      <trkpt lat="48.45868" lon="6.91252">
        <ele>412.782</ele>
        <time>2009-10-28T09:14:46Z</time>
      </trkpt>
      <trkpt lat="48.45891" lon="6.91298">
        <ele>412.671</ele>
        <time>2009-10-28T09:14:53Z</time>
      </trkpt>
      <trkpt lat="48.45911" lon="6.91333">
        <ele>411.971</ele>
        <time>2009-10-28T09:14:59Z</time>
      </trkpt>
      <trkpt lat="48.45915" lon="6.91338">
        <ele>411.871</ele>
        <time>2009-10-28T09:15:00Z</time>
      </trkpt>
      <trkpt lat="48.45932" lon="6.91353">
        <ele>413.061</ele>
        <time>2009-10-28T09:15:04Z</time>
      </trkpt>
      <trkpt lat="48.45959" lon="6.9136">
        <ele>413.581</ele>
        <time>2009-10-28T09:15:10Z</time>
      </trkpt>
      <trkpt lat="48.45977" lon="6.9137">
        <ele>414.171</ele>
        <time>2009-10-28T09:15:14Z</time>
      </trkpt>
      <trkpt lat="48.46005" lon="6.91401">
        <ele>415.761</ele>
        <time>2009-10-28T09:15:21Z</time>
      </trkpt>
      <trkpt lat="48.46009" lon="6.91405">
        <ele>415.911</ele>
        <time>2009-10-28T09:15:22Z</time>
      </trkpt>
      <trkpt lat="48.46022" lon="6.91425">
        <ele>415.691</ele>
        <time>2009-10-28T09:15:26Z</time>
      </trkpt>
      <trkpt lat="48.46041" lon="6.9145">
        <ele>416.091</ele>
        <time>2009-10-28T09:15:31Z</time>
      </trkpt>
      <trkpt lat="48.46051" lon="6.91458">
        <ele>416.322</ele>
        <time>2009-10-28T09:15:33Z</time>
      </trkpt>
      <trkpt lat="48.46061" lon="6.91464">
        <ele>416.781</ele>
        <time>2009-10-28T09:15:35Z</time>
      </trkpt>
      <trkpt lat="48.46081" lon="6.91474">
        <ele>419.202</ele>
        <time>2009-10-28T09:15:39Z</time>
      </trkpt>
      <trkpt lat="48.46091" lon="6.91478">
        <ele>419.102</ele>
        <time>2009-10-28T09:15:41Z</time>
      </trkpt>
      <trkpt lat="48.46119" lon="6.91495">
        <ele>421.212</ele>
        <time>2009-10-28T09:15:47Z</time>
      </trkpt>
      <trkpt lat="48.46153" lon="6.91516">
        <ele>422.253</ele>
        <time>2009-10-28T09:15:54Z</time>
      </trkpt>
      <trkpt lat="48.46172" lon="6.91525">
        <ele>419.402</ele>
        <time>2009-10-28T09:15:58Z</time>
      </trkpt>
      <trkpt lat="48.46185" lon="6.91512">
        <ele>418.032</ele>
        <time>2009-10-28T09:16:02Z</time>
      </trkpt>
      <trkpt lat="48.46186" lon="6.91499">
        <ele>417.061</ele>
        <time>2009-10-28T09:16:04Z</time>
      </trkpt>
      <trkpt lat="48.46185" lon="6.91455">
        <ele>414.871</ele>
        <time>2009-10-28T09:16:10Z</time>
      </trkpt>
      <trkpt lat="48.46181" lon="6.91426">
        <ele>413.75</ele>
        <time>2009-10-28T09:16:14Z</time>
      </trkpt>
      <trkpt lat="48.46178" lon="6.91396">
        <ele>412.99</ele>
        <time>2009-10-28T09:16:18Z</time>
      </trkpt>
      <trkpt lat="48.46169" lon="6.9136">
        <ele>412.591</ele>
        <time>2009-10-28T09:16:23Z</time>
      </trkpt>
      <trkpt lat="48.46156" lon="6.91307">
        <ele>411.721</ele>
        <time>2009-10-28T09:16:30Z</time>
      </trkpt>
      <trkpt lat="48.46154" lon="6.913">
        <ele>411.761</ele>
        <time>2009-10-28T09:16:31Z</time>
      </trkpt>
      <trkpt lat="48.46152" lon="6.91285">
        <ele>411.541</ele>
        <time>2009-10-28T09:16:33Z</time>
      </trkpt>
      <trkpt lat="48.46149" lon="6.9124">
        <ele>409.47</ele>
        <time>2009-10-28T09:16:39Z</time>
      </trkpt>
      <trkpt lat="48.46143" lon="6.91187">
        <ele>408.24</ele>
        <time>2009-10-28T09:16:46Z</time>
      </trkpt>
      <trkpt lat="48.46135" lon="6.9112">
        <ele>406.729</ele>
        <time>2009-10-28T09:16:54Z</time>
      </trkpt>
      <trkpt lat="48.46121" lon="6.91054">
        <ele>405.04</ele>
        <time>2009-10-28T09:17:02Z</time>
      </trkpt>
      <trkpt lat="48.46119" lon="6.91029">
        <ele>404.81</ele>
        <time>2009-10-28T09:17:05Z</time>
      </trkpt>
      <trkpt lat="48.46122" lon="6.9098">
        <ele>406.391</ele>
        <time>2009-10-28T09:17:11Z</time>
      </trkpt>
      <trkpt lat="48.46122" lon="6.90966">
        <ele>406.842</ele>
        <time>2009-10-28T09:17:13Z</time>
      </trkpt>
      <trkpt lat="48.46121" lon="6.90925">
        <ele>409.342</ele>
        <time>2009-10-28T09:17:20Z</time>
      </trkpt>
      <trkpt lat="48.46126" lon="6.90909">
        <ele>409.922</ele>
        <time>2009-10-28T09:17:24Z</time>
      </trkpt>
      <trkpt lat="48.46141" lon="6.90893">
        <ele>409.951</ele>
        <time>2009-10-28T09:17:29Z</time>
      </trkpt>
      <trkpt lat="48.46153" lon="6.90874">
        <ele>410.412</ele>
        <time>2009-10-28T09:17:34Z</time>
      </trkpt>
      <trkpt lat="48.4615" lon="6.9085">
        <ele>411.791</ele>
        <time>2009-10-28T09:17:41Z</time>
      </trkpt>
      <trkpt lat="48.46143" lon="6.90841">
        <ele>413.211</ele>
        <time>2009-10-28T09:17:47Z</time>
      </trkpt>
      <trkpt lat="48.46142" lon="6.90839">
        <ele>413.471</ele>
        <time>2009-10-28T09:17:48Z</time>
      </trkpt>
      <trkpt lat="48.46126" lon="6.90829">
        <ele>413.621</ele>
        <time>2009-10-28T09:17:54Z</time>
      </trkpt>
      <trkpt lat="48.46101" lon="6.90816">
        <ele>412.6</ele>
        <time>2009-10-28T09:18:02Z</time>
      </trkpt>
      <trkpt lat="48.46089" lon="6.90811">
        <ele>412.521</ele>
        <time>2009-10-28T09:18:05Z</time>
      </trkpt>
      <trkpt lat="48.46072" lon="6.90791">
        <ele>413.131</ele>
        <time>2009-10-28T09:18:10Z</time>
      </trkpt>
      <trkpt lat="48.46059" lon="6.90751">
        <ele>412.791</ele>
        <time>2009-10-28T09:18:17Z</time>
      </trkpt>
      <trkpt lat="48.46054" lon="6.90729">
        <ele>414.502</ele>
        <time>2009-10-28T09:18:21Z</time>
      </trkpt>
      <trkpt lat="48.46057" lon="6.90717">
        <ele>414.662</ele>
        <time>2009-10-28T09:18:23Z</time>
      </trkpt>
      <trkpt lat="48.46073" lon="6.90679">
        <ele>414.772</ele>
        <time>2009-10-28T09:18:31Z</time>
      </trkpt>
      <trkpt lat="48.46081" lon="6.90653">
        <ele>415.542</ele>
        <time>2009-10-28T09:18:36Z</time>
      </trkpt>
      <trkpt lat="48.46093" lon="6.90628">
        <ele>414.731</ele>
        <time>2009-10-28T09:18:41Z</time>
      </trkpt>
      <trkpt lat="48.46101" lon="6.90596">
        <ele>412.93</ele>
        <time>2009-10-28T09:18:47Z</time>
      </trkpt>
      <trkpt lat="48.46102" lon="6.9059">
        <ele>412.4</ele>
        <time>2009-10-28T09:18:48Z</time>
      </trkpt>
      <trkpt lat="48.46103" lon="6.90534">
        <ele>410.789</ele>
        <time>2009-10-28T09:18:55Z</time>
      </trkpt>
      <trkpt lat="48.46101" lon="6.90481">
        <ele>409.129</ele>
        <time>2009-10-28T09:19:01Z</time>
      </trkpt>
      <trkpt lat="48.46092" lon="6.90434">
        <ele>408.34</ele>
        <time>2009-10-28T09:19:06Z</time>
      </trkpt>
      <trkpt lat="48.46086" lon="6.90372">
        <ele>405.959</ele>
        <time>2009-10-28T09:19:12Z</time>
      </trkpt>
      <trkpt lat="48.46089" lon="6.90313">
        <ele>402.679</ele>
        <time>2009-10-28T09:19:18Z</time>
      </trkpt>
      <trkpt lat="48.4609" lon="6.90287">
        <ele>400.36</ele>
        <time>2009-10-28T09:19:23Z</time>
      </trkpt>
      <trkpt lat="48.46086" lon="6.90272">
        <ele>399.97</ele>
        <time>2009-10-28T09:19:28Z</time>
      </trkpt>
      <trkpt lat="48.46075" lon="6.9025">
        <ele>399.64</ele>
        <time>2009-10-28T09:19:34Z</time>
      </trkpt>
      <trkpt lat="48.46066" lon="6.90234">
        <ele>399.309</ele>
        <time>2009-10-28T09:19:37Z</time>
      </trkpt>
      <trkpt lat="48.46035" lon="6.90207">
        <ele>398.55</ele>
        <time>2009-10-28T09:19:44Z</time>
      </trkpt>
      <trkpt lat="48.46027" lon="6.90201">
        <ele>397.889</ele>
        <time>2009-10-28T09:19:46Z</time>
      </trkpt>
      <trkpt lat="48.46018" lon="6.90196">
        <ele>397.4</ele>
        <time>2009-10-28T09:19:48Z</time>
      </trkpt>
      <trkpt lat="48.46002" lon="6.90185">
        <ele>398.05</ele>
        <time>2009-10-28T09:19:52Z</time>
      </trkpt>
      <trkpt lat="48.45995" lon="6.90178">
        <ele>398.62</ele>
        <time>2009-10-28T09:19:54Z</time>
      </trkpt>
      <trkpt lat="48.45959" lon="6.90133">
        <ele>399.091</ele>
        <time>2009-10-28T09:20:04Z</time>
      </trkpt>
      <trkpt lat="48.45952" lon="6.90123">
        <ele>400.031</ele>
        <time>2009-10-28T09:20:06Z</time>
      </trkpt>
      <trkpt lat="48.45936" lon="6.90086">
        <ele>399.801</ele>
        <time>2009-10-28T09:20:12Z</time>
      </trkpt>
      <trkpt lat="48.45925" lon="6.90049">
        <ele>399.241</ele>
        <time>2009-10-28T09:20:17Z</time>
      </trkpt>
      <trkpt lat="48.45927" lon="6.90015">
        <ele>399.151</ele>
        <time>2009-10-28T09:20:21Z</time>
      </trkpt>
      <trkpt lat="48.45935" lon="6.89998">
        <ele>400.562</ele>
        <time>2009-10-28T09:20:24Z</time>
      </trkpt>
      <trkpt lat="48.45947" lon="6.89996">
        <ele>400.742</ele>
        <time>2009-10-28T09:20:27Z</time>
      </trkpt>
      <trkpt lat="48.4597" lon="6.90006">
        <ele>402.802</ele>
        <time>2009-10-28T09:20:33Z</time>
      </trkpt>
      <trkpt lat="48.4598" lon="6.90009">
        <ele>404.122</ele>
        <time>2009-10-28T09:20:37Z</time>
      </trkpt>
      <trkpt lat="48.45993" lon="6.90008">
        <ele>405.913</ele>
        <time>2009-10-28T09:20:42Z</time>
      </trkpt>
      <trkpt lat="48.46007" lon="6.89996">
        <ele>407.112</ele>
        <time>2009-10-28T09:20:48Z</time>
      </trkpt>
      <trkpt lat="48.46014" lon="6.89973">
        <ele>408.763</ele>
        <time>2009-10-28T09:20:55Z</time>
      </trkpt>
      <trkpt lat="48.46017" lon="6.89948">
        <ele>410.402</ele>
        <time>2009-10-28T09:21:01Z</time>
      </trkpt>
      <trkpt lat="48.4602" lon="6.89918">
        <ele>408.251</ele>
        <time>2009-10-28T09:21:08Z</time>
      </trkpt>
      <trkpt lat="48.46018" lon="6.89908">
        <ele>408.871</ele>
        <time>2009-10-28T09:21:13Z</time>
      </trkpt>
      <trkpt lat="48.46013" lon="6.89896">
        <ele>409.111</ele>
        <time>2009-10-28T09:21:19Z</time>
      </trkpt>
      <trkpt lat="48.46009" lon="6.89891">
        <ele>409.471</ele>
        <time>2009-10-28T09:21:22Z</time>
      </trkpt>
      <trkpt lat="48.46" lon="6.89874">
        <ele>408.28</ele>
        <time>2009-10-28T09:21:28Z</time>
      </trkpt>
      <trkpt lat="48.45996" lon="6.89865">
        <ele>408.691</ele>
        <time>2009-10-28T09:21:30Z</time>
      </trkpt>
      <trkpt lat="48.45983" lon="6.89829">
        <ele>410.021</ele>
        <time>2009-10-28T09:21:38Z</time>
      </trkpt>
      <trkpt lat="48.45973" lon="6.898">
        <ele>411.341</ele>
        <time>2009-10-28T09:21:44Z</time>
      </trkpt>
      <trkpt lat="48.45966" lon="6.89782">
        <ele>411.961</ele>
        <time>2009-10-28T09:21:50Z</time>
      </trkpt>
      <trkpt lat="48.45958" lon="6.89766">
        <ele>414.081</ele>
        <time>2009-10-28T09:21:56Z</time>
      </trkpt>
      <trkpt lat="48.45947" lon="6.89748">
        <ele>414.571</ele>
        <time>2009-10-28T09:22:02Z</time>
      </trkpt>
      <trkpt lat="48.45936" lon="6.89731">
        <ele>414.97</ele>
        <time>2009-10-28T09:22:08Z</time>
      </trkpt>
      <trkpt lat="48.45924" lon="6.89711">
        <ele>415.861</ele>
        <time>2009-10-28T09:22:14Z</time>
      </trkpt>
      <trkpt lat="48.45908" lon="6.89684">
        <ele>417.231</ele>
        <time>2009-10-28T09:22:22Z</time>
      </trkpt>
      <trkpt lat="48.45893" lon="6.89665">
        <ele>418.721</ele>
        <time>2009-10-28T09:22:28Z</time>
      </trkpt>
      <trkpt lat="48.45878" lon="6.89654">
        <ele>420.111</ele>
        <time>2009-10-28T09:22:34Z</time>
      </trkpt>
      <trkpt lat="48.45867" lon="6.89641">
        <ele>419.751</ele>
        <time>2009-10-28T09:22:39Z</time>
      </trkpt>
      <trkpt lat="48.45852" lon="6.89613">
        <ele>421.112</ele>
        <time>2009-10-28T09:22:48Z</time>
      </trkpt>
      <trkpt lat="48.45846" lon="6.89602">
        <ele>421.061</ele>
        <time>2009-10-28T09:22:52Z</time>
      </trkpt>
      <trkpt lat="48.45833" lon="6.8958">
        <ele>420.551</ele>
        <time>2009-10-28T09:22:59Z</time>
      </trkpt>
      <trkpt lat="48.45821" lon="6.89557">
        <ele>420.261</ele>
        <time>2009-10-28T09:23:05Z</time>
      </trkpt>
      <trkpt lat="48.45805" lon="6.89529">
        <ele>423.743</ele>
        <time>2009-10-28T09:23:13Z</time>
      </trkpt>
      <trkpt lat="48.45793" lon="6.89507">
        <ele>424.211</ele>
        <time>2009-10-28T09:23:20Z</time>
      </trkpt>
      <trkpt lat="48.45783" lon="6.8949">
        <ele>424.301</ele>
        <time>2009-10-28T09:23:25Z</time>
      </trkpt>
      <trkpt lat="48.45769" lon="6.89473">
        <ele>424.391</ele>
        <time>2009-10-28T09:23:31Z</time>
      </trkpt>
      <trkpt lat="48.45753" lon="6.89461">
        <ele>425.311</ele>
        <time>2009-10-28T09:23:37Z</time>
      </trkpt>
      <trkpt lat="48.45743" lon="6.89445">
        <ele>425.541</ele>
        <time>2009-10-28T09:23:42Z</time>
      </trkpt>
      <trkpt lat="48.45745" lon="6.89425">
        <ele>424.981</ele>
        <time>2009-10-28T09:23:46Z</time>
      </trkpt>
      <trkpt lat="48.45756" lon="6.89395">
        <ele>425.762</ele>
        <time>2009-10-28T09:23:53Z</time>
      </trkpt>
      <trkpt lat="48.45763" lon="6.89364">
        <ele>427.112</ele>
        <time>2009-10-28T09:24:00Z</time>
      </trkpt>
      <trkpt lat="48.45768" lon="6.89331">
        <ele>428.632</ele>
        <time>2009-10-28T09:24:07Z</time>
      </trkpt>
      <trkpt lat="48.45774" lon="6.89294">
        <ele>429.311</ele>
        <time>2009-10-28T09:24:14Z</time>
      </trkpt>
      <trkpt lat="48.45778" lon="6.89266">
        <ele>431.342</ele>
        <time>2009-10-28T09:24:20Z</time>
      </trkpt>
      <trkpt lat="48.45782" lon="6.89235">
        <ele>433.561</ele>
        <time>2009-10-28T09:24:26Z</time>
      </trkpt>
      <trkpt lat="48.45788" lon="6.89208">
        <ele>430.52</ele>
        <time>2009-10-28T09:24:31Z</time>
      </trkpt>
      <trkpt lat="48.45794" lon="6.89179">
        <ele>429.2</ele>
        <time>2009-10-28T09:24:36Z</time>
      </trkpt>
      <trkpt lat="48.45797" lon="6.89154">
        <ele>427.479</ele>
        <time>2009-10-28T09:24:40Z</time>
      </trkpt>
      <trkpt lat="48.45801" lon="6.8912">
        <ele>428.059</ele>
        <time>2009-10-28T09:24:45Z</time>
      </trkpt>
      <trkpt lat="48.45802" lon="6.89113">
        <ele>427.659</ele>
        <time>2009-10-28T09:24:46Z</time>
      </trkpt>
      <trkpt lat="48.45807" lon="6.89085">
        <ele>426.13</ele>
        <time>2009-10-28T09:24:51Z</time>
      </trkpt>
      <trkpt lat="48.45812" lon="6.89057">
        <ele>424.93</ele>
        <time>2009-10-28T09:24:57Z</time>
      </trkpt>
      <trkpt lat="48.45816" lon="6.89037">
        <ele>425.361</ele>
        <time>2009-10-28T09:25:03Z</time>
      </trkpt>
      <trkpt lat="48.45824" lon="6.89027">
        <ele>425.891</ele>
        <time>2009-10-28T09:25:08Z</time>
      </trkpt>
      <trkpt lat="48.45838" lon="6.89018">
        <ele>425.031</ele>
        <time>2009-10-28T09:25:13Z</time>
      </trkpt>
      <trkpt lat="48.45853" lon="6.88996">
        <ele>425.381</ele>
        <time>2009-10-28T09:25:19Z</time>
      </trkpt>
      <trkpt lat="48.45874" lon="6.88964">
        <ele>424.21</ele>
        <time>2009-10-28T09:25:27Z</time>
      </trkpt>
      <trkpt lat="48.45898" lon="6.88928">
        <ele>426.141</ele>
        <time>2009-10-28T09:25:36Z</time>
      </trkpt>
      <trkpt lat="48.45904" lon="6.8892">
        <ele>426.341</ele>
        <time>2009-10-28T09:25:38Z</time>
      </trkpt>
      <trkpt lat="48.45926" lon="6.88884">
        <ele>425.82</ele>
        <time>2009-10-28T09:25:45Z</time>
      </trkpt>
      <trkpt lat="48.45941" lon="6.88864">
        <ele>425.48</ele>
        <time>2009-10-28T09:25:49Z</time>
      </trkpt>
      <trkpt lat="48.45945" lon="6.88859">
        <ele>424.899</ele>
        <time>2009-10-28T09:25:50Z</time>
      </trkpt>
      <trkpt lat="48.45955" lon="6.88843">
        <ele>424.28</ele>
        <time>2009-10-28T09:25:53Z</time>
      </trkpt>
      <trkpt lat="48.45973" lon="6.88815">
        <ele>424.371</ele>
        <time>2009-10-28T09:25:59Z</time>
      </trkpt>
      <trkpt lat="48.45986" lon="6.88803">
        <ele>424.471</ele>
        <time>2009-10-28T09:26:03Z</time>
      </trkpt>
      <trkpt lat="48.46001" lon="6.88791">
        <ele>426.112</ele>
        <time>2009-10-28T09:26:07Z</time>
      </trkpt>
      <trkpt lat="48.4602" lon="6.88777">
        <ele>427.181</ele>
        <time>2009-10-28T09:26:12Z</time>
      </trkpt>
      <trkpt lat="48.46042" lon="6.8876">
        <ele>428.481</ele>
        <time>2009-10-28T09:26:18Z</time>
      </trkpt>
      <trkpt lat="48.46064" lon="6.88749">
        <ele>428.101</ele>
        <time>2009-10-28T09:26:23Z</time>
      </trkpt>
      <trkpt lat="48.46079" lon="6.88744">
        <ele>425.91</ele>
        <time>2009-10-28T09:26:26Z</time>
      </trkpt>
      <trkpt lat="48.46095" lon="6.88739">
        <ele>422.439</ele>
        <time>2009-10-28T09:26:29Z</time>
      </trkpt>
      <trkpt lat="48.46127" lon="6.88717">
        <ele>417.647</ele>
        <time>2009-10-28T09:26:35Z</time>
      </trkpt>
      <trkpt lat="48.46156" lon="6.88683">
        <ele>408.066</ele>
        <time>2009-10-28T09:26:40Z</time>
      </trkpt>
      <trkpt lat="48.46183" lon="6.88646">
        <ele>405.417</ele>
        <time>2009-10-28T09:26:45Z</time>
      </trkpt>
      <trkpt lat="48.46209" lon="6.88615">
        <ele>408.05</ele>
        <time>2009-10-28T09:26:50Z</time>
      </trkpt>
      <trkpt lat="48.4623" lon="6.88602">
        <ele>408.671</ele>
        <time>2009-10-28T09:26:55Z</time>
      </trkpt>
      <trkpt lat="48.46238" lon="6.886">
        <ele>409.832</ele>
        <time>2009-10-28T09:27:00Z</time>
      </trkpt>
      <trkpt lat="48.46239" lon="6.886">
        <ele>410.402</ele>
        <time>2009-10-28T09:27:02Z</time>
      </trkpt>
      <trkpt lat="48.46241" lon="6.88602">
        <ele>412.802</ele>
        <time>2009-10-28T09:27:19Z</time>
      </trkpt>
      <trkpt lat="48.46243" lon="6.88603">
        <ele>415.193</ele>
        <time>2009-10-28T09:27:23Z</time>
      </trkpt>
      <trkpt lat="48.46237" lon="6.88604">
        <ele>415.551</ele>
        <time>2009-10-28T09:31:52Z</time>
      </trkpt>
      <trkpt lat="48.46239" lon="6.88619">
        <ele>411.401</ele>
        <time>2009-10-28T09:31:58Z</time>
      </trkpt>
      <trkpt lat="48.46241" lon="6.88623">
        <ele>410.344</ele>
        <time>2009-10-28T09:32:02Z</time>
      </trkpt>
      <trkpt lat="48.46257" lon="6.88639">
        <ele>415.291</ele>
        <time>2009-10-28T09:32:31Z</time>
      </trkpt>
      <trkpt lat="48.46265" lon="6.88651">
        <ele>415.271</ele>
        <time>2009-10-28T09:32:35Z</time>
      </trkpt>
      <trkpt lat="48.46268" lon="6.88654">
        <ele>414.311</ele>
        <time>2009-10-28T09:32:36Z</time>
      </trkpt>
      <trkpt lat="48.46286" lon="6.88662">
        <ele>413.87</ele>
        <time>2009-10-28T09:32:42Z</time>
      </trkpt>
      <trkpt lat="48.46296" lon="6.88666">
        <ele>414.692</ele>
        <time>2009-10-28T09:32:46Z</time>
      </trkpt>
      <trkpt lat="48.46308" lon="6.88686">
        <ele>415.631</ele>
        <time>2009-10-28T09:32:52Z</time>
      </trkpt>
      <trkpt lat="48.46313" lon="6.887">
        <ele>413.661</ele>
        <time>2009-10-28T09:32:56Z</time>
      </trkpt>
      <trkpt lat="48.46323" lon="6.8872">
        <ele>413.741</ele>
        <time>2009-10-28T09:33:01Z</time>
      </trkpt>
      <trkpt lat="48.46337" lon="6.88746">
        <ele>413.011</ele>
        <time>2009-10-28T09:33:07Z</time>
      </trkpt>
      <trkpt lat="48.46346" lon="6.88762">
        <ele>411.541</ele>
        <time>2009-10-28T09:33:11Z</time>
      </trkpt>
      <trkpt lat="48.46356" lon="6.88789">
        <ele>409.381</ele>
        <time>2009-10-28T09:33:16Z</time>
      </trkpt>
      <trkpt lat="48.46365" lon="6.88817">
        <ele>408.451</ele>
        <time>2009-10-28T09:33:21Z</time>
      </trkpt>
      <trkpt lat="48.46367" lon="6.88838">
        <ele>408.001</ele>
        <time>2009-10-28T09:33:25Z</time>
      </trkpt>
      <trkpt lat="48.46376" lon="6.88861">
        <ele>408.461</ele>
        <time>2009-10-28T09:33:30Z</time>
      </trkpt>
      <trkpt lat="48.46389" lon="6.88891">
        <ele>408.731</ele>
        <time>2009-10-28T09:33:36Z</time>
      </trkpt>
      <trkpt lat="48.46397" lon="6.88919">
        <ele>409.922</ele>
        <time>2009-10-28T09:33:41Z</time>
      </trkpt>
      <trkpt lat="48.46407" lon="6.88937">
        <ele>411.362</ele>
        <time>2009-10-28T09:33:45Z</time>
      </trkpt>
      <trkpt lat="48.46423" lon="6.88959">
        <ele>413.753</ele>
        <time>2009-10-28T09:33:51Z</time>
      </trkpt>
      <trkpt lat="48.46436" lon="6.88976">
        <ele>417.082</ele>
        <time>2009-10-28T09:33:56Z</time>
      </trkpt>
      <trkpt lat="48.46453" lon="6.8899">
        <ele>419.273</ele>
        <time>2009-10-28T09:34:02Z</time>
      </trkpt>
      <trkpt lat="48.46452" lon="6.89002">
        <ele>419.652</ele>
        <time>2009-10-28T09:34:06Z</time>
      </trkpt>
      <trkpt lat="48.4645" lon="6.89011">
        <ele>419.551</ele>
        <time>2009-10-28T09:34:08Z</time>
      </trkpt>
      <trkpt lat="48.46446" lon="6.89023">
        <ele>419.732</ele>
        <time>2009-10-28T09:34:10Z</time>
      </trkpt>
      <trkpt lat="48.46439" lon="6.89065">
        <ele>418.291</ele>
        <time>2009-10-28T09:34:16Z</time>
      </trkpt>
      <trkpt lat="48.46434" lon="6.8908">
        <ele>417.351</ele>
        <time>2009-10-28T09:34:18Z</time>
      </trkpt>
      <trkpt lat="48.46418" lon="6.89107">
        <ele>414.089</ele>
        <time>2009-10-28T09:34:22Z</time>
      </trkpt>
      <trkpt lat="48.46401" lon="6.89128">
        <ele>410.579</ele>
        <time>2009-10-28T09:34:26Z</time>
      </trkpt>
      <trkpt lat="48.46398" lon="6.89146">
        <ele>408.72</ele>
        <time>2009-10-28T09:34:29Z</time>
      </trkpt>
      <trkpt lat="48.46401" lon="6.89154">
        <ele>407.47</ele>
        <time>2009-10-28T09:34:31Z</time>
      </trkpt>
      <trkpt lat="48.46418" lon="6.89178">
        <ele>408.493</ele>
        <time>2009-10-28T09:34:37Z</time>
      </trkpt>
      <trkpt lat="48.46425" lon="6.89186">
        <ele>409.733</ele>
        <time>2009-10-28T09:34:39Z</time>
      </trkpt>
      <trkpt lat="48.46433" lon="6.89208">
        <ele>410.193</ele>
        <time>2009-10-28T09:34:44Z</time>
      </trkpt>
      <trkpt lat="48.4645" lon="6.89225">
        <ele>410.282</ele>
        <time>2009-10-28T09:34:49Z</time>
      </trkpt>
      <trkpt lat="48.46464" lon="6.89236">
        <ele>410.732</ele>
        <time>2009-10-28T09:34:53Z</time>
      </trkpt>
      <trkpt lat="48.46467" lon="6.89255">
        <ele>411.722</ele>
        <time>2009-10-28T09:34:57Z</time>
      </trkpt>
      <trkpt lat="48.46464" lon="6.89276">
        <ele>412.522</ele>
        <time>2009-10-28T09:35:01Z</time>
      </trkpt>
      <trkpt lat="48.4647" lon="6.89284">
        <ele>412.582</ele>
        <time>2009-10-28T09:35:05Z</time>
      </trkpt>
      <trkpt lat="48.46485" lon="6.89299">
        <ele>411.742</ele>
        <time>2009-10-28T09:35:11Z</time>
      </trkpt>
      <trkpt lat="48.4649" lon="6.89303">
        <ele>410.171</ele>
        <time>2009-10-28T09:35:13Z</time>
      </trkpt>
      <trkpt lat="48.46511" lon="6.8929">
        <ele>403.749</ele>
        <time>2009-10-28T09:35:18Z</time>
      </trkpt>
      <trkpt lat="48.46536" lon="6.89252">
        <ele>398.377</ele>
        <time>2009-10-28T09:35:23Z</time>
      </trkpt>
      <trkpt lat="48.46553" lon="6.89231">
        <ele>395.658</ele>
        <time>2009-10-28T09:35:26Z</time>
      </trkpt>
      <trkpt lat="48.46561" lon="6.89217">
        <ele>393.209</ele>
        <time>2009-10-28T09:35:30Z</time>
      </trkpt>
      <trkpt lat="48.46563" lon="6.89217">
        <ele>392.049</ele>
        <time>2009-10-28T09:35:31Z</time>
      </trkpt>
      <trkpt lat="48.46577" lon="6.89216">
        <ele>388.978</ele>
        <time>2009-10-28T09:35:35Z</time>
      </trkpt>
      <trkpt lat="48.4659" lon="6.8921">
        <ele>391.861</ele>
        <time>2009-10-28T09:35:39Z</time>
      </trkpt>
      <trkpt lat="48.466" lon="6.89213">
        <ele>392.921</ele>
        <time>2009-10-28T09:35:42Z</time>
      </trkpt>
      <trkpt lat="48.46614" lon="6.89224">
        <ele>395.412</ele>
        <time>2009-10-28T09:35:46Z</time>
      </trkpt>
      <trkpt lat="48.46632" lon="6.89238">
        <ele>400.814</ele>
        <time>2009-10-28T09:35:51Z</time>
      </trkpt>
      <trkpt lat="48.46635" lon="6.8924">
        <ele>401.043</ele>
        <time>2009-10-28T09:35:52Z</time>
      </trkpt>
      <trkpt lat="48.46649" lon="6.89265">
        <ele>401.623</ele>
        <time>2009-10-28T09:35:59Z</time>
      </trkpt>
      <trkpt lat="48.46662" lon="6.8928">
        <ele>402.413</ele>
        <time>2009-10-28T09:36:04Z</time>
      </trkpt>
      <trkpt lat="48.46675" lon="6.89293">
        <ele>403.493</ele>
        <time>2009-10-28T09:36:09Z</time>
      </trkpt>
      <trkpt lat="48.46679" lon="6.89299">
        <ele>404.323</ele>
        <time>2009-10-28T09:36:11Z</time>
      </trkpt>
      <trkpt lat="48.46689" lon="6.89321">
        <ele>406.043</ele>
        <time>2009-10-28T09:36:17Z</time>
      </trkpt>
      <trkpt lat="48.46696" lon="6.89344">
        <ele>404.722</ele>
        <time>2009-10-28T09:36:22Z</time>
      </trkpt>
      <trkpt lat="48.46701" lon="6.89368">
        <ele>403.912</ele>
        <time>2009-10-28T09:36:27Z</time>
      </trkpt>
      <trkpt lat="48.46705" lon="6.89385">
        <ele>403.162</ele>
        <time>2009-10-28T09:36:31Z</time>
      </trkpt>
      <trkpt lat="48.46711" lon="6.89404">
        <ele>402.882</ele>
        <time>2009-10-28T09:36:35Z</time>
      </trkpt>
      <trkpt lat="48.46717" lon="6.89434">
        <ele>402.691</ele>
        <time>2009-10-28T09:36:40Z</time>
      </trkpt>
      <trkpt lat="48.46731" lon="6.89468">
        <ele>403.462</ele>
        <time>2009-10-28T09:36:47Z</time>
      </trkpt>
      <trkpt lat="48.46742" lon="6.89485">
        <ele>404.823</ele>
        <time>2009-10-28T09:36:52Z</time>
      </trkpt>
      <trkpt lat="48.46755" lon="6.89509">
        <ele>405.423</ele>
        <time>2009-10-28T09:36:58Z</time>
      </trkpt>
      <trkpt lat="48.46766" lon="6.89532">
        <ele>411.654</ele>
        <time>2009-10-28T09:37:03Z</time>
      </trkpt>
      <trkpt lat="48.46777" lon="6.89544">
        <ele>414.274</ele>
        <time>2009-10-28T09:37:07Z</time>
      </trkpt>
      <trkpt lat="48.46789" lon="6.89566">
        <ele>416.093</ele>
        <time>2009-10-28T09:37:12Z</time>
      </trkpt>
      <trkpt lat="48.46801" lon="6.89582">
        <ele>417.493</ele>
        <time>2009-10-28T09:37:17Z</time>
      </trkpt>
      <trkpt lat="48.46812" lon="6.89595">
        <ele>415.482</ele>
        <time>2009-10-28T09:37:21Z</time>
      </trkpt>
      <trkpt lat="48.46816" lon="6.8961">
        <ele>413.201</ele>
        <time>2009-10-28T09:37:25Z</time>
      </trkpt>
      <trkpt lat="48.4682" lon="6.89629">
        <ele>409.32</ele>
        <time>2009-10-28T09:37:29Z</time>
      </trkpt>
      <trkpt lat="48.46833" lon="6.89652">
        <ele>407.261</ele>
        <time>2009-10-28T09:37:35Z</time>
      </trkpt>
      <trkpt lat="48.46846" lon="6.89665">
        <ele>408.181</ele>
        <time>2009-10-28T09:37:38Z</time>
      </trkpt>
      <trkpt lat="48.46862" lon="6.89661">
        <ele>407.171</ele>
        <time>2009-10-28T09:37:42Z</time>
      </trkpt>
      <trkpt lat="48.4687" lon="6.89655">
        <ele>410.172</ele>
        <time>2009-10-28T09:37:45Z</time>
      </trkpt>
      <trkpt lat="48.46889" lon="6.8964">
        <ele>410.413</ele>
        <time>2009-10-28T09:37:51Z</time>
      </trkpt>
      <trkpt lat="48.46904" lon="6.89626">
        <ele>411.552</ele>
        <time>2009-10-28T09:37:57Z</time>
      </trkpt>
      <trkpt lat="48.4692" lon="6.89617">
        <ele>412.253</ele>
        <time>2009-10-28T09:38:02Z</time>
      </trkpt>
      <trkpt lat="48.46934" lon="6.89613">
        <ele>412.663</ele>
        <time>2009-10-28T09:38:06Z</time>
      </trkpt>
      <trkpt lat="48.46948" lon="6.89608">
        <ele>412.263</ele>
        <time>2009-10-28T09:38:10Z</time>
      </trkpt>
      <trkpt lat="48.46958" lon="6.89602">
        <ele>412.253</ele>
        <time>2009-10-28T09:38:14Z</time>
      </trkpt>
      <trkpt lat="48.46975" lon="6.89582">
        <ele>414.134</ele>
        <time>2009-10-28T09:38:21Z</time>
      </trkpt>
      <trkpt lat="48.46984" lon="6.89567">
        <ele>415.043</ele>
        <time>2009-10-28T09:38:26Z</time>
      </trkpt>
      <trkpt lat="48.46994" lon="6.89554">
        <ele>414.992</ele>
        <time>2009-10-28T09:38:32Z</time>
      </trkpt>
      <trkpt lat="48.47004" lon="6.89537">
        <ele>414.662</ele>
        <time>2009-10-28T09:38:37Z</time>
      </trkpt>
      <trkpt lat="48.47009" lon="6.89506">
        <ele>413.492</ele>
        <time>2009-10-28T09:38:43Z</time>
      </trkpt>
      <trkpt lat="48.47012" lon="6.89497">
        <ele>412.841</ele>
        <time>2009-10-28T09:38:45Z</time>
      </trkpt>
      <trkpt lat="48.4703" lon="6.89482">
        <ele>408.869</ele>
        <time>2009-10-28T09:38:50Z</time>
      </trkpt>
      <trkpt lat="48.47054" lon="6.89461">
        <ele>405.54</ele>
        <time>2009-10-28T09:38:56Z</time>
      </trkpt>
      <trkpt lat="48.4707" lon="6.89457">
        <ele>404.612</ele>
        <time>2009-10-28T09:39:00Z</time>
      </trkpt>
      <trkpt lat="48.47091" lon="6.89451">
        <ele>405.194</ele>
        <time>2009-10-28T09:39:06Z</time>
      </trkpt>
      <trkpt lat="48.47112" lon="6.8945">
        <ele>406.714</ele>
        <time>2009-10-28T09:39:12Z</time>
      </trkpt>
      <trkpt lat="48.47131" lon="6.89454">
        <ele>407.974</ele>
        <time>2009-10-28T09:39:18Z</time>
      </trkpt>
      <trkpt lat="48.47147" lon="6.89458">
        <ele>408.774</ele>
        <time>2009-10-28T09:39:23Z</time>
      </trkpt>
      <trkpt lat="48.47169" lon="6.89463">
        <ele>409.794</ele>
        <time>2009-10-28T09:39:30Z</time>
      </trkpt>
      <trkpt lat="48.47181" lon="6.89478">
        <ele>409.522</ele>
        <time>2009-10-28T09:39:36Z</time>
      </trkpt>
      <trkpt lat="48.47188" lon="6.89488">
        <ele>409.273</ele>
        <time>2009-10-28T09:39:41Z</time>
      </trkpt>
      <trkpt lat="48.47193" lon="6.89493">
        <ele>409.503</ele>
        <time>2009-10-28T09:39:44Z</time>
      </trkpt>
      <trkpt lat="48.47205" lon="6.89508">
        <ele>409.463</ele>
        <time>2009-10-28T09:39:49Z</time>
      </trkpt>
      <trkpt lat="48.47211" lon="6.89523">
        <ele>409.263</ele>
        <time>2009-10-28T09:39:54Z</time>
      </trkpt>
      <trkpt lat="48.47212" lon="6.89532">
        <ele>408.652</ele>
        <time>2009-10-28T09:39:56Z</time>
      </trkpt>
      <trkpt lat="48.47212" lon="6.89546">
        <ele>407.872</ele>
        <time>2009-10-28T09:39:58Z</time>
      </trkpt>
      <trkpt lat="48.47214" lon="6.89603">
        <ele>405.131</ele>
        <time>2009-10-28T09:40:04Z</time>
      </trkpt>
      <trkpt lat="48.4721" lon="6.89656">
        <ele>403.341</ele>
        <time>2009-10-28T09:40:09Z</time>
      </trkpt>
      <trkpt lat="48.47206" lon="6.89678">
        <ele>402.291</ele>
        <time>2009-10-28T09:40:11Z</time>
      </trkpt>
      <trkpt lat="48.47194" lon="6.89718">
        <ele>400.602</ele>
        <time>2009-10-28T09:40:16Z</time>
      </trkpt>
      <trkpt lat="48.4719" lon="6.89731">
        <ele>400.252</ele>
        <time>2009-10-28T09:40:18Z</time>
      </trkpt>
      <trkpt lat="48.47182" lon="6.89754">
        <ele>399.642</ele>
        <time>2009-10-28T09:40:22Z</time>
      </trkpt>
      <trkpt lat="48.47166" lon="6.89805">
        <ele>398.312</ele>
        <time>2009-10-28T09:40:30Z</time>
      </trkpt>
      <trkpt lat="48.4715" lon="6.89853">
        <ele>396.542</ele>
        <time>2009-10-28T09:40:36Z</time>
      </trkpt>
      <trkpt lat="48.47142" lon="6.89881">
        <ele>395.362</ele>
        <time>2009-10-28T09:40:39Z</time>
      </trkpt>
      <trkpt lat="48.47133" lon="6.89905">
        <ele>394.342</ele>
        <time>2009-10-28T09:40:43Z</time>
      </trkpt>
      <trkpt lat="48.47128" lon="6.89919">
        <ele>393.592</ele>
        <time>2009-10-28T09:40:46Z</time>
      </trkpt>
      <trkpt lat="48.47115" lon="6.89962">
        <ele>391.942</ele>
        <time>2009-10-28T09:40:53Z</time>
      </trkpt>
      <trkpt lat="48.47111" lon="6.89973">
        <ele>391.552</ele>
        <time>2009-10-28T09:40:55Z</time>
      </trkpt>
      <trkpt lat="48.47098" lon="6.89988">
        <ele>390.231</ele>
        <time>2009-10-28T09:40:59Z</time>
      </trkpt>
      <trkpt lat="48.47093" lon="6.89989">
        <ele>389.861</ele>
        <time>2009-10-28T09:41:00Z</time>
      </trkpt>
      <trkpt lat="48.47067" lon="6.89994">
        <ele>388.472</ele>
        <time>2009-10-28T09:41:06Z</time>
      </trkpt>
      <trkpt lat="48.47059" lon="6.90008">
        <ele>388.703</ele>
        <time>2009-10-28T09:41:10Z</time>
      </trkpt>
      <trkpt lat="48.47056" lon="6.90041">
        <ele>388.663</ele>
        <time>2009-10-28T09:41:16Z</time>
      </trkpt>
      <trkpt lat="48.47056" lon="6.90056">
        <ele>387.972</ele>
        <time>2009-10-28T09:41:19Z</time>
      </trkpt>
      <trkpt lat="48.4706" lon="6.90069">
        <ele>387.482</ele>
        <time>2009-10-28T09:41:23Z</time>
      </trkpt>
      <trkpt lat="48.47073" lon="6.90083">
        <ele>386.763</ele>
        <time>2009-10-28T09:41:29Z</time>
      </trkpt>
      <trkpt lat="48.47075" lon="6.90087">
        <ele>386.763</ele>
        <time>2009-10-28T09:41:30Z</time>
      </trkpt>
      <trkpt lat="48.4707" lon="6.90106">
        <ele>386.552</ele>
        <time>2009-10-28T09:41:34Z</time>
      </trkpt>
      <trkpt lat="48.47063" lon="6.90129">
        <ele>386.412</ele>
        <time>2009-10-28T09:41:39Z</time>
      </trkpt>
      <trkpt lat="48.47058" lon="6.90141">
        <ele>386.042</ele>
        <time>2009-10-28T09:41:46Z</time>
      </trkpt>
      <trkpt lat="48.47057" lon="6.90142">
        <ele>385.922</ele>
        <time>2009-10-28T09:41:47Z</time>
      </trkpt>
      <trkpt lat="48.47061" lon="6.90152">
        <ele>385.362</ele>
        <time>2009-10-28T09:41:53Z</time>
      </trkpt>
      <trkpt lat="48.47061" lon="6.90153">
        <ele>384.881</ele>
        <time>2009-10-28T09:41:56Z</time>
      </trkpt>
      <trkpt lat="48.47062" lon="6.90158">
        <ele>384.933</ele>
        <time>2009-10-28T09:42:00Z</time>
      </trkpt>
      <trkpt lat="48.47062" lon="6.90162">
        <ele>384.813</ele>
        <time>2009-10-28T09:42:02Z</time>
      </trkpt>
      <trkpt lat="48.4706" lon="6.90165">
        <ele>384.799</ele>
        <time>2009-10-28T09:42:08Z</time>
      </trkpt>
      <trkpt lat="48.47061" lon="6.9018">
        <ele>384.293</ele>
        <time>2009-10-28T09:44:12Z</time>
      </trkpt>
      <trkpt lat="48.47053" lon="6.90192">
        <ele>384.573</ele>
        <time>2009-10-28T09:44:16Z</time>
      </trkpt>
      <trkpt lat="48.47039" lon="6.90213">
        <ele>385.423</ele>
        <time>2009-10-28T09:44:22Z</time>
      </trkpt>
      <trkpt lat="48.47031" lon="6.90233">
        <ele>387.194</ele>
        <time>2009-10-28T09:44:27Z</time>
      </trkpt>
      <trkpt lat="48.47023" lon="6.90254">
        <ele>388.594</ele>
        <time>2009-10-28T09:44:33Z</time>
      </trkpt>
      <trkpt lat="48.47015" lon="6.90275">
        <ele>389.443</ele>
        <time>2009-10-28T09:44:39Z</time>
      </trkpt>
      <trkpt lat="48.47006" lon="6.90295">
        <ele>391.014</ele>
        <time>2009-10-28T09:44:45Z</time>
      </trkpt>
      <trkpt lat="48.46994" lon="6.90315">
        <ele>393.004</ele>
        <time>2009-10-28T09:44:51Z</time>
      </trkpt>
      <trkpt lat="48.46984" lon="6.90345">
        <ele>394.904</ele>
        <time>2009-10-28T09:44:57Z</time>
      </trkpt>
      <trkpt lat="48.46976" lon="6.90369">
        <ele>397.024</ele>
        <time>2009-10-28T09:45:02Z</time>
      </trkpt>
      <trkpt lat="48.46968" lon="6.90388">
        <ele>396.683</ele>
        <time>2009-10-28T09:45:07Z</time>
      </trkpt>
      <trkpt lat="48.46965" lon="6.90398">
        <ele>396.933</ele>
        <time>2009-10-28T09:45:09Z</time>
      </trkpt>
      <trkpt lat="48.46963" lon="6.90428">
        <ele>398.934</ele>
        <time>2009-10-28T09:45:15Z</time>
      </trkpt>
      <trkpt lat="48.46962" lon="6.90444">
        <ele>397.923</ele>
        <time>2009-10-28T09:45:18Z</time>
      </trkpt>
      <trkpt lat="48.46968" lon="6.90479">
        <ele>394.472</ele>
        <time>2009-10-28T09:45:24Z</time>
      </trkpt>
      <trkpt lat="48.46978" lon="6.90502">
        <ele>393.292</ele>
        <time>2009-10-28T09:45:29Z</time>
      </trkpt>
      <trkpt lat="48.46986" lon="6.90523">
        <ele>392.782</ele>
        <time>2009-10-28T09:45:34Z</time>
      </trkpt>
      <trkpt lat="48.46997" lon="6.90543">
        <ele>392.752</ele>
        <time>2009-10-28T09:45:39Z</time>
      </trkpt>
      <trkpt lat="48.47003" lon="6.9056">
        <ele>391.842</ele>
        <time>2009-10-28T09:45:43Z</time>
      </trkpt>
      <trkpt lat="48.47013" lon="6.90587">
        <ele>389.201</ele>
        <time>2009-10-28T09:45:49Z</time>
      </trkpt>
      <trkpt lat="48.4702" lon="6.90609">
        <ele>389.422</ele>
        <time>2009-10-28T09:45:54Z</time>
      </trkpt>
      <trkpt lat="48.47028" lon="6.90629">
        <ele>391.223</ele>
        <time>2009-10-28T09:45:59Z</time>
      </trkpt>
      <trkpt lat="48.47036" lon="6.90641">
        <ele>391.782</ele>
        <time>2009-10-28T09:46:03Z</time>
      </trkpt>
      <trkpt lat="48.47037" lon="6.90645">
        <ele>392.713</ele>
        <time>2009-10-28T09:46:05Z</time>
      </trkpt>
      <trkpt lat="48.47039" lon="6.90641">
        <ele>398.353</ele>
        <time>2009-10-28T09:46:09Z</time>
      </trkpt>
      <trkpt lat="48.47029" lon="6.9064">
        <ele>400.903</ele>
        <time>2009-10-28T09:46:13Z</time>
      </trkpt>
      <trkpt lat="48.47015" lon="6.90646">
        <ele>401.483</ele>
        <time>2009-10-28T09:46:17Z</time>
      </trkpt>
      <trkpt lat="48.47011" lon="6.90647">
        <ele>401.743</ele>
        <time>2009-10-28T09:46:18Z</time>
      </trkpt>
      <trkpt lat="48.46992" lon="6.90648">
        <ele>400.392</ele>
        <time>2009-10-28T09:46:22Z</time>
      </trkpt>
      <trkpt lat="48.46976" lon="6.90633">
        <ele>397.662</ele>
        <time>2009-10-28T09:46:26Z</time>
      </trkpt>
      <trkpt lat="48.46967" lon="6.90612">
        <ele>395.411</ele>
        <time>2009-10-28T09:46:29Z</time>
      </trkpt>
      <trkpt lat="48.46961" lon="6.90594">
        <ele>394.821</ele>
        <time>2009-10-28T09:46:31Z</time>
      </trkpt>
      <trkpt lat="48.46937" lon="6.90568">
        <ele>393.272</ele>
        <time>2009-10-28T09:46:36Z</time>
      </trkpt>
      <trkpt lat="48.46927" lon="6.90561">
        <ele>392.661</ele>
        <time>2009-10-28T09:46:38Z</time>
      </trkpt>
      <trkpt lat="48.46917" lon="6.90546">
        <ele>391.471</ele>
        <time>2009-10-28T09:46:43Z</time>
      </trkpt>
      <trkpt lat="48.4691" lon="6.90546">
        <ele>391.373</ele>
        <time>2009-10-28T09:46:47Z</time>
      </trkpt>
      <trkpt lat="48.46904" lon="6.90553">
        <ele>392.594</ele>
        <time>2009-10-28T09:46:52Z</time>
      </trkpt>
      <trkpt lat="48.46901" lon="6.90558">
        <ele>392.813</ele>
        <time>2009-10-28T09:46:54Z</time>
      </trkpt>
      <trkpt lat="48.469" lon="6.90562">
        <ele>393.257</ele>
        <time>2009-10-28T09:46:57Z</time>
      </trkpt>
      <trkpt lat="48.46898" lon="6.90564">
        <ele>393.434</ele>
        <time>2009-10-28T09:47:02Z</time>
      </trkpt>
      <trkpt lat="48.46892" lon="6.90566">
        <ele>393.774</ele>
        <time>2009-10-28T09:47:06Z</time>
      </trkpt>
      <trkpt lat="48.46882" lon="6.9057">
        <ele>395.683</ele>
        <time>2009-10-28T09:47:13Z</time>
      </trkpt>
      <trkpt lat="48.46872" lon="6.90574">
        <ele>398.184</ele>
        <time>2009-10-28T09:47:20Z</time>
      </trkpt>
      <trkpt lat="48.46863" lon="6.90579">
        <ele>399.204</ele>
        <time>2009-10-28T09:47:25Z</time>
      </trkpt>
      <trkpt lat="48.46855" lon="6.90587">
        <ele>401.164</ele>
        <time>2009-10-28T09:47:30Z</time>
      </trkpt>
      <trkpt lat="48.46844" lon="6.90596">
        <ele>403.264</ele>
        <time>2009-10-28T09:47:36Z</time>
      </trkpt>
      <trkpt lat="48.46832" lon="6.90615">
        <ele>406.163</ele>
        <time>2009-10-28T09:47:42Z</time>
      </trkpt>
      <trkpt lat="48.46831" lon="6.90623">
        <ele>404.882</ele>
        <time>2009-10-28T09:47:46Z</time>
      </trkpt>
      <trkpt lat="48.46823" lon="6.90635">
        <ele>405.482</ele>
        <time>2009-10-28T09:47:52Z</time>
      </trkpt>
      <trkpt lat="48.46813" lon="6.90642">
        <ele>405.812</ele>
        <time>2009-10-28T09:47:57Z</time>
      </trkpt>
      <trkpt lat="48.468" lon="6.9065">
        <ele>405.813</ele>
        <time>2009-10-28T09:48:02Z</time>
      </trkpt>
      <trkpt lat="48.46786" lon="6.90664">
        <ele>407.853</ele>
        <time>2009-10-28T09:48:08Z</time>
      </trkpt>
      <trkpt lat="48.46773" lon="6.90678">
        <ele>410.304</ele>
        <time>2009-10-28T09:48:13Z</time>
      </trkpt>
      <trkpt lat="48.46761" lon="6.90691">
        <ele>412.323</ele>
        <time>2009-10-28T09:48:18Z</time>
      </trkpt>
      <trkpt lat="48.46754" lon="6.9071">
        <ele>414.293</ele>
        <time>2009-10-28T09:48:24Z</time>
      </trkpt>
      <trkpt lat="48.46748" lon="6.90721">
        <ele>415.103</ele>
        <time>2009-10-28T09:48:28Z</time>
      </trkpt>
      <trkpt lat="48.46739" lon="6.90739">
        <ele>416.223</ele>
        <time>2009-10-28T09:48:33Z</time>
      </trkpt>
      <trkpt lat="48.46729" lon="6.90762">
        <ele>417.193</ele>
        <time>2009-10-28T09:48:39Z</time>
      </trkpt>
      <trkpt lat="48.4672" lon="6.90784">
        <ele>417.012</ele>
        <time>2009-10-28T09:48:45Z</time>
      </trkpt>
      <trkpt lat="48.46712" lon="6.90808">
        <ele>418.193</ele>
        <time>2009-10-28T09:48:51Z</time>
      </trkpt>
      <trkpt lat="48.46708" lon="6.90834">
        <ele>419.383</ele>
        <time>2009-10-28T09:48:57Z</time>
      </trkpt>
      <trkpt lat="48.46711" lon="6.90852">
        <ele>417.631</ele>
        <time>2009-10-28T09:49:02Z</time>
      </trkpt>
      <trkpt lat="48.46714" lon="6.90877">
        <ele>417.002</ele>
        <time>2009-10-28T09:49:08Z</time>
      </trkpt>
      <trkpt lat="48.46714" lon="6.90904">
        <ele>416.942</ele>
        <time>2009-10-28T09:49:14Z</time>
      </trkpt>
      <trkpt lat="48.46711" lon="6.90937">
        <ele>418.022</ele>
        <time>2009-10-28T09:49:21Z</time>
      </trkpt>
      <trkpt lat="48.4671" lon="6.90967">
        <ele>418.092</ele>
        <time>2009-10-28T09:49:27Z</time>
      </trkpt>
      <trkpt lat="48.46718" lon="6.9101">
        <ele>418.552</ele>
        <time>2009-10-28T09:49:36Z</time>
      </trkpt>
      <trkpt lat="48.46729" lon="6.91038">
        <ele>418.303</ele>
        <time>2009-10-28T09:49:43Z</time>
      </trkpt>
      <trkpt lat="48.46747" lon="6.91064">
        <ele>418.312</ele>
        <time>2009-10-28T09:49:50Z</time>
      </trkpt>
      <trkpt lat="48.4676" lon="6.9108">
        <ele>418.262</ele>
        <time>2009-10-28T09:49:54Z</time>
      </trkpt>
      <trkpt lat="48.46797" lon="6.9111">
        <ele>419.363</ele>
        <time>2009-10-28T09:50:04Z</time>
      </trkpt>
      <trkpt lat="48.46815" lon="6.91134">
        <ele>419.374</ele>
        <time>2009-10-28T09:50:10Z</time>
      </trkpt>
      <trkpt lat="48.4684" lon="6.91167">
        <ele>419.093</ele>
        <time>2009-10-28T09:50:17Z</time>
      </trkpt>
      <trkpt lat="48.46843" lon="6.91172">
        <ele>418.822</ele>
        <time>2009-10-28T09:50:18Z</time>
      </trkpt>
      <trkpt lat="48.46848" lon="6.91192">
        <ele>417.652</ele>
        <time>2009-10-28T09:50:21Z</time>
      </trkpt>
      <trkpt lat="48.46852" lon="6.91217">
        <ele>416.861</ele>
        <time>2009-10-28T09:50:25Z</time>
      </trkpt>
      <trkpt lat="48.46851" lon="6.91228">
        <ele>416.521</ele>
        <time>2009-10-28T09:50:27Z</time>
      </trkpt>
      <trkpt lat="48.46849" lon="6.91241">
        <ele>415.487</ele>
        <time>2009-10-28T09:50:29Z</time>
      </trkpt>
      <trkpt lat="48.4685" lon="6.9126">
        <ele>417.579</ele>
        <time>2009-10-28T09:50:31Z</time>
      </trkpt>
      <trkpt lat="48.46833" lon="6.91296">
        <ele>416.517</ele>
        <time>2009-10-28T09:50:36Z</time>
      </trkpt>
      <trkpt lat="48.46821" lon="6.91295">
        <ele>415.763</ele>
        <time>2009-10-28T09:50:38Z</time>
      </trkpt>
      <trkpt lat="48.46803" lon="6.91285">
        <ele>412.046</ele>
        <time>2009-10-28T09:50:42Z</time>
      </trkpt>
      <trkpt lat="48.4678" lon="6.91274">
        <ele>408.546</ele>
        <time>2009-10-28T09:50:46Z</time>
      </trkpt>
      <trkpt lat="48.46755" lon="6.9127">
        <ele>403.688</ele>
        <time>2009-10-28T09:50:51Z</time>
      </trkpt>
      <trkpt lat="48.46734" lon="6.91277">
        <ele>400.083</ele>
        <time>2009-10-28T09:50:55Z</time>
      </trkpt>
      <trkpt lat="48.46712" lon="6.91286">
        <ele>398.732</ele>
        <time>2009-10-28T09:50:59Z</time>
      </trkpt>
      <trkpt lat="48.46695" lon="6.91292">
        <ele>398.212</ele>
        <time>2009-10-28T09:51:04Z</time>
      </trkpt>
      <trkpt lat="48.46663" lon="6.913">
        <ele>397.752</ele>
        <time>2009-10-28T09:51:11Z</time>
      </trkpt>
      <trkpt lat="48.46617" lon="6.91314">
        <ele>397.353</ele>
        <time>2009-10-28T09:51:21Z</time>
      </trkpt>
      <trkpt lat="48.46592" lon="6.91329">
        <ele>397.082</ele>
        <time>2009-10-28T09:51:27Z</time>
      </trkpt>
      <trkpt lat="48.46577" lon="6.91342">
        <ele>397.013</ele>
        <time>2009-10-28T09:51:31Z</time>
      </trkpt>
      <trkpt lat="48.46571" lon="6.9135">
        <ele>396.832</ele>
        <time>2009-10-28T09:51:33Z</time>
      </trkpt>
      <trkpt lat="48.46561" lon="6.91371">
        <ele>396.661</ele>
        <time>2009-10-28T09:51:37Z</time>
      </trkpt>
      <trkpt lat="48.46557" lon="6.91384">
        <ele>396.592</ele>
        <time>2009-10-28T09:51:39Z</time>
      </trkpt>
      <trkpt lat="48.46548" lon="6.91437">
        <ele>396.562</ele>
        <time>2009-10-28T09:51:47Z</time>
      </trkpt>
      <trkpt lat="48.46545" lon="6.9149">
        <ele>395.965</ele>
        <time>2009-10-28T09:51:55Z</time>
      </trkpt>
      <trkpt lat="48.46543" lon="6.91517">
        <ele>395.226</ele>
        <time>2009-10-28T09:51:59Z</time>
      </trkpt>
      <trkpt lat="48.46544" lon="6.91539">
        <ele>393.731</ele>
        <time>2009-10-28T09:52:02Z</time>
      </trkpt>
      <trkpt lat="48.4655" lon="6.91565">
        <ele>391.829</ele>
        <time>2009-10-28T09:52:06Z</time>
      </trkpt>
      <trkpt lat="48.46562" lon="6.91588">
        <ele>392.961</ele>
        <time>2009-10-28T09:52:10Z</time>
      </trkpt>
      <trkpt lat="48.46578" lon="6.91606">
        <ele>395.034</ele>
        <time>2009-10-28T09:52:15Z</time>
      </trkpt>
      <trkpt lat="48.46599" lon="6.91612">
        <ele>395.083</ele>
        <time>2009-10-28T09:52:20Z</time>
      </trkpt>
      <trkpt lat="48.46613" lon="6.91608">
        <ele>396.124</ele>
        <time>2009-10-28T09:52:24Z</time>
      </trkpt>
      <trkpt lat="48.46626" lon="6.9159">
        <ele>397.446</ele>
        <time>2009-10-28T09:52:28Z</time>
      </trkpt>
      <trkpt lat="48.46648" lon="6.91556">
        <ele>399.489</ele>
        <time>2009-10-28T09:52:35Z</time>
      </trkpt>
      <trkpt lat="48.46663" lon="6.91537">
        <ele>401.48</ele>
        <time>2009-10-28T09:52:40Z</time>
      </trkpt>
      <trkpt lat="48.46671" lon="6.91523">
        <ele>403.18</ele>
        <time>2009-10-28T09:52:43Z</time>
      </trkpt>
      <trkpt lat="48.46694" lon="6.91494">
        <ele>404.907</ele>
        <time>2009-10-28T09:52:50Z</time>
      </trkpt>
      <trkpt lat="48.46712" lon="6.9146">
        <ele>404.101</ele>
        <time>2009-10-28T09:52:57Z</time>
      </trkpt>
      <trkpt lat="48.46728" lon="6.91439">
        <ele>402.899</ele>
        <time>2009-10-28T09:53:02Z</time>
      </trkpt>
      <trkpt lat="48.4675" lon="6.9143">
        <ele>402.282</ele>
        <time>2009-10-28T09:53:07Z</time>
      </trkpt>
      <trkpt lat="48.46755" lon="6.9143">
        <ele>402.905</ele>
        <time>2009-10-28T09:53:08Z</time>
      </trkpt>
      <trkpt lat="48.46791" lon="6.91418">
        <ele>402.783</ele>
        <time>2009-10-28T09:53:15Z</time>
      </trkpt>
      <trkpt lat="48.46796" lon="6.91416">
        <ele>402.413</ele>
        <time>2009-10-28T09:53:16Z</time>
      </trkpt>
      <trkpt lat="48.46821" lon="6.91403">
        <ele>403.736</ele>
        <time>2009-10-28T09:53:22Z</time>
      </trkpt>
      <trkpt lat="48.46835" lon="6.914">
        <ele>406.879</ele>
        <time>2009-10-28T09:53:27Z</time>
      </trkpt>
      <trkpt lat="48.46851" lon="6.91397">
        <ele>409.556</ele>
        <time>2009-10-28T09:53:33Z</time>
      </trkpt>
      <trkpt lat="48.46861" lon="6.91394">
        <ele>412.529</ele>
        <time>2009-10-28T09:53:38Z</time>
      </trkpt>
      <trkpt lat="48.46874" lon="6.91388">
        <ele>413.664</ele>
        <time>2009-10-28T09:53:44Z</time>
      </trkpt>
      <trkpt lat="48.46887" lon="6.91386">
        <ele>415.097</ele>
        <time>2009-10-28T09:53:50Z</time>
      </trkpt>
      <trkpt lat="48.46901" lon="6.91393">
        <ele>420.104</ele>
        <time>2009-10-28T09:53:56Z</time>
      </trkpt>
      <trkpt lat="48.46916" lon="6.91405">
        <ele>423.079</ele>
        <time>2009-10-28T09:54:04Z</time>
      </trkpt>
      <trkpt lat="48.46929" lon="6.91421">
        <ele>424.799</ele>
        <time>2009-10-28T09:54:12Z</time>
      </trkpt>
      <trkpt lat="48.46937" lon="6.91431">
        <ele>425.845</ele>
        <time>2009-10-28T09:54:18Z</time>
      </trkpt>
      <trkpt lat="48.46947" lon="6.91438">
        <ele>427.599</ele>
        <time>2009-10-28T09:54:25Z</time>
      </trkpt>
      <trkpt lat="48.46956" lon="6.91444">
        <ele>431.358</ele>
        <time>2009-10-28T09:54:32Z</time>
      </trkpt>
      <trkpt lat="48.46965" lon="6.9145">
        <ele>430.536</ele>
        <time>2009-10-28T09:54:38Z</time>
      </trkpt>
      <trkpt lat="48.46968" lon="6.9145">
        <ele>430.015</ele>
        <time>2009-10-28T09:54:40Z</time>
      </trkpt>
      <trkpt lat="48.46976" lon="6.91448">
        <ele>429.334</ele>
        <time>2009-10-28T09:54:47Z</time>
      </trkpt>
      <trkpt lat="48.46978" lon="6.91443">
        <ele>428.782</ele>
        <time>2009-10-28T09:54:49Z</time>
      </trkpt>
      <trkpt lat="48.46988" lon="6.91427">
        <ele>427.911</ele>
        <time>2009-10-28T09:54:55Z</time>
      </trkpt>
      <trkpt lat="48.4699" lon="6.91423">
        <ele>428.162</ele>
        <time>2009-10-28T09:54:56Z</time>
      </trkpt>
      <trkpt lat="48.4699" lon="6.91395">
        <ele>428.681</ele>
        <time>2009-10-28T09:55:02Z</time>
      </trkpt>
      <trkpt lat="48.4699" lon="6.91372">
        <ele>431.347</ele>
        <time>2009-10-28T09:55:06Z</time>
      </trkpt>
      <trkpt lat="48.46989" lon="6.91349">
        <ele>435.115</ele>
        <time>2009-10-28T09:55:10Z</time>
      </trkpt>
      <trkpt lat="48.46986" lon="6.91327">
        <ele>437.592</ele>
        <time>2009-10-28T09:55:15Z</time>
      </trkpt>
      <trkpt lat="48.46981" lon="6.91308">
        <ele>442.564</ele>
        <time>2009-10-28T09:55:20Z</time>
      </trkpt>
      <trkpt lat="48.46978" lon="6.91288">
        <ele>445.35</ele>
        <time>2009-10-28T09:55:25Z</time>
      </trkpt>
      <trkpt lat="48.46972" lon="6.91267">
        <ele>445.913</ele>
        <time>2009-10-28T09:55:31Z</time>
      </trkpt>
      <trkpt lat="48.46966" lon="6.91257">
        <ele>446.951</ele>
        <time>2009-10-28T09:55:35Z</time>
      </trkpt>
      <trkpt lat="48.46966" lon="6.91254">
        <ele>447.514</ele>
        <time>2009-10-28T09:55:36Z</time>
      </trkpt>
      <trkpt lat="48.46966" lon="6.91243">
        <ele>449.956</ele>
        <time>2009-10-28T09:55:39Z</time>
      </trkpt>
      <trkpt lat="48.46966" lon="6.9123">
        <ele>452.884</ele>
        <time>2009-10-28T09:55:43Z</time>
      </trkpt>
      <trkpt lat="48.46968" lon="6.91212">
        <ele>453.017</ele>
        <time>2009-10-28T09:55:49Z</time>
      </trkpt>
      <trkpt lat="48.46969" lon="6.91199">
        <ele>448.196</ele>
        <time>2009-10-28T09:55:53Z</time>
      </trkpt>
      <trkpt lat="48.46969" lon="6.91195">
        <ele>446.774</ele>
        <time>2009-10-28T09:55:54Z</time>
      </trkpt>
      <trkpt lat="48.46973" lon="6.91171">
        <ele>442.466</ele>
        <time>2009-10-28T09:55:59Z</time>
      </trkpt>
      <trkpt lat="48.46973" lon="6.91167">
        <ele>442.116</ele>
        <time>2009-10-28T09:56:00Z</time>
      </trkpt>
      <trkpt lat="48.4698" lon="6.91147">
        <ele>439.867</ele>
        <time>2009-10-28T09:56:05Z</time>
      </trkpt>
      <trkpt lat="48.46982" lon="6.91133">
        <ele>438.877</ele>
        <time>2009-10-28T09:56:08Z</time>
      </trkpt>
      <trkpt lat="48.4698" lon="6.91123">
        <ele>438.839</ele>
        <time>2009-10-28T09:56:10Z</time>
      </trkpt>
      <trkpt lat="48.46986" lon="6.91107">
        <ele>438.794</ele>
        <time>2009-10-28T09:56:14Z</time>
      </trkpt>
      <trkpt lat="48.46992" lon="6.91084">
        <ele>437.26</ele>
        <time>2009-10-28T09:56:18Z</time>
      </trkpt>
      <trkpt lat="48.46998" lon="6.91052">
        <ele>436.163</ele>
        <time>2009-10-28T09:56:23Z</time>
      </trkpt>
      <trkpt lat="48.47002" lon="6.91041">
        <ele>435.52</ele>
        <time>2009-10-28T09:56:25Z</time>
      </trkpt>
      <trkpt lat="48.47013" lon="6.91022">
        <ele>433.497</ele>
        <time>2009-10-28T09:56:29Z</time>
      </trkpt>
      <trkpt lat="48.47025" lon="6.91016">
        <ele>433.622</ele>
        <time>2009-10-28T09:56:33Z</time>
      </trkpt>
      <trkpt lat="48.47035" lon="6.91006">
        <ele>433.04</ele>
        <time>2009-10-28T09:56:35Z</time>
      </trkpt>
      <trkpt lat="48.47056" lon="6.90987">
        <ele>429.441</ele>
        <time>2009-10-28T09:56:39Z</time>
      </trkpt>
      <trkpt lat="48.47077" lon="6.90984">
        <ele>426.248</ele>
        <time>2009-10-28T09:56:44Z</time>
      </trkpt>
      <trkpt lat="48.47093" lon="6.90994">
        <ele>424.043</ele>
        <time>2009-10-28T09:56:48Z</time>
      </trkpt>
      <trkpt lat="48.47096" lon="6.90993">
        <ele>423.952</ele>
        <time>2009-10-28T09:56:49Z</time>
      </trkpt>
      <trkpt lat="48.47104" lon="6.90989">
        <ele>423.614</ele>
        <time>2009-10-28T09:56:52Z</time>
      </trkpt>
      <trkpt lat="48.47113" lon="6.90973">
        <ele>424.512</ele>
        <time>2009-10-28T09:56:57Z</time>
      </trkpt>
      <trkpt lat="48.47122" lon="6.90966">
        <ele>423.496</ele>
        <time>2009-10-28T09:57:00Z</time>
      </trkpt>
      <trkpt lat="48.47138" lon="6.90971">
        <ele>422.825</ele>
        <time>2009-10-28T09:57:04Z</time>
      </trkpt>
      <trkpt lat="48.47155" lon="6.90965">
        <ele>421.742</ele>
        <time>2009-10-28T09:57:08Z</time>
      </trkpt>
      <trkpt lat="48.47168" lon="6.90959">
        <ele>421.002</ele>
        <time>2009-10-28T09:57:11Z</time>
      </trkpt>
      <trkpt lat="48.47197" lon="6.90962">
        <ele>417.056</ele>
        <time>2009-10-28T09:57:15Z</time>
      </trkpt>
      <trkpt lat="48.47208" lon="6.90977">
        <ele>415.985</ele>
        <time>2009-10-28T09:57:17Z</time>
      </trkpt>
      <trkpt lat="48.47218" lon="6.90992">
        <ele>414.308</ele>
        <time>2009-10-28T09:57:19Z</time>
      </trkpt>
      <trkpt lat="48.47229" lon="6.91004">
        <ele>413.49</ele>
        <time>2009-10-28T09:57:21Z</time>
      </trkpt>
      <trkpt lat="48.47241" lon="6.91013">
        <ele>412.201</ele>
        <time>2009-10-28T09:57:23Z</time>
      </trkpt>
      <trkpt lat="48.47271" lon="6.91017">
        <ele>411.107</ele>
        <time>2009-10-28T09:57:28Z</time>
      </trkpt>
      <trkpt lat="48.473" lon="6.90997">
        <ele>410.018</ele>
        <time>2009-10-28T09:57:33Z</time>
      </trkpt>
      <trkpt lat="48.47329" lon="6.90988">
        <ele>410.374</ele>
        <time>2009-10-28T09:57:38Z</time>
      </trkpt>
      <trkpt lat="48.47335" lon="6.90985">
        <ele>410.894</ele>
        <time>2009-10-28T09:57:39Z</time>
      </trkpt>
      <trkpt lat="48.47364" lon="6.90983">
        <ele>410.565</ele>
        <time>2009-10-28T09:57:44Z</time>
      </trkpt>
      <trkpt lat="48.47383" lon="6.90999">
        <ele>409.882</ele>
        <time>2009-10-28T09:57:48Z</time>
      </trkpt>
      <trkpt lat="48.47402" lon="6.91024">
        <ele>408.319</ele>
        <time>2009-10-28T09:57:54Z</time>
      </trkpt>
      <trkpt lat="48.47409" lon="6.91028">
        <ele>408.699</ele>
        <time>2009-10-28T09:57:57Z</time>
      </trkpt>
      <trkpt lat="48.47415" lon="6.9102">
        <ele>407.052</ele>
        <time>2009-10-28T09:58:02Z</time>
      </trkpt>
      <trkpt lat="48.47427" lon="6.91">
        <ele>407.943</ele>
        <time>2009-10-28T09:58:09Z</time>
      </trkpt>
      <trkpt lat="48.47429" lon="6.90976">
        <ele>408.242</ele>
        <time>2009-10-28T09:58:14Z</time>
      </trkpt>
      <trkpt lat="48.47427" lon="6.90965">
        <ele>408.222</ele>
        <time>2009-10-28T09:58:16Z</time>
      </trkpt>
      <trkpt lat="48.47426" lon="6.90944">
        <ele>407.342</ele>
        <time>2009-10-28T09:58:19Z</time>
      </trkpt>
      <trkpt lat="48.47419" lon="6.90888">
        <ele>404.972</ele>
        <time>2009-10-28T09:58:25Z</time>
      </trkpt>
      <trkpt lat="48.47406" lon="6.90825">
        <ele>401.231</ele>
        <time>2009-10-28T09:58:31Z</time>
      </trkpt>
      <trkpt lat="48.47404" lon="6.90816">
        <ele>401.542</ele>
        <time>2009-10-28T09:58:32Z</time>
      </trkpt>
      <trkpt lat="48.474" lon="6.90779">
        <ele>401.392</ele>
        <time>2009-10-28T09:58:38Z</time>
      </trkpt>
      <trkpt lat="48.47396" lon="6.90751">
        <ele>402.733</ele>
        <time>2009-10-28T09:58:44Z</time>
      </trkpt>
      <trkpt lat="48.47395" lon="6.90739">
        <ele>403.873</ele>
        <time>2009-10-28T09:58:46Z</time>
      </trkpt>
      <trkpt lat="48.47394" lon="6.907">
        <ele>401.833</ele>
        <time>2009-10-28T09:58:52Z</time>
      </trkpt>
      <trkpt lat="48.47405" lon="6.90683">
        <ele>403.643</ele>
        <time>2009-10-28T09:58:56Z</time>
      </trkpt>
      <trkpt lat="48.47421" lon="6.90668">
        <ele>402.633</ele>
        <time>2009-10-28T09:59:01Z</time>
      </trkpt>
      <trkpt lat="48.4744" lon="6.90643">
        <ele>402.133</ele>
        <time>2009-10-28T09:59:07Z</time>
      </trkpt>
      <trkpt lat="48.47449" lon="6.90627">
        <ele>403.164</ele>
        <time>2009-10-28T09:59:10Z</time>
      </trkpt>
      <trkpt lat="48.47465" lon="6.90619">
        <ele>401.732</ele>
        <time>2009-10-28T09:59:14Z</time>
      </trkpt>
      <trkpt lat="48.4747" lon="6.90621">
        <ele>401.582</ele>
        <time>2009-10-28T09:59:15Z</time>
      </trkpt>
      <trkpt lat="48.47493" lon="6.90645">
        <ele>400.714</ele>
        <time>2009-10-28T09:59:22Z</time>
      </trkpt>
      <trkpt lat="48.47513" lon="6.90664">
        <ele>400.104</ele>
        <time>2009-10-28T09:59:29Z</time>
      </trkpt>
      <trkpt lat="48.47539" lon="6.90681">
        <ele>400.403</ele>
        <time>2009-10-28T09:59:37Z</time>
      </trkpt>
      <trkpt lat="48.47561" lon="6.90692">
        <ele>401.254</ele>
        <time>2009-10-28T09:59:44Z</time>
      </trkpt>
      <trkpt lat="48.47584" lon="6.90702">
        <ele>404.414</ele>
        <time>2009-10-28T09:59:51Z</time>
      </trkpt>
      <trkpt lat="48.47601" lon="6.90704">
        <ele>406.424</ele>
        <time>2009-10-28T09:59:57Z</time>
      </trkpt>
      <trkpt lat="48.47613" lon="6.907">
        <ele>406.974</ele>
        <time>2009-10-28T10:00:02Z</time>
      </trkpt>
      <trkpt lat="48.47624" lon="6.90693">
        <ele>407.684</ele>
        <time>2009-10-28T10:00:07Z</time>
      </trkpt>
      <trkpt lat="48.47637" lon="6.90674">
        <ele>408.793</ele>
        <time>2009-10-28T10:00:14Z</time>
      </trkpt>
      <trkpt lat="48.47643" lon="6.90654">
        <ele>410.414</ele>
        <time>2009-10-28T10:00:20Z</time>
      </trkpt>
      <trkpt lat="48.47646" lon="6.90649">
        <ele>412.934</ele>
        <time>2009-10-28T10:00:25Z</time>
      </trkpt>
      <trkpt lat="48.47646" lon="6.90649">
        <ele>413.945</ele>
        <time>2009-10-28T10:00:26Z</time>
      </trkpt>
      <trkpt lat="48.47662" lon="6.90665">
        <ele>417.572</ele>
        <time>2009-10-28T10:00:51Z</time>
      </trkpt>
      <trkpt lat="48.47665" lon="6.90667">
        <ele>417.063</ele>
        <time>2009-10-28T10:00:52Z</time>
      </trkpt>
      <trkpt lat="48.47678" lon="6.90676">
        <ele>412.801</ele>
        <time>2009-10-28T10:00:57Z</time>
      </trkpt>
      <trkpt lat="48.47689" lon="6.90662">
        <ele>408.801</ele>
        <time>2009-10-28T10:01:01Z</time>
      </trkpt>
      <trkpt lat="48.47702" lon="6.90648">
        <ele>401.949</ele>
        <time>2009-10-28T10:01:06Z</time>
      </trkpt>
      <trkpt lat="48.47707" lon="6.90645">
        <ele>399.639</ele>
        <time>2009-10-28T10:01:08Z</time>
      </trkpt>
      <trkpt lat="48.47718" lon="6.90618">
        <ele>396.761</ele>
        <time>2009-10-28T10:01:13Z</time>
      </trkpt>
      <trkpt lat="48.4772" lon="6.90612">
        <ele>396.201</ele>
        <time>2009-10-28T10:01:14Z</time>
      </trkpt>
      <trkpt lat="48.47731" lon="6.90591">
        <ele>393.712</ele>
        <time>2009-10-28T10:01:19Z</time>
      </trkpt>
      <trkpt lat="48.47737" lon="6.90575">
        <ele>392.561</ele>
        <time>2009-10-28T10:01:22Z</time>
      </trkpt>
      <trkpt lat="48.47753" lon="6.90538">
        <ele>397.144</ele>
        <time>2009-10-28T10:01:28Z</time>
      </trkpt>
      <trkpt lat="48.47757" lon="6.90494">
        <ele>397.834</ele>
        <time>2009-10-28T10:01:34Z</time>
      </trkpt>
      <trkpt lat="48.47754" lon="6.90474">
        <ele>399.665</ele>
        <time>2009-10-28T10:01:37Z</time>
      </trkpt>
      <trkpt lat="48.47745" lon="6.90437">
        <ele>399.374</ele>
        <time>2009-10-28T10:01:43Z</time>
      </trkpt>
      <trkpt lat="48.47734" lon="6.90392">
        <ele>397.794</ele>
        <time>2009-10-28T10:01:49Z</time>
      </trkpt>
      <trkpt lat="48.47729" lon="6.90367">
        <ele>397.534</ele>
        <time>2009-10-28T10:01:52Z</time>
      </trkpt>
      <trkpt lat="48.47726" lon="6.90324">
        <ele>394.063</ele>
        <time>2009-10-28T10:01:57Z</time>
      </trkpt>
      <trkpt lat="48.47724" lon="6.90306">
        <ele>392.953</ele>
        <time>2009-10-28T10:01:59Z</time>
      </trkpt>
      <trkpt lat="48.47732" lon="6.90282">
        <ele>392.253</ele>
        <time>2009-10-28T10:02:02Z</time>
      </trkpt>
      <trkpt lat="48.47725" lon="6.90261">
        <ele>393.924</ele>
        <time>2009-10-28T10:02:07Z</time>
      </trkpt>
      <trkpt lat="48.47718" lon="6.90237">
        <ele>394.203</ele>
        <time>2009-10-28T10:02:11Z</time>
      </trkpt>
      <trkpt lat="48.47708" lon="6.90209">
        <ele>394.025</ele>
        <time>2009-10-28T10:02:16Z</time>
      </trkpt>
      <trkpt lat="48.47707" lon="6.90204">
        <ele>393.895</ele>
        <time>2009-10-28T10:02:17Z</time>
      </trkpt>
      <trkpt lat="48.47717" lon="6.9019">
        <ele>396.955</ele>
        <time>2009-10-28T10:02:21Z</time>
      </trkpt>
      <trkpt lat="48.47727" lon="6.90181">
        <ele>397.635</ele>
        <time>2009-10-28T10:02:24Z</time>
      </trkpt>
      <trkpt lat="48.47738" lon="6.90169">
        <ele>397.834</ele>
        <time>2009-10-28T10:02:29Z</time>
      </trkpt>
      <trkpt lat="48.47754" lon="6.9017">
        <ele>399.434</ele>
        <time>2009-10-28T10:02:34Z</time>
      </trkpt>
      <trkpt lat="48.4777" lon="6.9018">
        <ele>398.904</ele>
        <time>2009-10-28T10:02:39Z</time>
      </trkpt>
      <trkpt lat="48.47798" lon="6.90191">
        <ele>399.754</ele>
        <time>2009-10-28T10:02:47Z</time>
      </trkpt>
      <trkpt lat="48.47814" lon="6.90197">
        <ele>397.694</ele>
        <time>2009-10-28T10:02:52Z</time>
      </trkpt>
      <trkpt lat="48.47829" lon="6.90198">
        <ele>396.434</ele>
        <time>2009-10-28T10:02:57Z</time>
      </trkpt>
      <trkpt lat="48.4784" lon="6.90195">
        <ele>395.864</ele>
        <time>2009-10-28T10:03:01Z</time>
      </trkpt>
      <trkpt lat="48.47857" lon="6.90192">
        <ele>396.184</ele>
        <time>2009-10-28T10:03:06Z</time>
      </trkpt>
      <trkpt lat="48.47873" lon="6.90188">
        <ele>394.243</ele>
        <time>2009-10-28T10:03:11Z</time>
      </trkpt>
      <trkpt lat="48.47876" lon="6.90188">
        <ele>393.943</ele>
        <time>2009-10-28T10:03:12Z</time>
      </trkpt>
      <trkpt lat="48.479" lon="6.90183">
        <ele>392.293</ele>
        <time>2009-10-28T10:03:18Z</time>
      </trkpt>
      <trkpt lat="48.47919" lon="6.90181">
        <ele>392.484</ele>
        <time>2009-10-28T10:03:24Z</time>
      </trkpt>
      <trkpt lat="48.47933" lon="6.90179">
        <ele>392.953</ele>
        <time>2009-10-28T10:03:29Z</time>
      </trkpt>
      <trkpt lat="48.4795" lon="6.90178">
        <ele>394.884</ele>
        <time>2009-10-28T10:03:34Z</time>
      </trkpt>
      <trkpt lat="48.47971" lon="6.90187">
        <ele>396.945</ele>
        <time>2009-10-28T10:03:39Z</time>
      </trkpt>
      <trkpt lat="48.47975" lon="6.9019">
        <ele>397.305</ele>
        <time>2009-10-28T10:03:40Z</time>
      </trkpt>
      <trkpt lat="48.47995" lon="6.90216">
        <ele>397.294</ele>
        <time>2009-10-28T10:03:47Z</time>
      </trkpt>
      <trkpt lat="48.4801" lon="6.90243">
        <ele>400.375</ele>
        <time>2009-10-28T10:03:53Z</time>
      </trkpt>
      <trkpt lat="48.48013" lon="6.90248">
        <ele>402.806</ele>
        <time>2009-10-28T10:03:54Z</time>
      </trkpt>
      <trkpt lat="48.48019" lon="6.90275">
        <ele>407.657</ele>
        <time>2009-10-28T10:03:59Z</time>
      </trkpt>
      <trkpt lat="48.48023" lon="6.90302">
        <ele>408.585</ele>
        <time>2009-10-28T10:04:04Z</time>
      </trkpt>
      <trkpt lat="48.48036" lon="6.90333">
        <ele>411.146</ele>
        <time>2009-10-28T10:04:10Z</time>
      </trkpt>
      <trkpt lat="48.48046" lon="6.90358">
        <ele>412.105</ele>
        <time>2009-10-28T10:04:15Z</time>
      </trkpt>
      <trkpt lat="48.48052" lon="6.90377">
        <ele>410.894</ele>
        <time>2009-10-28T10:04:19Z</time>
      </trkpt>
      <trkpt lat="48.48061" lon="6.90397">
        <ele>411.284</ele>
        <time>2009-10-28T10:04:24Z</time>
      </trkpt>
      <trkpt lat="48.4807" lon="6.90416">
        <ele>412.605</ele>
        <time>2009-10-28T10:04:29Z</time>
      </trkpt>
      <trkpt lat="48.48085" lon="6.90433">
        <ele>412.064</ele>
        <time>2009-10-28T10:04:36Z</time>
      </trkpt>
      <trkpt lat="48.48099" lon="6.90444">
        <ele>412.775</ele>
        <time>2009-10-28T10:04:42Z</time>
      </trkpt>
      <trkpt lat="48.48113" lon="6.90453">
        <ele>416.917</ele>
        <time>2009-10-28T10:04:47Z</time>
      </trkpt>
      <trkpt lat="48.48125" lon="6.9046">
        <ele>423.148</ele>
        <time>2009-10-28T10:04:52Z</time>
      </trkpt>
      <trkpt lat="48.48127" lon="6.9046">
        <ele>424.198</ele>
        <time>2009-10-28T10:04:53Z</time>
      </trkpt>
      <trkpt lat="48.48139" lon="6.90457">
        <ele>425.257</ele>
        <time>2009-10-28T10:04:58Z</time>
      </trkpt>
      <trkpt lat="48.48146" lon="6.9047">
        <ele>423.945</ele>
        <time>2009-10-28T10:05:03Z</time>
      </trkpt>
      <trkpt lat="48.4815" lon="6.90483">
        <ele>422.845</ele>
        <time>2009-10-28T10:05:07Z</time>
      </trkpt>
      <trkpt lat="48.48149" lon="6.90485">
        <ele>421.948</ele>
        <time>2009-10-28T10:05:09Z</time>
      </trkpt>
      <trkpt lat="48.48149" lon="6.905">
        <ele>417.324</ele>
        <time>2009-10-28T10:05:23Z</time>
      </trkpt>
      <trkpt lat="48.4815" lon="6.90505">
        <ele>416.974</ele>
        <time>2009-10-28T10:05:24Z</time>
      </trkpt>
      <trkpt lat="48.48151" lon="6.90518">
        <ele>415.714</ele>
        <time>2009-10-28T10:05:26Z</time>
      </trkpt>
      <trkpt lat="48.48149" lon="6.9054">
        <ele>414.394</ele>
        <time>2009-10-28T10:05:29Z</time>
      </trkpt>
      <trkpt lat="48.48145" lon="6.90567">
        <ele>412.123</ele>
        <time>2009-10-28T10:05:33Z</time>
      </trkpt>
      <trkpt lat="48.48141" lon="6.90611">
        <ele>412.335</ele>
        <time>2009-10-28T10:05:40Z</time>
      </trkpt>
      <trkpt lat="48.48142" lon="6.90625">
        <ele>412.185</ele>
        <time>2009-10-28T10:05:42Z</time>
      </trkpt>
      <trkpt lat="48.48144" lon="6.90661">
        <ele>411.615</ele>
        <time>2009-10-28T10:05:48Z</time>
      </trkpt>
      <trkpt lat="48.48149" lon="6.90675">
        <ele>412.325</ele>
        <time>2009-10-28T10:05:51Z</time>
      </trkpt>
      <trkpt lat="48.48158" lon="6.90698">
        <ele>409.633</ele>
        <time>2009-10-28T10:05:55Z</time>
      </trkpt>
      <trkpt lat="48.48163" lon="6.90707">
        <ele>407.953</ele>
        <time>2009-10-28T10:05:57Z</time>
      </trkpt>
      <trkpt lat="48.4818" lon="6.90715">
        <ele>405.812</ele>
        <time>2009-10-28T10:06:01Z</time>
      </trkpt>
      <trkpt lat="48.48194" lon="6.90708">
        <ele>407.764</ele>
        <time>2009-10-28T10:06:04Z</time>
      </trkpt>
      <trkpt lat="48.48207" lon="6.90694">
        <ele>409.154</ele>
        <time>2009-10-28T10:06:07Z</time>
      </trkpt>
      <trkpt lat="48.48215" lon="6.90661">
        <ele>407.804</ele>
        <time>2009-10-28T10:06:12Z</time>
      </trkpt>
      <trkpt lat="48.48219" lon="6.90643">
        <ele>407.213</ele>
        <time>2009-10-28T10:06:14Z</time>
      </trkpt>
      <trkpt lat="48.48224" lon="6.90626">
        <ele>405.953</ele>
        <time>2009-10-28T10:06:16Z</time>
      </trkpt>
      <trkpt lat="48.48235" lon="6.90597">
        <ele>406.404</ele>
        <time>2009-10-28T10:06:20Z</time>
      </trkpt>
      <trkpt lat="48.48246" lon="6.90594">
        <ele>405.324</ele>
        <time>2009-10-28T10:06:23Z</time>
      </trkpt>
      <trkpt lat="48.48251" lon="6.90595">
        <ele>404.094</ele>
        <time>2009-10-28T10:06:25Z</time>
      </trkpt>
      <trkpt lat="48.48258" lon="6.90601">
        <ele>402.183</ele>
        <time>2009-10-28T10:06:28Z</time>
      </trkpt>
      <trkpt lat="48.48265" lon="6.90594">
        <ele>402.234</ele>
        <time>2009-10-28T10:06:33Z</time>
      </trkpt>
      <trkpt lat="48.48279" lon="6.90572">
        <ele>402.184</ele>
        <time>2009-10-28T10:06:39Z</time>
      </trkpt>
      <trkpt lat="48.48283" lon="6.90565">
        <ele>404.556</ele>
        <time>2009-10-28T10:06:41Z</time>
      </trkpt>
      <trkpt lat="48.48294" lon="6.90565">
        <ele>406.366</ele>
        <time>2009-10-28T10:06:45Z</time>
      </trkpt>
      <trkpt lat="48.48297" lon="6.90567">
        <ele>406.776</ele>
        <time>2009-10-28T10:06:46Z</time>
      </trkpt>
      <trkpt lat="48.48314" lon="6.90582">
        <ele>410.536</ele>
        <time>2009-10-28T10:06:52Z</time>
      </trkpt>
      <trkpt lat="48.48317" lon="6.90585">
        <ele>410.415</ele>
        <time>2009-10-28T10:06:56Z</time>
      </trkpt>
      <trkpt lat="48.4832" lon="6.90594">
        <ele>410.696</ele>
        <time>2009-10-28T10:07:26Z</time>
      </trkpt>
      <trkpt lat="48.48327" lon="6.90604">
        <ele>412.836</ele>
        <time>2009-10-28T10:07:29Z</time>
      </trkpt>
      <trkpt lat="48.48333" lon="6.90608">
        <ele>416.87</ele>
        <time>2009-10-28T10:07:32Z</time>
      </trkpt>
      <trkpt lat="48.48346" lon="6.90628">
        <ele>425.695</ele>
        <time>2009-10-28T10:07:59Z</time>
      </trkpt>
      <trkpt lat="48.4836" lon="6.90652">
        <ele>418.823</ele>
        <time>2009-10-28T10:08:06Z</time>
      </trkpt>
      <trkpt lat="48.48371" lon="6.90668">
        <ele>415.743</ele>
        <time>2009-10-28T10:08:11Z</time>
      </trkpt>
      <trkpt lat="48.48383" lon="6.90691">
        <ele>410.681</ele>
        <time>2009-10-28T10:08:17Z</time>
      </trkpt>
      <trkpt lat="48.48397" lon="6.90713">
        <ele>409.602</ele>
        <time>2009-10-28T10:08:23Z</time>
      </trkpt>
      <trkpt lat="48.48409" lon="6.90732">
        <ele>410.863</ele>
        <time>2009-10-28T10:08:28Z</time>
      </trkpt>
      <trkpt lat="48.4842" lon="6.90752">
        <ele>413.624</ele>
        <time>2009-10-28T10:08:33Z</time>
      </trkpt>
      <trkpt lat="48.48429" lon="6.90778">
        <ele>416.315</ele>
        <time>2009-10-28T10:08:38Z</time>
      </trkpt>
      <trkpt lat="48.48443" lon="6.90807">
        <ele>419.976</ele>
        <time>2009-10-28T10:08:44Z</time>
      </trkpt>
      <trkpt lat="48.48452" lon="6.90825">
        <ele>422.666</ele>
        <time>2009-10-28T10:08:48Z</time>
      </trkpt>
      <trkpt lat="48.48465" lon="6.90858">
        <ele>417.723</ele>
        <time>2009-10-28T10:08:55Z</time>
      </trkpt>
      <trkpt lat="48.48471" lon="6.90881">
        <ele>414.953</ele>
        <time>2009-10-28T10:09:00Z</time>
      </trkpt>
      <trkpt lat="48.48479" lon="6.90909">
        <ele>416.553</ele>
        <time>2009-10-28T10:09:06Z</time>
      </trkpt>
      <trkpt lat="48.48481" lon="6.90921">
        <ele>417.954</ele>
        <time>2009-10-28T10:09:09Z</time>
      </trkpt>
      <trkpt lat="48.48473" lon="6.90926">
        <ele>417.864</ele>
        <time>2009-10-28T10:09:14Z</time>
      </trkpt>
      <trkpt lat="48.48471" lon="6.90924">
        <ele>417.854</ele>
        <time>2009-10-28T10:09:15Z</time>
      </trkpt>
      <trkpt lat="48.4846" lon="6.90915">
        <ele>416.334</ele>
        <time>2009-10-28T10:09:18Z</time>
      </trkpt>
      <trkpt lat="48.48438" lon="6.90901">
        <ele>415.344</ele>
        <time>2009-10-28T10:09:23Z</time>
      </trkpt>
      <trkpt lat="48.48423" lon="6.90893">
        <ele>414.084</ele>
        <time>2009-10-28T10:09:27Z</time>
      </trkpt>
      <trkpt lat="48.48409" lon="6.90891">
        <ele>411.894</ele>
        <time>2009-10-28T10:09:30Z</time>
      </trkpt>
      <trkpt lat="48.48392" lon="6.90897">
        <ele>412.505</ele>
        <time>2009-10-28T10:09:34Z</time>
      </trkpt>
      <trkpt lat="48.4839" lon="6.909">
        <ele>412.565</ele>
        <time>2009-10-28T10:09:35Z</time>
      </trkpt>
      <trkpt lat="48.48373" lon="6.90917">
        <ele>413.146</ele>
        <time>2009-10-28T10:09:40Z</time>
      </trkpt>
      <trkpt lat="48.48376" lon="6.90913">
        <ele>415.647</ele>
        <time>2009-10-28T10:09:42Z</time>
      </trkpt>
      <trkpt lat="48.48385" lon="6.90897">
        <ele>416.385</ele>
        <time>2009-10-28T10:09:47Z</time>
      </trkpt>
      <trkpt lat="48.48389" lon="6.90892">
        <ele>413.423</ele>
        <time>2009-10-28T10:09:50Z</time>
      </trkpt>
      <trkpt lat="48.48405" lon="6.90892">
        <ele>409.102</ele>
        <time>2009-10-28T10:09:56Z</time>
      </trkpt>
      <trkpt lat="48.48413" lon="6.90893">
        <ele>407.902</ele>
        <time>2009-10-28T10:09:59Z</time>
      </trkpt>
      <trkpt lat="48.48431" lon="6.90901">
        <ele>406.333</ele>
        <time>2009-10-28T10:10:06Z</time>
      </trkpt>
      <trkpt lat="48.48444" lon="6.9091">
        <ele>407.793</ele>
        <time>2009-10-28T10:10:11Z</time>
      </trkpt>
      <trkpt lat="48.48457" lon="6.90921">
        <ele>411.715</ele>
        <time>2009-10-28T10:10:16Z</time>
      </trkpt>
      <trkpt lat="48.48469" lon="6.90927">
        <ele>414.905</ele>
        <time>2009-10-28T10:10:21Z</time>
      </trkpt>
      <trkpt lat="48.48481" lon="6.90932">
        <ele>414.394</ele>
        <time>2009-10-28T10:10:26Z</time>
      </trkpt>
      <trkpt lat="48.48492" lon="6.90941">
        <ele>417.555</ele>
        <time>2009-10-28T10:10:32Z</time>
      </trkpt>
      <trkpt lat="48.48506" lon="6.90945">
        <ele>418.895</ele>
        <time>2009-10-28T10:10:39Z</time>
      </trkpt>
      <trkpt lat="48.48517" lon="6.90947">
        <ele>418.845</ele>
        <time>2009-10-28T10:10:45Z</time>
      </trkpt>
      <trkpt lat="48.48528" lon="6.90946">
        <ele>417.825</ele>
        <time>2009-10-28T10:10:52Z</time>
      </trkpt>
      <trkpt lat="48.48542" lon="6.90942">
        <ele>416.953</ele>
        <time>2009-10-28T10:11:00Z</time>
      </trkpt>
      <trkpt lat="48.48554" lon="6.90932">
        <ele>418.843</ele>
        <time>2009-10-28T10:11:06Z</time>
      </trkpt>
      <trkpt lat="48.48571" lon="6.90921">
        <ele>421.384</ele>
        <time>2009-10-28T10:11:14Z</time>
      </trkpt>
      <trkpt lat="48.48575" lon="6.90912">
        <ele>425.344</ele>
        <time>2009-10-28T10:11:20Z</time>
      </trkpt>
      <trkpt lat="48.48585" lon="6.90902">
        <ele>426.694</ele>
        <time>2009-10-28T10:11:26Z</time>
      </trkpt>
      <trkpt lat="48.48589" lon="6.90891">
        <ele>424.724</ele>
        <time>2009-10-28T10:11:30Z</time>
      </trkpt>
      <trkpt lat="48.48593" lon="6.90887">
        <ele>424.884</ele>
        <time>2009-10-28T10:11:32Z</time>
      </trkpt>
      <trkpt lat="48.48609" lon="6.9088">
        <ele>423.044</ele>
        <time>2009-10-28T10:11:39Z</time>
      </trkpt>
      <trkpt lat="48.48624" lon="6.90882">
        <ele>421.294</ele>
        <time>2009-10-28T10:11:46Z</time>
      </trkpt>
      <trkpt lat="48.48639" lon="6.90889">
        <ele>419.334</ele>
        <time>2009-10-28T10:11:53Z</time>
      </trkpt>
      <trkpt lat="48.48645" lon="6.90891">
        <ele>419.245</ele>
        <time>2009-10-28T10:11:57Z</time>
      </trkpt>
      <trkpt lat="48.48651" lon="6.90892">
        <ele>422.095</ele>
        <time>2009-10-28T10:12:10Z</time>
      </trkpt>
      <trkpt lat="48.48647" lon="6.90891">
        <ele>425.666</ele>
        <time>2009-10-28T10:12:14Z</time>
      </trkpt>
      <trkpt lat="48.48634" lon="6.90884">
        <ele>429.627</ele>
        <time>2009-10-28T10:12:20Z</time>
      </trkpt>
      <trkpt lat="48.48615" lon="6.9088">
        <ele>433.516</ele>
        <time>2009-10-28T10:12:28Z</time>
      </trkpt>
      <trkpt lat="48.48614" lon="6.90868">
        <ele>431.275</ele>
        <time>2009-10-28T10:12:33Z</time>
      </trkpt>
      <trkpt lat="48.48618" lon="6.90859">
        <ele>429.955</ele>
        <time>2009-10-28T10:12:36Z</time>
      </trkpt>
      <trkpt lat="48.48631" lon="6.90837">
        <ele>432.355</ele>
        <time>2009-10-28T10:12:44Z</time>
      </trkpt>
      <trkpt lat="48.48642" lon="6.90822">
        <ele>434.795</ele>
        <time>2009-10-28T10:12:50Z</time>
      </trkpt>
      <trkpt lat="48.48643" lon="6.90806">
        <ele>436.977</ele>
        <time>2009-10-28T10:12:55Z</time>
      </trkpt>
      <trkpt lat="48.48646" lon="6.90781">
        <ele>436.736</ele>
        <time>2009-10-28T10:13:01Z</time>
      </trkpt>
      <trkpt lat="48.48647" lon="6.90772">
        <ele>435.565</ele>
        <time>2009-10-28T10:13:03Z</time>
      </trkpt>
      <trkpt lat="48.48644" lon="6.90745">
        <ele>437.036</ele>
        <time>2009-10-28T10:13:10Z</time>
      </trkpt>
      <trkpt lat="48.48641" lon="6.90728">
        <ele>436.066</ele>
        <time>2009-10-28T10:13:15Z</time>
      </trkpt>
      <trkpt lat="48.48638" lon="6.907">
        <ele>436.996</ele>
        <time>2009-10-28T10:13:22Z</time>
      </trkpt>
      <trkpt lat="48.48636" lon="6.90678">
        <ele>436.455</ele>
        <time>2009-10-28T10:13:28Z</time>
      </trkpt>
      <trkpt lat="48.48635" lon="6.9067">
        <ele>434.484</ele>
        <time>2009-10-28T10:13:30Z</time>
      </trkpt>
      <trkpt lat="48.48645" lon="6.90666">
        <ele>429.443</ele>
        <time>2009-10-28T10:13:35Z</time>
      </trkpt>
      <trkpt lat="48.4866" lon="6.90657">
        <ele>425.243</ele>
        <time>2009-10-28T10:13:40Z</time>
      </trkpt>
      <trkpt lat="48.48674" lon="6.90648">
        <ele>421.652</ele>
        <time>2009-10-28T10:13:45Z</time>
      </trkpt>
      <trkpt lat="48.48689" lon="6.90631">
        <ele>414.831</ele>
        <time>2009-10-28T10:13:51Z</time>
      </trkpt>
      <trkpt lat="48.48704" lon="6.9062">
        <ele>412.468</ele>
        <time>2009-10-28T10:13:55Z</time>
      </trkpt>
      <trkpt lat="48.48715" lon="6.90607">
        <ele>406.531</ele>
        <time>2009-10-28T10:14:00Z</time>
      </trkpt>
      <trkpt lat="48.48716" lon="6.90605">
        <ele>403.703</ele>
        <time>2009-10-28T10:14:05Z</time>
      </trkpt>
      <trkpt lat="48.4871" lon="6.9059">
        <ele>404.456</ele>
        <time>2009-10-28T10:14:25Z</time>
      </trkpt>
      <trkpt lat="48.48709" lon="6.9059">
        <ele>404.239</ele>
        <time>2009-10-28T10:14:27Z</time>
      </trkpt>
      <trkpt lat="48.48703" lon="6.90585">
        <ele>402.386</ele>
        <time>2009-10-28T10:14:59Z</time>
      </trkpt>
      <trkpt lat="48.48694" lon="6.90561">
        <ele>404.187</ele>
        <time>2009-10-28T10:15:04Z</time>
      </trkpt>
      <trkpt lat="48.48683" lon="6.90529">
        <ele>406.197</ele>
        <time>2009-10-28T10:15:10Z</time>
      </trkpt>
      <trkpt lat="48.48674" lon="6.90505">
        <ele>407.488</ele>
        <time>2009-10-28T10:15:15Z</time>
      </trkpt>
      <trkpt lat="48.48661" lon="6.90469">
        <ele>409.197</ele>
        <time>2009-10-28T10:15:22Z</time>
      </trkpt>
      <trkpt lat="48.48653" lon="6.9043">
        <ele>407.947</ele>
        <time>2009-10-28T10:15:29Z</time>
      </trkpt>
      <trkpt lat="48.48649" lon="6.90393">
        <ele>407.466</ele>
        <time>2009-10-28T10:15:36Z</time>
      </trkpt>
      <trkpt lat="48.48646" lon="6.9036">
        <ele>405.405</ele>
        <time>2009-10-28T10:15:43Z</time>
      </trkpt>
      <trkpt lat="48.48646" lon="6.90336">
        <ele>404.365</ele>
        <time>2009-10-28T10:15:48Z</time>
      </trkpt>
      <trkpt lat="48.48651" lon="6.90297">
        <ele>406.707</ele>
        <time>2009-10-28T10:15:55Z</time>
      </trkpt>
      <trkpt lat="48.4866" lon="6.90261">
        <ele>406.436</ele>
        <time>2009-10-28T10:16:02Z</time>
      </trkpt>
      <trkpt lat="48.48666" lon="6.9024">
        <ele>402.704</ele>
        <time>2009-10-28T10:16:07Z</time>
      </trkpt>
      <trkpt lat="48.48674" lon="6.90223">
        <ele>400.534</ele>
        <time>2009-10-28T10:16:12Z</time>
      </trkpt>
      <trkpt lat="48.48681" lon="6.9021">
        <ele>402.044</ele>
        <time>2009-10-28T10:16:17Z</time>
      </trkpt>
      <trkpt lat="48.48685" lon="6.90192">
        <ele>400.994</ele>
        <time>2009-10-28T10:16:22Z</time>
      </trkpt>
      <trkpt lat="48.48684" lon="6.90188">
        <ele>400.814</ele>
        <time>2009-10-28T10:16:23Z</time>
      </trkpt>
      <trkpt lat="48.48688" lon="6.90159">
        <ele>402.325</ele>
        <time>2009-10-28T10:16:30Z</time>
      </trkpt>
      <trkpt lat="48.48683" lon="6.90128">
        <ele>403.957</ele>
        <time>2009-10-28T10:16:37Z</time>
      </trkpt>
      <trkpt lat="48.48677" lon="6.90108">
        <ele>408.027</ele>
        <time>2009-10-28T10:16:43Z</time>
      </trkpt>
      <trkpt lat="48.48672" lon="6.9009">
        <ele>409.578</ele>
        <time>2009-10-28T10:16:48Z</time>
      </trkpt>
      <trkpt lat="48.48671" lon="6.90074">
        <ele>406.956</ele>
        <time>2009-10-28T10:16:53Z</time>
      </trkpt>
      <trkpt lat="48.48669" lon="6.90053">
        <ele>406.306</ele>
        <time>2009-10-28T10:16:58Z</time>
      </trkpt>
      <trkpt lat="48.48666" lon="6.90019">
        <ele>406.806</ele>
        <time>2009-10-28T10:17:06Z</time>
      </trkpt>
      <trkpt lat="48.48664" lon="6.89995">
        <ele>406.466</ele>
        <time>2009-10-28T10:17:12Z</time>
      </trkpt>
      <trkpt lat="48.48667" lon="6.89974">
        <ele>404.235</ele>
        <time>2009-10-28T10:17:17Z</time>
      </trkpt>
      <trkpt lat="48.48682" lon="6.89938">
        <ele>403.175</ele>
        <time>2009-10-28T10:17:24Z</time>
      </trkpt>
      <trkpt lat="48.48693" lon="6.89916">
        <ele>401.995</ele>
        <time>2009-10-28T10:17:29Z</time>
      </trkpt>
      <trkpt lat="48.487" lon="6.89892">
        <ele>400.445</ele>
        <time>2009-10-28T10:17:34Z</time>
      </trkpt>
      <trkpt lat="48.487" lon="6.89889">
        <ele>400.085</ele>
        <time>2009-10-28T10:17:35Z</time>
      </trkpt>
      <trkpt lat="48.48713" lon="6.89868">
        <ele>398.133</ele>
        <time>2009-10-28T10:17:41Z</time>
      </trkpt>
      <trkpt lat="48.4873" lon="6.89846">
        <ele>395.994</ele>
        <time>2009-10-28T10:17:46Z</time>
      </trkpt>
      <trkpt lat="48.48736" lon="6.89837">
        <ele>394.654</ele>
        <time>2009-10-28T10:17:48Z</time>
      </trkpt>
      <trkpt lat="48.4876" lon="6.89812">
        <ele>393.354</ele>
        <time>2009-10-28T10:17:54Z</time>
      </trkpt>
      <trkpt lat="48.48786" lon="6.89786">
        <ele>394.355</ele>
        <time>2009-10-28T10:18:00Z</time>
      </trkpt>
      <trkpt lat="48.48813" lon="6.89754">
        <ele>390.213</ele>
        <time>2009-10-28T10:18:06Z</time>
      </trkpt>
      <trkpt lat="48.48844" lon="6.89716">
        <ele>386.063</ele>
        <time>2009-10-28T10:18:11Z</time>
      </trkpt>
      <trkpt lat="48.48878" lon="6.8967">
        <ele>379.5</ele>
        <time>2009-10-28T10:18:16Z</time>
      </trkpt>
      <trkpt lat="48.48903" lon="6.8963">
        <ele>375.261</ele>
        <time>2009-10-28T10:18:20Z</time>
      </trkpt>
      <trkpt lat="48.48911" lon="6.89611">
        <ele>373.931</ele>
        <time>2009-10-28T10:18:22Z</time>
      </trkpt>
      <trkpt lat="48.4893" lon="6.89595">
        <ele>367.97</ele>
        <time>2009-10-28T10:18:26Z</time>
      </trkpt>
      <trkpt lat="48.48942" lon="6.896">
        <ele>365.89</ele>
        <time>2009-10-28T10:18:28Z</time>
      </trkpt>
      <trkpt lat="48.48986" lon="6.89617">
        <ele>363.713</ele>
        <time>2009-10-28T10:18:35Z</time>
      </trkpt>
      <trkpt lat="48.49022" lon="6.89629">
        <ele>362.323</ele>
        <time>2009-10-28T10:18:40Z</time>
      </trkpt>
      <trkpt lat="48.49054" lon="6.89655">
        <ele>362.325</ele>
        <time>2009-10-28T10:18:45Z</time>
      </trkpt>
      <trkpt lat="48.49069" lon="6.89676">
        <ele>362.086</ele>
        <time>2009-10-28T10:18:49Z</time>
      </trkpt>
      <trkpt lat="48.4907" lon="6.89676">
        <ele>362.642</ele>
        <time>2009-10-28T10:18:52Z</time>
      </trkpt>
      <trkpt lat="48.49074" lon="6.89683">
        <ele>363.125</ele>
        <time>2009-10-28T10:18:56Z</time>
      </trkpt>
      <trkpt lat="48.49088" lon="6.897">
        <ele>362.805</ele>
        <time>2009-10-28T10:19:00Z</time>
      </trkpt>
      <trkpt lat="48.49093" lon="6.89706">
        <ele>363.144</ele>
        <time>2009-10-28T10:19:01Z</time>
      </trkpt>
      <trkpt lat="48.49127" lon="6.89745">
        <ele>362.455</ele>
        <time>2009-10-28T10:19:08Z</time>
      </trkpt>
      <trkpt lat="48.4916" lon="6.89775">
        <ele>358.594</ele>
        <time>2009-10-28T10:19:13Z</time>
      </trkpt>
      <trkpt lat="48.49201" lon="6.89809">
        <ele>349.271</ele>
        <time>2009-10-28T10:19:18Z</time>
      </trkpt>
      <trkpt lat="48.49236" lon="6.89845">
        <ele>345.652</ele>
        <time>2009-10-28T10:19:22Z</time>
      </trkpt>
      <trkpt lat="48.49243" lon="6.89853">
        <ele>344.102</ele>
        <time>2009-10-28T10:19:23Z</time>
      </trkpt>
      <trkpt lat="48.49285" lon="6.89879">
        <ele>338.692</ele>
        <time>2009-10-28T10:19:28Z</time>
      </trkpt>
      <trkpt lat="48.4931" lon="6.89892">
        <ele>335.692</ele>
        <time>2009-10-28T10:19:31Z</time>
      </trkpt>
      <trkpt lat="48.49327" lon="6.89918">
        <ele>333.442</ele>
        <time>2009-10-28T10:19:34Z</time>
      </trkpt>
      <trkpt lat="48.49331" lon="6.89955">
        <ele>331.412</ele>
        <time>2009-10-28T10:19:37Z</time>
      </trkpt>
      <trkpt lat="48.49321" lon="6.90039">
        <ele>330.106</ele>
        <time>2009-10-28T10:19:44Z</time>
      </trkpt>
      <trkpt lat="48.49321" lon="6.90051">
        <ele>331.166</ele>
        <time>2009-10-28T10:19:45Z</time>
      </trkpt>
      <trkpt lat="48.49335" lon="6.90101">
        <ele>332.666</ele>
        <time>2009-10-28T10:19:50Z</time>
      </trkpt>
      <trkpt lat="48.49352" lon="6.90134">
        <ele>330.886</ele>
        <time>2009-10-28T10:19:54Z</time>
      </trkpt>
      <trkpt lat="48.49358" lon="6.90141">
        <ele>330.576</ele>
        <time>2009-10-28T10:19:55Z</time>
      </trkpt>
      <trkpt lat="48.49376" lon="6.90159">
        <ele>329.756</ele>
        <time>2009-10-28T10:19:58Z</time>
      </trkpt>
      <trkpt lat="48.49401" lon="6.90166">
        <ele>329.386</ele>
        <time>2009-10-28T10:20:02Z</time>
      </trkpt>
      <trkpt lat="48.49417" lon="6.90154">
        <ele>329.247</ele>
        <time>2009-10-28T10:20:05Z</time>
      </trkpt>
      <trkpt lat="48.49447" lon="6.9012">
        <ele>329.697</ele>
        <time>2009-10-28T10:20:12Z</time>
      </trkpt>
      <trkpt lat="48.49477" lon="6.90096">
        <ele>332.187</ele>
        <time>2009-10-28T10:20:19Z</time>
      </trkpt>
      <trkpt lat="48.4949" lon="6.90083">
        <ele>333.046</ele>
        <time>2009-10-28T10:20:22Z</time>
      </trkpt>
      <trkpt lat="48.49528" lon="6.90032">
        <ele>335.466</ele>
        <time>2009-10-28T10:20:31Z</time>
      </trkpt>
      <trkpt lat="48.49567" lon="6.8998">
        <ele>339.047</ele>
        <time>2009-10-28T10:20:40Z</time>
      </trkpt>
      <trkpt lat="48.49577" lon="6.89968">
        <ele>339.647</ele>
        <time>2009-10-28T10:20:42Z</time>
      </trkpt>
      <trkpt lat="48.49606" lon="6.89943">
        <ele>339.196</ele>
        <time>2009-10-28T10:20:47Z</time>
      </trkpt>
      <trkpt lat="48.49648" lon="6.8989">
        <ele>340.056</ele>
        <time>2009-10-28T10:20:54Z</time>
      </trkpt>
      <trkpt lat="48.49683" lon="6.89839">
        <ele>338.925</ele>
        <time>2009-10-28T10:21:00Z</time>
      </trkpt>
      <trkpt lat="48.49712" lon="6.89808">
        <ele>342.416</ele>
        <time>2009-10-28T10:21:04Z</time>
      </trkpt>
      <trkpt lat="48.49741" lon="6.89781">
        <ele>340.856</ele>
        <time>2009-10-28T10:21:09Z</time>
      </trkpt>
      <trkpt lat="48.49745" lon="6.89754">
        <ele>338.585</ele>
        <time>2009-10-28T10:21:12Z</time>
      </trkpt>
      <trkpt lat="48.49748" lon="6.89738">
        <ele>337.925</ele>
        <time>2009-10-28T10:21:14Z</time>
      </trkpt>
      <trkpt lat="48.49748" lon="6.89724">
        <ele>336.495</ele>
        <time>2009-10-28T10:21:16Z</time>
      </trkpt>
      <trkpt lat="48.49753" lon="6.89704">
        <ele>333.804</ele>
        <time>2009-10-28T10:21:20Z</time>
      </trkpt>
      <trkpt lat="48.49755" lon="6.89688">
        <ele>329.544</ele>
        <time>2009-10-28T10:21:25Z</time>
      </trkpt>
      <trkpt lat="48.49752" lon="6.89668">
        <ele>330.536</ele>
        <time>2009-10-28T10:21:28Z</time>
      </trkpt>
      <trkpt lat="48.49748" lon="6.8964">
        <ele>329.046</ele>
        <time>2009-10-28T10:21:32Z</time>
      </trkpt>
      <trkpt lat="48.4974" lon="6.89599">
        <ele>326.626</ele>
        <time>2009-10-28T10:21:38Z</time>
      </trkpt>
      <trkpt lat="48.49727" lon="6.89574">
        <ele>327.488</ele>
        <time>2009-10-28T10:21:43Z</time>
      </trkpt>
      <trkpt lat="48.49718" lon="6.8958">
        <ele>328.508</ele>
        <time>2009-10-28T10:21:46Z</time>
      </trkpt>
      <trkpt lat="48.49709" lon="6.89593">
        <ele>328.027</ele>
        <time>2009-10-28T10:21:50Z</time>
      </trkpt>
      <trkpt lat="48.49709" lon="6.89595">
        <ele>327.947</ele>
        <time>2009-10-28T10:21:51Z</time>
      </trkpt>
      <trkpt lat="48.49709" lon="6.89596">
        <ele>328.101</ele>
        <time>2009-10-28T10:21:52Z</time>
      </trkpt>
      <trkpt lat="48.4971" lon="6.89598">
        <ele>328.304</ele>
        <time>2009-10-28T10:21:55Z</time>
      </trkpt>
    </trkseg>
  </trk>
</gpx>